<?xml version="1.0" encoding="UTF-8" standalone="no" ?>
<gpx xmlns="http://www.topografix.com/GPX/1/1" xmlns:xsi="http://www.w3.org/2001/XMLSchema-instance" xsi:schemaLocation="http://www.topografix.com/GPX/1/1 http://www.topografix.com/GPX/1/1/gpx.xsd" version="1.1" creator="VisuGPX - https://www.visugpx.com">
  <metadata>
    <name>Valempoulières-La fontaine du fou-Les érennes</name>
  </metadata>
  <trk>
    <name><![CDATA[Valempoulières-La fontaine du fou-Les érennes_1]]></name>
    <extensions>
      <line xmlns="http://www.topografix.com/GPX/gpx_style/0/2">
        <color>0000FF</color>
        <width>4</width>
      </line>
    </extensions>
    <trkseg>
      <trkpt lat="46.82514" lon="5.86265">
        <ele>667</ele>
        <time>2022-03-17T08:00:23Z</time>
      </trkpt>
      <trkpt lat="46.82511" lon="5.86269">
        <ele>660.1</ele>
        <time>2022-03-17T08:00:30Z</time>
      </trkpt>
      <trkpt lat="46.82511" lon="5.86276">
        <ele>654.2</ele>
        <time>2022-03-17T08:01:57Z</time>
      </trkpt>
      <trkpt lat="46.82514" lon="5.86283">
        <ele>654.7</ele>
        <time>2022-03-17T08:02:11Z</time>
      </trkpt>
      <trkpt lat="46.82517" lon="5.86289">
        <ele>655.2</ele>
        <time>2022-03-17T08:02:16Z</time>
      </trkpt>
      <trkpt lat="46.82522" lon="5.86292">
        <ele>655.3</ele>
        <time>2022-03-17T08:02:27Z</time>
      </trkpt>
      <trkpt lat="46.82525" lon="5.86296">
        <ele>655.5</ele>
        <time>2022-03-17T08:02:33Z</time>
      </trkpt>
      <trkpt lat="46.82531" lon="5.86298">
        <ele>656.6</ele>
        <time>2022-03-17T08:02:40Z</time>
      </trkpt>
      <trkpt lat="46.82535" lon="5.86296">
        <ele>656.2</ele>
        <time>2022-03-17T08:02:44Z</time>
      </trkpt>
      <trkpt lat="46.82541" lon="5.86294">
        <ele>655.1</ele>
        <time>2022-03-17T08:02:49Z</time>
      </trkpt>
      <trkpt lat="46.82544" lon="5.86288">
        <ele>652.7</ele>
        <time>2022-03-17T08:03:00Z</time>
      </trkpt>
      <trkpt lat="46.82549" lon="5.86289">
        <ele>652.5</ele>
        <time>2022-03-17T08:03:06Z</time>
      </trkpt>
      <trkpt lat="46.82555" lon="5.86288">
        <ele>653.8</ele>
        <time>2022-03-17T08:03:09Z</time>
      </trkpt>
      <trkpt lat="46.8256" lon="5.86286">
        <ele>654.9</ele>
        <time>2022-03-17T08:03:12Z</time>
      </trkpt>
      <trkpt lat="46.82565" lon="5.86284">
        <ele>655.8</ele>
        <time>2022-03-17T08:03:16Z</time>
      </trkpt>
      <trkpt lat="46.82569" lon="5.86282">
        <ele>656.9</ele>
        <time>2022-03-17T08:03:23Z</time>
      </trkpt>
      <trkpt lat="46.82575" lon="5.86282">
        <ele>657.6</ele>
        <time>2022-03-17T08:03:30Z</time>
      </trkpt>
      <trkpt lat="46.8258" lon="5.86281">
        <ele>657.7</ele>
        <time>2022-03-17T08:03:35Z</time>
      </trkpt>
      <trkpt lat="46.82585" lon="5.8628">
        <ele>657</ele>
        <time>2022-03-17T08:03:40Z</time>
      </trkpt>
      <trkpt lat="46.82591" lon="5.86279">
        <ele>656.2</ele>
        <time>2022-03-17T08:03:45Z</time>
      </trkpt>
      <trkpt lat="46.82596" lon="5.86278">
        <ele>655.7</ele>
        <time>2022-03-17T08:03:50Z</time>
      </trkpt>
      <trkpt lat="46.826" lon="5.86274">
        <ele>654.8</ele>
        <time>2022-03-17T08:03:56Z</time>
      </trkpt>
      <trkpt lat="46.82604" lon="5.8627">
        <ele>653.7</ele>
        <time>2022-03-17T08:04:01Z</time>
      </trkpt>
      <trkpt lat="46.82609" lon="5.86268">
        <ele>652.4</ele>
        <time>2022-03-17T08:04:06Z</time>
      </trkpt>
      <trkpt lat="46.82613" lon="5.86265">
        <ele>651.9</ele>
        <time>2022-03-17T08:04:10Z</time>
      </trkpt>
      <trkpt lat="46.82618" lon="5.86261">
        <ele>651.7</ele>
        <time>2022-03-17T08:04:14Z</time>
      </trkpt>
      <trkpt lat="46.82623" lon="5.86261">
        <ele>651.4</ele>
        <time>2022-03-17T08:04:20Z</time>
      </trkpt>
      <trkpt lat="46.82627" lon="5.8626">
        <ele>650.9</ele>
        <time>2022-03-17T08:04:25Z</time>
      </trkpt>
      <trkpt lat="46.82633" lon="5.86258">
        <ele>650.6</ele>
        <time>2022-03-17T08:04:30Z</time>
      </trkpt>
      <trkpt lat="46.82638" lon="5.86257">
        <ele>650.1</ele>
        <time>2022-03-17T08:04:34Z</time>
      </trkpt>
      <trkpt lat="46.82643" lon="5.86255">
        <ele>649.6</ele>
        <time>2022-03-17T08:04:38Z</time>
      </trkpt>
      <trkpt lat="46.82648" lon="5.86253">
        <ele>648.9</ele>
        <time>2022-03-17T08:04:44Z</time>
      </trkpt>
      <trkpt lat="46.82653" lon="5.86251">
        <ele>648.3</ele>
        <time>2022-03-17T08:04:50Z</time>
      </trkpt>
      <trkpt lat="46.82658" lon="5.86249">
        <ele>646.6</ele>
        <time>2022-03-17T08:04:55Z</time>
      </trkpt>
      <trkpt lat="46.82663" lon="5.86248">
        <ele>645.2</ele>
        <time>2022-03-17T08:04:59Z</time>
      </trkpt>
      <trkpt lat="46.82668" lon="5.86248">
        <ele>643.9</ele>
        <time>2022-03-17T08:05:03Z</time>
      </trkpt>
      <trkpt lat="46.82673" lon="5.86249">
        <ele>643.1</ele>
        <time>2022-03-17T08:05:07Z</time>
      </trkpt>
      <trkpt lat="46.82678" lon="5.86251">
        <ele>642.8</ele>
        <time>2022-03-17T08:05:11Z</time>
      </trkpt>
      <trkpt lat="46.82682" lon="5.86253">
        <ele>642.9</ele>
        <time>2022-03-17T08:05:16Z</time>
      </trkpt>
      <trkpt lat="46.82688" lon="5.86256">
        <ele>643.1</ele>
        <time>2022-03-17T08:05:21Z</time>
      </trkpt>
      <trkpt lat="46.82693" lon="5.86259">
        <ele>643.5</ele>
        <time>2022-03-17T08:05:25Z</time>
      </trkpt>
      <trkpt lat="46.82698" lon="5.86262">
        <ele>643.6</ele>
        <time>2022-03-17T08:05:29Z</time>
      </trkpt>
      <trkpt lat="46.82701" lon="5.86267">
        <ele>643.4</ele>
        <time>2022-03-17T08:05:35Z</time>
      </trkpt>
      <trkpt lat="46.82705" lon="5.86273">
        <ele>642.8</ele>
        <time>2022-03-17T08:05:40Z</time>
      </trkpt>
      <trkpt lat="46.82709" lon="5.86277">
        <ele>642.4</ele>
        <time>2022-03-17T08:05:44Z</time>
      </trkpt>
      <trkpt lat="46.82713" lon="5.86282">
        <ele>642.2</ele>
        <time>2022-03-17T08:05:48Z</time>
      </trkpt>
      <trkpt lat="46.82717" lon="5.86287">
        <ele>641.8</ele>
        <time>2022-03-17T08:05:53Z</time>
      </trkpt>
      <trkpt lat="46.82721" lon="5.8629">
        <ele>641</ele>
        <time>2022-03-17T08:05:57Z</time>
      </trkpt>
      <trkpt lat="46.82725" lon="5.86293">
        <ele>640.3</ele>
        <time>2022-03-17T08:06:00Z</time>
      </trkpt>
      <trkpt lat="46.82729" lon="5.86296">
        <ele>639.4</ele>
        <time>2022-03-17T08:06:04Z</time>
      </trkpt>
      <trkpt lat="46.82733" lon="5.863">
        <ele>639.1</ele>
        <time>2022-03-17T08:06:09Z</time>
      </trkpt>
      <trkpt lat="46.82738" lon="5.86302">
        <ele>639.5</ele>
        <time>2022-03-17T08:06:14Z</time>
      </trkpt>
      <trkpt lat="46.82743" lon="5.86305">
        <ele>640.5</ele>
        <time>2022-03-17T08:06:19Z</time>
      </trkpt>
      <trkpt lat="46.82748" lon="5.86308">
        <ele>642.1</ele>
        <time>2022-03-17T08:06:24Z</time>
      </trkpt>
      <trkpt lat="46.82753" lon="5.86311">
        <ele>643.5</ele>
        <time>2022-03-17T08:06:29Z</time>
      </trkpt>
      <trkpt lat="46.82758" lon="5.86313">
        <ele>644.3</ele>
        <time>2022-03-17T08:06:33Z</time>
      </trkpt>
      <trkpt lat="46.82762" lon="5.86316">
        <ele>645</ele>
        <time>2022-03-17T08:06:37Z</time>
      </trkpt>
      <trkpt lat="46.82768" lon="5.86318">
        <ele>645.7</ele>
        <time>2022-03-17T08:06:42Z</time>
      </trkpt>
      <trkpt lat="46.82773" lon="5.86321">
        <ele>646.3</ele>
        <time>2022-03-17T08:06:47Z</time>
      </trkpt>
      <trkpt lat="46.82778" lon="5.86323">
        <ele>646.6</ele>
        <time>2022-03-17T08:06:51Z</time>
      </trkpt>
      <trkpt lat="46.82783" lon="5.86326">
        <ele>646.3</ele>
        <time>2022-03-17T08:06:56Z</time>
      </trkpt>
      <trkpt lat="46.82787" lon="5.86326">
        <ele>646.1</ele>
        <time>2022-03-17T08:07:00Z</time>
      </trkpt>
      <trkpt lat="46.82792" lon="5.86326">
        <ele>646.2</ele>
        <time>2022-03-17T08:07:04Z</time>
      </trkpt>
      <trkpt lat="46.82797" lon="5.86326">
        <ele>646.8</ele>
        <time>2022-03-17T08:07:08Z</time>
      </trkpt>
      <trkpt lat="46.82802" lon="5.86326">
        <ele>647.2</ele>
        <time>2022-03-17T08:07:12Z</time>
      </trkpt>
      <trkpt lat="46.82808" lon="5.86328">
        <ele>647.7</ele>
        <time>2022-03-17T08:07:16Z</time>
      </trkpt>
      <trkpt lat="46.82813" lon="5.8633">
        <ele>647.8</ele>
        <time>2022-03-17T08:07:21Z</time>
      </trkpt>
      <trkpt lat="46.82818" lon="5.86334">
        <ele>647.2</ele>
        <time>2022-03-17T08:07:27Z</time>
      </trkpt>
      <trkpt lat="46.82822" lon="5.86336">
        <ele>647.2</ele>
        <time>2022-03-17T08:07:31Z</time>
      </trkpt>
      <trkpt lat="46.82828" lon="5.86338">
        <ele>647.4</ele>
        <time>2022-03-17T08:07:35Z</time>
      </trkpt>
      <trkpt lat="46.82832" lon="5.86341">
        <ele>647.3</ele>
        <time>2022-03-17T08:07:39Z</time>
      </trkpt>
      <trkpt lat="46.82837" lon="5.86344">
        <ele>646.8</ele>
        <time>2022-03-17T08:07:43Z</time>
      </trkpt>
      <trkpt lat="46.82842" lon="5.86346">
        <ele>646.8</ele>
        <time>2022-03-17T08:07:47Z</time>
      </trkpt>
      <trkpt lat="46.82846" lon="5.86348">
        <ele>647.2</ele>
        <time>2022-03-17T08:07:51Z</time>
      </trkpt>
      <trkpt lat="46.82851" lon="5.8635">
        <ele>647.5</ele>
        <time>2022-03-17T08:07:55Z</time>
      </trkpt>
      <trkpt lat="46.82855" lon="5.86352">
        <ele>647.3</ele>
        <time>2022-03-17T08:07:59Z</time>
      </trkpt>
      <trkpt lat="46.8286" lon="5.86354">
        <ele>647.1</ele>
        <time>2022-03-17T08:08:03Z</time>
      </trkpt>
      <trkpt lat="46.82865" lon="5.86356">
        <ele>646.8</ele>
        <time>2022-03-17T08:08:08Z</time>
      </trkpt>
      <trkpt lat="46.8287" lon="5.86358">
        <ele>647.6</ele>
        <time>2022-03-17T08:08:15Z</time>
      </trkpt>
      <trkpt lat="46.82876" lon="5.86357">
        <ele>647.7</ele>
        <time>2022-03-17T08:08:20Z</time>
      </trkpt>
      <trkpt lat="46.8288" lon="5.86356">
        <ele>647.4</ele>
        <time>2022-03-17T08:08:23Z</time>
      </trkpt>
      <trkpt lat="46.82885" lon="5.86353">
        <ele>647</ele>
        <time>2022-03-17T08:08:28Z</time>
      </trkpt>
      <trkpt lat="46.82889" lon="5.8635">
        <ele>647.2</ele>
        <time>2022-03-17T08:08:33Z</time>
      </trkpt>
      <trkpt lat="46.82894" lon="5.86346">
        <ele>647.4</ele>
        <time>2022-03-17T08:08:38Z</time>
      </trkpt>
      <trkpt lat="46.82896" lon="5.8634">
        <ele>647.5</ele>
        <time>2022-03-17T08:08:42Z</time>
      </trkpt>
      <trkpt lat="46.82897" lon="5.86333">
        <ele>647.3</ele>
        <time>2022-03-17T08:08:46Z</time>
      </trkpt>
      <trkpt lat="46.82899" lon="5.86327">
        <ele>647</ele>
        <time>2022-03-17T08:08:50Z</time>
      </trkpt>
      <trkpt lat="46.82901" lon="5.8632">
        <ele>646.7</ele>
        <time>2022-03-17T08:08:55Z</time>
      </trkpt>
      <trkpt lat="46.82901" lon="5.86313">
        <ele>647</ele>
        <time>2022-03-17T08:09:01Z</time>
      </trkpt>
      <trkpt lat="46.82901" lon="5.86306">
        <ele>646.8</ele>
        <time>2022-03-17T08:09:04Z</time>
      </trkpt>
      <trkpt lat="46.82902" lon="5.86299">
        <ele>646.4</ele>
        <time>2022-03-17T08:09:07Z</time>
      </trkpt>
      <trkpt lat="46.82903" lon="5.86292">
        <ele>645.9</ele>
        <time>2022-03-17T08:09:10Z</time>
      </trkpt>
      <trkpt lat="46.82903" lon="5.86285">
        <ele>645</ele>
        <time>2022-03-17T08:09:14Z</time>
      </trkpt>
      <trkpt lat="46.82903" lon="5.86278">
        <ele>644.3</ele>
        <time>2022-03-17T08:09:18Z</time>
      </trkpt>
      <trkpt lat="46.82903" lon="5.86271">
        <ele>643.8</ele>
        <time>2022-03-17T08:09:22Z</time>
      </trkpt>
      <trkpt lat="46.82903" lon="5.86264">
        <ele>643.1</ele>
        <time>2022-03-17T08:09:26Z</time>
      </trkpt>
      <trkpt lat="46.82905" lon="5.86257">
        <ele>642.4</ele>
        <time>2022-03-17T08:09:31Z</time>
      </trkpt>
      <trkpt lat="46.82907" lon="5.86251">
        <ele>642.3</ele>
        <time>2022-03-17T08:09:36Z</time>
      </trkpt>
      <trkpt lat="46.8291" lon="5.86246">
        <ele>641.8</ele>
        <time>2022-03-17T08:09:41Z</time>
      </trkpt>
      <trkpt lat="46.82912" lon="5.86238">
        <ele>641.4</ele>
        <time>2022-03-17T08:09:47Z</time>
      </trkpt>
      <trkpt lat="46.82914" lon="5.86232">
        <ele>641.3</ele>
        <time>2022-03-17T08:09:52Z</time>
      </trkpt>
      <trkpt lat="46.82917" lon="5.86226">
        <ele>640.9</ele>
        <time>2022-03-17T08:09:57Z</time>
      </trkpt>
      <trkpt lat="46.82916" lon="5.86219">
        <ele>640.5</ele>
        <time>2022-03-17T08:10:04Z</time>
      </trkpt>
      <trkpt lat="46.82915" lon="5.86212">
        <ele>640.2</ele>
        <time>2022-03-17T08:10:09Z</time>
      </trkpt>
      <trkpt lat="46.82917" lon="5.86205">
        <ele>639.7</ele>
        <time>2022-03-17T08:10:16Z</time>
      </trkpt>
      <trkpt lat="46.82919" lon="5.86199">
        <ele>638.7</ele>
        <time>2022-03-17T08:10:24Z</time>
      </trkpt>
      <trkpt lat="46.82915" lon="5.86193">
        <ele>638.2</ele>
        <time>2022-03-17T08:10:29Z</time>
      </trkpt>
      <trkpt lat="46.82911" lon="5.86189">
        <ele>637.9</ele>
        <time>2022-03-17T08:10:33Z</time>
      </trkpt>
      <trkpt lat="46.82907" lon="5.86185">
        <ele>637.6</ele>
        <time>2022-03-17T08:10:38Z</time>
      </trkpt>
      <trkpt lat="46.82903" lon="5.8618">
        <ele>637.7</ele>
        <time>2022-03-17T08:10:45Z</time>
      </trkpt>
      <trkpt lat="46.82899" lon="5.86176">
        <ele>637.6</ele>
        <time>2022-03-17T08:10:51Z</time>
      </trkpt>
      <trkpt lat="46.82897" lon="5.86169">
        <ele>637.7</ele>
        <time>2022-03-17T08:10:57Z</time>
      </trkpt>
      <trkpt lat="46.82893" lon="5.86164">
        <ele>638.4</ele>
        <time>2022-03-17T08:11:03Z</time>
      </trkpt>
      <trkpt lat="46.82891" lon="5.86158">
        <ele>638.7</ele>
        <time>2022-03-17T08:11:10Z</time>
      </trkpt>
      <trkpt lat="46.82888" lon="5.86152">
        <ele>638.8</ele>
        <time>2022-03-17T08:11:15Z</time>
      </trkpt>
      <trkpt lat="46.82885" lon="5.86147">
        <ele>639.1</ele>
        <time>2022-03-17T08:11:19Z</time>
      </trkpt>
      <trkpt lat="46.82882" lon="5.86143">
        <ele>639.4</ele>
        <time>2022-03-17T08:11:23Z</time>
      </trkpt>
      <trkpt lat="46.82879" lon="5.86137">
        <ele>639.8</ele>
        <time>2022-03-17T08:11:30Z</time>
      </trkpt>
      <trkpt lat="46.82877" lon="5.86127">
        <ele>640.3</ele>
        <time>2022-03-17T08:11:46Z</time>
      </trkpt>
      <trkpt lat="46.82875" lon="5.86121">
        <ele>640.4</ele>
        <time>2022-03-17T08:11:49Z</time>
      </trkpt>
      <trkpt lat="46.82871" lon="5.86116">
        <ele>641.1</ele>
        <time>2022-03-17T08:11:53Z</time>
      </trkpt>
      <trkpt lat="46.82868" lon="5.8611">
        <ele>642</ele>
        <time>2022-03-17T08:11:59Z</time>
      </trkpt>
      <trkpt lat="46.82864" lon="5.86105">
        <ele>642.7</ele>
        <time>2022-03-17T08:12:05Z</time>
      </trkpt>
      <trkpt lat="46.82859" lon="5.86098">
        <ele>643.8</ele>
        <time>2022-03-17T08:12:22Z</time>
      </trkpt>
      <trkpt lat="46.82856" lon="5.86092">
        <ele>644.3</ele>
        <time>2022-03-17T08:12:26Z</time>
      </trkpt>
      <trkpt lat="46.82853" lon="5.86086">
        <ele>645</ele>
        <time>2022-03-17T08:12:32Z</time>
      </trkpt>
      <trkpt lat="46.82851" lon="5.86081">
        <ele>646.2</ele>
        <time>2022-03-17T08:12:38Z</time>
      </trkpt>
      <trkpt lat="46.82848" lon="5.86074">
        <ele>648.2</ele>
        <time>2022-03-17T08:12:45Z</time>
      </trkpt>
      <trkpt lat="46.82849" lon="5.86067">
        <ele>650.7</ele>
        <time>2022-03-17T08:12:59Z</time>
      </trkpt>
      <trkpt lat="46.82854" lon="5.86064">
        <ele>652.7</ele>
        <time>2022-03-17T08:13:06Z</time>
      </trkpt>
      <trkpt lat="46.82858" lon="5.86061">
        <ele>653.7</ele>
        <time>2022-03-17T08:13:12Z</time>
      </trkpt>
      <trkpt lat="46.82862" lon="5.86058">
        <ele>654.4</ele>
        <time>2022-03-17T08:13:18Z</time>
      </trkpt>
      <trkpt lat="46.82867" lon="5.86056">
        <ele>655</ele>
        <time>2022-03-17T08:13:23Z</time>
      </trkpt>
      <trkpt lat="46.82872" lon="5.86055">
        <ele>655.8</ele>
        <time>2022-03-17T08:13:29Z</time>
      </trkpt>
      <trkpt lat="46.82877" lon="5.86055">
        <ele>656.3</ele>
        <time>2022-03-17T08:13:33Z</time>
      </trkpt>
      <trkpt lat="46.82882" lon="5.86053">
        <ele>657.2</ele>
        <time>2022-03-17T08:13:38Z</time>
      </trkpt>
      <trkpt lat="46.82887" lon="5.86053">
        <ele>658.4</ele>
        <time>2022-03-17T08:13:44Z</time>
      </trkpt>
      <trkpt lat="46.82889" lon="5.86047">
        <ele>658.4</ele>
        <time>2022-03-17T08:13:51Z</time>
      </trkpt>
      <trkpt lat="46.82893" lon="5.86043">
        <ele>658.7</ele>
        <time>2022-03-17T08:13:57Z</time>
      </trkpt>
      <trkpt lat="46.82897" lon="5.86038">
        <ele>659.6</ele>
        <time>2022-03-17T08:14:02Z</time>
      </trkpt>
      <trkpt lat="46.829" lon="5.86033">
        <ele>660.6</ele>
        <time>2022-03-17T08:14:06Z</time>
      </trkpt>
      <trkpt lat="46.82903" lon="5.86026">
        <ele>662</ele>
        <time>2022-03-17T08:14:10Z</time>
      </trkpt>
      <trkpt lat="46.82906" lon="5.8602">
        <ele>663.5</ele>
        <time>2022-03-17T08:14:14Z</time>
      </trkpt>
      <trkpt lat="46.82909" lon="5.86014">
        <ele>665.3</ele>
        <time>2022-03-17T08:14:19Z</time>
      </trkpt>
      <trkpt lat="46.82913" lon="5.86009">
        <ele>664.1</ele>
        <time>2022-03-17T08:14:29Z</time>
      </trkpt>
      <trkpt lat="46.82913" lon="5.86002">
        <ele>663</ele>
        <time>2022-03-17T08:14:34Z</time>
      </trkpt>
      <trkpt lat="46.82915" lon="5.85995">
        <ele>663.2</ele>
        <time>2022-03-17T08:14:38Z</time>
      </trkpt>
      <trkpt lat="46.82916" lon="5.85988">
        <ele>663.9</ele>
        <time>2022-03-17T08:14:42Z</time>
      </trkpt>
      <trkpt lat="46.82916" lon="5.8598">
        <ele>664.7</ele>
        <time>2022-03-17T08:14:46Z</time>
      </trkpt>
      <trkpt lat="46.82914" lon="5.85973">
        <ele>665.9</ele>
        <time>2022-03-17T08:14:50Z</time>
      </trkpt>
      <trkpt lat="46.82912" lon="5.85966">
        <ele>667.6</ele>
        <time>2022-03-17T08:14:56Z</time>
      </trkpt>
      <trkpt lat="46.82907" lon="5.85965">
        <ele>668.3</ele>
        <time>2022-03-17T08:15:06Z</time>
      </trkpt>
      <trkpt lat="46.82906" lon="5.85973">
        <ele>667.5</ele>
        <time>2022-03-17T08:15:13Z</time>
      </trkpt>
      <trkpt lat="46.82906" lon="5.8598">
        <ele>666.5</ele>
        <time>2022-03-17T08:15:20Z</time>
      </trkpt>
      <trkpt lat="46.82905" lon="5.85987">
        <ele>667</ele>
        <time>2022-03-17T08:15:26Z</time>
      </trkpt>
      <trkpt lat="46.82905" lon="5.85994">
        <ele>668.2</ele>
        <time>2022-03-17T08:15:33Z</time>
      </trkpt>
      <trkpt lat="46.82903" lon="5.86">
        <ele>670.8</ele>
        <time>2022-03-17T08:15:41Z</time>
      </trkpt>
      <trkpt lat="46.82898" lon="5.86">
        <ele>672.9</ele>
        <time>2022-03-17T08:15:49Z</time>
      </trkpt>
      <trkpt lat="46.82894" lon="5.85996">
        <ele>674.2</ele>
        <time>2022-03-17T08:15:57Z</time>
      </trkpt>
      <trkpt lat="46.8289" lon="5.85991">
        <ele>675.3</ele>
        <time>2022-03-17T08:16:03Z</time>
      </trkpt>
      <trkpt lat="46.82886" lon="5.85989">
        <ele>676.7</ele>
        <time>2022-03-17T08:16:10Z</time>
      </trkpt>
      <trkpt lat="46.82881" lon="5.85986">
        <ele>677</ele>
        <time>2022-03-17T08:16:16Z</time>
      </trkpt>
      <trkpt lat="46.82877" lon="5.85985">
        <ele>677.4</ele>
        <time>2022-03-17T08:16:21Z</time>
      </trkpt>
      <trkpt lat="46.82872" lon="5.85985">
        <ele>678.2</ele>
        <time>2022-03-17T08:16:26Z</time>
      </trkpt>
      <trkpt lat="46.82867" lon="5.85984">
        <ele>678.8</ele>
        <time>2022-03-17T08:16:31Z</time>
      </trkpt>
      <trkpt lat="46.82862" lon="5.85983">
        <ele>679.4</ele>
        <time>2022-03-17T08:16:36Z</time>
      </trkpt>
      <trkpt lat="46.82857" lon="5.8598">
        <ele>680.3</ele>
        <time>2022-03-17T08:16:41Z</time>
      </trkpt>
      <trkpt lat="46.82854" lon="5.85975">
        <ele>681.5</ele>
        <time>2022-03-17T08:16:49Z</time>
      </trkpt>
      <trkpt lat="46.82851" lon="5.8597">
        <ele>683.1</ele>
        <time>2022-03-17T08:16:55Z</time>
      </trkpt>
      <trkpt lat="46.82847" lon="5.85965">
        <ele>684.8</ele>
        <time>2022-03-17T08:17:01Z</time>
      </trkpt>
      <trkpt lat="46.82842" lon="5.85962">
        <ele>686.8</ele>
        <time>2022-03-17T08:17:09Z</time>
      </trkpt>
      <trkpt lat="46.82838" lon="5.85959">
        <ele>687.5</ele>
        <time>2022-03-17T08:17:13Z</time>
      </trkpt>
      <trkpt lat="46.82833" lon="5.85958">
        <ele>688</ele>
        <time>2022-03-17T08:17:17Z</time>
      </trkpt>
      <trkpt lat="46.82828" lon="5.85957">
        <ele>688.4</ele>
        <time>2022-03-17T08:17:23Z</time>
      </trkpt>
      <trkpt lat="46.82824" lon="5.8596">
        <ele>688.8</ele>
        <time>2022-03-17T08:17:30Z</time>
      </trkpt>
      <trkpt lat="46.82822" lon="5.85966">
        <ele>689</ele>
        <time>2022-03-17T08:17:36Z</time>
      </trkpt>
      <trkpt lat="46.8282" lon="5.85973">
        <ele>689.1</ele>
        <time>2022-03-17T08:17:43Z</time>
      </trkpt>
      <trkpt lat="46.8282" lon="5.8598">
        <ele>689.4</ele>
        <time>2022-03-17T08:17:49Z</time>
      </trkpt>
      <trkpt lat="46.8282" lon="5.85987">
        <ele>689.8</ele>
        <time>2022-03-17T08:17:56Z</time>
      </trkpt>
      <trkpt lat="46.82819" lon="5.85994">
        <ele>690.3</ele>
        <time>2022-03-17T08:18:05Z</time>
      </trkpt>
      <trkpt lat="46.82818" lon="5.86001">
        <ele>690.3</ele>
        <time>2022-03-17T08:18:12Z</time>
      </trkpt>
      <trkpt lat="46.82816" lon="5.86007">
        <ele>690.1</ele>
        <time>2022-03-17T08:18:19Z</time>
      </trkpt>
      <trkpt lat="46.82819" lon="5.86001">
        <ele>688.3</ele>
        <time>2022-03-17T08:21:12Z</time>
      </trkpt>
      <trkpt lat="46.82815" lon="5.85995">
        <ele>685.4</ele>
        <time>2022-03-17T08:22:04Z</time>
      </trkpt>
      <trkpt lat="46.82811" lon="5.85994">
        <ele>685.1</ele>
        <time>2022-03-17T08:22:08Z</time>
      </trkpt>
      <trkpt lat="46.82811" lon="5.86003">
        <ele>683.8</ele>
        <time>2022-03-17T08:22:42Z</time>
      </trkpt>
      <trkpt lat="46.82816" lon="5.86">
        <ele>682.7</ele>
        <time>2022-03-17T08:23:29Z</time>
      </trkpt>
      <trkpt lat="46.82819" lon="5.85995">
        <ele>685.3</ele>
        <time>2022-03-17T08:23:57Z</time>
      </trkpt>
      <trkpt lat="46.82821" lon="5.85989">
        <ele>690.1</ele>
        <time>2022-03-17T08:26:15Z</time>
      </trkpt>
      <trkpt lat="46.8282" lon="5.85982">
        <ele>691.1</ele>
        <time>2022-03-17T08:26:24Z</time>
      </trkpt>
      <trkpt lat="46.82819" lon="5.85975">
        <ele>691.8</ele>
        <time>2022-03-17T08:26:31Z</time>
      </trkpt>
      <trkpt lat="46.8282" lon="5.85968">
        <ele>692.3</ele>
        <time>2022-03-17T08:26:37Z</time>
      </trkpt>
      <trkpt lat="46.82822" lon="5.85962">
        <ele>692.4</ele>
        <time>2022-03-17T08:26:43Z</time>
      </trkpt>
      <trkpt lat="46.82826" lon="5.85958">
        <ele>692.4</ele>
        <time>2022-03-17T08:26:49Z</time>
      </trkpt>
      <trkpt lat="46.82831" lon="5.85956">
        <ele>691.8</ele>
        <time>2022-03-17T08:26:56Z</time>
      </trkpt>
      <trkpt lat="46.82835" lon="5.85956">
        <ele>691.2</ele>
        <time>2022-03-17T08:27:01Z</time>
      </trkpt>
      <trkpt lat="46.8284" lon="5.85957">
        <ele>690.8</ele>
        <time>2022-03-17T08:27:06Z</time>
      </trkpt>
      <trkpt lat="46.82844" lon="5.85959">
        <ele>690.6</ele>
        <time>2022-03-17T08:27:10Z</time>
      </trkpt>
      <trkpt lat="46.82849" lon="5.85963">
        <ele>690.1</ele>
        <time>2022-03-17T08:27:14Z</time>
      </trkpt>
      <trkpt lat="46.82853" lon="5.85967">
        <ele>689.4</ele>
        <time>2022-03-17T08:27:18Z</time>
      </trkpt>
      <trkpt lat="46.82857" lon="5.85971">
        <ele>688.2</ele>
        <time>2022-03-17T08:27:23Z</time>
      </trkpt>
      <trkpt lat="46.82861" lon="5.85975">
        <ele>687.4</ele>
        <time>2022-03-17T08:27:28Z</time>
      </trkpt>
      <trkpt lat="46.82866" lon="5.85978">
        <ele>687.1</ele>
        <time>2022-03-17T08:27:34Z</time>
      </trkpt>
      <trkpt lat="46.82871" lon="5.8598">
        <ele>686.2</ele>
        <time>2022-03-17T08:27:43Z</time>
      </trkpt>
      <trkpt lat="46.82875" lon="5.85982">
        <ele>685.5</ele>
        <time>2022-03-17T08:27:49Z</time>
      </trkpt>
      <trkpt lat="46.82879" lon="5.85987">
        <ele>684.4</ele>
        <time>2022-03-17T08:27:55Z</time>
      </trkpt>
      <trkpt lat="46.82883" lon="5.8599">
        <ele>682.4</ele>
        <time>2022-03-17T08:28:03Z</time>
      </trkpt>
      <trkpt lat="46.82887" lon="5.85996">
        <ele>678.9</ele>
        <time>2022-03-17T08:28:12Z</time>
      </trkpt>
      <trkpt lat="46.82893" lon="5.85998">
        <ele>677.1</ele>
        <time>2022-03-17T08:28:17Z</time>
      </trkpt>
      <trkpt lat="46.82897" lon="5.85997">
        <ele>675.3</ele>
        <time>2022-03-17T08:28:23Z</time>
      </trkpt>
      <trkpt lat="46.829" lon="5.8599">
        <ele>673.9</ele>
        <time>2022-03-17T08:28:29Z</time>
      </trkpt>
      <trkpt lat="46.829" lon="5.85983">
        <ele>672.9</ele>
        <time>2022-03-17T08:28:34Z</time>
      </trkpt>
      <trkpt lat="46.82901" lon="5.85976">
        <ele>672.1</ele>
        <time>2022-03-17T08:28:41Z</time>
      </trkpt>
      <trkpt lat="46.82903" lon="5.85969">
        <ele>672.1</ele>
        <time>2022-03-17T08:28:47Z</time>
      </trkpt>
      <trkpt lat="46.82907" lon="5.85965">
        <ele>672.2</ele>
        <time>2022-03-17T08:28:54Z</time>
      </trkpt>
      <trkpt lat="46.82911" lon="5.85969">
        <ele>672</ele>
        <time>2022-03-17T08:29:00Z</time>
      </trkpt>
      <trkpt lat="46.82916" lon="5.85973">
        <ele>671</ele>
        <time>2022-03-17T08:29:06Z</time>
      </trkpt>
      <trkpt lat="46.82919" lon="5.85978">
        <ele>670.3</ele>
        <time>2022-03-17T08:29:11Z</time>
      </trkpt>
      <trkpt lat="46.82924" lon="5.85976">
        <ele>669.8</ele>
        <time>2022-03-17T08:29:17Z</time>
      </trkpt>
      <trkpt lat="46.82925" lon="5.85969">
        <ele>669.7</ele>
        <time>2022-03-17T08:29:21Z</time>
      </trkpt>
      <trkpt lat="46.82924" lon="5.85961">
        <ele>669.3</ele>
        <time>2022-03-17T08:29:26Z</time>
      </trkpt>
      <trkpt lat="46.82923" lon="5.85954">
        <ele>668.5</ele>
        <time>2022-03-17T08:29:31Z</time>
      </trkpt>
      <trkpt lat="46.82923" lon="5.85947">
        <ele>667.5</ele>
        <time>2022-03-17T08:29:36Z</time>
      </trkpt>
      <trkpt lat="46.82922" lon="5.8594">
        <ele>666.5</ele>
        <time>2022-03-17T08:29:41Z</time>
      </trkpt>
      <trkpt lat="46.8292" lon="5.85933">
        <ele>664.9</ele>
        <time>2022-03-17T08:29:48Z</time>
      </trkpt>
      <trkpt lat="46.82918" lon="5.85926">
        <ele>664.1</ele>
        <time>2022-03-17T08:29:53Z</time>
      </trkpt>
      <trkpt lat="46.82916" lon="5.8592">
        <ele>663.5</ele>
        <time>2022-03-17T08:29:57Z</time>
      </trkpt>
      <trkpt lat="46.82914" lon="5.85913">
        <ele>663</ele>
        <time>2022-03-17T08:30:01Z</time>
      </trkpt>
      <trkpt lat="46.82911" lon="5.85906">
        <ele>662.3</ele>
        <time>2022-03-17T08:30:06Z</time>
      </trkpt>
      <trkpt lat="46.82908" lon="5.85901">
        <ele>661.5</ele>
        <time>2022-03-17T08:30:10Z</time>
      </trkpt>
      <trkpt lat="46.82906" lon="5.85894">
        <ele>660.5</ele>
        <time>2022-03-17T08:30:15Z</time>
      </trkpt>
      <trkpt lat="46.82904" lon="5.85887">
        <ele>660</ele>
        <time>2022-03-17T08:30:20Z</time>
      </trkpt>
      <trkpt lat="46.82902" lon="5.8588">
        <ele>659.9</ele>
        <time>2022-03-17T08:30:24Z</time>
      </trkpt>
      <trkpt lat="46.829" lon="5.85873">
        <ele>660.3</ele>
        <time>2022-03-17T08:30:28Z</time>
      </trkpt>
      <trkpt lat="46.82899" lon="5.85866">
        <ele>661</ele>
        <time>2022-03-17T08:30:33Z</time>
      </trkpt>
      <trkpt lat="46.82899" lon="5.85859">
        <ele>661.8</ele>
        <time>2022-03-17T08:30:38Z</time>
      </trkpt>
      <trkpt lat="46.82899" lon="5.85852">
        <ele>662.6</ele>
        <time>2022-03-17T08:30:42Z</time>
      </trkpt>
      <trkpt lat="46.82899" lon="5.85845">
        <ele>663.2</ele>
        <time>2022-03-17T08:30:46Z</time>
      </trkpt>
      <trkpt lat="46.829" lon="5.85838">
        <ele>663.6</ele>
        <time>2022-03-17T08:30:50Z</time>
      </trkpt>
      <trkpt lat="46.82902" lon="5.85832">
        <ele>664.2</ele>
        <time>2022-03-17T08:30:54Z</time>
      </trkpt>
      <trkpt lat="46.82904" lon="5.85826">
        <ele>665.7</ele>
        <time>2022-03-17T08:30:58Z</time>
      </trkpt>
      <trkpt lat="46.82907" lon="5.85819">
        <ele>667.7</ele>
        <time>2022-03-17T08:31:03Z</time>
      </trkpt>
      <trkpt lat="46.82908" lon="5.85812">
        <ele>668.5</ele>
        <time>2022-03-17T08:31:07Z</time>
      </trkpt>
      <trkpt lat="46.82908" lon="5.85805">
        <ele>668.9</ele>
        <time>2022-03-17T08:31:11Z</time>
      </trkpt>
      <trkpt lat="46.8291" lon="5.85799">
        <ele>669.4</ele>
        <time>2022-03-17T08:31:15Z</time>
      </trkpt>
      <trkpt lat="46.82912" lon="5.85793">
        <ele>669.4</ele>
        <time>2022-03-17T08:31:20Z</time>
      </trkpt>
      <trkpt lat="46.82912" lon="5.85785">
        <ele>669.1</ele>
        <time>2022-03-17T08:31:24Z</time>
      </trkpt>
      <trkpt lat="46.82912" lon="5.85778">
        <ele>668.8</ele>
        <time>2022-03-17T08:31:28Z</time>
      </trkpt>
      <trkpt lat="46.82913" lon="5.85772">
        <ele>668.6</ele>
        <time>2022-03-17T08:31:32Z</time>
      </trkpt>
      <trkpt lat="46.82913" lon="5.85764">
        <ele>667.9</ele>
        <time>2022-03-17T08:31:37Z</time>
      </trkpt>
      <trkpt lat="46.82915" lon="5.85756">
        <ele>666.8</ele>
        <time>2022-03-17T08:31:42Z</time>
      </trkpt>
      <trkpt lat="46.82915" lon="5.85748">
        <ele>665.7</ele>
        <time>2022-03-17T08:31:47Z</time>
      </trkpt>
      <trkpt lat="46.82916" lon="5.85741">
        <ele>665.1</ele>
        <time>2022-03-17T08:31:51Z</time>
      </trkpt>
      <trkpt lat="46.82918" lon="5.85735">
        <ele>664.5</ele>
        <time>2022-03-17T08:31:55Z</time>
      </trkpt>
      <trkpt lat="46.82919" lon="5.85727">
        <ele>663.9</ele>
        <time>2022-03-17T08:32:00Z</time>
      </trkpt>
      <trkpt lat="46.8292" lon="5.8572">
        <ele>663.5</ele>
        <time>2022-03-17T08:32:05Z</time>
      </trkpt>
      <trkpt lat="46.82922" lon="5.85714">
        <ele>663.1</ele>
        <time>2022-03-17T08:32:09Z</time>
      </trkpt>
      <trkpt lat="46.82923" lon="5.85706">
        <ele>662.7</ele>
        <time>2022-03-17T08:32:13Z</time>
      </trkpt>
      <trkpt lat="46.82924" lon="5.85698">
        <ele>662.3</ele>
        <time>2022-03-17T08:32:18Z</time>
      </trkpt>
      <trkpt lat="46.82925" lon="5.85691">
        <ele>661.9</ele>
        <time>2022-03-17T08:32:22Z</time>
      </trkpt>
      <trkpt lat="46.82926" lon="5.85684">
        <ele>661.7</ele>
        <time>2022-03-17T08:32:26Z</time>
      </trkpt>
      <trkpt lat="46.82928" lon="5.85678">
        <ele>661.9</ele>
        <time>2022-03-17T08:32:30Z</time>
      </trkpt>
      <trkpt lat="46.82929" lon="5.85671">
        <ele>662</ele>
        <time>2022-03-17T08:32:35Z</time>
      </trkpt>
      <trkpt lat="46.8293" lon="5.85663">
        <ele>662.1</ele>
        <time>2022-03-17T08:32:40Z</time>
      </trkpt>
      <trkpt lat="46.82931" lon="5.85656">
        <ele>662</ele>
        <time>2022-03-17T08:32:44Z</time>
      </trkpt>
      <trkpt lat="46.82933" lon="5.85649">
        <ele>661.4</ele>
        <time>2022-03-17T08:32:49Z</time>
      </trkpt>
      <trkpt lat="46.82934" lon="5.85643">
        <ele>661</ele>
        <time>2022-03-17T08:32:53Z</time>
      </trkpt>
      <trkpt lat="46.82935" lon="5.85634">
        <ele>661.6</ele>
        <time>2022-03-17T08:32:57Z</time>
      </trkpt>
      <trkpt lat="46.82936" lon="5.85626">
        <ele>662.7</ele>
        <time>2022-03-17T08:33:01Z</time>
      </trkpt>
      <trkpt lat="46.82936" lon="5.85617">
        <ele>663.6</ele>
        <time>2022-03-17T08:33:05Z</time>
      </trkpt>
      <trkpt lat="46.82937" lon="5.8561">
        <ele>664.5</ele>
        <time>2022-03-17T08:33:09Z</time>
      </trkpt>
      <trkpt lat="46.82938" lon="5.85603">
        <ele>665.6</ele>
        <time>2022-03-17T08:33:13Z</time>
      </trkpt>
      <trkpt lat="46.8294" lon="5.85597">
        <ele>666.2</ele>
        <time>2022-03-17T08:33:18Z</time>
      </trkpt>
      <trkpt lat="46.82942" lon="5.85591">
        <ele>666.3</ele>
        <time>2022-03-17T08:33:23Z</time>
      </trkpt>
      <trkpt lat="46.82945" lon="5.85585">
        <ele>666.3</ele>
        <time>2022-03-17T08:33:28Z</time>
      </trkpt>
      <trkpt lat="46.82949" lon="5.85579">
        <ele>666</ele>
        <time>2022-03-17T08:33:33Z</time>
      </trkpt>
      <trkpt lat="46.82952" lon="5.85573">
        <ele>665.1</ele>
        <time>2022-03-17T08:33:38Z</time>
      </trkpt>
      <trkpt lat="46.82954" lon="5.85567">
        <ele>663.8</ele>
        <time>2022-03-17T08:33:43Z</time>
      </trkpt>
      <trkpt lat="46.82956" lon="5.8556">
        <ele>662.6</ele>
        <time>2022-03-17T08:33:47Z</time>
      </trkpt>
      <trkpt lat="46.82959" lon="5.85554">
        <ele>660.9</ele>
        <time>2022-03-17T08:33:52Z</time>
      </trkpt>
      <trkpt lat="46.82961" lon="5.85547">
        <ele>659.9</ele>
        <time>2022-03-17T08:33:56Z</time>
      </trkpt>
      <trkpt lat="46.82963" lon="5.8554">
        <ele>659.3</ele>
        <time>2022-03-17T08:34:00Z</time>
      </trkpt>
      <trkpt lat="46.82966" lon="5.85534">
        <ele>659</ele>
        <time>2022-03-17T08:34:04Z</time>
      </trkpt>
      <trkpt lat="46.82967" lon="5.85527">
        <ele>658.8</ele>
        <time>2022-03-17T08:34:09Z</time>
      </trkpt>
      <trkpt lat="46.82969" lon="5.85519">
        <ele>658</ele>
        <time>2022-03-17T08:34:14Z</time>
      </trkpt>
      <trkpt lat="46.8297" lon="5.85513">
        <ele>657</ele>
        <time>2022-03-17T08:34:20Z</time>
      </trkpt>
      <trkpt lat="46.82973" lon="5.85507">
        <ele>657.2</ele>
        <time>2022-03-17T08:34:25Z</time>
      </trkpt>
      <trkpt lat="46.82975" lon="5.855">
        <ele>657.5</ele>
        <time>2022-03-17T08:34:30Z</time>
      </trkpt>
      <trkpt lat="46.82977" lon="5.85492">
        <ele>657.8</ele>
        <time>2022-03-17T08:34:34Z</time>
      </trkpt>
      <trkpt lat="46.82979" lon="5.85485">
        <ele>657.7</ele>
        <time>2022-03-17T08:34:38Z</time>
      </trkpt>
      <trkpt lat="46.82981" lon="5.85479">
        <ele>657.1</ele>
        <time>2022-03-17T08:34:43Z</time>
      </trkpt>
      <trkpt lat="46.82982" lon="5.85471">
        <ele>656.1</ele>
        <time>2022-03-17T08:34:48Z</time>
      </trkpt>
      <trkpt lat="46.82984" lon="5.85465">
        <ele>655.5</ele>
        <time>2022-03-17T08:34:52Z</time>
      </trkpt>
      <trkpt lat="46.82986" lon="5.85458">
        <ele>654.5</ele>
        <time>2022-03-17T08:34:57Z</time>
      </trkpt>
      <trkpt lat="46.82988" lon="5.85452">
        <ele>653.7</ele>
        <time>2022-03-17T08:35:01Z</time>
      </trkpt>
      <trkpt lat="46.8299" lon="5.85444">
        <ele>654.2</ele>
        <time>2022-03-17T08:35:06Z</time>
      </trkpt>
      <trkpt lat="46.82994" lon="5.85438">
        <ele>655.4</ele>
        <time>2022-03-17T08:35:11Z</time>
      </trkpt>
      <trkpt lat="46.82996" lon="5.85431">
        <ele>656.3</ele>
        <time>2022-03-17T08:35:16Z</time>
      </trkpt>
      <trkpt lat="46.82998" lon="5.85424">
        <ele>656.7</ele>
        <time>2022-03-17T08:35:20Z</time>
      </trkpt>
      <trkpt lat="46.83001" lon="5.85417">
        <ele>657</ele>
        <time>2022-03-17T08:35:24Z</time>
      </trkpt>
      <trkpt lat="46.83004" lon="5.85412">
        <ele>657.2</ele>
        <time>2022-03-17T08:35:28Z</time>
      </trkpt>
      <trkpt lat="46.83006" lon="5.85407">
        <ele>657.2</ele>
        <time>2022-03-17T08:35:32Z</time>
      </trkpt>
      <trkpt lat="46.83009" lon="5.85401">
        <ele>656.5</ele>
        <time>2022-03-17T08:35:37Z</time>
      </trkpt>
      <trkpt lat="46.83012" lon="5.85394">
        <ele>655.7</ele>
        <time>2022-03-17T08:35:41Z</time>
      </trkpt>
      <trkpt lat="46.83014" lon="5.85387">
        <ele>654.6</ele>
        <time>2022-03-17T08:35:46Z</time>
      </trkpt>
      <trkpt lat="46.83018" lon="5.85383">
        <ele>653.3</ele>
        <time>2022-03-17T08:35:52Z</time>
      </trkpt>
      <trkpt lat="46.8302" lon="5.85375">
        <ele>652.9</ele>
        <time>2022-03-17T08:35:57Z</time>
      </trkpt>
      <trkpt lat="46.83021" lon="5.85367">
        <ele>652.6</ele>
        <time>2022-03-17T08:36:01Z</time>
      </trkpt>
      <trkpt lat="46.83023" lon="5.8536">
        <ele>652.6</ele>
        <time>2022-03-17T08:36:05Z</time>
      </trkpt>
      <trkpt lat="46.83024" lon="5.85353">
        <ele>652.6</ele>
        <time>2022-03-17T08:36:09Z</time>
      </trkpt>
      <trkpt lat="46.83024" lon="5.85345">
        <ele>652.6</ele>
        <time>2022-03-17T08:36:13Z</time>
      </trkpt>
      <trkpt lat="46.83025" lon="5.85338">
        <ele>653</ele>
        <time>2022-03-17T08:36:18Z</time>
      </trkpt>
      <trkpt lat="46.83026" lon="5.8533">
        <ele>653.2</ele>
        <time>2022-03-17T08:36:23Z</time>
      </trkpt>
      <trkpt lat="46.83027" lon="5.85323">
        <ele>653.2</ele>
        <time>2022-03-17T08:36:27Z</time>
      </trkpt>
      <trkpt lat="46.83029" lon="5.85316">
        <ele>652.8</ele>
        <time>2022-03-17T08:36:31Z</time>
      </trkpt>
      <trkpt lat="46.83029" lon="5.85309">
        <ele>652.4</ele>
        <time>2022-03-17T08:36:36Z</time>
      </trkpt>
      <trkpt lat="46.83029" lon="5.85303">
        <ele>651.9</ele>
        <time>2022-03-17T08:36:40Z</time>
      </trkpt>
      <trkpt lat="46.83029" lon="5.85296">
        <ele>651.3</ele>
        <time>2022-03-17T08:36:44Z</time>
      </trkpt>
      <trkpt lat="46.83031" lon="5.85289">
        <ele>650</ele>
        <time>2022-03-17T08:36:49Z</time>
      </trkpt>
      <trkpt lat="46.83033" lon="5.85283">
        <ele>649</ele>
        <time>2022-03-17T08:36:53Z</time>
      </trkpt>
      <trkpt lat="46.83035" lon="5.85275">
        <ele>647.9</ele>
        <time>2022-03-17T08:36:58Z</time>
      </trkpt>
      <trkpt lat="46.83036" lon="5.85268">
        <ele>647.2</ele>
        <time>2022-03-17T08:37:02Z</time>
      </trkpt>
      <trkpt lat="46.83036" lon="5.85261">
        <ele>646.4</ele>
        <time>2022-03-17T08:37:06Z</time>
      </trkpt>
      <trkpt lat="46.83038" lon="5.85254">
        <ele>645.4</ele>
        <time>2022-03-17T08:37:10Z</time>
      </trkpt>
      <trkpt lat="46.83041" lon="5.85248">
        <ele>644.4</ele>
        <time>2022-03-17T08:37:15Z</time>
      </trkpt>
      <trkpt lat="46.83041" lon="5.8524">
        <ele>643.7</ele>
        <time>2022-03-17T08:37:20Z</time>
      </trkpt>
      <trkpt lat="46.8304" lon="5.85234">
        <ele>643.3</ele>
        <time>2022-03-17T08:37:23Z</time>
      </trkpt>
      <trkpt lat="46.8304" lon="5.85227">
        <ele>642.7</ele>
        <time>2022-03-17T08:37:27Z</time>
      </trkpt>
      <trkpt lat="46.8304" lon="5.8522">
        <ele>643.1</ele>
        <time>2022-03-17T08:37:31Z</time>
      </trkpt>
      <trkpt lat="46.8304" lon="5.85213">
        <ele>644.9</ele>
        <time>2022-03-17T08:37:35Z</time>
      </trkpt>
      <trkpt lat="46.83039" lon="5.85205">
        <ele>646.8</ele>
        <time>2022-03-17T08:37:39Z</time>
      </trkpt>
      <trkpt lat="46.83039" lon="5.85198">
        <ele>648.7</ele>
        <time>2022-03-17T08:37:43Z</time>
      </trkpt>
      <trkpt lat="46.8304" lon="5.85191">
        <ele>650.3</ele>
        <time>2022-03-17T08:37:47Z</time>
      </trkpt>
      <trkpt lat="46.8304" lon="5.85184">
        <ele>650.8</ele>
        <time>2022-03-17T08:37:51Z</time>
      </trkpt>
      <trkpt lat="46.83042" lon="5.85178">
        <ele>651.1</ele>
        <time>2022-03-17T08:37:55Z</time>
      </trkpt>
      <trkpt lat="46.83042" lon="5.8517">
        <ele>651.4</ele>
        <time>2022-03-17T08:38:00Z</time>
      </trkpt>
      <trkpt lat="46.83042" lon="5.85163">
        <ele>650.7</ele>
        <time>2022-03-17T08:38:05Z</time>
      </trkpt>
      <trkpt lat="46.83043" lon="5.85155">
        <ele>649.8</ele>
        <time>2022-03-17T08:38:09Z</time>
      </trkpt>
      <trkpt lat="46.83043" lon="5.85148">
        <ele>648.3</ele>
        <time>2022-03-17T08:38:13Z</time>
      </trkpt>
      <trkpt lat="46.83044" lon="5.85142">
        <ele>646.7</ele>
        <time>2022-03-17T08:38:18Z</time>
      </trkpt>
      <trkpt lat="46.83047" lon="5.85135">
        <ele>645.6</ele>
        <time>2022-03-17T08:38:23Z</time>
      </trkpt>
      <trkpt lat="46.83049" lon="5.85128">
        <ele>643.4</ele>
        <time>2022-03-17T08:38:29Z</time>
      </trkpt>
      <trkpt lat="46.8305" lon="5.85121">
        <ele>641.6</ele>
        <time>2022-03-17T08:38:34Z</time>
      </trkpt>
      <trkpt lat="46.83053" lon="5.85115">
        <ele>640</ele>
        <time>2022-03-17T08:38:38Z</time>
      </trkpt>
      <trkpt lat="46.83056" lon="5.85108">
        <ele>638.4</ele>
        <time>2022-03-17T08:38:43Z</time>
      </trkpt>
      <trkpt lat="46.83058" lon="5.85101">
        <ele>636.7</ele>
        <time>2022-03-17T08:38:48Z</time>
      </trkpt>
      <trkpt lat="46.83061" lon="5.85096">
        <ele>635.3</ele>
        <time>2022-03-17T08:38:53Z</time>
      </trkpt>
      <trkpt lat="46.83064" lon="5.8509">
        <ele>634.6</ele>
        <time>2022-03-17T08:38:58Z</time>
      </trkpt>
      <trkpt lat="46.83067" lon="5.85085">
        <ele>634.3</ele>
        <time>2022-03-17T08:39:03Z</time>
      </trkpt>
      <trkpt lat="46.83071" lon="5.8508">
        <ele>634.2</ele>
        <time>2022-03-17T08:39:08Z</time>
      </trkpt>
      <trkpt lat="46.83075" lon="5.85076">
        <ele>634.6</ele>
        <time>2022-03-17T08:39:12Z</time>
      </trkpt>
      <trkpt lat="46.83079" lon="5.85072">
        <ele>635.1</ele>
        <time>2022-03-17T08:39:16Z</time>
      </trkpt>
      <trkpt lat="46.83085" lon="5.85072">
        <ele>635.4</ele>
        <time>2022-03-17T08:39:20Z</time>
      </trkpt>
      <trkpt lat="46.8309" lon="5.85072">
        <ele>635.8</ele>
        <time>2022-03-17T08:39:26Z</time>
      </trkpt>
      <trkpt lat="46.83095" lon="5.85069">
        <ele>635.7</ele>
        <time>2022-03-17T08:39:31Z</time>
      </trkpt>
      <trkpt lat="46.83099" lon="5.85064">
        <ele>635.6</ele>
        <time>2022-03-17T08:39:35Z</time>
      </trkpt>
      <trkpt lat="46.83103" lon="5.85061">
        <ele>635.5</ele>
        <time>2022-03-17T08:39:38Z</time>
      </trkpt>
      <trkpt lat="46.83107" lon="5.85057">
        <ele>635.7</ele>
        <time>2022-03-17T08:39:41Z</time>
      </trkpt>
      <trkpt lat="46.83112" lon="5.85054">
        <ele>636.2</ele>
        <time>2022-03-17T08:39:46Z</time>
      </trkpt>
      <trkpt lat="46.83116" lon="5.8505">
        <ele>636.7</ele>
        <time>2022-03-17T08:39:50Z</time>
      </trkpt>
      <trkpt lat="46.83121" lon="5.85049">
        <ele>637</ele>
        <time>2022-03-17T08:39:55Z</time>
      </trkpt>
      <trkpt lat="46.83125" lon="5.85044">
        <ele>636.7</ele>
        <time>2022-03-17T08:40:00Z</time>
      </trkpt>
      <trkpt lat="46.83128" lon="5.85038">
        <ele>636</ele>
        <time>2022-03-17T08:40:05Z</time>
      </trkpt>
      <trkpt lat="46.83131" lon="5.85033">
        <ele>635.6</ele>
        <time>2022-03-17T08:40:10Z</time>
      </trkpt>
      <trkpt lat="46.83133" lon="5.85027">
        <ele>635.7</ele>
        <time>2022-03-17T08:40:14Z</time>
      </trkpt>
      <trkpt lat="46.83135" lon="5.85019">
        <ele>635.8</ele>
        <time>2022-03-17T08:40:18Z</time>
      </trkpt>
      <trkpt lat="46.83138" lon="5.85013">
        <ele>635.3</ele>
        <time>2022-03-17T08:40:23Z</time>
      </trkpt>
      <trkpt lat="46.8314" lon="5.85006">
        <ele>634.6</ele>
        <time>2022-03-17T08:40:27Z</time>
      </trkpt>
      <trkpt lat="46.83141" lon="5.85">
        <ele>634</ele>
        <time>2022-03-17T08:40:32Z</time>
      </trkpt>
      <trkpt lat="46.83142" lon="5.84992">
        <ele>633.6</ele>
        <time>2022-03-17T08:40:36Z</time>
      </trkpt>
      <trkpt lat="46.83146" lon="5.84988">
        <ele>633.5</ele>
        <time>2022-03-17T08:40:40Z</time>
      </trkpt>
      <trkpt lat="46.83151" lon="5.84987">
        <ele>633.7</ele>
        <time>2022-03-17T08:40:43Z</time>
      </trkpt>
      <trkpt lat="46.83155" lon="5.84985">
        <ele>634.5</ele>
        <time>2022-03-17T08:40:47Z</time>
      </trkpt>
      <trkpt lat="46.83158" lon="5.84979">
        <ele>635</ele>
        <time>2022-03-17T08:40:52Z</time>
      </trkpt>
      <trkpt lat="46.83159" lon="5.84972">
        <ele>635.4</ele>
        <time>2022-03-17T08:40:56Z</time>
      </trkpt>
      <trkpt lat="46.83159" lon="5.84964">
        <ele>636.4</ele>
        <time>2022-03-17T08:41:00Z</time>
      </trkpt>
      <trkpt lat="46.83158" lon="5.84955">
        <ele>637</ele>
        <time>2022-03-17T08:41:04Z</time>
      </trkpt>
      <trkpt lat="46.83155" lon="5.84947">
        <ele>637.1</ele>
        <time>2022-03-17T08:41:07Z</time>
      </trkpt>
      <trkpt lat="46.83153" lon="5.8494">
        <ele>636.9</ele>
        <time>2022-03-17T08:41:10Z</time>
      </trkpt>
      <trkpt lat="46.83151" lon="5.84934">
        <ele>636.4</ele>
        <time>2022-03-17T08:41:13Z</time>
      </trkpt>
      <trkpt lat="46.83152" lon="5.84926">
        <ele>635.4</ele>
        <time>2022-03-17T08:41:18Z</time>
      </trkpt>
      <trkpt lat="46.83152" lon="5.84919">
        <ele>634.8</ele>
        <time>2022-03-17T08:41:22Z</time>
      </trkpt>
      <trkpt lat="46.83153" lon="5.84912">
        <ele>634</ele>
        <time>2022-03-17T08:41:26Z</time>
      </trkpt>
      <trkpt lat="46.83155" lon="5.84904">
        <ele>633.2</ele>
        <time>2022-03-17T08:41:31Z</time>
      </trkpt>
      <trkpt lat="46.83157" lon="5.84899">
        <ele>632.8</ele>
        <time>2022-03-17T08:41:36Z</time>
      </trkpt>
      <trkpt lat="46.83161" lon="5.84894">
        <ele>632.8</ele>
        <time>2022-03-17T08:41:41Z</time>
      </trkpt>
      <trkpt lat="46.83164" lon="5.84888">
        <ele>632.7</ele>
        <time>2022-03-17T08:41:46Z</time>
      </trkpt>
      <trkpt lat="46.83166" lon="5.84881">
        <ele>632.6</ele>
        <time>2022-03-17T08:41:50Z</time>
      </trkpt>
      <trkpt lat="46.8317" lon="5.84876">
        <ele>632.2</ele>
        <time>2022-03-17T08:41:55Z</time>
      </trkpt>
      <trkpt lat="46.83173" lon="5.84871">
        <ele>631.7</ele>
        <time>2022-03-17T08:41:59Z</time>
      </trkpt>
      <trkpt lat="46.83175" lon="5.84865">
        <ele>630.6</ele>
        <time>2022-03-17T08:42:04Z</time>
      </trkpt>
      <trkpt lat="46.83178" lon="5.84859">
        <ele>629.6</ele>
        <time>2022-03-17T08:42:09Z</time>
      </trkpt>
      <trkpt lat="46.83181" lon="5.84853">
        <ele>628.8</ele>
        <time>2022-03-17T08:42:14Z</time>
      </trkpt>
      <trkpt lat="46.83185" lon="5.84847">
        <ele>628.2</ele>
        <time>2022-03-17T08:42:18Z</time>
      </trkpt>
      <trkpt lat="46.83187" lon="5.84841">
        <ele>627.8</ele>
        <time>2022-03-17T08:42:22Z</time>
      </trkpt>
      <trkpt lat="46.8319" lon="5.84835">
        <ele>627.4</ele>
        <time>2022-03-17T08:42:26Z</time>
      </trkpt>
      <trkpt lat="46.83192" lon="5.84829">
        <ele>627.1</ele>
        <time>2022-03-17T08:42:30Z</time>
      </trkpt>
      <trkpt lat="46.83195" lon="5.84824">
        <ele>627</ele>
        <time>2022-03-17T08:42:33Z</time>
      </trkpt>
      <trkpt lat="46.83198" lon="5.84818">
        <ele>626.9</ele>
        <time>2022-03-17T08:42:37Z</time>
      </trkpt>
      <trkpt lat="46.83199" lon="5.84809">
        <ele>626.7</ele>
        <time>2022-03-17T08:42:42Z</time>
      </trkpt>
      <trkpt lat="46.832" lon="5.84803">
        <ele>626.7</ele>
        <time>2022-03-17T08:42:45Z</time>
      </trkpt>
      <trkpt lat="46.83202" lon="5.84796">
        <ele>627</ele>
        <time>2022-03-17T08:42:49Z</time>
      </trkpt>
      <trkpt lat="46.83203" lon="5.84789">
        <ele>627.1</ele>
        <time>2022-03-17T08:42:54Z</time>
      </trkpt>
      <trkpt lat="46.83199" lon="5.84787">
        <ele>622.1</ele>
        <time>2022-03-17T08:44:25Z</time>
      </trkpt>
      <trkpt lat="46.83204" lon="5.84785">
        <ele>620.3</ele>
        <time>2022-03-17T08:45:01Z</time>
      </trkpt>
      <trkpt lat="46.83204" lon="5.84778">
        <ele>621.6</ele>
        <time>2022-03-17T08:46:12Z</time>
      </trkpt>
      <trkpt lat="46.83203" lon="5.84771">
        <ele>621.3</ele>
        <time>2022-03-17T08:46:17Z</time>
      </trkpt>
      <trkpt lat="46.83202" lon="5.84764">
        <ele>621</ele>
        <time>2022-03-17T08:46:23Z</time>
      </trkpt>
      <trkpt lat="46.83205" lon="5.84757">
        <ele>621.7</ele>
        <time>2022-03-17T08:46:32Z</time>
      </trkpt>
      <trkpt lat="46.83208" lon="5.84751">
        <ele>622</ele>
        <time>2022-03-17T08:46:40Z</time>
      </trkpt>
      <trkpt lat="46.83213" lon="5.84748">
        <ele>622.5</ele>
        <time>2022-03-17T08:46:45Z</time>
      </trkpt>
      <trkpt lat="46.83218" lon="5.84745">
        <ele>622.4</ele>
        <time>2022-03-17T08:46:50Z</time>
      </trkpt>
      <trkpt lat="46.83222" lon="5.84742">
        <ele>622</ele>
        <time>2022-03-17T08:46:55Z</time>
      </trkpt>
      <trkpt lat="46.83227" lon="5.84741">
        <ele>621.8</ele>
        <time>2022-03-17T08:47:00Z</time>
      </trkpt>
      <trkpt lat="46.83232" lon="5.84744">
        <ele>622.1</ele>
        <time>2022-03-17T08:47:05Z</time>
      </trkpt>
      <trkpt lat="46.83237" lon="5.84746">
        <ele>622.6</ele>
        <time>2022-03-17T08:47:09Z</time>
      </trkpt>
      <trkpt lat="46.83242" lon="5.84747">
        <ele>623</ele>
        <time>2022-03-17T08:47:14Z</time>
      </trkpt>
      <trkpt lat="46.83247" lon="5.84748">
        <ele>623.2</ele>
        <time>2022-03-17T08:47:18Z</time>
      </trkpt>
      <trkpt lat="46.83252" lon="5.84749">
        <ele>623.7</ele>
        <time>2022-03-17T08:47:23Z</time>
      </trkpt>
      <trkpt lat="46.83257" lon="5.84751">
        <ele>624.2</ele>
        <time>2022-03-17T08:47:29Z</time>
      </trkpt>
      <trkpt lat="46.83262" lon="5.84751">
        <ele>624.2</ele>
        <time>2022-03-17T08:47:35Z</time>
      </trkpt>
      <trkpt lat="46.83267" lon="5.84748">
        <ele>623.8</ele>
        <time>2022-03-17T08:47:40Z</time>
      </trkpt>
      <trkpt lat="46.8327" lon="5.84745">
        <ele>623.3</ele>
        <time>2022-03-17T08:47:45Z</time>
      </trkpt>
      <trkpt lat="46.83275" lon="5.84741">
        <ele>622.5</ele>
        <time>2022-03-17T08:47:51Z</time>
      </trkpt>
      <trkpt lat="46.8328" lon="5.8474">
        <ele>621.6</ele>
        <time>2022-03-17T08:47:56Z</time>
      </trkpt>
      <trkpt lat="46.83285" lon="5.8474">
        <ele>621</ele>
        <time>2022-03-17T08:48:00Z</time>
      </trkpt>
      <trkpt lat="46.8329" lon="5.8474">
        <ele>620.7</ele>
        <time>2022-03-17T08:48:05Z</time>
      </trkpt>
      <trkpt lat="46.83295" lon="5.84741">
        <ele>619.7</ele>
        <time>2022-03-17T08:48:10Z</time>
      </trkpt>
      <trkpt lat="46.833" lon="5.84741">
        <ele>618.8</ele>
        <time>2022-03-17T08:48:16Z</time>
      </trkpt>
      <trkpt lat="46.83305" lon="5.8474">
        <ele>618.8</ele>
        <time>2022-03-17T08:48:23Z</time>
      </trkpt>
      <trkpt lat="46.83309" lon="5.84737">
        <ele>618.5</ele>
        <time>2022-03-17T08:48:28Z</time>
      </trkpt>
      <trkpt lat="46.83313" lon="5.84732">
        <ele>618.4</ele>
        <time>2022-03-17T08:48:32Z</time>
      </trkpt>
      <trkpt lat="46.83316" lon="5.84728">
        <ele>618.9</ele>
        <time>2022-03-17T08:48:36Z</time>
      </trkpt>
      <trkpt lat="46.83319" lon="5.84721">
        <ele>619.7</ele>
        <time>2022-03-17T08:48:41Z</time>
      </trkpt>
      <trkpt lat="46.83321" lon="5.84714">
        <ele>621.6</ele>
        <time>2022-03-17T08:48:46Z</time>
      </trkpt>
      <trkpt lat="46.83326" lon="5.84713">
        <ele>623.5</ele>
        <time>2022-03-17T08:48:51Z</time>
      </trkpt>
      <trkpt lat="46.8333" lon="5.84708">
        <ele>625.3</ele>
        <time>2022-03-17T08:48:57Z</time>
      </trkpt>
      <trkpt lat="46.83333" lon="5.84703">
        <ele>626.7</ele>
        <time>2022-03-17T08:49:02Z</time>
      </trkpt>
      <trkpt lat="46.83337" lon="5.847">
        <ele>627.7</ele>
        <time>2022-03-17T08:49:07Z</time>
      </trkpt>
      <trkpt lat="46.83342" lon="5.84698">
        <ele>628.6</ele>
        <time>2022-03-17T08:49:14Z</time>
      </trkpt>
      <trkpt lat="46.83345" lon="5.84691">
        <ele>630.8</ele>
        <time>2022-03-17T08:49:33Z</time>
      </trkpt>
      <trkpt lat="46.83349" lon="5.84688">
        <ele>630.8</ele>
        <time>2022-03-17T08:49:37Z</time>
      </trkpt>
      <trkpt lat="46.83349" lon="5.8468">
        <ele>628.7</ele>
        <time>2022-03-17T08:49:56Z</time>
      </trkpt>
      <trkpt lat="46.83352" lon="5.84674">
        <ele>627.5</ele>
        <time>2022-03-17T08:50:03Z</time>
      </trkpt>
      <trkpt lat="46.83357" lon="5.84673">
        <ele>626.5</ele>
        <time>2022-03-17T08:50:11Z</time>
      </trkpt>
      <trkpt lat="46.83362" lon="5.84674">
        <ele>626</ele>
        <time>2022-03-17T08:50:15Z</time>
      </trkpt>
      <trkpt lat="46.83367" lon="5.84674">
        <ele>625.1</ele>
        <time>2022-03-17T08:50:20Z</time>
      </trkpt>
      <trkpt lat="46.83371" lon="5.84671">
        <ele>623.8</ele>
        <time>2022-03-17T08:50:27Z</time>
      </trkpt>
      <trkpt lat="46.83375" lon="5.84666">
        <ele>622.7</ele>
        <time>2022-03-17T08:50:33Z</time>
      </trkpt>
      <trkpt lat="46.83378" lon="5.8466">
        <ele>621.9</ele>
        <time>2022-03-17T08:50:38Z</time>
      </trkpt>
      <trkpt lat="46.83373" lon="5.84664">
        <ele>622.7</ele>
        <time>2022-03-17T08:51:11Z</time>
      </trkpt>
      <trkpt lat="46.83377" lon="5.84668">
        <ele>624.9</ele>
        <time>2022-03-17T08:51:19Z</time>
      </trkpt>
      <trkpt lat="46.83384" lon="5.84667">
        <ele>624.7</ele>
        <time>2022-03-17T08:51:26Z</time>
      </trkpt>
      <trkpt lat="46.83381" lon="5.84661">
        <ele>623.5</ele>
        <time>2022-03-17T08:51:40Z</time>
      </trkpt>
      <trkpt lat="46.83377" lon="5.84661">
        <ele>620.4</ele>
        <time>2022-03-17T08:52:09Z</time>
      </trkpt>
      <trkpt lat="46.83383" lon="5.84662">
        <ele>620.7</ele>
        <time>2022-03-17T08:52:18Z</time>
      </trkpt>
      <trkpt lat="46.83387" lon="5.8466">
        <ele>621.2</ele>
        <time>2022-03-17T08:52:21Z</time>
      </trkpt>
      <trkpt lat="46.83392" lon="5.84658">
        <ele>621.8</ele>
        <time>2022-03-17T08:52:25Z</time>
      </trkpt>
      <trkpt lat="46.83398" lon="5.84657">
        <ele>622.4</ele>
        <time>2022-03-17T08:52:29Z</time>
      </trkpt>
      <trkpt lat="46.83403" lon="5.84656">
        <ele>622.7</ele>
        <time>2022-03-17T08:52:33Z</time>
      </trkpt>
      <trkpt lat="46.83408" lon="5.84655">
        <ele>622.2</ele>
        <time>2022-03-17T08:52:40Z</time>
      </trkpt>
      <trkpt lat="46.83412" lon="5.84652">
        <ele>621.5</ele>
        <time>2022-03-17T08:52:45Z</time>
      </trkpt>
      <trkpt lat="46.83417" lon="5.84651">
        <ele>621.4</ele>
        <time>2022-03-17T08:52:48Z</time>
      </trkpt>
      <trkpt lat="46.83424" lon="5.8465">
        <ele>620.9</ele>
        <time>2022-03-17T08:52:51Z</time>
      </trkpt>
      <trkpt lat="46.8343" lon="5.84651">
        <ele>620.4</ele>
        <time>2022-03-17T08:52:54Z</time>
      </trkpt>
      <trkpt lat="46.83434" lon="5.84653">
        <ele>619.8</ele>
        <time>2022-03-17T08:52:57Z</time>
      </trkpt>
      <trkpt lat="46.83439" lon="5.84657">
        <ele>619.1</ele>
        <time>2022-03-17T08:53:01Z</time>
      </trkpt>
      <trkpt lat="46.83442" lon="5.84663">
        <ele>618.8</ele>
        <time>2022-03-17T08:53:06Z</time>
      </trkpt>
      <trkpt lat="46.83443" lon="5.84671">
        <ele>619.3</ele>
        <time>2022-03-17T08:53:11Z</time>
      </trkpt>
      <trkpt lat="46.83444" lon="5.84678">
        <ele>620.2</ele>
        <time>2022-03-17T08:53:16Z</time>
      </trkpt>
      <trkpt lat="46.83446" lon="5.84685">
        <ele>621.5</ele>
        <time>2022-03-17T08:53:21Z</time>
      </trkpt>
      <trkpt lat="46.83449" lon="5.84692">
        <ele>622.6</ele>
        <time>2022-03-17T08:53:26Z</time>
      </trkpt>
      <trkpt lat="46.83452" lon="5.84698">
        <ele>623</ele>
        <time>2022-03-17T08:53:32Z</time>
      </trkpt>
      <trkpt lat="46.83454" lon="5.84704">
        <ele>623.2</ele>
        <time>2022-03-17T08:53:40Z</time>
      </trkpt>
      <trkpt lat="46.83456" lon="5.84711">
        <ele>623</ele>
        <time>2022-03-17T08:53:46Z</time>
      </trkpt>
      <trkpt lat="46.83458" lon="5.84717">
        <ele>622.7</ele>
        <time>2022-03-17T08:53:51Z</time>
      </trkpt>
      <trkpt lat="46.83458" lon="5.84724">
        <ele>622.8</ele>
        <time>2022-03-17T08:53:55Z</time>
      </trkpt>
      <trkpt lat="46.83459" lon="5.84731">
        <ele>622.6</ele>
        <time>2022-03-17T08:53:59Z</time>
      </trkpt>
      <trkpt lat="46.83462" lon="5.84737">
        <ele>622.7</ele>
        <time>2022-03-17T08:54:03Z</time>
      </trkpt>
      <trkpt lat="46.83466" lon="5.84742">
        <ele>622.5</ele>
        <time>2022-03-17T08:54:08Z</time>
      </trkpt>
      <trkpt lat="46.8347" lon="5.84745">
        <ele>622.3</ele>
        <time>2022-03-17T08:54:12Z</time>
      </trkpt>
      <trkpt lat="46.83476" lon="5.84745">
        <ele>621.7</ele>
        <time>2022-03-17T08:54:16Z</time>
      </trkpt>
      <trkpt lat="46.83481" lon="5.84743">
        <ele>621.7</ele>
        <time>2022-03-17T08:54:20Z</time>
      </trkpt>
      <trkpt lat="46.83486" lon="5.8474">
        <ele>622</ele>
        <time>2022-03-17T08:54:23Z</time>
      </trkpt>
      <trkpt lat="46.83491" lon="5.84738">
        <ele>621.9</ele>
        <time>2022-03-17T08:54:26Z</time>
      </trkpt>
      <trkpt lat="46.83496" lon="5.84736">
        <ele>622.2</ele>
        <time>2022-03-17T08:54:31Z</time>
      </trkpt>
      <trkpt lat="46.83501" lon="5.84735">
        <ele>622.4</ele>
        <time>2022-03-17T08:54:38Z</time>
      </trkpt>
      <trkpt lat="46.83505" lon="5.8473">
        <ele>622.6</ele>
        <time>2022-03-17T08:54:44Z</time>
      </trkpt>
      <trkpt lat="46.83509" lon="5.84724">
        <ele>623.2</ele>
        <time>2022-03-17T08:54:49Z</time>
      </trkpt>
      <trkpt lat="46.83513" lon="5.84719">
        <ele>624.4</ele>
        <time>2022-03-17T08:54:55Z</time>
      </trkpt>
      <trkpt lat="46.83516" lon="5.84715">
        <ele>625.5</ele>
        <time>2022-03-17T08:55:00Z</time>
      </trkpt>
      <trkpt lat="46.8352" lon="5.84712">
        <ele>626.3</ele>
        <time>2022-03-17T08:55:04Z</time>
      </trkpt>
      <trkpt lat="46.83525" lon="5.84707">
        <ele>627</ele>
        <time>2022-03-17T08:55:08Z</time>
      </trkpt>
      <trkpt lat="46.8353" lon="5.84703">
        <ele>627.5</ele>
        <time>2022-03-17T08:55:12Z</time>
      </trkpt>
      <trkpt lat="46.83534" lon="5.84699">
        <ele>627.9</ele>
        <time>2022-03-17T08:55:16Z</time>
      </trkpt>
      <trkpt lat="46.83539" lon="5.84697">
        <ele>628</ele>
        <time>2022-03-17T08:55:20Z</time>
      </trkpt>
      <trkpt lat="46.83544" lon="5.84697">
        <ele>628.7</ele>
        <time>2022-03-17T08:55:25Z</time>
      </trkpt>
      <trkpt lat="46.83548" lon="5.84694">
        <ele>629.9</ele>
        <time>2022-03-17T08:55:31Z</time>
      </trkpt>
      <trkpt lat="46.83552" lon="5.84691">
        <ele>630.7</ele>
        <time>2022-03-17T08:55:36Z</time>
      </trkpt>
      <trkpt lat="46.83557" lon="5.84686">
        <ele>630.9</ele>
        <time>2022-03-17T08:55:41Z</time>
      </trkpt>
      <trkpt lat="46.83561" lon="5.84683">
        <ele>630.4</ele>
        <time>2022-03-17T08:55:45Z</time>
      </trkpt>
      <trkpt lat="46.83567" lon="5.84679">
        <ele>629.5</ele>
        <time>2022-03-17T08:55:49Z</time>
      </trkpt>
      <trkpt lat="46.83571" lon="5.84676">
        <ele>628.6</ele>
        <time>2022-03-17T08:55:53Z</time>
      </trkpt>
      <trkpt lat="46.83576" lon="5.84673">
        <ele>627.5</ele>
        <time>2022-03-17T08:55:57Z</time>
      </trkpt>
      <trkpt lat="46.83581" lon="5.8467">
        <ele>626.1</ele>
        <time>2022-03-17T08:56:01Z</time>
      </trkpt>
      <trkpt lat="46.83586" lon="5.84669">
        <ele>624.9</ele>
        <time>2022-03-17T08:56:05Z</time>
      </trkpt>
      <trkpt lat="46.8359" lon="5.84665">
        <ele>624.2</ele>
        <time>2022-03-17T08:56:09Z</time>
      </trkpt>
      <trkpt lat="46.83592" lon="5.84659">
        <ele>623.8</ele>
        <time>2022-03-17T08:56:14Z</time>
      </trkpt>
      <trkpt lat="46.83595" lon="5.84653">
        <ele>623.7</ele>
        <time>2022-03-17T08:56:19Z</time>
      </trkpt>
      <trkpt lat="46.836" lon="5.84649">
        <ele>623.5</ele>
        <time>2022-03-17T08:56:23Z</time>
      </trkpt>
      <trkpt lat="46.83604" lon="5.84644">
        <ele>623.1</ele>
        <time>2022-03-17T08:56:28Z</time>
      </trkpt>
      <trkpt lat="46.83608" lon="5.84641">
        <ele>623</ele>
        <time>2022-03-17T08:56:32Z</time>
      </trkpt>
      <trkpt lat="46.83613" lon="5.84638">
        <ele>623</ele>
        <time>2022-03-17T08:56:37Z</time>
      </trkpt>
      <trkpt lat="46.83617" lon="5.84635">
        <ele>623.1</ele>
        <time>2022-03-17T08:56:42Z</time>
      </trkpt>
      <trkpt lat="46.83622" lon="5.84633">
        <ele>622.9</ele>
        <time>2022-03-17T08:56:47Z</time>
      </trkpt>
      <trkpt lat="46.83626" lon="5.8463">
        <ele>622.1</ele>
        <time>2022-03-17T08:56:51Z</time>
      </trkpt>
      <trkpt lat="46.8363" lon="5.84626">
        <ele>621.1</ele>
        <time>2022-03-17T08:56:55Z</time>
      </trkpt>
      <trkpt lat="46.83633" lon="5.8462">
        <ele>620.3</ele>
        <time>2022-03-17T08:56:59Z</time>
      </trkpt>
      <trkpt lat="46.83636" lon="5.84613">
        <ele>619.9</ele>
        <time>2022-03-17T08:57:03Z</time>
      </trkpt>
      <trkpt lat="46.8364" lon="5.84608">
        <ele>619.7</ele>
        <time>2022-03-17T08:57:07Z</time>
      </trkpt>
      <trkpt lat="46.83643" lon="5.84602">
        <ele>620.1</ele>
        <time>2022-03-17T08:57:12Z</time>
      </trkpt>
      <trkpt lat="46.83646" lon="5.84597">
        <ele>620.7</ele>
        <time>2022-03-17T08:57:16Z</time>
      </trkpt>
      <trkpt lat="46.83649" lon="5.84591">
        <ele>622</ele>
        <time>2022-03-17T08:57:20Z</time>
      </trkpt>
      <trkpt lat="46.83653" lon="5.84588">
        <ele>623.4</ele>
        <time>2022-03-17T08:57:24Z</time>
      </trkpt>
      <trkpt lat="46.83658" lon="5.84586">
        <ele>624.8</ele>
        <time>2022-03-17T08:57:29Z</time>
      </trkpt>
      <trkpt lat="46.83662" lon="5.84584">
        <ele>625.9</ele>
        <time>2022-03-17T08:57:33Z</time>
      </trkpt>
      <trkpt lat="46.83667" lon="5.84581">
        <ele>626.8</ele>
        <time>2022-03-17T08:57:38Z</time>
      </trkpt>
      <trkpt lat="46.83671" lon="5.84577">
        <ele>627.1</ele>
        <time>2022-03-17T08:57:46Z</time>
      </trkpt>
      <trkpt lat="46.83675" lon="5.84582">
        <ele>626.8</ele>
        <time>2022-03-17T08:57:52Z</time>
      </trkpt>
      <trkpt lat="46.83679" lon="5.84585">
        <ele>626.3</ele>
        <time>2022-03-17T08:57:57Z</time>
      </trkpt>
      <trkpt lat="46.83682" lon="5.84592">
        <ele>625.7</ele>
        <time>2022-03-17T08:58:02Z</time>
      </trkpt>
      <trkpt lat="46.83685" lon="5.84597">
        <ele>625.2</ele>
        <time>2022-03-17T08:58:07Z</time>
      </trkpt>
      <trkpt lat="46.83687" lon="5.84605">
        <ele>624.8</ele>
        <time>2022-03-17T08:58:13Z</time>
      </trkpt>
      <trkpt lat="46.8369" lon="5.84611">
        <ele>624.5</ele>
        <time>2022-03-17T08:58:19Z</time>
      </trkpt>
      <trkpt lat="46.83694" lon="5.84613">
        <ele>623.9</ele>
        <time>2022-03-17T08:58:26Z</time>
      </trkpt>
      <trkpt lat="46.83696" lon="5.8462">
        <ele>623.7</ele>
        <time>2022-03-17T08:58:33Z</time>
      </trkpt>
      <trkpt lat="46.83691" lon="5.84622">
        <ele>623.6</ele>
        <time>2022-03-17T08:58:43Z</time>
      </trkpt>
      <trkpt lat="46.83687" lon="5.84625">
        <ele>628.8</ele>
        <time>2022-03-17T09:00:07Z</time>
      </trkpt>
      <trkpt lat="46.8369" lon="5.84619">
        <ele>630.8</ele>
        <time>2022-03-17T09:00:32Z</time>
      </trkpt>
      <trkpt lat="46.83689" lon="5.84613">
        <ele>632.2</ele>
        <time>2022-03-17T09:00:41Z</time>
      </trkpt>
      <trkpt lat="46.83689" lon="5.84605">
        <ele>633.5</ele>
        <time>2022-03-17T09:01:22Z</time>
      </trkpt>
      <trkpt lat="46.83685" lon="5.846">
        <ele>633.5</ele>
        <time>2022-03-17T09:01:28Z</time>
      </trkpt>
      <trkpt lat="46.83683" lon="5.84593">
        <ele>631.9</ele>
        <time>2022-03-17T09:01:37Z</time>
      </trkpt>
      <trkpt lat="46.83679" lon="5.8459">
        <ele>630.6</ele>
        <time>2022-03-17T09:01:43Z</time>
      </trkpt>
      <trkpt lat="46.83675" lon="5.84585">
        <ele>630.3</ele>
        <time>2022-03-17T09:01:48Z</time>
      </trkpt>
      <trkpt lat="46.83674" lon="5.84578">
        <ele>630.5</ele>
        <time>2022-03-17T09:01:54Z</time>
      </trkpt>
      <trkpt lat="46.83673" lon="5.84571">
        <ele>630.5</ele>
        <time>2022-03-17T09:01:57Z</time>
      </trkpt>
      <trkpt lat="46.83674" lon="5.84564">
        <ele>630.7</ele>
        <time>2022-03-17T09:02:01Z</time>
      </trkpt>
      <trkpt lat="46.83678" lon="5.8456">
        <ele>630.7</ele>
        <time>2022-03-17T09:02:10Z</time>
      </trkpt>
      <trkpt lat="46.83682" lon="5.84557">
        <ele>629.8</ele>
        <time>2022-03-17T09:02:16Z</time>
      </trkpt>
      <trkpt lat="46.83687" lon="5.84555">
        <ele>628.7</ele>
        <time>2022-03-17T09:02:22Z</time>
      </trkpt>
      <trkpt lat="46.83691" lon="5.84551">
        <ele>627.5</ele>
        <time>2022-03-17T09:02:27Z</time>
      </trkpt>
      <trkpt lat="46.83695" lon="5.84547">
        <ele>626.3</ele>
        <time>2022-03-17T09:02:31Z</time>
      </trkpt>
      <trkpt lat="46.83699" lon="5.84544">
        <ele>624.9</ele>
        <time>2022-03-17T09:02:36Z</time>
      </trkpt>
      <trkpt lat="46.83704" lon="5.84541">
        <ele>624.4</ele>
        <time>2022-03-17T09:02:41Z</time>
      </trkpt>
      <trkpt lat="46.83708" lon="5.84536">
        <ele>624</ele>
        <time>2022-03-17T09:02:47Z</time>
      </trkpt>
      <trkpt lat="46.83712" lon="5.84531">
        <ele>624</ele>
        <time>2022-03-17T09:02:52Z</time>
      </trkpt>
      <trkpt lat="46.83714" lon="5.84525">
        <ele>624.7</ele>
        <time>2022-03-17T09:02:57Z</time>
      </trkpt>
      <trkpt lat="46.83718" lon="5.84521">
        <ele>625.4</ele>
        <time>2022-03-17T09:03:04Z</time>
      </trkpt>
      <trkpt lat="46.83723" lon="5.84519">
        <ele>625.7</ele>
        <time>2022-03-17T09:03:09Z</time>
      </trkpt>
      <trkpt lat="46.83728" lon="5.8452">
        <ele>626.2</ele>
        <time>2022-03-17T09:03:14Z</time>
      </trkpt>
      <trkpt lat="46.83734" lon="5.84521">
        <ele>626</ele>
        <time>2022-03-17T09:03:18Z</time>
      </trkpt>
      <trkpt lat="46.83738" lon="5.84523">
        <ele>626.1</ele>
        <time>2022-03-17T09:03:23Z</time>
      </trkpt>
      <trkpt lat="46.83743" lon="5.8452">
        <ele>626.5</ele>
        <time>2022-03-17T09:03:31Z</time>
      </trkpt>
      <trkpt lat="46.83748" lon="5.84519">
        <ele>627.2</ele>
        <time>2022-03-17T09:03:37Z</time>
      </trkpt>
      <trkpt lat="46.83753" lon="5.8452">
        <ele>627.9</ele>
        <time>2022-03-17T09:03:41Z</time>
      </trkpt>
      <trkpt lat="46.83757" lon="5.84521">
        <ele>628</ele>
        <time>2022-03-17T09:03:45Z</time>
      </trkpt>
      <trkpt lat="46.83762" lon="5.84521">
        <ele>626.9</ele>
        <time>2022-03-17T09:03:51Z</time>
      </trkpt>
      <trkpt lat="46.83766" lon="5.84518">
        <ele>625</ele>
        <time>2022-03-17T09:03:58Z</time>
      </trkpt>
      <trkpt lat="46.83772" lon="5.84516">
        <ele>624.5</ele>
        <time>2022-03-17T09:04:04Z</time>
      </trkpt>
      <trkpt lat="46.83776" lon="5.84515">
        <ele>624.3</ele>
        <time>2022-03-17T09:04:09Z</time>
      </trkpt>
      <trkpt lat="46.83781" lon="5.84513">
        <ele>624.4</ele>
        <time>2022-03-17T09:04:12Z</time>
      </trkpt>
      <trkpt lat="46.83786" lon="5.84512">
        <ele>624.6</ele>
        <time>2022-03-17T09:04:16Z</time>
      </trkpt>
      <trkpt lat="46.83792" lon="5.84513">
        <ele>624.5</ele>
        <time>2022-03-17T09:04:21Z</time>
      </trkpt>
      <trkpt lat="46.83797" lon="5.84513">
        <ele>623.7</ele>
        <time>2022-03-17T09:04:25Z</time>
      </trkpt>
      <trkpt lat="46.83802" lon="5.84513">
        <ele>622.4</ele>
        <time>2022-03-17T09:04:29Z</time>
      </trkpt>
      <trkpt lat="46.83807" lon="5.84514">
        <ele>621.9</ele>
        <time>2022-03-17T09:04:34Z</time>
      </trkpt>
      <trkpt lat="46.83812" lon="5.84512">
        <ele>621.7</ele>
        <time>2022-03-17T09:04:38Z</time>
      </trkpt>
      <trkpt lat="46.83816" lon="5.84507">
        <ele>621.8</ele>
        <time>2022-03-17T09:04:43Z</time>
      </trkpt>
      <trkpt lat="46.83818" lon="5.84502">
        <ele>621.9</ele>
        <time>2022-03-17T09:04:48Z</time>
      </trkpt>
      <trkpt lat="46.83821" lon="5.84496">
        <ele>621.6</ele>
        <time>2022-03-17T09:04:52Z</time>
      </trkpt>
      <trkpt lat="46.83823" lon="5.8449">
        <ele>621.3</ele>
        <time>2022-03-17T09:04:56Z</time>
      </trkpt>
      <trkpt lat="46.83825" lon="5.84483">
        <ele>621.3</ele>
        <time>2022-03-17T09:05:02Z</time>
      </trkpt>
      <trkpt lat="46.83827" lon="5.84476">
        <ele>621.3</ele>
        <time>2022-03-17T09:05:07Z</time>
      </trkpt>
      <trkpt lat="46.83831" lon="5.8447">
        <ele>620.5</ele>
        <time>2022-03-17T09:05:12Z</time>
      </trkpt>
      <trkpt lat="46.83834" lon="5.84465">
        <ele>620.1</ele>
        <time>2022-03-17T09:05:17Z</time>
      </trkpt>
      <trkpt lat="46.83838" lon="5.8446">
        <ele>620.2</ele>
        <time>2022-03-17T09:05:21Z</time>
      </trkpt>
      <trkpt lat="46.8384" lon="5.84454">
        <ele>620.5</ele>
        <time>2022-03-17T09:05:27Z</time>
      </trkpt>
      <trkpt lat="46.83845" lon="5.84453">
        <ele>620.9</ele>
        <time>2022-03-17T09:05:34Z</time>
      </trkpt>
      <trkpt lat="46.8385" lon="5.84455">
        <ele>620.7</ele>
        <time>2022-03-17T09:05:39Z</time>
      </trkpt>
      <trkpt lat="46.83855" lon="5.84456">
        <ele>620.4</ele>
        <time>2022-03-17T09:05:44Z</time>
      </trkpt>
      <trkpt lat="46.83861" lon="5.84457">
        <ele>619.6</ele>
        <time>2022-03-17T09:05:50Z</time>
      </trkpt>
      <trkpt lat="46.83866" lon="5.84459">
        <ele>618.6</ele>
        <time>2022-03-17T09:05:55Z</time>
      </trkpt>
      <trkpt lat="46.83871" lon="5.8446">
        <ele>617.5</ele>
        <time>2022-03-17T09:06:00Z</time>
      </trkpt>
      <trkpt lat="46.83876" lon="5.84461">
        <ele>616.5</ele>
        <time>2022-03-17T09:06:05Z</time>
      </trkpt>
      <trkpt lat="46.83881" lon="5.84461">
        <ele>616</ele>
        <time>2022-03-17T09:06:09Z</time>
      </trkpt>
      <trkpt lat="46.83886" lon="5.84461">
        <ele>616.1</ele>
        <time>2022-03-17T09:06:12Z</time>
      </trkpt>
      <trkpt lat="46.83891" lon="5.84462">
        <ele>616.4</ele>
        <time>2022-03-17T09:06:15Z</time>
      </trkpt>
      <trkpt lat="46.83896" lon="5.84464">
        <ele>616.6</ele>
        <time>2022-03-17T09:06:19Z</time>
      </trkpt>
      <trkpt lat="46.83901" lon="5.84467">
        <ele>616.4</ele>
        <time>2022-03-17T09:06:27Z</time>
      </trkpt>
      <trkpt lat="46.83905" lon="5.84471">
        <ele>615.3</ele>
        <time>2022-03-17T09:06:33Z</time>
      </trkpt>
      <trkpt lat="46.83911" lon="5.84472">
        <ele>614.6</ele>
        <time>2022-03-17T09:06:37Z</time>
      </trkpt>
      <trkpt lat="46.83916" lon="5.84472">
        <ele>614.1</ele>
        <time>2022-03-17T09:06:41Z</time>
      </trkpt>
      <trkpt lat="46.8392" lon="5.84475">
        <ele>613.9</ele>
        <time>2022-03-17T09:06:47Z</time>
      </trkpt>
      <trkpt lat="46.83923" lon="5.84481">
        <ele>613.7</ele>
        <time>2022-03-17T09:06:52Z</time>
      </trkpt>
      <trkpt lat="46.83926" lon="5.84486">
        <ele>613.1</ele>
        <time>2022-03-17T09:06:57Z</time>
      </trkpt>
      <trkpt lat="46.83931" lon="5.84489">
        <ele>612.5</ele>
        <time>2022-03-17T09:07:03Z</time>
      </trkpt>
      <trkpt lat="46.83935" lon="5.84488">
        <ele>611.8</ele>
        <time>2022-03-17T09:07:12Z</time>
      </trkpt>
      <trkpt lat="46.83939" lon="5.84493">
        <ele>611.7</ele>
        <time>2022-03-17T09:07:20Z</time>
      </trkpt>
      <trkpt lat="46.83941" lon="5.845">
        <ele>611.4</ele>
        <time>2022-03-17T09:07:26Z</time>
      </trkpt>
      <trkpt lat="46.83945" lon="5.84504">
        <ele>611.2</ele>
        <time>2022-03-17T09:07:30Z</time>
      </trkpt>
      <trkpt lat="46.83947" lon="5.8451">
        <ele>610.9</ele>
        <time>2022-03-17T09:07:34Z</time>
      </trkpt>
      <trkpt lat="46.83949" lon="5.84516">
        <ele>610.4</ele>
        <time>2022-03-17T09:07:39Z</time>
      </trkpt>
      <trkpt lat="46.83952" lon="5.84523">
        <ele>610.6</ele>
        <time>2022-03-17T09:07:44Z</time>
      </trkpt>
      <trkpt lat="46.83953" lon="5.8453">
        <ele>611.3</ele>
        <time>2022-03-17T09:07:50Z</time>
      </trkpt>
      <trkpt lat="46.83957" lon="5.84535">
        <ele>612.6</ele>
        <time>2022-03-17T09:07:56Z</time>
      </trkpt>
      <trkpt lat="46.83961" lon="5.8454">
        <ele>613.4</ele>
        <time>2022-03-17T09:08:00Z</time>
      </trkpt>
      <trkpt lat="46.83963" lon="5.84546">
        <ele>614</ele>
        <time>2022-03-17T09:08:05Z</time>
      </trkpt>
      <trkpt lat="46.83962" lon="5.84554">
        <ele>614.4</ele>
        <time>2022-03-17T09:08:11Z</time>
      </trkpt>
      <trkpt lat="46.83964" lon="5.8456">
        <ele>615.2</ele>
        <time>2022-03-17T09:08:20Z</time>
      </trkpt>
      <trkpt lat="46.83966" lon="5.84566">
        <ele>616.1</ele>
        <time>2022-03-17T09:08:25Z</time>
      </trkpt>
      <trkpt lat="46.83968" lon="5.84573">
        <ele>616.8</ele>
        <time>2022-03-17T09:08:29Z</time>
      </trkpt>
      <trkpt lat="46.83972" lon="5.84578">
        <ele>617.9</ele>
        <time>2022-03-17T09:08:35Z</time>
      </trkpt>
      <trkpt lat="46.83975" lon="5.84582">
        <ele>619.4</ele>
        <time>2022-03-17T09:08:41Z</time>
      </trkpt>
      <trkpt lat="46.83977" lon="5.84589">
        <ele>619.7</ele>
        <time>2022-03-17T09:08:45Z</time>
      </trkpt>
      <trkpt lat="46.83977" lon="5.84597">
        <ele>619.5</ele>
        <time>2022-03-17T09:08:50Z</time>
      </trkpt>
      <trkpt lat="46.83977" lon="5.84604">
        <ele>619.7</ele>
        <time>2022-03-17T09:08:55Z</time>
      </trkpt>
      <trkpt lat="46.83979" lon="5.84611">
        <ele>620.2</ele>
        <time>2022-03-17T09:09:00Z</time>
      </trkpt>
      <trkpt lat="46.83983" lon="5.84616">
        <ele>620.6</ele>
        <time>2022-03-17T09:09:05Z</time>
      </trkpt>
      <trkpt lat="46.83987" lon="5.84619">
        <ele>620.6</ele>
        <time>2022-03-17T09:09:09Z</time>
      </trkpt>
      <trkpt lat="46.8399" lon="5.84624">
        <ele>619.8</ele>
        <time>2022-03-17T09:09:14Z</time>
      </trkpt>
      <trkpt lat="46.83994" lon="5.84629">
        <ele>616.5</ele>
        <time>2022-03-17T09:09:24Z</time>
      </trkpt>
      <trkpt lat="46.83997" lon="5.84636">
        <ele>616.3</ele>
        <time>2022-03-17T09:09:29Z</time>
      </trkpt>
      <trkpt lat="46.84" lon="5.84643">
        <ele>616.5</ele>
        <time>2022-03-17T09:09:34Z</time>
      </trkpt>
      <trkpt lat="46.84001" lon="5.84651">
        <ele>617</ele>
        <time>2022-03-17T09:09:40Z</time>
      </trkpt>
      <trkpt lat="46.84003" lon="5.84657">
        <ele>617.6</ele>
        <time>2022-03-17T09:09:47Z</time>
      </trkpt>
      <trkpt lat="46.84005" lon="5.84663">
        <ele>618.4</ele>
        <time>2022-03-17T09:09:54Z</time>
      </trkpt>
      <trkpt lat="46.84007" lon="5.84669">
        <ele>619.3</ele>
        <time>2022-03-17T09:09:58Z</time>
      </trkpt>
      <trkpt lat="46.84011" lon="5.84674">
        <ele>619.6</ele>
        <time>2022-03-17T09:10:04Z</time>
      </trkpt>
      <trkpt lat="46.8401" lon="5.8468">
        <ele>624.1</ele>
        <time>2022-03-17T09:10:36Z</time>
      </trkpt>
      <trkpt lat="46.84015" lon="5.84681">
        <ele>625.1</ele>
        <time>2022-03-17T09:10:39Z</time>
      </trkpt>
      <trkpt lat="46.8402" lon="5.84684">
        <ele>625.9</ele>
        <time>2022-03-17T09:10:43Z</time>
      </trkpt>
      <trkpt lat="46.84022" lon="5.8469">
        <ele>626.1</ele>
        <time>2022-03-17T09:10:49Z</time>
      </trkpt>
      <trkpt lat="46.8402" lon="5.84696">
        <ele>625.6</ele>
        <time>2022-03-17T09:10:54Z</time>
      </trkpt>
      <trkpt lat="46.84018" lon="5.84704">
        <ele>624.6</ele>
        <time>2022-03-17T09:10:59Z</time>
      </trkpt>
      <trkpt lat="46.84019" lon="5.84711">
        <ele>624.1</ele>
        <time>2022-03-17T09:11:04Z</time>
      </trkpt>
      <trkpt lat="46.84022" lon="5.84717">
        <ele>623.6</ele>
        <time>2022-03-17T09:11:10Z</time>
      </trkpt>
      <trkpt lat="46.84023" lon="5.84725">
        <ele>623.1</ele>
        <time>2022-03-17T09:11:16Z</time>
      </trkpt>
      <trkpt lat="46.84024" lon="5.84732">
        <ele>622.5</ele>
        <time>2022-03-17T09:11:22Z</time>
      </trkpt>
      <trkpt lat="46.84025" lon="5.8474">
        <ele>622.5</ele>
        <time>2022-03-17T09:11:27Z</time>
      </trkpt>
      <trkpt lat="46.84029" lon="5.8475">
        <ele>624.1</ele>
        <time>2022-03-17T09:11:41Z</time>
      </trkpt>
      <trkpt lat="46.84033" lon="5.84755">
        <ele>624.4</ele>
        <time>2022-03-17T09:11:45Z</time>
      </trkpt>
      <trkpt lat="46.84037" lon="5.84759">
        <ele>625.1</ele>
        <time>2022-03-17T09:11:51Z</time>
      </trkpt>
      <trkpt lat="46.84042" lon="5.84761">
        <ele>625.6</ele>
        <time>2022-03-17T09:11:56Z</time>
      </trkpt>
      <trkpt lat="46.84047" lon="5.84765">
        <ele>625.8</ele>
        <time>2022-03-17T09:12:01Z</time>
      </trkpt>
      <trkpt lat="46.84051" lon="5.8477">
        <ele>625.4</ele>
        <time>2022-03-17T09:12:06Z</time>
      </trkpt>
      <trkpt lat="46.84055" lon="5.84775">
        <ele>624.6</ele>
        <time>2022-03-17T09:12:12Z</time>
      </trkpt>
      <trkpt lat="46.84059" lon="5.8478">
        <ele>623.9</ele>
        <time>2022-03-17T09:12:19Z</time>
      </trkpt>
      <trkpt lat="46.84061" lon="5.84787">
        <ele>623.8</ele>
        <time>2022-03-17T09:12:24Z</time>
      </trkpt>
      <trkpt lat="46.84063" lon="5.84792">
        <ele>623</ele>
        <time>2022-03-17T09:12:30Z</time>
      </trkpt>
      <trkpt lat="46.84064" lon="5.84799">
        <ele>623.1</ele>
        <time>2022-03-17T09:12:35Z</time>
      </trkpt>
      <trkpt lat="46.84064" lon="5.84806">
        <ele>623.3</ele>
        <time>2022-03-17T09:12:41Z</time>
      </trkpt>
      <trkpt lat="46.84067" lon="5.84812">
        <ele>623.4</ele>
        <time>2022-03-17T09:12:47Z</time>
      </trkpt>
      <trkpt lat="46.84071" lon="5.84817">
        <ele>623.8</ele>
        <time>2022-03-17T09:12:53Z</time>
      </trkpt>
      <trkpt lat="46.84075" lon="5.84821">
        <ele>624.2</ele>
        <time>2022-03-17T09:12:58Z</time>
      </trkpt>
      <trkpt lat="46.84078" lon="5.84827">
        <ele>624.4</ele>
        <time>2022-03-17T09:13:02Z</time>
      </trkpt>
      <trkpt lat="46.84081" lon="5.84833">
        <ele>624.6</ele>
        <time>2022-03-17T09:13:06Z</time>
      </trkpt>
      <trkpt lat="46.84083" lon="5.8484">
        <ele>625.1</ele>
        <time>2022-03-17T09:13:11Z</time>
      </trkpt>
      <trkpt lat="46.84085" lon="5.84846">
        <ele>625.7</ele>
        <time>2022-03-17T09:13:16Z</time>
      </trkpt>
      <trkpt lat="46.84087" lon="5.84852">
        <ele>626.4</ele>
        <time>2022-03-17T09:13:22Z</time>
      </trkpt>
      <trkpt lat="46.8409" lon="5.84858">
        <ele>627.5</ele>
        <time>2022-03-17T09:13:27Z</time>
      </trkpt>
      <trkpt lat="46.84093" lon="5.84863">
        <ele>628.7</ele>
        <time>2022-03-17T09:13:32Z</time>
      </trkpt>
      <trkpt lat="46.84096" lon="5.84869">
        <ele>630.1</ele>
        <time>2022-03-17T09:13:38Z</time>
      </trkpt>
      <trkpt lat="46.841" lon="5.84873">
        <ele>630.4</ele>
        <time>2022-03-17T09:13:46Z</time>
      </trkpt>
      <trkpt lat="46.84103" lon="5.84878">
        <ele>630.5</ele>
        <time>2022-03-17T09:13:52Z</time>
      </trkpt>
      <trkpt lat="46.84106" lon="5.84883">
        <ele>630.8</ele>
        <time>2022-03-17T09:13:57Z</time>
      </trkpt>
      <trkpt lat="46.84105" lon="5.84891">
        <ele>631.4</ele>
        <time>2022-03-17T09:14:02Z</time>
      </trkpt>
      <trkpt lat="46.84106" lon="5.84898">
        <ele>631.9</ele>
        <time>2022-03-17T09:14:06Z</time>
      </trkpt>
      <trkpt lat="46.84107" lon="5.84905">
        <ele>632.7</ele>
        <time>2022-03-17T09:14:12Z</time>
      </trkpt>
      <trkpt lat="46.84109" lon="5.84911">
        <ele>632.6</ele>
        <time>2022-03-17T09:14:18Z</time>
      </trkpt>
      <trkpt lat="46.84109" lon="5.84919">
        <ele>632.7</ele>
        <time>2022-03-17T09:14:23Z</time>
      </trkpt>
      <trkpt lat="46.8411" lon="5.84926">
        <ele>633.3</ele>
        <time>2022-03-17T09:14:28Z</time>
      </trkpt>
      <trkpt lat="46.84111" lon="5.84933">
        <ele>634</ele>
        <time>2022-03-17T09:14:33Z</time>
      </trkpt>
      <trkpt lat="46.84111" lon="5.8494">
        <ele>634.3</ele>
        <time>2022-03-17T09:14:38Z</time>
      </trkpt>
      <trkpt lat="46.84112" lon="5.84947">
        <ele>634.5</ele>
        <time>2022-03-17T09:14:42Z</time>
      </trkpt>
      <trkpt lat="46.84113" lon="5.84954">
        <ele>635</ele>
        <time>2022-03-17T09:14:45Z</time>
      </trkpt>
      <trkpt lat="46.84115" lon="5.8496">
        <ele>635.3</ele>
        <time>2022-03-17T09:14:49Z</time>
      </trkpt>
      <trkpt lat="46.84119" lon="5.84966">
        <ele>635.1</ele>
        <time>2022-03-17T09:14:55Z</time>
      </trkpt>
      <trkpt lat="46.84122" lon="5.84971">
        <ele>634.8</ele>
        <time>2022-03-17T09:15:00Z</time>
      </trkpt>
      <trkpt lat="46.84125" lon="5.84976">
        <ele>634.2</ele>
        <time>2022-03-17T09:15:06Z</time>
      </trkpt>
      <trkpt lat="46.84128" lon="5.84981">
        <ele>634.1</ele>
        <time>2022-03-17T09:15:16Z</time>
      </trkpt>
      <trkpt lat="46.84132" lon="5.84985">
        <ele>631.3</ele>
        <time>2022-03-17T09:16:17Z</time>
      </trkpt>
      <trkpt lat="46.84129" lon="5.8499">
        <ele>629.7</ele>
        <time>2022-03-17T09:16:23Z</time>
      </trkpt>
      <trkpt lat="46.84124" lon="5.8499">
        <ele>629.1</ele>
        <time>2022-03-17T09:16:33Z</time>
      </trkpt>
      <trkpt lat="46.84118" lon="5.84993">
        <ele>629.4</ele>
        <time>2022-03-17T09:16:38Z</time>
      </trkpt>
      <trkpt lat="46.84113" lon="5.84992">
        <ele>631</ele>
        <time>2022-03-17T09:16:45Z</time>
      </trkpt>
      <trkpt lat="46.84109" lon="5.8499">
        <ele>632.2</ele>
        <time>2022-03-17T09:16:51Z</time>
      </trkpt>
      <trkpt lat="46.84104" lon="5.84989">
        <ele>633.4</ele>
        <time>2022-03-17T09:16:57Z</time>
      </trkpt>
      <trkpt lat="46.841" lon="5.84986">
        <ele>634.6</ele>
        <time>2022-03-17T09:17:03Z</time>
      </trkpt>
      <trkpt lat="46.84094" lon="5.84986">
        <ele>635.7</ele>
        <time>2022-03-17T09:17:09Z</time>
      </trkpt>
      <trkpt lat="46.84089" lon="5.84985">
        <ele>635.9</ele>
        <time>2022-03-17T09:17:16Z</time>
      </trkpt>
      <trkpt lat="46.84085" lon="5.84988">
        <ele>635.4</ele>
        <time>2022-03-17T09:17:24Z</time>
      </trkpt>
      <trkpt lat="46.8408" lon="5.8499">
        <ele>635.1</ele>
        <time>2022-03-17T09:17:30Z</time>
      </trkpt>
      <trkpt lat="46.84076" lon="5.84994">
        <ele>634.4</ele>
        <time>2022-03-17T09:17:36Z</time>
      </trkpt>
      <trkpt lat="46.84071" lon="5.84997">
        <ele>633.7</ele>
        <time>2022-03-17T09:17:43Z</time>
      </trkpt>
      <trkpt lat="46.84066" lon="5.85">
        <ele>633</ele>
        <time>2022-03-17T09:17:56Z</time>
      </trkpt>
      <trkpt lat="46.84061" lon="5.85005">
        <ele>632.3</ele>
        <time>2022-03-17T09:18:01Z</time>
      </trkpt>
      <trkpt lat="46.84057" lon="5.85008">
        <ele>631.4</ele>
        <time>2022-03-17T09:18:06Z</time>
      </trkpt>
      <trkpt lat="46.84054" lon="5.85015">
        <ele>631.1</ele>
        <time>2022-03-17T09:18:11Z</time>
      </trkpt>
      <trkpt lat="46.84053" lon="5.85022">
        <ele>631.2</ele>
        <time>2022-03-17T09:18:15Z</time>
      </trkpt>
      <trkpt lat="46.84052" lon="5.85029">
        <ele>631.4</ele>
        <time>2022-03-17T09:18:19Z</time>
      </trkpt>
      <trkpt lat="46.84053" lon="5.85037">
        <ele>631.8</ele>
        <time>2022-03-17T09:18:23Z</time>
      </trkpt>
      <trkpt lat="46.84055" lon="5.85042">
        <ele>632.2</ele>
        <time>2022-03-17T09:18:28Z</time>
      </trkpt>
      <trkpt lat="46.84059" lon="5.85046">
        <ele>632</ele>
        <time>2022-03-17T09:18:32Z</time>
      </trkpt>
      <trkpt lat="46.84062" lon="5.85052">
        <ele>630.7</ele>
        <time>2022-03-17T09:18:38Z</time>
      </trkpt>
      <trkpt lat="46.84066" lon="5.85058">
        <ele>629.7</ele>
        <time>2022-03-17T09:18:43Z</time>
      </trkpt>
      <trkpt lat="46.8407" lon="5.85063">
        <ele>628.1</ele>
        <time>2022-03-17T09:18:48Z</time>
      </trkpt>
      <trkpt lat="46.84073" lon="5.85068">
        <ele>627</ele>
        <time>2022-03-17T09:18:52Z</time>
      </trkpt>
      <trkpt lat="46.84077" lon="5.85074">
        <ele>626.7</ele>
        <time>2022-03-17T09:18:56Z</time>
      </trkpt>
      <trkpt lat="46.84079" lon="5.85081">
        <ele>627.2</ele>
        <time>2022-03-17T09:19:00Z</time>
      </trkpt>
      <trkpt lat="46.84081" lon="5.85087">
        <ele>628.2</ele>
        <time>2022-03-17T09:19:05Z</time>
      </trkpt>
      <trkpt lat="46.84084" lon="5.85093">
        <ele>629.3</ele>
        <time>2022-03-17T09:19:12Z</time>
      </trkpt>
      <trkpt lat="46.84087" lon="5.85099">
        <ele>629.7</ele>
        <time>2022-03-17T09:19:18Z</time>
      </trkpt>
      <trkpt lat="46.84088" lon="5.85107">
        <ele>630.3</ele>
        <time>2022-03-17T09:19:26Z</time>
      </trkpt>
      <trkpt lat="46.84087" lon="5.85113">
        <ele>631.4</ele>
        <time>2022-03-17T09:19:31Z</time>
      </trkpt>
      <trkpt lat="46.84087" lon="5.85121">
        <ele>632.1</ele>
        <time>2022-03-17T09:19:38Z</time>
      </trkpt>
      <trkpt lat="46.84091" lon="5.85125">
        <ele>632</ele>
        <time>2022-03-17T09:19:44Z</time>
      </trkpt>
      <trkpt lat="46.84095" lon="5.8513">
        <ele>631.8</ele>
        <time>2022-03-17T09:19:48Z</time>
      </trkpt>
      <trkpt lat="46.84097" lon="5.85136">
        <ele>631.3</ele>
        <time>2022-03-17T09:19:53Z</time>
      </trkpt>
      <trkpt lat="46.84097" lon="5.85143">
        <ele>630.5</ele>
        <time>2022-03-17T09:19:59Z</time>
      </trkpt>
      <trkpt lat="46.84101" lon="5.85148">
        <ele>629.5</ele>
        <time>2022-03-17T09:20:04Z</time>
      </trkpt>
      <trkpt lat="46.84103" lon="5.85153">
        <ele>629.1</ele>
        <time>2022-03-17T09:20:11Z</time>
      </trkpt>
      <trkpt lat="46.84104" lon="5.85161">
        <ele>628.6</ele>
        <time>2022-03-17T09:20:18Z</time>
      </trkpt>
      <trkpt lat="46.84105" lon="5.85168">
        <ele>628.2</ele>
        <time>2022-03-17T09:20:23Z</time>
      </trkpt>
      <trkpt lat="46.84104" lon="5.85175">
        <ele>628.1</ele>
        <time>2022-03-17T09:20:30Z</time>
      </trkpt>
      <trkpt lat="46.84103" lon="5.85182">
        <ele>627</ele>
        <time>2022-03-17T09:20:35Z</time>
      </trkpt>
      <trkpt lat="46.84102" lon="5.85191">
        <ele>626.2</ele>
        <time>2022-03-17T09:20:39Z</time>
      </trkpt>
      <trkpt lat="46.84101" lon="5.852">
        <ele>625.7</ele>
        <time>2022-03-17T09:20:42Z</time>
      </trkpt>
      <trkpt lat="46.84099" lon="5.85207">
        <ele>625.7</ele>
        <time>2022-03-17T09:20:45Z</time>
      </trkpt>
      <trkpt lat="46.84097" lon="5.85214">
        <ele>626.2</ele>
        <time>2022-03-17T09:20:48Z</time>
      </trkpt>
      <trkpt lat="46.84097" lon="5.85221">
        <ele>627.1</ele>
        <time>2022-03-17T09:20:52Z</time>
      </trkpt>
      <trkpt lat="46.84097" lon="5.85227">
        <ele>628.3</ele>
        <time>2022-03-17T09:20:57Z</time>
      </trkpt>
      <trkpt lat="46.84098" lon="5.85234">
        <ele>629.5</ele>
        <time>2022-03-17T09:21:02Z</time>
      </trkpt>
      <trkpt lat="46.84102" lon="5.85238">
        <ele>629.2</ele>
        <time>2022-03-17T09:21:11Z</time>
      </trkpt>
      <trkpt lat="46.84103" lon="5.85245">
        <ele>628.1</ele>
        <time>2022-03-17T09:21:22Z</time>
      </trkpt>
      <trkpt lat="46.84103" lon="5.85252">
        <ele>628</ele>
        <time>2022-03-17T09:21:25Z</time>
      </trkpt>
      <trkpt lat="46.84101" lon="5.85259">
        <ele>627.5</ele>
        <time>2022-03-17T09:21:29Z</time>
      </trkpt>
      <trkpt lat="46.84099" lon="5.85265">
        <ele>626.7</ele>
        <time>2022-03-17T09:21:33Z</time>
      </trkpt>
      <trkpt lat="46.84097" lon="5.85271">
        <ele>626.5</ele>
        <time>2022-03-17T09:21:36Z</time>
      </trkpt>
      <trkpt lat="46.84094" lon="5.85278">
        <ele>626.4</ele>
        <time>2022-03-17T09:21:40Z</time>
      </trkpt>
      <trkpt lat="46.84091" lon="5.85283">
        <ele>626.5</ele>
        <time>2022-03-17T09:21:44Z</time>
      </trkpt>
      <trkpt lat="46.84087" lon="5.8529">
        <ele>626.9</ele>
        <time>2022-03-17T09:21:49Z</time>
      </trkpt>
      <trkpt lat="46.84084" lon="5.85294">
        <ele>627.2</ele>
        <time>2022-03-17T09:21:52Z</time>
      </trkpt>
      <trkpt lat="46.84081" lon="5.85301">
        <ele>627.7</ele>
        <time>2022-03-17T09:21:56Z</time>
      </trkpt>
      <trkpt lat="46.8408" lon="5.85308">
        <ele>628.4</ele>
        <time>2022-03-17T09:22:01Z</time>
      </trkpt>
      <trkpt lat="46.8408" lon="5.85315">
        <ele>629.3</ele>
        <time>2022-03-17T09:22:06Z</time>
      </trkpt>
      <trkpt lat="46.84082" lon="5.85322">
        <ele>630.5</ele>
        <time>2022-03-17T09:22:10Z</time>
      </trkpt>
      <trkpt lat="46.84082" lon="5.85329">
        <ele>632.3</ele>
        <time>2022-03-17T09:22:16Z</time>
      </trkpt>
      <trkpt lat="46.84081" lon="5.85335">
        <ele>632.6</ele>
        <time>2022-03-17T09:22:21Z</time>
      </trkpt>
      <trkpt lat="46.84081" lon="5.85342">
        <ele>631.8</ele>
        <time>2022-03-17T09:22:26Z</time>
      </trkpt>
      <trkpt lat="46.84081" lon="5.8535">
        <ele>630.5</ele>
        <time>2022-03-17T09:22:33Z</time>
      </trkpt>
      <trkpt lat="46.8408" lon="5.85357">
        <ele>629.7</ele>
        <time>2022-03-17T09:22:38Z</time>
      </trkpt>
      <trkpt lat="46.84079" lon="5.85363">
        <ele>629.1</ele>
        <time>2022-03-17T09:22:42Z</time>
      </trkpt>
      <trkpt lat="46.8408" lon="5.8537">
        <ele>628.5</ele>
        <time>2022-03-17T09:22:46Z</time>
      </trkpt>
      <trkpt lat="46.84085" lon="5.85374">
        <ele>627.8</ele>
        <time>2022-03-17T09:22:51Z</time>
      </trkpt>
      <trkpt lat="46.8409" lon="5.85377">
        <ele>627.5</ele>
        <time>2022-03-17T09:22:56Z</time>
      </trkpt>
      <trkpt lat="46.84094" lon="5.8538">
        <ele>627.1</ele>
        <time>2022-03-17T09:23:01Z</time>
      </trkpt>
      <trkpt lat="46.84098" lon="5.85386">
        <ele>626.6</ele>
        <time>2022-03-17T09:23:07Z</time>
      </trkpt>
      <trkpt lat="46.84102" lon="5.8539">
        <ele>626</ele>
        <time>2022-03-17T09:23:11Z</time>
      </trkpt>
      <trkpt lat="46.84105" lon="5.85395">
        <ele>625.5</ele>
        <time>2022-03-17T09:23:16Z</time>
      </trkpt>
      <trkpt lat="46.84107" lon="5.85401">
        <ele>624.6</ele>
        <time>2022-03-17T09:23:24Z</time>
      </trkpt>
      <trkpt lat="46.84109" lon="5.85408">
        <ele>623.7</ele>
        <time>2022-03-17T09:23:31Z</time>
      </trkpt>
      <trkpt lat="46.84112" lon="5.85415">
        <ele>623.3</ele>
        <time>2022-03-17T09:23:36Z</time>
      </trkpt>
      <trkpt lat="46.84112" lon="5.85421">
        <ele>623.3</ele>
        <time>2022-03-17T09:23:39Z</time>
      </trkpt>
      <trkpt lat="46.84113" lon="5.85428">
        <ele>623.2</ele>
        <time>2022-03-17T09:23:43Z</time>
      </trkpt>
      <trkpt lat="46.84116" lon="5.85434">
        <ele>623.5</ele>
        <time>2022-03-17T09:23:48Z</time>
      </trkpt>
      <trkpt lat="46.84119" lon="5.8544">
        <ele>623.8</ele>
        <time>2022-03-17T09:23:55Z</time>
      </trkpt>
      <trkpt lat="46.84119" lon="5.85447">
        <ele>624.1</ele>
        <time>2022-03-17T09:24:03Z</time>
      </trkpt>
      <trkpt lat="46.84117" lon="5.85453">
        <ele>624.6</ele>
        <time>2022-03-17T09:24:16Z</time>
      </trkpt>
      <trkpt lat="46.84118" lon="5.8546">
        <ele>624.9</ele>
        <time>2022-03-17T09:24:23Z</time>
      </trkpt>
      <trkpt lat="46.84117" lon="5.85466">
        <ele>625.1</ele>
        <time>2022-03-17T09:24:29Z</time>
      </trkpt>
      <trkpt lat="46.84115" lon="5.85474">
        <ele>625.7</ele>
        <time>2022-03-17T09:24:36Z</time>
      </trkpt>
      <trkpt lat="46.84113" lon="5.85482">
        <ele>626.7</ele>
        <time>2022-03-17T09:24:40Z</time>
      </trkpt>
      <trkpt lat="46.84112" lon="5.8549">
        <ele>628</ele>
        <time>2022-03-17T09:24:44Z</time>
      </trkpt>
      <trkpt lat="46.84109" lon="5.85495">
        <ele>628.5</ele>
        <time>2022-03-17T09:24:50Z</time>
      </trkpt>
      <trkpt lat="46.84107" lon="5.85502">
        <ele>628.6</ele>
        <time>2022-03-17T09:24:55Z</time>
      </trkpt>
      <trkpt lat="46.84105" lon="5.85509">
        <ele>628.5</ele>
        <time>2022-03-17T09:24:59Z</time>
      </trkpt>
      <trkpt lat="46.84105" lon="5.85516">
        <ele>628.9</ele>
        <time>2022-03-17T09:25:03Z</time>
      </trkpt>
      <trkpt lat="46.84103" lon="5.85524">
        <ele>629.1</ele>
        <time>2022-03-17T09:25:08Z</time>
      </trkpt>
      <trkpt lat="46.84103" lon="5.8553">
        <ele>628.9</ele>
        <time>2022-03-17T09:25:12Z</time>
      </trkpt>
      <trkpt lat="46.84102" lon="5.85538">
        <ele>628.8</ele>
        <time>2022-03-17T09:25:15Z</time>
      </trkpt>
      <trkpt lat="46.84101" lon="5.85544">
        <ele>628.5</ele>
        <time>2022-03-17T09:25:18Z</time>
      </trkpt>
      <trkpt lat="46.84102" lon="5.85551">
        <ele>628.3</ele>
        <time>2022-03-17T09:25:21Z</time>
      </trkpt>
      <trkpt lat="46.84102" lon="5.85558">
        <ele>628.6</ele>
        <time>2022-03-17T09:25:26Z</time>
      </trkpt>
      <trkpt lat="46.84103" lon="5.85564">
        <ele>629.8</ele>
        <time>2022-03-17T09:25:32Z</time>
      </trkpt>
      <trkpt lat="46.84105" lon="5.85571">
        <ele>631.1</ele>
        <time>2022-03-17T09:25:38Z</time>
      </trkpt>
      <trkpt lat="46.84109" lon="5.85575">
        <ele>632.3</ele>
        <time>2022-03-17T09:25:43Z</time>
      </trkpt>
      <trkpt lat="46.84113" lon="5.85579">
        <ele>633</ele>
        <time>2022-03-17T09:25:47Z</time>
      </trkpt>
      <trkpt lat="46.84117" lon="5.85581">
        <ele>633</ele>
        <time>2022-03-17T09:25:52Z</time>
      </trkpt>
      <trkpt lat="46.8412" lon="5.85587">
        <ele>633.1</ele>
        <time>2022-03-17T09:25:57Z</time>
      </trkpt>
      <trkpt lat="46.84122" lon="5.85594">
        <ele>633.9</ele>
        <time>2022-03-17T09:26:03Z</time>
      </trkpt>
      <trkpt lat="46.84122" lon="5.85602">
        <ele>635.8</ele>
        <time>2022-03-17T09:26:11Z</time>
      </trkpt>
      <trkpt lat="46.84121" lon="5.85609">
        <ele>636.6</ele>
        <time>2022-03-17T09:26:16Z</time>
      </trkpt>
      <trkpt lat="46.84119" lon="5.85616">
        <ele>636.5</ele>
        <time>2022-03-17T09:26:22Z</time>
      </trkpt>
      <trkpt lat="46.84117" lon="5.85622">
        <ele>635.8</ele>
        <time>2022-03-17T09:26:30Z</time>
      </trkpt>
      <trkpt lat="46.8412" lon="5.85629">
        <ele>635.6</ele>
        <time>2022-03-17T09:26:36Z</time>
      </trkpt>
      <trkpt lat="46.84123" lon="5.85635">
        <ele>635.5</ele>
        <time>2022-03-17T09:26:40Z</time>
      </trkpt>
      <trkpt lat="46.84125" lon="5.85641">
        <ele>635.7</ele>
        <time>2022-03-17T09:26:44Z</time>
      </trkpt>
      <trkpt lat="46.84127" lon="5.85648">
        <ele>636.5</ele>
        <time>2022-03-17T09:26:49Z</time>
      </trkpt>
      <trkpt lat="46.84131" lon="5.85652">
        <ele>637.4</ele>
        <time>2022-03-17T09:26:58Z</time>
      </trkpt>
      <trkpt lat="46.84136" lon="5.85653">
        <ele>637.6</ele>
        <time>2022-03-17T09:27:04Z</time>
      </trkpt>
      <trkpt lat="46.84142" lon="5.85652">
        <ele>637.6</ele>
        <time>2022-03-17T09:27:11Z</time>
      </trkpt>
      <trkpt lat="46.84146" lon="5.85652">
        <ele>637.6</ele>
        <time>2022-03-17T09:27:15Z</time>
      </trkpt>
      <trkpt lat="46.84151" lon="5.85654">
        <ele>637.5</ele>
        <time>2022-03-17T09:27:20Z</time>
      </trkpt>
      <trkpt lat="46.84156" lon="5.85657">
        <ele>637.3</ele>
        <time>2022-03-17T09:27:25Z</time>
      </trkpt>
      <trkpt lat="46.84161" lon="5.85662">
        <ele>636.8</ele>
        <time>2022-03-17T09:27:30Z</time>
      </trkpt>
      <trkpt lat="46.84165" lon="5.85665">
        <ele>636</ele>
        <time>2022-03-17T09:27:37Z</time>
      </trkpt>
      <trkpt lat="46.8417" lon="5.85667">
        <ele>634.9</ele>
        <time>2022-03-17T09:27:42Z</time>
      </trkpt>
      <trkpt lat="46.84175" lon="5.8567">
        <ele>633.8</ele>
        <time>2022-03-17T09:27:47Z</time>
      </trkpt>
      <trkpt lat="46.84178" lon="5.85674">
        <ele>632.8</ele>
        <time>2022-03-17T09:27:54Z</time>
      </trkpt>
      <trkpt lat="46.84179" lon="5.85681">
        <ele>632.6</ele>
        <time>2022-03-17T09:27:59Z</time>
      </trkpt>
      <trkpt lat="46.84181" lon="5.85688">
        <ele>632.1</ele>
        <time>2022-03-17T09:28:04Z</time>
      </trkpt>
      <trkpt lat="46.84181" lon="5.85697">
        <ele>631.9</ele>
        <time>2022-03-17T09:28:08Z</time>
      </trkpt>
      <trkpt lat="46.84181" lon="5.85703">
        <ele>631.5</ele>
        <time>2022-03-17T09:28:12Z</time>
      </trkpt>
      <trkpt lat="46.84183" lon="5.8571">
        <ele>631</ele>
        <time>2022-03-17T09:28:16Z</time>
      </trkpt>
      <trkpt lat="46.84183" lon="5.85717">
        <ele>630.5</ele>
        <time>2022-03-17T09:28:19Z</time>
      </trkpt>
      <trkpt lat="46.84182" lon="5.85725">
        <ele>630</ele>
        <time>2022-03-17T09:28:23Z</time>
      </trkpt>
      <trkpt lat="46.84184" lon="5.85732">
        <ele>630.3</ele>
        <time>2022-03-17T09:28:28Z</time>
      </trkpt>
      <trkpt lat="46.84186" lon="5.8574">
        <ele>631.7</ele>
        <time>2022-03-17T09:28:42Z</time>
      </trkpt>
      <trkpt lat="46.84189" lon="5.85745">
        <ele>632.2</ele>
        <time>2022-03-17T09:28:45Z</time>
      </trkpt>
      <trkpt lat="46.84193" lon="5.85749">
        <ele>632.7</ele>
        <time>2022-03-17T09:28:49Z</time>
      </trkpt>
      <trkpt lat="46.84197" lon="5.85754">
        <ele>632.6</ele>
        <time>2022-03-17T09:28:56Z</time>
      </trkpt>
      <trkpt lat="46.84202" lon="5.85755">
        <ele>631.3</ele>
        <time>2022-03-17T09:29:01Z</time>
      </trkpt>
      <trkpt lat="46.84207" lon="5.85757">
        <ele>629.9</ele>
        <time>2022-03-17T09:29:05Z</time>
      </trkpt>
      <trkpt lat="46.84211" lon="5.85759">
        <ele>628.9</ele>
        <time>2022-03-17T09:29:09Z</time>
      </trkpt>
      <trkpt lat="46.84215" lon="5.85764">
        <ele>628.1</ele>
        <time>2022-03-17T09:29:17Z</time>
      </trkpt>
      <trkpt lat="46.84216" lon="5.8577">
        <ele>629.3</ele>
        <time>2022-03-17T09:29:29Z</time>
      </trkpt>
      <trkpt lat="46.84221" lon="5.85771">
        <ele>630.9</ele>
        <time>2022-03-17T09:29:34Z</time>
      </trkpt>
      <trkpt lat="46.84227" lon="5.85766">
        <ele>632.3</ele>
        <time>2022-03-17T09:29:39Z</time>
      </trkpt>
      <trkpt lat="46.84232" lon="5.85763">
        <ele>633</ele>
        <time>2022-03-17T09:29:42Z</time>
      </trkpt>
      <trkpt lat="46.84237" lon="5.85761">
        <ele>633.8</ele>
        <time>2022-03-17T09:29:46Z</time>
      </trkpt>
      <trkpt lat="46.84241" lon="5.85757">
        <ele>634.1</ele>
        <time>2022-03-17T09:29:50Z</time>
      </trkpt>
      <trkpt lat="46.84242" lon="5.85751">
        <ele>635.2</ele>
        <time>2022-03-17T09:29:58Z</time>
      </trkpt>
      <trkpt lat="46.84245" lon="5.85746">
        <ele>635.9</ele>
        <time>2022-03-17T09:30:02Z</time>
      </trkpt>
      <trkpt lat="46.84249" lon="5.85741">
        <ele>636.5</ele>
        <time>2022-03-17T09:30:05Z</time>
      </trkpt>
      <trkpt lat="46.84253" lon="5.85736">
        <ele>637.6</ele>
        <time>2022-03-17T09:30:09Z</time>
      </trkpt>
      <trkpt lat="46.84256" lon="5.85731">
        <ele>639.5</ele>
        <time>2022-03-17T09:30:15Z</time>
      </trkpt>
      <trkpt lat="46.8426" lon="5.85726">
        <ele>640.8</ele>
        <time>2022-03-17T09:30:20Z</time>
      </trkpt>
      <trkpt lat="46.84264" lon="5.85722">
        <ele>642.1</ele>
        <time>2022-03-17T09:30:24Z</time>
      </trkpt>
      <trkpt lat="46.84269" lon="5.85718">
        <ele>643.4</ele>
        <time>2022-03-17T09:30:28Z</time>
      </trkpt>
      <trkpt lat="46.84273" lon="5.85715">
        <ele>645</ele>
        <time>2022-03-17T09:30:33Z</time>
      </trkpt>
      <trkpt lat="46.84277" lon="5.85712">
        <ele>646.2</ele>
        <time>2022-03-17T09:30:39Z</time>
      </trkpt>
      <trkpt lat="46.84282" lon="5.85712">
        <ele>646.5</ele>
        <time>2022-03-17T09:30:42Z</time>
      </trkpt>
      <trkpt lat="46.84287" lon="5.85711">
        <ele>646.5</ele>
        <time>2022-03-17T09:30:45Z</time>
      </trkpt>
      <trkpt lat="46.84293" lon="5.85709">
        <ele>646.3</ele>
        <time>2022-03-17T09:30:49Z</time>
      </trkpt>
      <trkpt lat="46.84298" lon="5.85708">
        <ele>646</ele>
        <time>2022-03-17T09:30:54Z</time>
      </trkpt>
      <trkpt lat="46.84302" lon="5.85705">
        <ele>645.4</ele>
        <time>2022-03-17T09:31:00Z</time>
      </trkpt>
      <trkpt lat="46.84307" lon="5.85702">
        <ele>645.4</ele>
        <time>2022-03-17T09:31:05Z</time>
      </trkpt>
      <trkpt lat="46.84312" lon="5.85701">
        <ele>645.4</ele>
        <time>2022-03-17T09:31:09Z</time>
      </trkpt>
      <trkpt lat="46.84317" lon="5.857">
        <ele>645.4</ele>
        <time>2022-03-17T09:31:12Z</time>
      </trkpt>
      <trkpt lat="46.84321" lon="5.85699">
        <ele>645.3</ele>
        <time>2022-03-17T09:31:15Z</time>
      </trkpt>
      <trkpt lat="46.84326" lon="5.85698">
        <ele>645</ele>
        <time>2022-03-17T09:31:19Z</time>
      </trkpt>
      <trkpt lat="46.8433" lon="5.85693">
        <ele>645.1</ele>
        <time>2022-03-17T09:31:25Z</time>
      </trkpt>
      <trkpt lat="46.84334" lon="5.85687">
        <ele>645.4</ele>
        <time>2022-03-17T09:31:30Z</time>
      </trkpt>
      <trkpt lat="46.84338" lon="5.85683">
        <ele>645.9</ele>
        <time>2022-03-17T09:31:35Z</time>
      </trkpt>
      <trkpt lat="46.84342" lon="5.8568">
        <ele>646.2</ele>
        <time>2022-03-17T09:31:39Z</time>
      </trkpt>
      <trkpt lat="46.84346" lon="5.85675">
        <ele>646.3</ele>
        <time>2022-03-17T09:31:44Z</time>
      </trkpt>
      <trkpt lat="46.84351" lon="5.8567">
        <ele>646.1</ele>
        <time>2022-03-17T09:31:48Z</time>
      </trkpt>
      <trkpt lat="46.84354" lon="5.85665">
        <ele>645.6</ele>
        <time>2022-03-17T09:31:52Z</time>
      </trkpt>
      <trkpt lat="46.84357" lon="5.85659">
        <ele>644.6</ele>
        <time>2022-03-17T09:31:57Z</time>
      </trkpt>
      <trkpt lat="46.84362" lon="5.85657">
        <ele>643</ele>
        <time>2022-03-17T09:32:04Z</time>
      </trkpt>
      <trkpt lat="46.84367" lon="5.8566">
        <ele>642.1</ele>
        <time>2022-03-17T09:32:09Z</time>
      </trkpt>
      <trkpt lat="46.84368" lon="5.85666">
        <ele>640.6</ele>
        <time>2022-03-17T09:32:16Z</time>
      </trkpt>
      <trkpt lat="46.84371" lon="5.85672">
        <ele>639.5</ele>
        <time>2022-03-17T09:32:23Z</time>
      </trkpt>
      <trkpt lat="46.84375" lon="5.85674">
        <ele>638.7</ele>
        <time>2022-03-17T09:32:32Z</time>
      </trkpt>
      <trkpt lat="46.84379" lon="5.85679">
        <ele>638.6</ele>
        <time>2022-03-17T09:32:38Z</time>
      </trkpt>
      <trkpt lat="46.84382" lon="5.85684">
        <ele>638.9</ele>
        <time>2022-03-17T09:32:44Z</time>
      </trkpt>
      <trkpt lat="46.84385" lon="5.8569">
        <ele>639.6</ele>
        <time>2022-03-17T09:32:52Z</time>
      </trkpt>
      <trkpt lat="46.8439" lon="5.85697">
        <ele>638.8</ele>
        <time>2022-03-17T09:33:04Z</time>
      </trkpt>
      <trkpt lat="46.84394" lon="5.857">
        <ele>638.7</ele>
        <time>2022-03-17T09:33:09Z</time>
      </trkpt>
      <trkpt lat="46.84398" lon="5.85705">
        <ele>638.3</ele>
        <time>2022-03-17T09:33:14Z</time>
      </trkpt>
      <trkpt lat="46.84402" lon="5.85708">
        <ele>638.5</ele>
        <time>2022-03-17T09:33:19Z</time>
      </trkpt>
      <trkpt lat="46.84406" lon="5.85714">
        <ele>638.9</ele>
        <time>2022-03-17T09:33:24Z</time>
      </trkpt>
      <trkpt lat="46.84408" lon="5.8572">
        <ele>639.2</ele>
        <time>2022-03-17T09:33:28Z</time>
      </trkpt>
      <trkpt lat="46.84412" lon="5.85724">
        <ele>639.4</ele>
        <time>2022-03-17T09:33:34Z</time>
      </trkpt>
      <trkpt lat="46.84416" lon="5.85728">
        <ele>639.2</ele>
        <time>2022-03-17T09:33:39Z</time>
      </trkpt>
      <trkpt lat="46.84419" lon="5.85735">
        <ele>638.7</ele>
        <time>2022-03-17T09:33:45Z</time>
      </trkpt>
      <trkpt lat="46.84419" lon="5.85742">
        <ele>637.6</ele>
        <time>2022-03-17T09:33:52Z</time>
      </trkpt>
      <trkpt lat="46.84418" lon="5.85748">
        <ele>637.4</ele>
        <time>2022-03-17T09:33:57Z</time>
      </trkpt>
      <trkpt lat="46.84415" lon="5.85756">
        <ele>637.4</ele>
        <time>2022-03-17T09:34:01Z</time>
      </trkpt>
      <trkpt lat="46.84412" lon="5.8576">
        <ele>637.3</ele>
        <time>2022-03-17T09:34:06Z</time>
      </trkpt>
      <trkpt lat="46.84408" lon="5.85766">
        <ele>638</ele>
        <time>2022-03-17T09:34:13Z</time>
      </trkpt>
      <trkpt lat="46.84407" lon="5.85774">
        <ele>638.3</ele>
        <time>2022-03-17T09:34:18Z</time>
      </trkpt>
      <trkpt lat="46.84406" lon="5.8578">
        <ele>638.2</ele>
        <time>2022-03-17T09:34:22Z</time>
      </trkpt>
      <trkpt lat="46.84405" lon="5.85788">
        <ele>637.8</ele>
        <time>2022-03-17T09:34:27Z</time>
      </trkpt>
      <trkpt lat="46.84404" lon="5.85795">
        <ele>637.7</ele>
        <time>2022-03-17T09:34:33Z</time>
      </trkpt>
      <trkpt lat="46.84404" lon="5.85805">
        <ele>639</ele>
        <time>2022-03-17T09:34:49Z</time>
      </trkpt>
      <trkpt lat="46.84406" lon="5.85811">
        <ele>639.5</ele>
        <time>2022-03-17T09:34:52Z</time>
      </trkpt>
      <trkpt lat="46.84408" lon="5.85818">
        <ele>640.4</ele>
        <time>2022-03-17T09:34:58Z</time>
      </trkpt>
      <trkpt lat="46.84406" lon="5.85824">
        <ele>641</ele>
        <time>2022-03-17T09:35:04Z</time>
      </trkpt>
      <trkpt lat="46.84402" lon="5.85831">
        <ele>641.7</ele>
        <time>2022-03-17T09:35:11Z</time>
      </trkpt>
      <trkpt lat="46.84401" lon="5.85837">
        <ele>642.1</ele>
        <time>2022-03-17T09:35:15Z</time>
      </trkpt>
      <trkpt lat="46.84401" lon="5.85844">
        <ele>642.6</ele>
        <time>2022-03-17T09:35:19Z</time>
      </trkpt>
      <trkpt lat="46.84399" lon="5.8585">
        <ele>643</ele>
        <time>2022-03-17T09:35:23Z</time>
      </trkpt>
      <trkpt lat="46.84396" lon="5.85856">
        <ele>643.3</ele>
        <time>2022-03-17T09:35:28Z</time>
      </trkpt>
      <trkpt lat="46.84396" lon="5.85863">
        <ele>643.5</ele>
        <time>2022-03-17T09:35:33Z</time>
      </trkpt>
      <trkpt lat="46.84399" lon="5.85869">
        <ele>643.5</ele>
        <time>2022-03-17T09:35:38Z</time>
      </trkpt>
      <trkpt lat="46.84401" lon="5.85874">
        <ele>642.6</ele>
        <time>2022-03-17T09:35:47Z</time>
      </trkpt>
      <trkpt lat="46.84404" lon="5.85881">
        <ele>642.2</ele>
        <time>2022-03-17T09:35:52Z</time>
      </trkpt>
      <trkpt lat="46.84407" lon="5.85886">
        <ele>642.2</ele>
        <time>2022-03-17T09:35:56Z</time>
      </trkpt>
      <trkpt lat="46.8441" lon="5.85892">
        <ele>642</ele>
        <time>2022-03-17T09:36:01Z</time>
      </trkpt>
      <trkpt lat="46.84412" lon="5.85899">
        <ele>642.2</ele>
        <time>2022-03-17T09:36:06Z</time>
      </trkpt>
      <trkpt lat="46.84413" lon="5.85905">
        <ele>642</ele>
        <time>2022-03-17T09:36:18Z</time>
      </trkpt>
      <trkpt lat="46.84417" lon="5.85909">
        <ele>642</ele>
        <time>2022-03-17T09:36:21Z</time>
      </trkpt>
      <trkpt lat="46.84421" lon="5.85913">
        <ele>642.1</ele>
        <time>2022-03-17T09:36:25Z</time>
      </trkpt>
      <trkpt lat="46.84424" lon="5.8592">
        <ele>642</ele>
        <time>2022-03-17T09:36:30Z</time>
      </trkpt>
      <trkpt lat="46.84428" lon="5.85924">
        <ele>642.2</ele>
        <time>2022-03-17T09:36:35Z</time>
      </trkpt>
      <trkpt lat="46.84431" lon="5.8593">
        <ele>642</ele>
        <time>2022-03-17T09:36:43Z</time>
      </trkpt>
      <trkpt lat="46.84435" lon="5.85935">
        <ele>641.6</ele>
        <time>2022-03-17T09:36:52Z</time>
      </trkpt>
      <trkpt lat="46.8444" lon="5.85937">
        <ele>640.5</ele>
        <time>2022-03-17T09:37:00Z</time>
      </trkpt>
      <trkpt lat="46.84445" lon="5.85938">
        <ele>639.8</ele>
        <time>2022-03-17T09:37:04Z</time>
      </trkpt>
      <trkpt lat="46.8445" lon="5.85939">
        <ele>638.6</ele>
        <time>2022-03-17T09:37:09Z</time>
      </trkpt>
      <trkpt lat="46.84455" lon="5.8594">
        <ele>637.4</ele>
        <time>2022-03-17T09:37:14Z</time>
      </trkpt>
      <trkpt lat="46.8446" lon="5.85941">
        <ele>636.2</ele>
        <time>2022-03-17T09:37:19Z</time>
      </trkpt>
      <trkpt lat="46.84465" lon="5.85943">
        <ele>635.3</ele>
        <time>2022-03-17T09:37:25Z</time>
      </trkpt>
      <trkpt lat="46.8447" lon="5.85947">
        <ele>635.3</ele>
        <time>2022-03-17T09:37:30Z</time>
      </trkpt>
      <trkpt lat="46.84473" lon="5.85953">
        <ele>635.5</ele>
        <time>2022-03-17T09:37:35Z</time>
      </trkpt>
      <trkpt lat="46.84476" lon="5.85958">
        <ele>635.9</ele>
        <time>2022-03-17T09:37:42Z</time>
      </trkpt>
      <trkpt lat="46.8448" lon="5.85962">
        <ele>635.3</ele>
        <time>2022-03-17T09:37:49Z</time>
      </trkpt>
      <trkpt lat="46.84483" lon="5.85969">
        <ele>634.2</ele>
        <time>2022-03-17T09:37:57Z</time>
      </trkpt>
      <trkpt lat="46.84488" lon="5.85971">
        <ele>633.3</ele>
        <time>2022-03-17T09:38:01Z</time>
      </trkpt>
      <trkpt lat="46.84492" lon="5.85975">
        <ele>632.2</ele>
        <time>2022-03-17T09:38:07Z</time>
      </trkpt>
      <trkpt lat="46.84496" lon="5.85979">
        <ele>631.5</ele>
        <time>2022-03-17T09:38:15Z</time>
      </trkpt>
      <trkpt lat="46.84499" lon="5.85985">
        <ele>630.8</ele>
        <time>2022-03-17T09:38:20Z</time>
      </trkpt>
      <trkpt lat="46.84497" lon="5.85992">
        <ele>629.8</ele>
        <time>2022-03-17T09:38:27Z</time>
      </trkpt>
      <trkpt lat="46.84494" lon="5.85998">
        <ele>628.9</ele>
        <time>2022-03-17T09:38:33Z</time>
      </trkpt>
      <trkpt lat="46.84492" lon="5.86004">
        <ele>628.6</ele>
        <time>2022-03-17T09:38:38Z</time>
      </trkpt>
      <trkpt lat="46.84489" lon="5.86012">
        <ele>628.5</ele>
        <time>2022-03-17T09:38:41Z</time>
      </trkpt>
      <trkpt lat="46.84485" lon="5.86019">
        <ele>628.6</ele>
        <time>2022-03-17T09:38:47Z</time>
      </trkpt>
      <trkpt lat="46.8448" lon="5.86023">
        <ele>629</ele>
        <time>2022-03-17T09:38:50Z</time>
      </trkpt>
      <trkpt lat="46.84475" lon="5.86027">
        <ele>630</ele>
        <time>2022-03-17T09:38:54Z</time>
      </trkpt>
      <trkpt lat="46.84473" lon="5.86033">
        <ele>630.8</ele>
        <time>2022-03-17T09:39:00Z</time>
      </trkpt>
      <trkpt lat="46.84473" lon="5.86039">
        <ele>631.2</ele>
        <time>2022-03-17T09:39:06Z</time>
      </trkpt>
      <trkpt lat="46.84476" lon="5.86045">
        <ele>631.3</ele>
        <time>2022-03-17T09:39:18Z</time>
      </trkpt>
      <trkpt lat="46.84474" lon="5.86051">
        <ele>631.4</ele>
        <time>2022-03-17T09:39:22Z</time>
      </trkpt>
      <trkpt lat="46.84471" lon="5.86059">
        <ele>631.9</ele>
        <time>2022-03-17T09:39:26Z</time>
      </trkpt>
      <trkpt lat="46.84473" lon="5.86065">
        <ele>632</ele>
        <time>2022-03-17T09:39:33Z</time>
      </trkpt>
      <trkpt lat="46.84473" lon="5.86077">
        <ele>633.2</ele>
        <time>2022-03-17T09:39:48Z</time>
      </trkpt>
      <trkpt lat="46.84471" lon="5.86087">
        <ele>633.8</ele>
        <time>2022-03-17T09:39:51Z</time>
      </trkpt>
      <trkpt lat="46.84471" lon="5.86094">
        <ele>634.5</ele>
        <time>2022-03-17T09:39:55Z</time>
      </trkpt>
      <trkpt lat="46.84471" lon="5.86102">
        <ele>634.6</ele>
        <time>2022-03-17T09:40:01Z</time>
      </trkpt>
      <trkpt lat="46.8447" lon="5.86109">
        <ele>634.2</ele>
        <time>2022-03-17T09:40:06Z</time>
      </trkpt>
      <trkpt lat="46.84469" lon="5.86117">
        <ele>634.3</ele>
        <time>2022-03-17T09:40:15Z</time>
      </trkpt>
      <trkpt lat="46.84468" lon="5.86125">
        <ele>634.3</ele>
        <time>2022-03-17T09:40:18Z</time>
      </trkpt>
      <trkpt lat="46.84467" lon="5.86132">
        <ele>634.5</ele>
        <time>2022-03-17T09:40:21Z</time>
      </trkpt>
      <trkpt lat="46.84467" lon="5.8614">
        <ele>635</ele>
        <time>2022-03-17T09:40:25Z</time>
      </trkpt>
      <trkpt lat="46.84467" lon="5.86148">
        <ele>635.5</ele>
        <time>2022-03-17T09:40:30Z</time>
      </trkpt>
      <trkpt lat="46.84466" lon="5.86155">
        <ele>635.7</ele>
        <time>2022-03-17T09:40:34Z</time>
      </trkpt>
      <trkpt lat="46.84466" lon="5.86163">
        <ele>635.9</ele>
        <time>2022-03-17T09:40:40Z</time>
      </trkpt>
      <trkpt lat="46.84468" lon="5.86169">
        <ele>636.6</ele>
        <time>2022-03-17T09:40:45Z</time>
      </trkpt>
      <trkpt lat="46.84468" lon="5.86176">
        <ele>638.4</ele>
        <time>2022-03-17T09:40:51Z</time>
      </trkpt>
      <trkpt lat="46.84469" lon="5.86182">
        <ele>639.5</ele>
        <time>2022-03-17T09:40:57Z</time>
      </trkpt>
      <trkpt lat="46.84469" lon="5.86189">
        <ele>639.7</ele>
        <time>2022-03-17T09:41:02Z</time>
      </trkpt>
      <trkpt lat="46.84468" lon="5.86196">
        <ele>639.9</ele>
        <time>2022-03-17T09:41:08Z</time>
      </trkpt>
      <trkpt lat="46.84466" lon="5.86204">
        <ele>640.5</ele>
        <time>2022-03-17T09:41:13Z</time>
      </trkpt>
      <trkpt lat="46.84467" lon="5.86211">
        <ele>641.5</ele>
        <time>2022-03-17T09:41:18Z</time>
      </trkpt>
      <trkpt lat="46.84468" lon="5.86217">
        <ele>642.9</ele>
        <time>2022-03-17T09:41:26Z</time>
      </trkpt>
      <trkpt lat="46.84468" lon="5.86224">
        <ele>643.5</ele>
        <time>2022-03-17T09:41:32Z</time>
      </trkpt>
      <trkpt lat="46.8447" lon="5.86232">
        <ele>644</ele>
        <time>2022-03-17T09:41:38Z</time>
      </trkpt>
      <trkpt lat="46.84469" lon="5.86239">
        <ele>644.2</ele>
        <time>2022-03-17T09:41:42Z</time>
      </trkpt>
      <trkpt lat="46.84471" lon="5.86247">
        <ele>644.6</ele>
        <time>2022-03-17T09:41:46Z</time>
      </trkpt>
      <trkpt lat="46.84471" lon="5.86254">
        <ele>645.2</ele>
        <time>2022-03-17T09:41:50Z</time>
      </trkpt>
      <trkpt lat="46.84469" lon="5.86262">
        <ele>646</ele>
        <time>2022-03-17T09:41:57Z</time>
      </trkpt>
      <trkpt lat="46.84467" lon="5.86268">
        <ele>646.2</ele>
        <time>2022-03-17T09:42:02Z</time>
      </trkpt>
      <trkpt lat="46.8447" lon="5.86274">
        <ele>646.6</ele>
        <time>2022-03-17T09:42:08Z</time>
      </trkpt>
      <trkpt lat="46.84469" lon="5.86282">
        <ele>647.4</ele>
        <time>2022-03-17T09:42:14Z</time>
      </trkpt>
      <trkpt lat="46.84467" lon="5.86288">
        <ele>648.2</ele>
        <time>2022-03-17T09:42:19Z</time>
      </trkpt>
      <trkpt lat="46.84467" lon="5.86295">
        <ele>649.6</ele>
        <time>2022-03-17T09:42:25Z</time>
      </trkpt>
      <trkpt lat="46.84469" lon="5.86307">
        <ele>652.3</ele>
        <time>2022-03-17T09:42:46Z</time>
      </trkpt>
      <trkpt lat="46.84471" lon="5.86313">
        <ele>652.9</ele>
        <time>2022-03-17T09:42:49Z</time>
      </trkpt>
      <trkpt lat="46.84474" lon="5.86319">
        <ele>654.3</ele>
        <time>2022-03-17T09:42:54Z</time>
      </trkpt>
      <trkpt lat="46.84472" lon="5.86326">
        <ele>655.8</ele>
        <time>2022-03-17T09:42:59Z</time>
      </trkpt>
      <trkpt lat="46.8447" lon="5.86333">
        <ele>657.3</ele>
        <time>2022-03-17T09:43:05Z</time>
      </trkpt>
      <trkpt lat="46.84468" lon="5.8634">
        <ele>658.7</ele>
        <time>2022-03-17T09:43:12Z</time>
      </trkpt>
      <trkpt lat="46.84464" lon="5.86344">
        <ele>658.8</ele>
        <time>2022-03-17T09:43:16Z</time>
      </trkpt>
      <trkpt lat="46.84459" lon="5.86343">
        <ele>658.7</ele>
        <time>2022-03-17T09:43:32Z</time>
      </trkpt>
      <trkpt lat="46.84453" lon="5.86344">
        <ele>660.4</ele>
        <time>2022-03-17T09:44:01Z</time>
      </trkpt>
      <trkpt lat="46.84449" lon="5.86345">
        <ele>662.9</ele>
        <time>2022-03-17T09:44:06Z</time>
      </trkpt>
      <trkpt lat="46.84452" lon="5.86351">
        <ele>667.1</ele>
        <time>2022-03-17T09:44:22Z</time>
      </trkpt>
      <trkpt lat="46.8446" lon="5.86353">
        <ele>667.3</ele>
        <time>2022-03-17T09:44:25Z</time>
      </trkpt>
      <trkpt lat="46.84465" lon="5.86353">
        <ele>667</ele>
        <time>2022-03-17T09:44:28Z</time>
      </trkpt>
      <trkpt lat="46.84468" lon="5.86358">
        <ele>660.4</ele>
        <time>2022-03-17T09:45:26Z</time>
      </trkpt>
      <trkpt lat="46.84472" lon="5.86361">
        <ele>664.8</ele>
        <time>2022-03-17T09:46:48Z</time>
      </trkpt>
      <trkpt lat="46.84469" lon="5.86368">
        <ele>665.5</ele>
        <time>2022-03-17T09:47:05Z</time>
      </trkpt>
      <trkpt lat="46.8447" lon="5.86374">
        <ele>665.8</ele>
        <time>2022-03-17T09:47:12Z</time>
      </trkpt>
      <trkpt lat="46.84472" lon="5.86381">
        <ele>665.7</ele>
        <time>2022-03-17T09:47:19Z</time>
      </trkpt>
      <trkpt lat="46.84474" lon="5.86388">
        <ele>665.8</ele>
        <time>2022-03-17T09:47:25Z</time>
      </trkpt>
      <trkpt lat="46.84477" lon="5.86394">
        <ele>666.1</ele>
        <time>2022-03-17T09:47:31Z</time>
      </trkpt>
      <trkpt lat="46.84479" lon="5.86401">
        <ele>666.9</ele>
        <time>2022-03-17T09:47:36Z</time>
      </trkpt>
      <trkpt lat="46.84479" lon="5.86408">
        <ele>667.5</ele>
        <time>2022-03-17T09:47:40Z</time>
      </trkpt>
      <trkpt lat="46.84477" lon="5.86415">
        <ele>668.3</ele>
        <time>2022-03-17T09:47:45Z</time>
      </trkpt>
      <trkpt lat="46.84474" lon="5.86421">
        <ele>669.1</ele>
        <time>2022-03-17T09:47:50Z</time>
      </trkpt>
      <trkpt lat="46.84472" lon="5.86428">
        <ele>669.1</ele>
        <time>2022-03-17T09:47:57Z</time>
      </trkpt>
      <trkpt lat="46.84471" lon="5.86436">
        <ele>668.5</ele>
        <time>2022-03-17T09:48:02Z</time>
      </trkpt>
      <trkpt lat="46.84472" lon="5.86443">
        <ele>668</ele>
        <time>2022-03-17T09:48:07Z</time>
      </trkpt>
      <trkpt lat="46.84473" lon="5.8645">
        <ele>667.4</ele>
        <time>2022-03-17T09:48:12Z</time>
      </trkpt>
      <trkpt lat="46.84474" lon="5.86458">
        <ele>666.9</ele>
        <time>2022-03-17T09:48:17Z</time>
      </trkpt>
      <trkpt lat="46.84474" lon="5.86465">
        <ele>667</ele>
        <time>2022-03-17T09:48:22Z</time>
      </trkpt>
      <trkpt lat="46.84473" lon="5.86473">
        <ele>667.2</ele>
        <time>2022-03-17T09:48:27Z</time>
      </trkpt>
      <trkpt lat="46.84472" lon="5.8648">
        <ele>667.7</ele>
        <time>2022-03-17T09:48:32Z</time>
      </trkpt>
      <trkpt lat="46.84472" lon="5.86487">
        <ele>668</ele>
        <time>2022-03-17T09:48:36Z</time>
      </trkpt>
      <trkpt lat="46.8447" lon="5.86494">
        <ele>668.8</ele>
        <time>2022-03-17T09:48:42Z</time>
      </trkpt>
      <trkpt lat="46.84471" lon="5.86501">
        <ele>670</ele>
        <time>2022-03-17T09:48:51Z</time>
      </trkpt>
      <trkpt lat="46.8447" lon="5.86507">
        <ele>671.7</ele>
        <time>2022-03-17T09:49:01Z</time>
      </trkpt>
      <trkpt lat="46.84466" lon="5.86511">
        <ele>672.3</ele>
        <time>2022-03-17T09:49:06Z</time>
      </trkpt>
      <trkpt lat="46.84466" lon="5.86518">
        <ele>673.5</ele>
        <time>2022-03-17T09:49:14Z</time>
      </trkpt>
      <trkpt lat="46.84461" lon="5.86516">
        <ele>674.7</ele>
        <time>2022-03-17T09:49:26Z</time>
      </trkpt>
      <trkpt lat="46.84457" lon="5.86516">
        <ele>674.8</ele>
        <time>2022-03-17T09:49:30Z</time>
      </trkpt>
      <trkpt lat="46.84452" lon="5.86515">
        <ele>674.9</ele>
        <time>2022-03-17T09:49:34Z</time>
      </trkpt>
      <trkpt lat="46.84447" lon="5.86516">
        <ele>675.3</ele>
        <time>2022-03-17T09:49:38Z</time>
      </trkpt>
      <trkpt lat="46.84442" lon="5.86518">
        <ele>675.3</ele>
        <time>2022-03-17T09:49:43Z</time>
      </trkpt>
      <trkpt lat="46.84438" lon="5.8652">
        <ele>674.9</ele>
        <time>2022-03-17T09:49:52Z</time>
      </trkpt>
      <trkpt lat="46.84433" lon="5.86521">
        <ele>674.6</ele>
        <time>2022-03-17T09:49:56Z</time>
      </trkpt>
      <trkpt lat="46.84427" lon="5.86522">
        <ele>674.2</ele>
        <time>2022-03-17T09:50:00Z</time>
      </trkpt>
      <trkpt lat="46.84423" lon="5.86525">
        <ele>673.4</ele>
        <time>2022-03-17T09:50:05Z</time>
      </trkpt>
      <trkpt lat="46.84418" lon="5.86526">
        <ele>672.2</ele>
        <time>2022-03-17T09:50:12Z</time>
      </trkpt>
      <trkpt lat="46.84413" lon="5.86528">
        <ele>669.9</ele>
        <time>2022-03-17T09:50:19Z</time>
      </trkpt>
      <trkpt lat="46.84408" lon="5.86531">
        <ele>667.2</ele>
        <time>2022-03-17T09:50:25Z</time>
      </trkpt>
      <trkpt lat="46.84405" lon="5.86537">
        <ele>664.5</ele>
        <time>2022-03-17T09:50:33Z</time>
      </trkpt>
      <trkpt lat="46.844" lon="5.86542">
        <ele>663.9</ele>
        <time>2022-03-17T09:50:37Z</time>
      </trkpt>
      <trkpt lat="46.84396" lon="5.86545">
        <ele>664.1</ele>
        <time>2022-03-17T09:50:41Z</time>
      </trkpt>
      <trkpt lat="46.84391" lon="5.86543">
        <ele>665.2</ele>
        <time>2022-03-17T09:50:46Z</time>
      </trkpt>
      <trkpt lat="46.84392" lon="5.86536">
        <ele>668.7</ele>
        <time>2022-03-17T09:51:08Z</time>
      </trkpt>
      <trkpt lat="46.84393" lon="5.86542">
        <ele>668.5</ele>
        <time>2022-03-17T09:51:32Z</time>
      </trkpt>
      <trkpt lat="46.84398" lon="5.86543">
        <ele>669.5</ele>
        <time>2022-03-17T09:51:38Z</time>
      </trkpt>
      <trkpt lat="46.84402" lon="5.86541">
        <ele>670.1</ele>
        <time>2022-03-17T09:51:41Z</time>
      </trkpt>
      <trkpt lat="46.84407" lon="5.86539">
        <ele>670.6</ele>
        <time>2022-03-17T09:51:44Z</time>
      </trkpt>
      <trkpt lat="46.84412" lon="5.86542">
        <ele>671.3</ele>
        <time>2022-03-17T09:51:48Z</time>
      </trkpt>
      <trkpt lat="46.84416" lon="5.86546">
        <ele>671.7</ele>
        <time>2022-03-17T09:51:52Z</time>
      </trkpt>
      <trkpt lat="46.8442" lon="5.86552">
        <ele>672</ele>
        <time>2022-03-17T09:51:56Z</time>
      </trkpt>
      <trkpt lat="46.84423" lon="5.86557">
        <ele>672.4</ele>
        <time>2022-03-17T09:52:00Z</time>
      </trkpt>
      <trkpt lat="46.84425" lon="5.86564">
        <ele>673.3</ele>
        <time>2022-03-17T09:52:07Z</time>
      </trkpt>
      <trkpt lat="46.84423" lon="5.8657">
        <ele>673.7</ele>
        <time>2022-03-17T09:52:11Z</time>
      </trkpt>
      <trkpt lat="46.84422" lon="5.86577">
        <ele>674.6</ele>
        <time>2022-03-17T09:52:18Z</time>
      </trkpt>
      <trkpt lat="46.84421" lon="5.86584">
        <ele>675.5</ele>
        <time>2022-03-17T09:52:28Z</time>
      </trkpt>
      <trkpt lat="46.84418" lon="5.8659">
        <ele>677.5</ele>
        <time>2022-03-17T09:52:41Z</time>
      </trkpt>
      <trkpt lat="46.84415" lon="5.86596">
        <ele>678.5</ele>
        <time>2022-03-17T09:52:45Z</time>
      </trkpt>
      <trkpt lat="46.84413" lon="5.86602">
        <ele>680.2</ele>
        <time>2022-03-17T09:52:53Z</time>
      </trkpt>
      <trkpt lat="46.84409" lon="5.86607">
        <ele>680.2</ele>
        <time>2022-03-17T09:52:58Z</time>
      </trkpt>
      <trkpt lat="46.84405" lon="5.86611">
        <ele>680</ele>
        <time>2022-03-17T09:53:03Z</time>
      </trkpt>
      <trkpt lat="46.84404" lon="5.86618">
        <ele>675.2</ele>
        <time>2022-03-17T09:53:26Z</time>
      </trkpt>
      <trkpt lat="46.84403" lon="5.86625">
        <ele>673.8</ele>
        <time>2022-03-17T09:53:33Z</time>
      </trkpt>
      <trkpt lat="46.844" lon="5.86631">
        <ele>673.6</ele>
        <time>2022-03-17T09:53:37Z</time>
      </trkpt>
      <trkpt lat="46.84396" lon="5.86636">
        <ele>673.6</ele>
        <time>2022-03-17T09:53:41Z</time>
      </trkpt>
      <trkpt lat="46.84393" lon="5.86641">
        <ele>673.6</ele>
        <time>2022-03-17T09:53:47Z</time>
      </trkpt>
      <trkpt lat="46.84389" lon="5.86645">
        <ele>674.2</ele>
        <time>2022-03-17T09:53:53Z</time>
      </trkpt>
      <trkpt lat="46.84387" lon="5.86652">
        <ele>674.2</ele>
        <time>2022-03-17T09:53:59Z</time>
      </trkpt>
      <trkpt lat="46.84385" lon="5.86658">
        <ele>673.9</ele>
        <time>2022-03-17T09:54:03Z</time>
      </trkpt>
      <trkpt lat="46.8438" lon="5.86663">
        <ele>673.5</ele>
        <time>2022-03-17T09:54:08Z</time>
      </trkpt>
      <trkpt lat="46.84376" lon="5.86666">
        <ele>673.2</ele>
        <time>2022-03-17T09:54:12Z</time>
      </trkpt>
      <trkpt lat="46.84373" lon="5.86671">
        <ele>673</ele>
        <time>2022-03-17T09:54:18Z</time>
      </trkpt>
      <trkpt lat="46.8437" lon="5.86677">
        <ele>673</ele>
        <time>2022-03-17T09:54:24Z</time>
      </trkpt>
      <trkpt lat="46.84366" lon="5.86681">
        <ele>673.3</ele>
        <time>2022-03-17T09:54:28Z</time>
      </trkpt>
      <trkpt lat="46.84361" lon="5.86684">
        <ele>673.7</ele>
        <time>2022-03-17T09:54:32Z</time>
      </trkpt>
      <trkpt lat="46.84357" lon="5.86687">
        <ele>674.5</ele>
        <time>2022-03-17T09:54:36Z</time>
      </trkpt>
      <trkpt lat="46.84353" lon="5.8669">
        <ele>675.7</ele>
        <time>2022-03-17T09:54:41Z</time>
      </trkpt>
      <trkpt lat="46.84349" lon="5.86693">
        <ele>677.5</ele>
        <time>2022-03-17T09:54:47Z</time>
      </trkpt>
      <trkpt lat="46.84345" lon="5.86696">
        <ele>678.5</ele>
        <time>2022-03-17T09:54:53Z</time>
      </trkpt>
      <trkpt lat="46.84346" lon="5.86704">
        <ele>676.5</ele>
        <time>2022-03-17T09:55:03Z</time>
      </trkpt>
      <trkpt lat="46.84347" lon="5.8671">
        <ele>675.8</ele>
        <time>2022-03-17T09:55:08Z</time>
      </trkpt>
      <trkpt lat="46.84351" lon="5.86716">
        <ele>675.9</ele>
        <time>2022-03-17T09:55:13Z</time>
      </trkpt>
      <trkpt lat="46.84354" lon="5.86721">
        <ele>676.4</ele>
        <time>2022-03-17T09:55:17Z</time>
      </trkpt>
      <trkpt lat="46.84357" lon="5.86726">
        <ele>677.5</ele>
        <time>2022-03-17T09:55:23Z</time>
      </trkpt>
      <trkpt lat="46.84358" lon="5.86737">
        <ele>679.2</ele>
        <time>2022-03-17T09:55:41Z</time>
      </trkpt>
      <trkpt lat="46.84357" lon="5.86746">
        <ele>679.1</ele>
        <time>2022-03-17T09:55:44Z</time>
      </trkpt>
      <trkpt lat="46.84354" lon="5.86753">
        <ele>678.9</ele>
        <time>2022-03-17T09:55:48Z</time>
      </trkpt>
      <trkpt lat="46.8435" lon="5.86757">
        <ele>678.5</ele>
        <time>2022-03-17T09:55:54Z</time>
      </trkpt>
      <trkpt lat="46.84346" lon="5.86762">
        <ele>678.4</ele>
        <time>2022-03-17T09:56:00Z</time>
      </trkpt>
      <trkpt lat="46.84342" lon="5.86768">
        <ele>678.5</ele>
        <time>2022-03-17T09:56:04Z</time>
      </trkpt>
      <trkpt lat="46.84338" lon="5.86773">
        <ele>678.7</ele>
        <time>2022-03-17T09:56:08Z</time>
      </trkpt>
      <trkpt lat="46.84335" lon="5.86779">
        <ele>679.2</ele>
        <time>2022-03-17T09:56:14Z</time>
      </trkpt>
      <trkpt lat="46.84332" lon="5.86786">
        <ele>679.7</ele>
        <time>2022-03-17T09:56:20Z</time>
      </trkpt>
      <trkpt lat="46.84329" lon="5.86791">
        <ele>679.9</ele>
        <time>2022-03-17T09:56:25Z</time>
      </trkpt>
      <trkpt lat="46.84324" lon="5.86795">
        <ele>679.2</ele>
        <time>2022-03-17T09:56:32Z</time>
      </trkpt>
      <trkpt lat="46.84319" lon="5.86798">
        <ele>678.6</ele>
        <time>2022-03-17T09:56:37Z</time>
      </trkpt>
      <trkpt lat="46.84314" lon="5.86802">
        <ele>678.3</ele>
        <time>2022-03-17T09:56:41Z</time>
      </trkpt>
      <trkpt lat="46.8431" lon="5.86806">
        <ele>678.6</ele>
        <time>2022-03-17T09:56:45Z</time>
      </trkpt>
      <trkpt lat="46.84305" lon="5.8681">
        <ele>679.5</ele>
        <time>2022-03-17T09:56:50Z</time>
      </trkpt>
      <trkpt lat="46.84301" lon="5.86815">
        <ele>681</ele>
        <time>2022-03-17T09:56:56Z</time>
      </trkpt>
      <trkpt lat="46.84297" lon="5.86819">
        <ele>683</ele>
        <time>2022-03-17T09:57:02Z</time>
      </trkpt>
      <trkpt lat="46.84292" lon="5.86818">
        <ele>684.3</ele>
        <time>2022-03-17T09:57:07Z</time>
      </trkpt>
      <trkpt lat="46.84287" lon="5.86817">
        <ele>686.2</ele>
        <time>2022-03-17T09:57:14Z</time>
      </trkpt>
      <trkpt lat="46.84287" lon="5.86809">
        <ele>687.3</ele>
        <time>2022-03-17T09:57:21Z</time>
      </trkpt>
      <trkpt lat="46.84289" lon="5.86803">
        <ele>688.1</ele>
        <time>2022-03-17T09:57:26Z</time>
      </trkpt>
      <trkpt lat="46.84291" lon="5.86797">
        <ele>689</ele>
        <time>2022-03-17T09:57:33Z</time>
      </trkpt>
      <trkpt lat="46.84289" lon="5.86789">
        <ele>690.1</ele>
        <time>2022-03-17T09:57:58Z</time>
      </trkpt>
      <trkpt lat="46.84285" lon="5.8679">
        <ele>688.2</ele>
        <time>2022-03-17T09:58:53Z</time>
      </trkpt>
      <trkpt lat="46.84283" lon="5.86797">
        <ele>687.5</ele>
        <time>2022-03-17T09:59:02Z</time>
      </trkpt>
      <trkpt lat="46.84282" lon="5.86804">
        <ele>687.2</ele>
        <time>2022-03-17T09:59:08Z</time>
      </trkpt>
      <trkpt lat="46.84281" lon="5.8681">
        <ele>687.1</ele>
        <time>2022-03-17T09:59:13Z</time>
      </trkpt>
      <trkpt lat="46.84283" lon="5.86817">
        <ele>687</ele>
        <time>2022-03-17T09:59:17Z</time>
      </trkpt>
      <trkpt lat="46.84285" lon="5.86823">
        <ele>686.9</ele>
        <time>2022-03-17T09:59:20Z</time>
      </trkpt>
      <trkpt lat="46.84287" lon="5.86829">
        <ele>686.7</ele>
        <time>2022-03-17T09:59:24Z</time>
      </trkpt>
      <trkpt lat="46.84289" lon="5.86836">
        <ele>686.2</ele>
        <time>2022-03-17T09:59:29Z</time>
      </trkpt>
      <trkpt lat="46.84292" lon="5.86842">
        <ele>685.4</ele>
        <time>2022-03-17T09:59:33Z</time>
      </trkpt>
      <trkpt lat="46.84292" lon="5.86848">
        <ele>684.2</ele>
        <time>2022-03-17T09:59:38Z</time>
      </trkpt>
      <trkpt lat="46.84291" lon="5.86855">
        <ele>682.8</ele>
        <time>2022-03-17T09:59:43Z</time>
      </trkpt>
      <trkpt lat="46.84288" lon="5.86861">
        <ele>681.9</ele>
        <time>2022-03-17T09:59:48Z</time>
      </trkpt>
      <trkpt lat="46.84285" lon="5.86866">
        <ele>681.1</ele>
        <time>2022-03-17T09:59:55Z</time>
      </trkpt>
      <trkpt lat="46.84286" lon="5.86873">
        <ele>679.8</ele>
        <time>2022-03-17T10:00:02Z</time>
      </trkpt>
      <trkpt lat="46.84288" lon="5.86879">
        <ele>678.6</ele>
        <time>2022-03-17T10:00:09Z</time>
      </trkpt>
      <trkpt lat="46.84289" lon="5.86886">
        <ele>678</ele>
        <time>2022-03-17T10:00:14Z</time>
      </trkpt>
      <trkpt lat="46.84287" lon="5.86896">
        <ele>677.6</ele>
        <time>2022-03-17T10:00:24Z</time>
      </trkpt>
      <trkpt lat="46.84283" lon="5.86905">
        <ele>677.6</ele>
        <time>2022-03-17T10:00:27Z</time>
      </trkpt>
      <trkpt lat="46.84279" lon="5.86911">
        <ele>677.6</ele>
        <time>2022-03-17T10:00:30Z</time>
      </trkpt>
      <trkpt lat="46.84277" lon="5.86917">
        <ele>677.6</ele>
        <time>2022-03-17T10:00:34Z</time>
      </trkpt>
      <trkpt lat="46.84277" lon="5.86924">
        <ele>677.2</ele>
        <time>2022-03-17T10:00:39Z</time>
      </trkpt>
      <trkpt lat="46.84277" lon="5.86931">
        <ele>677.3</ele>
        <time>2022-03-17T10:00:45Z</time>
      </trkpt>
      <trkpt lat="46.84277" lon="5.86938">
        <ele>677.7</ele>
        <time>2022-03-17T10:00:49Z</time>
      </trkpt>
      <trkpt lat="46.84276" lon="5.86946">
        <ele>678.4</ele>
        <time>2022-03-17T10:00:54Z</time>
      </trkpt>
      <trkpt lat="46.84274" lon="5.86952">
        <ele>678.7</ele>
        <time>2022-03-17T10:00:58Z</time>
      </trkpt>
      <trkpt lat="46.8427" lon="5.86957">
        <ele>679</ele>
        <time>2022-03-17T10:01:02Z</time>
      </trkpt>
      <trkpt lat="46.84265" lon="5.86961">
        <ele>679.5</ele>
        <time>2022-03-17T10:01:07Z</time>
      </trkpt>
      <trkpt lat="46.84262" lon="5.86965">
        <ele>679.5</ele>
        <time>2022-03-17T10:01:13Z</time>
      </trkpt>
      <trkpt lat="46.84259" lon="5.86971">
        <ele>679</ele>
        <time>2022-03-17T10:01:24Z</time>
      </trkpt>
      <trkpt lat="46.84256" lon="5.86976">
        <ele>678.6</ele>
        <time>2022-03-17T10:01:32Z</time>
      </trkpt>
      <trkpt lat="46.84254" lon="5.86982">
        <ele>678.4</ele>
        <time>2022-03-17T10:01:40Z</time>
      </trkpt>
      <trkpt lat="46.84252" lon="5.86989">
        <ele>678.3</ele>
        <time>2022-03-17T10:01:45Z</time>
      </trkpt>
      <trkpt lat="46.84249" lon="5.86996">
        <ele>678.2</ele>
        <time>2022-03-17T10:01:49Z</time>
      </trkpt>
      <trkpt lat="46.84245" lon="5.87001">
        <ele>678.1</ele>
        <time>2022-03-17T10:01:53Z</time>
      </trkpt>
      <trkpt lat="46.84242" lon="5.87005">
        <ele>677.9</ele>
        <time>2022-03-17T10:01:58Z</time>
      </trkpt>
      <trkpt lat="46.84237" lon="5.8701">
        <ele>677.8</ele>
        <time>2022-03-17T10:02:02Z</time>
      </trkpt>
      <trkpt lat="46.84233" lon="5.87016">
        <ele>678</ele>
        <time>2022-03-17T10:02:05Z</time>
      </trkpt>
      <trkpt lat="46.8423" lon="5.87023">
        <ele>678.6</ele>
        <time>2022-03-17T10:02:08Z</time>
      </trkpt>
      <trkpt lat="46.84227" lon="5.87029">
        <ele>679.4</ele>
        <time>2022-03-17T10:02:11Z</time>
      </trkpt>
      <trkpt lat="46.84224" lon="5.87035">
        <ele>680.6</ele>
        <time>2022-03-17T10:02:15Z</time>
      </trkpt>
      <trkpt lat="46.84222" lon="5.87041">
        <ele>682.3</ele>
        <time>2022-03-17T10:02:22Z</time>
      </trkpt>
      <trkpt lat="46.84218" lon="5.87048">
        <ele>682.8</ele>
        <time>2022-03-17T10:02:33Z</time>
      </trkpt>
      <trkpt lat="46.84214" lon="5.87051">
        <ele>682.5</ele>
        <time>2022-03-17T10:02:39Z</time>
      </trkpt>
      <trkpt lat="46.8421" lon="5.87055">
        <ele>681.7</ele>
        <time>2022-03-17T10:02:46Z</time>
      </trkpt>
      <trkpt lat="46.84207" lon="5.87061">
        <ele>681</ele>
        <time>2022-03-17T10:02:52Z</time>
      </trkpt>
      <trkpt lat="46.84204" lon="5.87067">
        <ele>680.5</ele>
        <time>2022-03-17T10:02:56Z</time>
      </trkpt>
      <trkpt lat="46.84201" lon="5.87072">
        <ele>680</ele>
        <time>2022-03-17T10:03:01Z</time>
      </trkpt>
      <trkpt lat="46.84199" lon="5.87079">
        <ele>679.5</ele>
        <time>2022-03-17T10:03:06Z</time>
      </trkpt>
      <trkpt lat="46.84196" lon="5.87086">
        <ele>679</ele>
        <time>2022-03-17T10:03:10Z</time>
      </trkpt>
      <trkpt lat="46.84193" lon="5.87092">
        <ele>678.2</ele>
        <time>2022-03-17T10:03:15Z</time>
      </trkpt>
      <trkpt lat="46.8419" lon="5.87098">
        <ele>678.1</ele>
        <time>2022-03-17T10:03:19Z</time>
      </trkpt>
      <trkpt lat="46.84188" lon="5.87105">
        <ele>677.5</ele>
        <time>2022-03-17T10:03:25Z</time>
      </trkpt>
      <trkpt lat="46.84186" lon="5.87111">
        <ele>676.4</ele>
        <time>2022-03-17T10:03:31Z</time>
      </trkpt>
      <trkpt lat="46.84183" lon="5.87117">
        <ele>674.9</ele>
        <time>2022-03-17T10:03:36Z</time>
      </trkpt>
      <trkpt lat="46.84181" lon="5.87123">
        <ele>673.3</ele>
        <time>2022-03-17T10:03:42Z</time>
      </trkpt>
      <trkpt lat="46.84183" lon="5.8713">
        <ele>672.3</ele>
        <time>2022-03-17T10:03:48Z</time>
      </trkpt>
      <trkpt lat="46.84184" lon="5.87137">
        <ele>671.5</ele>
        <time>2022-03-17T10:03:54Z</time>
      </trkpt>
      <trkpt lat="46.84185" lon="5.87143">
        <ele>670.9</ele>
        <time>2022-03-17T10:03:58Z</time>
      </trkpt>
      <trkpt lat="46.84184" lon="5.87151">
        <ele>670.2</ele>
        <time>2022-03-17T10:04:02Z</time>
      </trkpt>
      <trkpt lat="46.84185" lon="5.87159">
        <ele>669.6</ele>
        <time>2022-03-17T10:04:06Z</time>
      </trkpt>
      <trkpt lat="46.84186" lon="5.87165">
        <ele>669.2</ele>
        <time>2022-03-17T10:04:11Z</time>
      </trkpt>
      <trkpt lat="46.84186" lon="5.87172">
        <ele>669.4</ele>
        <time>2022-03-17T10:04:16Z</time>
      </trkpt>
      <trkpt lat="46.84186" lon="5.87179">
        <ele>670.1</ele>
        <time>2022-03-17T10:04:19Z</time>
      </trkpt>
      <trkpt lat="46.84185" lon="5.87185">
        <ele>670.8</ele>
        <time>2022-03-17T10:04:23Z</time>
      </trkpt>
      <trkpt lat="46.84183" lon="5.87193">
        <ele>671.8</ele>
        <time>2022-03-17T10:04:27Z</time>
      </trkpt>
      <trkpt lat="46.84183" lon="5.872">
        <ele>672.6</ele>
        <time>2022-03-17T10:04:31Z</time>
      </trkpt>
      <trkpt lat="46.84181" lon="5.87206">
        <ele>673.1</ele>
        <time>2022-03-17T10:04:37Z</time>
      </trkpt>
      <trkpt lat="46.84178" lon="5.87212">
        <ele>673</ele>
        <time>2022-03-17T10:04:42Z</time>
      </trkpt>
      <trkpt lat="46.84175" lon="5.87218">
        <ele>673</ele>
        <time>2022-03-17T10:04:46Z</time>
      </trkpt>
      <trkpt lat="46.84174" lon="5.87224">
        <ele>673.3</ele>
        <time>2022-03-17T10:04:49Z</time>
      </trkpt>
      <trkpt lat="46.8417" lon="5.87231">
        <ele>673.6</ele>
        <time>2022-03-17T10:04:54Z</time>
      </trkpt>
      <trkpt lat="46.84168" lon="5.87237">
        <ele>674.2</ele>
        <time>2022-03-17T10:04:58Z</time>
      </trkpt>
      <trkpt lat="46.84165" lon="5.87243">
        <ele>674.8</ele>
        <time>2022-03-17T10:05:02Z</time>
      </trkpt>
      <trkpt lat="46.84162" lon="5.87249">
        <ele>675.2</ele>
        <time>2022-03-17T10:05:08Z</time>
      </trkpt>
      <trkpt lat="46.84158" lon="5.87253">
        <ele>675.4</ele>
        <time>2022-03-17T10:05:14Z</time>
      </trkpt>
      <trkpt lat="46.84154" lon="5.87257">
        <ele>677</ele>
        <time>2022-03-17T10:05:42Z</time>
      </trkpt>
      <trkpt lat="46.84154" lon="5.87264">
        <ele>677.7</ele>
        <time>2022-03-17T10:05:48Z</time>
      </trkpt>
      <trkpt lat="46.84155" lon="5.87258">
        <ele>678.2</ele>
        <time>2022-03-17T10:06:03Z</time>
      </trkpt>
      <trkpt lat="46.84151" lon="5.87257">
        <ele>676.9</ele>
        <time>2022-03-17T10:06:15Z</time>
      </trkpt>
      <trkpt lat="46.84155" lon="5.87254">
        <ele>677.9</ele>
        <time>2022-03-17T10:06:41Z</time>
      </trkpt>
      <trkpt lat="46.84152" lon="5.87259">
        <ele>678.7</ele>
        <time>2022-03-17T10:07:31Z</time>
      </trkpt>
      <trkpt lat="46.84148" lon="5.87264">
        <ele>679.3</ele>
        <time>2022-03-17T10:07:36Z</time>
      </trkpt>
      <trkpt lat="46.84147" lon="5.87271">
        <ele>679.8</ele>
        <time>2022-03-17T10:07:41Z</time>
      </trkpt>
      <trkpt lat="46.84146" lon="5.87278">
        <ele>680.1</ele>
        <time>2022-03-17T10:07:46Z</time>
      </trkpt>
      <trkpt lat="46.84143" lon="5.87283">
        <ele>680</ele>
        <time>2022-03-17T10:07:53Z</time>
      </trkpt>
      <trkpt lat="46.8414" lon="5.87289">
        <ele>679.9</ele>
        <time>2022-03-17T10:07:58Z</time>
      </trkpt>
      <trkpt lat="46.84138" lon="5.87296">
        <ele>679.5</ele>
        <time>2022-03-17T10:08:04Z</time>
      </trkpt>
      <trkpt lat="46.84137" lon="5.87303">
        <ele>678.5</ele>
        <time>2022-03-17T10:08:11Z</time>
      </trkpt>
      <trkpt lat="46.84136" lon="5.8731">
        <ele>678</ele>
        <time>2022-03-17T10:08:15Z</time>
      </trkpt>
      <trkpt lat="46.84134" lon="5.87317">
        <ele>677</ele>
        <time>2022-03-17T10:08:21Z</time>
      </trkpt>
      <trkpt lat="46.84129" lon="5.87321">
        <ele>675.9</ele>
        <time>2022-03-17T10:08:26Z</time>
      </trkpt>
      <trkpt lat="46.84124" lon="5.87324">
        <ele>674.9</ele>
        <time>2022-03-17T10:08:30Z</time>
      </trkpt>
      <trkpt lat="46.84119" lon="5.87323">
        <ele>673.7</ele>
        <time>2022-03-17T10:08:35Z</time>
      </trkpt>
      <trkpt lat="46.84114" lon="5.87321">
        <ele>672.9</ele>
        <time>2022-03-17T10:08:39Z</time>
      </trkpt>
      <trkpt lat="46.84108" lon="5.8732">
        <ele>672.5</ele>
        <time>2022-03-17T10:08:43Z</time>
      </trkpt>
      <trkpt lat="46.84103" lon="5.8732">
        <ele>672.6</ele>
        <time>2022-03-17T10:08:47Z</time>
      </trkpt>
      <trkpt lat="46.84098" lon="5.87321">
        <ele>672.7</ele>
        <time>2022-03-17T10:08:52Z</time>
      </trkpt>
      <trkpt lat="46.84093" lon="5.87319">
        <ele>672.2</ele>
        <time>2022-03-17T10:08:57Z</time>
      </trkpt>
      <trkpt lat="46.84089" lon="5.87323">
        <ele>671.9</ele>
        <time>2022-03-17T10:09:03Z</time>
      </trkpt>
      <trkpt lat="46.84088" lon="5.87329">
        <ele>671.6</ele>
        <time>2022-03-17T10:09:09Z</time>
      </trkpt>
      <trkpt lat="46.84089" lon="5.87336">
        <ele>671.1</ele>
        <time>2022-03-17T10:09:15Z</time>
      </trkpt>
      <trkpt lat="46.84091" lon="5.87342">
        <ele>670.7</ele>
        <time>2022-03-17T10:09:20Z</time>
      </trkpt>
      <trkpt lat="46.84094" lon="5.87347">
        <ele>669.9</ele>
        <time>2022-03-17T10:09:29Z</time>
      </trkpt>
      <trkpt lat="46.84099" lon="5.87349">
        <ele>669.5</ele>
        <time>2022-03-17T10:09:35Z</time>
      </trkpt>
      <trkpt lat="46.84104" lon="5.8735">
        <ele>669</ele>
        <time>2022-03-17T10:09:42Z</time>
      </trkpt>
      <trkpt lat="46.84109" lon="5.87349">
        <ele>669.1</ele>
        <time>2022-03-17T10:09:49Z</time>
      </trkpt>
      <trkpt lat="46.84114" lon="5.87348">
        <ele>669.3</ele>
        <time>2022-03-17T10:09:54Z</time>
      </trkpt>
      <trkpt lat="46.84119" lon="5.87346">
        <ele>669.6</ele>
        <time>2022-03-17T10:09:59Z</time>
      </trkpt>
      <trkpt lat="46.84123" lon="5.87342">
        <ele>670.2</ele>
        <time>2022-03-17T10:10:03Z</time>
      </trkpt>
      <trkpt lat="46.84128" lon="5.8734">
        <ele>670.8</ele>
        <time>2022-03-17T10:10:08Z</time>
      </trkpt>
      <trkpt lat="46.84132" lon="5.87339">
        <ele>671.6</ele>
        <time>2022-03-17T10:10:13Z</time>
      </trkpt>
      <trkpt lat="46.84137" lon="5.87338">
        <ele>672.4</ele>
        <time>2022-03-17T10:10:19Z</time>
      </trkpt>
      <trkpt lat="46.84141" lon="5.8734">
        <ele>673.5</ele>
        <time>2022-03-17T10:10:27Z</time>
      </trkpt>
      <trkpt lat="46.84147" lon="5.87339">
        <ele>674.6</ele>
        <time>2022-03-17T10:10:32Z</time>
      </trkpt>
      <trkpt lat="46.84152" lon="5.87338">
        <ele>675.5</ele>
        <time>2022-03-17T10:10:36Z</time>
      </trkpt>
      <trkpt lat="46.84157" lon="5.87339">
        <ele>676.2</ele>
        <time>2022-03-17T10:10:41Z</time>
      </trkpt>
      <trkpt lat="46.84161" lon="5.87341">
        <ele>676.4</ele>
        <time>2022-03-17T10:10:45Z</time>
      </trkpt>
      <trkpt lat="46.84167" lon="5.87341">
        <ele>676.5</ele>
        <time>2022-03-17T10:10:49Z</time>
      </trkpt>
      <trkpt lat="46.84173" lon="5.87344">
        <ele>676.1</ele>
        <time>2022-03-17T10:10:53Z</time>
      </trkpt>
      <trkpt lat="46.84178" lon="5.87347">
        <ele>675.7</ele>
        <time>2022-03-17T10:10:57Z</time>
      </trkpt>
      <trkpt lat="46.84183" lon="5.8735">
        <ele>675.5</ele>
        <time>2022-03-17T10:11:01Z</time>
      </trkpt>
      <trkpt lat="46.84187" lon="5.87355">
        <ele>675.4</ele>
        <time>2022-03-17T10:11:06Z</time>
      </trkpt>
      <trkpt lat="46.84192" lon="5.87359">
        <ele>675.6</ele>
        <time>2022-03-17T10:11:10Z</time>
      </trkpt>
      <trkpt lat="46.84196" lon="5.87362">
        <ele>675.5</ele>
        <time>2022-03-17T10:11:15Z</time>
      </trkpt>
      <trkpt lat="46.84201" lon="5.87365">
        <ele>675.3</ele>
        <time>2022-03-17T10:11:23Z</time>
      </trkpt>
      <trkpt lat="46.84204" lon="5.8737">
        <ele>675.3</ele>
        <time>2022-03-17T10:11:29Z</time>
      </trkpt>
      <trkpt lat="46.84209" lon="5.87372">
        <ele>675.5</ele>
        <time>2022-03-17T10:11:35Z</time>
      </trkpt>
      <trkpt lat="46.84213" lon="5.87371">
        <ele>675.8</ele>
        <time>2022-03-17T10:11:42Z</time>
      </trkpt>
      <trkpt lat="46.84218" lon="5.87371">
        <ele>675.8</ele>
        <time>2022-03-17T10:11:47Z</time>
      </trkpt>
      <trkpt lat="46.84223" lon="5.8737">
        <ele>676</ele>
        <time>2022-03-17T10:11:52Z</time>
      </trkpt>
      <trkpt lat="46.84229" lon="5.87368">
        <ele>676.2</ele>
        <time>2022-03-17T10:11:56Z</time>
      </trkpt>
      <trkpt lat="46.84234" lon="5.87365">
        <ele>676.5</ele>
        <time>2022-03-17T10:12:00Z</time>
      </trkpt>
      <trkpt lat="46.84239" lon="5.87363">
        <ele>677</ele>
        <time>2022-03-17T10:12:05Z</time>
      </trkpt>
      <trkpt lat="46.84243" lon="5.87361">
        <ele>677.7</ele>
        <time>2022-03-17T10:12:09Z</time>
      </trkpt>
      <trkpt lat="46.84248" lon="5.87357">
        <ele>679.6</ele>
        <time>2022-03-17T10:12:15Z</time>
      </trkpt>
      <trkpt lat="46.84252" lon="5.87355">
        <ele>681.3</ele>
        <time>2022-03-17T10:12:20Z</time>
      </trkpt>
      <trkpt lat="46.84257" lon="5.87351">
        <ele>682.5</ele>
        <time>2022-03-17T10:12:24Z</time>
      </trkpt>
      <trkpt lat="46.84262" lon="5.87348">
        <ele>683.5</ele>
        <time>2022-03-17T10:12:29Z</time>
      </trkpt>
      <trkpt lat="46.84267" lon="5.87346">
        <ele>683.6</ele>
        <time>2022-03-17T10:12:33Z</time>
      </trkpt>
      <trkpt lat="46.84271" lon="5.87351">
        <ele>682.2</ele>
        <time>2022-03-17T10:12:44Z</time>
      </trkpt>
      <trkpt lat="46.84276" lon="5.87349">
        <ele>681.9</ele>
        <time>2022-03-17T10:12:48Z</time>
      </trkpt>
      <trkpt lat="46.84281" lon="5.87348">
        <ele>681.6</ele>
        <time>2022-03-17T10:12:51Z</time>
      </trkpt>
      <trkpt lat="46.84286" lon="5.8735">
        <ele>681</ele>
        <time>2022-03-17T10:12:55Z</time>
      </trkpt>
      <trkpt lat="46.84291" lon="5.87351">
        <ele>680.2</ele>
        <time>2022-03-17T10:13:00Z</time>
      </trkpt>
      <trkpt lat="46.84297" lon="5.87351">
        <ele>680.1</ele>
        <time>2022-03-17T10:13:04Z</time>
      </trkpt>
      <trkpt lat="46.84303" lon="5.87351">
        <ele>679.8</ele>
        <time>2022-03-17T10:13:09Z</time>
      </trkpt>
      <trkpt lat="46.84308" lon="5.87351">
        <ele>679.4</ele>
        <time>2022-03-17T10:13:14Z</time>
      </trkpt>
      <trkpt lat="46.84313" lon="5.87351">
        <ele>678.9</ele>
        <time>2022-03-17T10:13:19Z</time>
      </trkpt>
      <trkpt lat="46.84319" lon="5.87352">
        <ele>679.1</ele>
        <time>2022-03-17T10:13:23Z</time>
      </trkpt>
      <trkpt lat="46.84325" lon="5.87353">
        <ele>679.6</ele>
        <time>2022-03-17T10:13:27Z</time>
      </trkpt>
      <trkpt lat="46.8433" lon="5.87355">
        <ele>680.5</ele>
        <time>2022-03-17T10:13:31Z</time>
      </trkpt>
      <trkpt lat="46.84335" lon="5.87357">
        <ele>681.5</ele>
        <time>2022-03-17T10:13:35Z</time>
      </trkpt>
      <trkpt lat="46.84339" lon="5.87359">
        <ele>682.4</ele>
        <time>2022-03-17T10:13:39Z</time>
      </trkpt>
      <trkpt lat="46.84343" lon="5.87363">
        <ele>683.1</ele>
        <time>2022-03-17T10:13:43Z</time>
      </trkpt>
      <trkpt lat="46.84348" lon="5.87366">
        <ele>683.6</ele>
        <time>2022-03-17T10:13:48Z</time>
      </trkpt>
      <trkpt lat="46.84353" lon="5.87367">
        <ele>684.1</ele>
        <time>2022-03-17T10:13:53Z</time>
      </trkpt>
      <trkpt lat="46.84358" lon="5.87369">
        <ele>684.5</ele>
        <time>2022-03-17T10:13:57Z</time>
      </trkpt>
      <trkpt lat="46.84363" lon="5.8737">
        <ele>685</ele>
        <time>2022-03-17T10:14:01Z</time>
      </trkpt>
      <trkpt lat="46.84369" lon="5.8737">
        <ele>685.6</ele>
        <time>2022-03-17T10:14:05Z</time>
      </trkpt>
      <trkpt lat="46.84374" lon="5.87371">
        <ele>686</ele>
        <time>2022-03-17T10:14:09Z</time>
      </trkpt>
      <trkpt lat="46.84379" lon="5.8737">
        <ele>686.6</ele>
        <time>2022-03-17T10:14:13Z</time>
      </trkpt>
      <trkpt lat="46.84384" lon="5.87371">
        <ele>687.2</ele>
        <time>2022-03-17T10:14:17Z</time>
      </trkpt>
      <trkpt lat="46.84388" lon="5.87372">
        <ele>687.6</ele>
        <time>2022-03-17T10:14:21Z</time>
      </trkpt>
      <trkpt lat="46.84392" lon="5.87377">
        <ele>687.5</ele>
        <time>2022-03-17T10:14:26Z</time>
      </trkpt>
      <trkpt lat="46.84396" lon="5.87381">
        <ele>687</ele>
        <time>2022-03-17T10:14:30Z</time>
      </trkpt>
      <trkpt lat="46.844" lon="5.87386">
        <ele>686.7</ele>
        <time>2022-03-17T10:14:35Z</time>
      </trkpt>
      <trkpt lat="46.84405" lon="5.8739">
        <ele>686.7</ele>
        <time>2022-03-17T10:14:39Z</time>
      </trkpt>
      <trkpt lat="46.84411" lon="5.87392">
        <ele>686.7</ele>
        <time>2022-03-17T10:14:43Z</time>
      </trkpt>
      <trkpt lat="46.84415" lon="5.87397">
        <ele>685.6</ele>
        <time>2022-03-17T10:14:49Z</time>
      </trkpt>
      <trkpt lat="46.8442" lon="5.87399">
        <ele>683.6</ele>
        <time>2022-03-17T10:14:54Z</time>
      </trkpt>
      <trkpt lat="46.84425" lon="5.874">
        <ele>682.2</ele>
        <time>2022-03-17T10:14:58Z</time>
      </trkpt>
      <trkpt lat="46.84429" lon="5.874">
        <ele>681.1</ele>
        <time>2022-03-17T10:15:02Z</time>
      </trkpt>
      <trkpt lat="46.84434" lon="5.874">
        <ele>680.1</ele>
        <time>2022-03-17T10:15:07Z</time>
      </trkpt>
      <trkpt lat="46.84441" lon="5.87401">
        <ele>679.4</ele>
        <time>2022-03-17T10:15:11Z</time>
      </trkpt>
      <trkpt lat="46.84446" lon="5.87402">
        <ele>678.5</ele>
        <time>2022-03-17T10:15:15Z</time>
      </trkpt>
      <trkpt lat="46.84451" lon="5.87402">
        <ele>677.7</ele>
        <time>2022-03-17T10:15:19Z</time>
      </trkpt>
      <trkpt lat="46.84456" lon="5.87402">
        <ele>676.8</ele>
        <time>2022-03-17T10:15:25Z</time>
      </trkpt>
      <trkpt lat="46.84462" lon="5.874">
        <ele>676.5</ele>
        <time>2022-03-17T10:15:30Z</time>
      </trkpt>
      <trkpt lat="46.84466" lon="5.87399">
        <ele>676.3</ele>
        <time>2022-03-17T10:15:34Z</time>
      </trkpt>
      <trkpt lat="46.84471" lon="5.87399">
        <ele>675.8</ele>
        <time>2022-03-17T10:15:38Z</time>
      </trkpt>
      <trkpt lat="46.84476" lon="5.87401">
        <ele>673.5</ele>
        <time>2022-03-17T10:15:47Z</time>
      </trkpt>
      <trkpt lat="46.84482" lon="5.87401">
        <ele>672.6</ele>
        <time>2022-03-17T10:15:54Z</time>
      </trkpt>
      <trkpt lat="46.84486" lon="5.87402">
        <ele>672.9</ele>
        <time>2022-03-17T10:15:59Z</time>
      </trkpt>
      <trkpt lat="46.84491" lon="5.87404">
        <ele>673.5</ele>
        <time>2022-03-17T10:16:02Z</time>
      </trkpt>
      <trkpt lat="46.84496" lon="5.87403">
        <ele>674.2</ele>
        <time>2022-03-17T10:16:05Z</time>
      </trkpt>
      <trkpt lat="46.84501" lon="5.874">
        <ele>675.3</ele>
        <time>2022-03-17T10:16:09Z</time>
      </trkpt>
      <trkpt lat="46.84505" lon="5.87397">
        <ele>676.1</ele>
        <time>2022-03-17T10:16:13Z</time>
      </trkpt>
      <trkpt lat="46.84511" lon="5.87396">
        <ele>677.1</ele>
        <time>2022-03-17T10:16:17Z</time>
      </trkpt>
      <trkpt lat="46.84516" lon="5.87394">
        <ele>677.8</ele>
        <time>2022-03-17T10:16:20Z</time>
      </trkpt>
      <trkpt lat="46.8452" lon="5.87391">
        <ele>679.1</ele>
        <time>2022-03-17T10:16:23Z</time>
      </trkpt>
      <trkpt lat="46.84525" lon="5.87391">
        <ele>681.1</ele>
        <time>2022-03-17T10:16:30Z</time>
      </trkpt>
      <trkpt lat="46.8453" lon="5.87391">
        <ele>681.1</ele>
        <time>2022-03-17T10:16:36Z</time>
      </trkpt>
      <trkpt lat="46.84535" lon="5.87391">
        <ele>680.8</ele>
        <time>2022-03-17T10:16:42Z</time>
      </trkpt>
      <trkpt lat="46.84539" lon="5.87394">
        <ele>679.9</ele>
        <time>2022-03-17T10:16:47Z</time>
      </trkpt>
      <trkpt lat="46.84544" lon="5.87394">
        <ele>678.8</ele>
        <time>2022-03-17T10:16:51Z</time>
      </trkpt>
      <trkpt lat="46.84548" lon="5.87393">
        <ele>677.5</ele>
        <time>2022-03-17T10:16:55Z</time>
      </trkpt>
      <trkpt lat="46.84553" lon="5.87392">
        <ele>676.4</ele>
        <time>2022-03-17T10:16:58Z</time>
      </trkpt>
      <trkpt lat="46.84558" lon="5.8739">
        <ele>675</ele>
        <time>2022-03-17T10:17:02Z</time>
      </trkpt>
      <trkpt lat="46.84563" lon="5.87391">
        <ele>672.6</ele>
        <time>2022-03-17T10:17:08Z</time>
      </trkpt>
      <trkpt lat="46.84568" lon="5.87394">
        <ele>671.4</ele>
        <time>2022-03-17T10:17:13Z</time>
      </trkpt>
      <trkpt lat="46.84573" lon="5.87396">
        <ele>670.9</ele>
        <time>2022-03-17T10:17:17Z</time>
      </trkpt>
      <trkpt lat="46.84577" lon="5.87394">
        <ele>670.7</ele>
        <time>2022-03-17T10:17:22Z</time>
      </trkpt>
      <trkpt lat="46.84582" lon="5.87393">
        <ele>671</ele>
        <time>2022-03-17T10:17:28Z</time>
      </trkpt>
      <trkpt lat="46.84587" lon="5.87391">
        <ele>671.2</ele>
        <time>2022-03-17T10:17:32Z</time>
      </trkpt>
      <trkpt lat="46.84592" lon="5.8739">
        <ele>671.9</ele>
        <time>2022-03-17T10:17:37Z</time>
      </trkpt>
      <trkpt lat="46.84596" lon="5.8739">
        <ele>672.3</ele>
        <time>2022-03-17T10:17:42Z</time>
      </trkpt>
      <trkpt lat="46.84601" lon="5.87392">
        <ele>672.4</ele>
        <time>2022-03-17T10:17:46Z</time>
      </trkpt>
      <trkpt lat="46.84605" lon="5.87395">
        <ele>672.2</ele>
        <time>2022-03-17T10:17:50Z</time>
      </trkpt>
      <trkpt lat="46.84609" lon="5.87398">
        <ele>671.7</ele>
        <time>2022-03-17T10:17:54Z</time>
      </trkpt>
      <trkpt lat="46.84613" lon="5.87402">
        <ele>671.5</ele>
        <time>2022-03-17T10:17:58Z</time>
      </trkpt>
      <trkpt lat="46.84617" lon="5.87403">
        <ele>671.5</ele>
        <time>2022-03-17T10:18:03Z</time>
      </trkpt>
      <trkpt lat="46.84623" lon="5.87404">
        <ele>671.9</ele>
        <time>2022-03-17T10:18:07Z</time>
      </trkpt>
      <trkpt lat="46.84628" lon="5.87404">
        <ele>672.2</ele>
        <time>2022-03-17T10:18:11Z</time>
      </trkpt>
      <trkpt lat="46.84633" lon="5.87405">
        <ele>672.3</ele>
        <time>2022-03-17T10:18:17Z</time>
      </trkpt>
      <trkpt lat="46.84637" lon="5.87407">
        <ele>672.1</ele>
        <time>2022-03-17T10:18:22Z</time>
      </trkpt>
      <trkpt lat="46.84642" lon="5.8741">
        <ele>671.7</ele>
        <time>2022-03-17T10:18:27Z</time>
      </trkpt>
      <trkpt lat="46.84647" lon="5.87411">
        <ele>671.1</ele>
        <time>2022-03-17T10:18:33Z</time>
      </trkpt>
      <trkpt lat="46.84652" lon="5.87412">
        <ele>670.9</ele>
        <time>2022-03-17T10:18:38Z</time>
      </trkpt>
      <trkpt lat="46.84656" lon="5.87414">
        <ele>670.4</ele>
        <time>2022-03-17T10:18:42Z</time>
      </trkpt>
      <trkpt lat="46.84661" lon="5.87415">
        <ele>669.5</ele>
        <time>2022-03-17T10:18:46Z</time>
      </trkpt>
      <trkpt lat="46.84667" lon="5.87414">
        <ele>668.9</ele>
        <time>2022-03-17T10:18:50Z</time>
      </trkpt>
      <trkpt lat="46.84672" lon="5.87414">
        <ele>668.7</ele>
        <time>2022-03-17T10:18:53Z</time>
      </trkpt>
      <trkpt lat="46.84678" lon="5.87416">
        <ele>668.8</ele>
        <time>2022-03-17T10:18:56Z</time>
      </trkpt>
      <trkpt lat="46.84683" lon="5.87416">
        <ele>669.1</ele>
        <time>2022-03-17T10:19:00Z</time>
      </trkpt>
      <trkpt lat="46.84687" lon="5.87418">
        <ele>669.3</ele>
        <time>2022-03-17T10:19:05Z</time>
      </trkpt>
      <trkpt lat="46.84692" lon="5.8742">
        <ele>669.6</ele>
        <time>2022-03-17T10:19:09Z</time>
      </trkpt>
      <trkpt lat="46.84697" lon="5.87422">
        <ele>670.4</ele>
        <time>2022-03-17T10:19:13Z</time>
      </trkpt>
      <trkpt lat="46.84702" lon="5.87422">
        <ele>671</ele>
        <time>2022-03-17T10:19:17Z</time>
      </trkpt>
      <trkpt lat="46.84707" lon="5.87423">
        <ele>671.7</ele>
        <time>2022-03-17T10:19:21Z</time>
      </trkpt>
      <trkpt lat="46.84712" lon="5.87423">
        <ele>672.3</ele>
        <time>2022-03-17T10:19:25Z</time>
      </trkpt>
      <trkpt lat="46.84716" lon="5.87425">
        <ele>672.2</ele>
        <time>2022-03-17T10:19:30Z</time>
      </trkpt>
      <trkpt lat="46.8472" lon="5.87431">
        <ele>671.5</ele>
        <time>2022-03-17T10:19:34Z</time>
      </trkpt>
      <trkpt lat="46.84724" lon="5.87435">
        <ele>670.9</ele>
        <time>2022-03-17T10:19:39Z</time>
      </trkpt>
      <trkpt lat="46.84729" lon="5.87436">
        <ele>670.1</ele>
        <time>2022-03-17T10:19:44Z</time>
      </trkpt>
      <trkpt lat="46.84734" lon="5.87436">
        <ele>669.1</ele>
        <time>2022-03-17T10:19:50Z</time>
      </trkpt>
      <trkpt lat="46.84739" lon="5.87436">
        <ele>668.3</ele>
        <time>2022-03-17T10:19:56Z</time>
      </trkpt>
      <trkpt lat="46.84745" lon="5.87436">
        <ele>668.6</ele>
        <time>2022-03-17T10:19:59Z</time>
      </trkpt>
      <trkpt lat="46.8475" lon="5.87438">
        <ele>669.1</ele>
        <time>2022-03-17T10:20:02Z</time>
      </trkpt>
      <trkpt lat="46.84755" lon="5.8744">
        <ele>669.5</ele>
        <time>2022-03-17T10:20:06Z</time>
      </trkpt>
      <trkpt lat="46.8476" lon="5.87442">
        <ele>669.9</ele>
        <time>2022-03-17T10:20:12Z</time>
      </trkpt>
      <trkpt lat="46.84764" lon="5.87444">
        <ele>670</ele>
        <time>2022-03-17T10:20:17Z</time>
      </trkpt>
      <trkpt lat="46.84768" lon="5.87448">
        <ele>670.2</ele>
        <time>2022-03-17T10:20:21Z</time>
      </trkpt>
      <trkpt lat="46.84773" lon="5.87452">
        <ele>671</ele>
        <time>2022-03-17T10:20:25Z</time>
      </trkpt>
      <trkpt lat="46.84779" lon="5.87455">
        <ele>671.9</ele>
        <time>2022-03-17T10:20:29Z</time>
      </trkpt>
      <trkpt lat="46.84783" lon="5.87459">
        <ele>672.9</ele>
        <time>2022-03-17T10:20:32Z</time>
      </trkpt>
      <trkpt lat="46.84788" lon="5.87462">
        <ele>673.4</ele>
        <time>2022-03-17T10:20:38Z</time>
      </trkpt>
      <trkpt lat="46.84792" lon="5.87467">
        <ele>672.8</ele>
        <time>2022-03-17T10:20:44Z</time>
      </trkpt>
      <trkpt lat="46.84796" lon="5.87472">
        <ele>671.9</ele>
        <time>2022-03-17T10:20:48Z</time>
      </trkpt>
      <trkpt lat="46.848" lon="5.87476">
        <ele>671</ele>
        <time>2022-03-17T10:20:52Z</time>
      </trkpt>
      <trkpt lat="46.84804" lon="5.87478">
        <ele>670.2</ele>
        <time>2022-03-17T10:20:56Z</time>
      </trkpt>
      <trkpt lat="46.84809" lon="5.8748">
        <ele>669.4</ele>
        <time>2022-03-17T10:21:01Z</time>
      </trkpt>
      <trkpt lat="46.84814" lon="5.87482">
        <ele>669.1</ele>
        <time>2022-03-17T10:21:06Z</time>
      </trkpt>
      <trkpt lat="46.84819" lon="5.87486">
        <ele>669.4</ele>
        <time>2022-03-17T10:21:11Z</time>
      </trkpt>
      <trkpt lat="46.84823" lon="5.87491">
        <ele>669.4</ele>
        <time>2022-03-17T10:21:15Z</time>
      </trkpt>
      <trkpt lat="46.84826" lon="5.87495">
        <ele>669.5</ele>
        <time>2022-03-17T10:21:20Z</time>
      </trkpt>
      <trkpt lat="46.84831" lon="5.87499">
        <ele>669.6</ele>
        <time>2022-03-17T10:21:25Z</time>
      </trkpt>
      <trkpt lat="46.84835" lon="5.87503">
        <ele>669.9</ele>
        <time>2022-03-17T10:21:28Z</time>
      </trkpt>
      <trkpt lat="46.8484" lon="5.87505">
        <ele>670.5</ele>
        <time>2022-03-17T10:21:31Z</time>
      </trkpt>
      <trkpt lat="46.84843" lon="5.87509">
        <ele>671.1</ele>
        <time>2022-03-17T10:21:34Z</time>
      </trkpt>
      <trkpt lat="46.84847" lon="5.87515">
        <ele>670.8</ele>
        <time>2022-03-17T10:21:39Z</time>
      </trkpt>
      <trkpt lat="46.8485" lon="5.87521">
        <ele>670.3</ele>
        <time>2022-03-17T10:21:44Z</time>
      </trkpt>
      <trkpt lat="46.84854" lon="5.87525">
        <ele>670</ele>
        <time>2022-03-17T10:21:49Z</time>
      </trkpt>
      <trkpt lat="46.84859" lon="5.87528">
        <ele>669.5</ele>
        <time>2022-03-17T10:21:54Z</time>
      </trkpt>
      <trkpt lat="46.84863" lon="5.87533">
        <ele>668.7</ele>
        <time>2022-03-17T10:22:00Z</time>
      </trkpt>
      <trkpt lat="46.84867" lon="5.87534">
        <ele>667.8</ele>
        <time>2022-03-17T10:22:05Z</time>
      </trkpt>
      <trkpt lat="46.84871" lon="5.87537">
        <ele>667.5</ele>
        <time>2022-03-17T10:22:10Z</time>
      </trkpt>
      <trkpt lat="46.84876" lon="5.8754">
        <ele>666.9</ele>
        <time>2022-03-17T10:22:16Z</time>
      </trkpt>
      <trkpt lat="46.8488" lon="5.87545">
        <ele>665.6</ele>
        <time>2022-03-17T10:22:23Z</time>
      </trkpt>
      <trkpt lat="46.84884" lon="5.87551">
        <ele>665.2</ele>
        <time>2022-03-17T10:22:27Z</time>
      </trkpt>
      <trkpt lat="46.84888" lon="5.87557">
        <ele>665.1</ele>
        <time>2022-03-17T10:22:31Z</time>
      </trkpt>
      <trkpt lat="46.84891" lon="5.87562">
        <ele>664.6</ele>
        <time>2022-03-17T10:22:36Z</time>
      </trkpt>
      <trkpt lat="46.84894" lon="5.87568">
        <ele>663.7</ele>
        <time>2022-03-17T10:22:42Z</time>
      </trkpt>
      <trkpt lat="46.84897" lon="5.87573">
        <ele>662.4</ele>
        <time>2022-03-17T10:22:48Z</time>
      </trkpt>
      <trkpt lat="46.849" lon="5.87579">
        <ele>661.6</ele>
        <time>2022-03-17T10:22:53Z</time>
      </trkpt>
      <trkpt lat="46.84903" lon="5.87584">
        <ele>661.5</ele>
        <time>2022-03-17T10:22:57Z</time>
      </trkpt>
      <trkpt lat="46.84907" lon="5.87589">
        <ele>662.1</ele>
        <time>2022-03-17T10:23:01Z</time>
      </trkpt>
      <trkpt lat="46.84911" lon="5.87593">
        <ele>663.7</ele>
        <time>2022-03-17T10:23:06Z</time>
      </trkpt>
      <trkpt lat="46.84915" lon="5.87597">
        <ele>665.4</ele>
        <time>2022-03-17T10:23:10Z</time>
      </trkpt>
      <trkpt lat="46.84918" lon="5.87602">
        <ele>666.8</ele>
        <time>2022-03-17T10:23:14Z</time>
      </trkpt>
      <trkpt lat="46.84922" lon="5.87608">
        <ele>668.6</ele>
        <time>2022-03-17T10:23:19Z</time>
      </trkpt>
      <trkpt lat="46.84923" lon="5.87615">
        <ele>670.5</ele>
        <time>2022-03-17T10:23:25Z</time>
      </trkpt>
      <trkpt lat="46.84927" lon="5.87619">
        <ele>671.7</ele>
        <time>2022-03-17T10:23:31Z</time>
      </trkpt>
      <trkpt lat="46.84932" lon="5.87621">
        <ele>672.2</ele>
        <time>2022-03-17T10:23:35Z</time>
      </trkpt>
      <trkpt lat="46.84937" lon="5.87625">
        <ele>673</ele>
        <time>2022-03-17T10:23:39Z</time>
      </trkpt>
      <trkpt lat="46.84941" lon="5.87631">
        <ele>674.1</ele>
        <time>2022-03-17T10:23:42Z</time>
      </trkpt>
      <trkpt lat="46.84944" lon="5.87637">
        <ele>675.7</ele>
        <time>2022-03-17T10:23:45Z</time>
      </trkpt>
      <trkpt lat="46.84947" lon="5.87642">
        <ele>678.2</ele>
        <time>2022-03-17T10:23:49Z</time>
      </trkpt>
      <trkpt lat="46.8495" lon="5.87647">
        <ele>680.8</ele>
        <time>2022-03-17T10:23:53Z</time>
      </trkpt>
      <trkpt lat="46.84954" lon="5.87652">
        <ele>683.5</ele>
        <time>2022-03-17T10:23:57Z</time>
      </trkpt>
      <trkpt lat="46.84957" lon="5.87658">
        <ele>686.3</ele>
        <time>2022-03-17T10:24:01Z</time>
      </trkpt>
      <trkpt lat="46.8496" lon="5.87665">
        <ele>688.9</ele>
        <time>2022-03-17T10:24:05Z</time>
      </trkpt>
      <trkpt lat="46.84963" lon="5.8767">
        <ele>691.3</ele>
        <time>2022-03-17T10:24:09Z</time>
      </trkpt>
      <trkpt lat="46.84964" lon="5.87676">
        <ele>693</ele>
        <time>2022-03-17T10:24:14Z</time>
      </trkpt>
      <trkpt lat="46.84967" lon="5.87681">
        <ele>694</ele>
        <time>2022-03-17T10:24:19Z</time>
      </trkpt>
      <trkpt lat="46.84971" lon="5.87686">
        <ele>694.8</ele>
        <time>2022-03-17T10:24:23Z</time>
      </trkpt>
      <trkpt lat="46.84976" lon="5.87691">
        <ele>695.2</ele>
        <time>2022-03-17T10:24:27Z</time>
      </trkpt>
      <trkpt lat="46.84979" lon="5.87695">
        <ele>695.4</ele>
        <time>2022-03-17T10:24:30Z</time>
      </trkpt>
      <trkpt lat="46.84981" lon="5.87702">
        <ele>694.7</ele>
        <time>2022-03-17T10:24:36Z</time>
      </trkpt>
      <trkpt lat="46.84983" lon="5.87709">
        <ele>695</ele>
        <time>2022-03-17T10:24:40Z</time>
      </trkpt>
      <trkpt lat="46.84984" lon="5.87716">
        <ele>695.8</ele>
        <time>2022-03-17T10:24:46Z</time>
      </trkpt>
      <trkpt lat="46.84984" lon="5.87723">
        <ele>695.7</ele>
        <time>2022-03-17T10:24:58Z</time>
      </trkpt>
      <trkpt lat="46.84988" lon="5.87727">
        <ele>695.7</ele>
        <time>2022-03-17T10:25:02Z</time>
      </trkpt>
      <trkpt lat="46.84993" lon="5.87729">
        <ele>695.7</ele>
        <time>2022-03-17T10:25:06Z</time>
      </trkpt>
      <trkpt lat="46.84997" lon="5.87733">
        <ele>696.5</ele>
        <time>2022-03-17T10:25:11Z</time>
      </trkpt>
      <trkpt lat="46.85" lon="5.87739">
        <ele>696.3</ele>
        <time>2022-03-17T10:25:17Z</time>
      </trkpt>
      <trkpt lat="46.85003" lon="5.87743">
        <ele>695.4</ele>
        <time>2022-03-17T10:25:22Z</time>
      </trkpt>
      <trkpt lat="46.85007" lon="5.87747">
        <ele>694.6</ele>
        <time>2022-03-17T10:25:27Z</time>
      </trkpt>
      <trkpt lat="46.85012" lon="5.87751">
        <ele>694.2</ele>
        <time>2022-03-17T10:25:31Z</time>
      </trkpt>
      <trkpt lat="46.85017" lon="5.87754">
        <ele>694.3</ele>
        <time>2022-03-17T10:25:34Z</time>
      </trkpt>
      <trkpt lat="46.85022" lon="5.87758">
        <ele>694.8</ele>
        <time>2022-03-17T10:25:37Z</time>
      </trkpt>
      <trkpt lat="46.85026" lon="5.87762">
        <ele>694.9</ele>
        <time>2022-03-17T10:25:40Z</time>
      </trkpt>
      <trkpt lat="46.85029" lon="5.87767">
        <ele>694.9</ele>
        <time>2022-03-17T10:25:44Z</time>
      </trkpt>
      <trkpt lat="46.85031" lon="5.87773">
        <ele>694.9</ele>
        <time>2022-03-17T10:25:51Z</time>
      </trkpt>
      <trkpt lat="46.85035" lon="5.87779">
        <ele>694.9</ele>
        <time>2022-03-17T10:25:58Z</time>
      </trkpt>
      <trkpt lat="46.85039" lon="5.87784">
        <ele>694.9</ele>
        <time>2022-03-17T10:26:02Z</time>
      </trkpt>
      <trkpt lat="46.85042" lon="5.87789">
        <ele>694.8</ele>
        <time>2022-03-17T10:26:07Z</time>
      </trkpt>
      <trkpt lat="46.85048" lon="5.87792">
        <ele>694.4</ele>
        <time>2022-03-17T10:26:11Z</time>
      </trkpt>
      <trkpt lat="46.85052" lon="5.87796">
        <ele>694.2</ele>
        <time>2022-03-17T10:26:15Z</time>
      </trkpt>
      <trkpt lat="46.85057" lon="5.878">
        <ele>694.6</ele>
        <time>2022-03-17T10:26:19Z</time>
      </trkpt>
      <trkpt lat="46.85061" lon="5.87805">
        <ele>695.8</ele>
        <time>2022-03-17T10:26:26Z</time>
      </trkpt>
      <trkpt lat="46.85066" lon="5.87808">
        <ele>697.2</ele>
        <time>2022-03-17T10:26:30Z</time>
      </trkpt>
      <trkpt lat="46.8507" lon="5.8781">
        <ele>699.2</ele>
        <time>2022-03-17T10:26:35Z</time>
      </trkpt>
      <trkpt lat="46.85075" lon="5.87815">
        <ele>701.4</ele>
        <time>2022-03-17T10:26:40Z</time>
      </trkpt>
      <trkpt lat="46.85079" lon="5.87819">
        <ele>703.2</ele>
        <time>2022-03-17T10:26:44Z</time>
      </trkpt>
      <trkpt lat="46.85084" lon="5.87821">
        <ele>704.2</ele>
        <time>2022-03-17T10:26:48Z</time>
      </trkpt>
      <trkpt lat="46.85089" lon="5.87824">
        <ele>704.6</ele>
        <time>2022-03-17T10:26:52Z</time>
      </trkpt>
      <trkpt lat="46.85093" lon="5.87829">
        <ele>704.6</ele>
        <time>2022-03-17T10:26:57Z</time>
      </trkpt>
      <trkpt lat="46.85096" lon="5.87834">
        <ele>704.5</ele>
        <time>2022-03-17T10:27:01Z</time>
      </trkpt>
      <trkpt lat="46.85101" lon="5.87837">
        <ele>704.2</ele>
        <time>2022-03-17T10:27:07Z</time>
      </trkpt>
      <trkpt lat="46.85104" lon="5.87843">
        <ele>704.1</ele>
        <time>2022-03-17T10:27:13Z</time>
      </trkpt>
      <trkpt lat="46.85106" lon="5.87849">
        <ele>704.3</ele>
        <time>2022-03-17T10:27:19Z</time>
      </trkpt>
      <trkpt lat="46.8511" lon="5.87855">
        <ele>705</ele>
        <time>2022-03-17T10:27:25Z</time>
      </trkpt>
      <trkpt lat="46.85113" lon="5.87863">
        <ele>705.5</ele>
        <time>2022-03-17T10:27:29Z</time>
      </trkpt>
      <trkpt lat="46.85115" lon="5.87868">
        <ele>705.9</ele>
        <time>2022-03-17T10:27:32Z</time>
      </trkpt>
      <trkpt lat="46.85116" lon="5.87876">
        <ele>706.5</ele>
        <time>2022-03-17T10:27:36Z</time>
      </trkpt>
      <trkpt lat="46.85117" lon="5.87883">
        <ele>707.6</ele>
        <time>2022-03-17T10:27:41Z</time>
      </trkpt>
      <trkpt lat="46.8512" lon="5.87889">
        <ele>708.3</ele>
        <time>2022-03-17T10:27:45Z</time>
      </trkpt>
      <trkpt lat="46.85122" lon="5.87896">
        <ele>708.4</ele>
        <time>2022-03-17T10:27:48Z</time>
      </trkpt>
      <trkpt lat="46.85125" lon="5.87901">
        <ele>708.6</ele>
        <time>2022-03-17T10:27:52Z</time>
      </trkpt>
      <trkpt lat="46.85128" lon="5.87908">
        <ele>708.6</ele>
        <time>2022-03-17T10:27:57Z</time>
      </trkpt>
      <trkpt lat="46.8513" lon="5.87917">
        <ele>708.5</ele>
        <time>2022-03-17T10:28:01Z</time>
      </trkpt>
      <trkpt lat="46.85133" lon="5.87923">
        <ele>708.4</ele>
        <time>2022-03-17T10:28:04Z</time>
      </trkpt>
      <trkpt lat="46.85135" lon="5.8793">
        <ele>707.9</ele>
        <time>2022-03-17T10:28:08Z</time>
      </trkpt>
      <trkpt lat="46.85138" lon="5.87935">
        <ele>708.2</ele>
        <time>2022-03-17T10:28:12Z</time>
      </trkpt>
      <trkpt lat="46.85141" lon="5.87942">
        <ele>709.1</ele>
        <time>2022-03-17T10:28:17Z</time>
      </trkpt>
      <trkpt lat="46.85141" lon="5.87949">
        <ele>709.8</ele>
        <time>2022-03-17T10:28:21Z</time>
      </trkpt>
      <trkpt lat="46.85142" lon="5.87957">
        <ele>710.5</ele>
        <time>2022-03-17T10:28:25Z</time>
      </trkpt>
      <trkpt lat="46.85144" lon="5.87964">
        <ele>711.1</ele>
        <time>2022-03-17T10:28:29Z</time>
      </trkpt>
      <trkpt lat="46.85146" lon="5.87971">
        <ele>712</ele>
        <time>2022-03-17T10:28:33Z</time>
      </trkpt>
      <trkpt lat="46.85149" lon="5.87978">
        <ele>712.9</ele>
        <time>2022-03-17T10:28:38Z</time>
      </trkpt>
      <trkpt lat="46.85153" lon="5.87984">
        <ele>713.7</ele>
        <time>2022-03-17T10:28:42Z</time>
      </trkpt>
      <trkpt lat="46.85155" lon="5.87989">
        <ele>714.1</ele>
        <time>2022-03-17T10:28:46Z</time>
      </trkpt>
      <trkpt lat="46.85157" lon="5.87996">
        <ele>714.6</ele>
        <time>2022-03-17T10:28:50Z</time>
      </trkpt>
      <trkpt lat="46.85158" lon="5.88004">
        <ele>715</ele>
        <time>2022-03-17T10:28:54Z</time>
      </trkpt>
      <trkpt lat="46.85161" lon="5.8801">
        <ele>715.4</ele>
        <time>2022-03-17T10:28:59Z</time>
      </trkpt>
      <trkpt lat="46.85162" lon="5.88018">
        <ele>716</ele>
        <time>2022-03-17T10:29:05Z</time>
      </trkpt>
      <trkpt lat="46.85164" lon="5.88024">
        <ele>716.2</ele>
        <time>2022-03-17T10:29:09Z</time>
      </trkpt>
      <trkpt lat="46.85164" lon="5.88031">
        <ele>715.8</ele>
        <time>2022-03-17T10:29:13Z</time>
      </trkpt>
      <trkpt lat="46.85164" lon="5.88039">
        <ele>715.7</ele>
        <time>2022-03-17T10:29:18Z</time>
      </trkpt>
      <trkpt lat="46.85168" lon="5.88044">
        <ele>716.1</ele>
        <time>2022-03-17T10:29:22Z</time>
      </trkpt>
      <trkpt lat="46.8517" lon="5.8805">
        <ele>716.4</ele>
        <time>2022-03-17T10:29:26Z</time>
      </trkpt>
      <trkpt lat="46.8517" lon="5.88057">
        <ele>716.7</ele>
        <time>2022-03-17T10:29:31Z</time>
      </trkpt>
      <trkpt lat="46.8517" lon="5.88064">
        <ele>717.7</ele>
        <time>2022-03-17T10:29:39Z</time>
      </trkpt>
      <trkpt lat="46.8517" lon="5.88071">
        <ele>717.8</ele>
        <time>2022-03-17T10:29:43Z</time>
      </trkpt>
      <trkpt lat="46.85171" lon="5.88077">
        <ele>718.2</ele>
        <time>2022-03-17T10:29:46Z</time>
      </trkpt>
      <trkpt lat="46.85172" lon="5.88084">
        <ele>718.8</ele>
        <time>2022-03-17T10:29:50Z</time>
      </trkpt>
      <trkpt lat="46.85171" lon="5.8809">
        <ele>719</ele>
        <time>2022-03-17T10:29:54Z</time>
      </trkpt>
      <trkpt lat="46.85172" lon="5.88098">
        <ele>719.3</ele>
        <time>2022-03-17T10:29:59Z</time>
      </trkpt>
      <trkpt lat="46.85173" lon="5.88105">
        <ele>719.4</ele>
        <time>2022-03-17T10:30:04Z</time>
      </trkpt>
      <trkpt lat="46.8517" lon="5.88111">
        <ele>719.1</ele>
        <time>2022-03-17T10:30:08Z</time>
      </trkpt>
      <trkpt lat="46.85167" lon="5.88117">
        <ele>718.9</ele>
        <time>2022-03-17T10:30:12Z</time>
      </trkpt>
      <trkpt lat="46.85165" lon="5.88123">
        <ele>718.8</ele>
        <time>2022-03-17T10:30:16Z</time>
      </trkpt>
      <trkpt lat="46.85163" lon="5.88129">
        <ele>718.8</ele>
        <time>2022-03-17T10:30:20Z</time>
      </trkpt>
      <trkpt lat="46.85159" lon="5.88134">
        <ele>717.8</ele>
        <time>2022-03-17T10:30:25Z</time>
      </trkpt>
      <trkpt lat="46.85155" lon="5.8814">
        <ele>716.6</ele>
        <time>2022-03-17T10:30:29Z</time>
      </trkpt>
      <trkpt lat="46.8515" lon="5.88146">
        <ele>715</ele>
        <time>2022-03-17T10:30:33Z</time>
      </trkpt>
      <trkpt lat="46.85147" lon="5.88152">
        <ele>713.7</ele>
        <time>2022-03-17T10:30:36Z</time>
      </trkpt>
      <trkpt lat="46.85143" lon="5.88157">
        <ele>712</ele>
        <time>2022-03-17T10:30:40Z</time>
      </trkpt>
      <trkpt lat="46.85138" lon="5.8816">
        <ele>710.5</ele>
        <time>2022-03-17T10:30:44Z</time>
      </trkpt>
      <trkpt lat="46.85134" lon="5.88164">
        <ele>709.4</ele>
        <time>2022-03-17T10:30:48Z</time>
      </trkpt>
      <trkpt lat="46.85132" lon="5.88169">
        <ele>708.3</ele>
        <time>2022-03-17T10:30:52Z</time>
      </trkpt>
      <trkpt lat="46.85127" lon="5.88173">
        <ele>707.1</ele>
        <time>2022-03-17T10:30:57Z</time>
      </trkpt>
      <trkpt lat="46.85123" lon="5.88176">
        <ele>705</ele>
        <time>2022-03-17T10:31:04Z</time>
      </trkpt>
      <trkpt lat="46.8512" lon="5.88182">
        <ele>703.2</ele>
        <time>2022-03-17T10:31:09Z</time>
      </trkpt>
      <trkpt lat="46.85118" lon="5.88189">
        <ele>701.9</ele>
        <time>2022-03-17T10:31:13Z</time>
      </trkpt>
      <trkpt lat="46.85118" lon="5.88196">
        <ele>701</ele>
        <time>2022-03-17T10:31:16Z</time>
      </trkpt>
      <trkpt lat="46.85118" lon="5.88204">
        <ele>700.2</ele>
        <time>2022-03-17T10:31:19Z</time>
      </trkpt>
      <trkpt lat="46.85119" lon="5.88212">
        <ele>699.3</ele>
        <time>2022-03-17T10:31:22Z</time>
      </trkpt>
      <trkpt lat="46.85121" lon="5.88218">
        <ele>698.6</ele>
        <time>2022-03-17T10:31:25Z</time>
      </trkpt>
      <trkpt lat="46.85122" lon="5.88225">
        <ele>697.5</ele>
        <time>2022-03-17T10:31:29Z</time>
      </trkpt>
      <trkpt lat="46.85124" lon="5.88232">
        <ele>696.6</ele>
        <time>2022-03-17T10:31:34Z</time>
      </trkpt>
      <trkpt lat="46.85125" lon="5.88239">
        <ele>695.4</ele>
        <time>2022-03-17T10:31:40Z</time>
      </trkpt>
      <trkpt lat="46.85126" lon="5.88246">
        <ele>694.6</ele>
        <time>2022-03-17T10:31:45Z</time>
      </trkpt>
      <trkpt lat="46.85128" lon="5.88253">
        <ele>694.1</ele>
        <time>2022-03-17T10:31:50Z</time>
      </trkpt>
      <trkpt lat="46.85129" lon="5.8826">
        <ele>693.7</ele>
        <time>2022-03-17T10:31:55Z</time>
      </trkpt>
      <trkpt lat="46.85131" lon="5.88269">
        <ele>693.9</ele>
        <time>2022-03-17T10:31:58Z</time>
      </trkpt>
      <trkpt lat="46.85133" lon="5.88277">
        <ele>694.3</ele>
        <time>2022-03-17T10:32:01Z</time>
      </trkpt>
      <trkpt lat="46.85136" lon="5.88283">
        <ele>695</ele>
        <time>2022-03-17T10:32:04Z</time>
      </trkpt>
      <trkpt lat="46.85139" lon="5.88288">
        <ele>696.1</ele>
        <time>2022-03-17T10:32:07Z</time>
      </trkpt>
      <trkpt lat="46.85142" lon="5.88294">
        <ele>697.5</ele>
        <time>2022-03-17T10:32:10Z</time>
      </trkpt>
      <trkpt lat="46.85144" lon="5.883">
        <ele>698.7</ele>
        <time>2022-03-17T10:32:14Z</time>
      </trkpt>
      <trkpt lat="46.85147" lon="5.88307">
        <ele>699.8</ele>
        <time>2022-03-17T10:32:19Z</time>
      </trkpt>
      <trkpt lat="46.8515" lon="5.88312">
        <ele>701.1</ele>
        <time>2022-03-17T10:32:23Z</time>
      </trkpt>
      <trkpt lat="46.85154" lon="5.88317">
        <ele>702.2</ele>
        <time>2022-03-17T10:32:26Z</time>
      </trkpt>
      <trkpt lat="46.85157" lon="5.88323">
        <ele>703.4</ele>
        <time>2022-03-17T10:32:29Z</time>
      </trkpt>
      <trkpt lat="46.85159" lon="5.88329">
        <ele>704.5</ele>
        <time>2022-03-17T10:32:32Z</time>
      </trkpt>
      <trkpt lat="46.85162" lon="5.88335">
        <ele>705.3</ele>
        <time>2022-03-17T10:32:37Z</time>
      </trkpt>
      <trkpt lat="46.85166" lon="5.88339">
        <ele>705.5</ele>
        <time>2022-03-17T10:32:42Z</time>
      </trkpt>
      <trkpt lat="46.8517" lon="5.88342">
        <ele>705.8</ele>
        <time>2022-03-17T10:32:47Z</time>
      </trkpt>
      <trkpt lat="46.85174" lon="5.88348">
        <ele>706.3</ele>
        <time>2022-03-17T10:32:51Z</time>
      </trkpt>
      <trkpt lat="46.85177" lon="5.88354">
        <ele>706.8</ele>
        <time>2022-03-17T10:32:55Z</time>
      </trkpt>
      <trkpt lat="46.85181" lon="5.88358">
        <ele>707.4</ele>
        <time>2022-03-17T10:32:59Z</time>
      </trkpt>
      <trkpt lat="46.85186" lon="5.88361">
        <ele>708.1</ele>
        <time>2022-03-17T10:33:03Z</time>
      </trkpt>
      <trkpt lat="46.8519" lon="5.88365">
        <ele>708.5</ele>
        <time>2022-03-17T10:33:07Z</time>
      </trkpt>
      <trkpt lat="46.85193" lon="5.88369">
        <ele>708.8</ele>
        <time>2022-03-17T10:33:11Z</time>
      </trkpt>
      <trkpt lat="46.85197" lon="5.88376">
        <ele>709.3</ele>
        <time>2022-03-17T10:33:17Z</time>
      </trkpt>
      <trkpt lat="46.852" lon="5.8838">
        <ele>709.6</ele>
        <time>2022-03-17T10:33:21Z</time>
      </trkpt>
      <trkpt lat="46.85204" lon="5.88384">
        <ele>709.6</ele>
        <time>2022-03-17T10:33:25Z</time>
      </trkpt>
      <trkpt lat="46.85208" lon="5.88389">
        <ele>709.7</ele>
        <time>2022-03-17T10:33:30Z</time>
      </trkpt>
      <trkpt lat="46.85212" lon="5.88395">
        <ele>709.6</ele>
        <time>2022-03-17T10:33:35Z</time>
      </trkpt>
      <trkpt lat="46.85214" lon="5.88401">
        <ele>709.2</ele>
        <time>2022-03-17T10:33:41Z</time>
      </trkpt>
      <trkpt lat="46.85219" lon="5.88406">
        <ele>709</ele>
        <time>2022-03-17T10:33:47Z</time>
      </trkpt>
      <trkpt lat="46.85222" lon="5.8841">
        <ele>709.1</ele>
        <time>2022-03-17T10:33:52Z</time>
      </trkpt>
      <trkpt lat="46.85226" lon="5.88416">
        <ele>708.9</ele>
        <time>2022-03-17T10:33:57Z</time>
      </trkpt>
      <trkpt lat="46.85229" lon="5.88422">
        <ele>708.8</ele>
        <time>2022-03-17T10:34:02Z</time>
      </trkpt>
      <trkpt lat="46.85233" lon="5.88427">
        <ele>708.6</ele>
        <time>2022-03-17T10:34:06Z</time>
      </trkpt>
      <trkpt lat="46.85237" lon="5.88431">
        <ele>708.8</ele>
        <time>2022-03-17T10:34:10Z</time>
      </trkpt>
      <trkpt lat="46.85242" lon="5.88435">
        <ele>709</ele>
        <time>2022-03-17T10:34:14Z</time>
      </trkpt>
      <trkpt lat="46.85246" lon="5.8844">
        <ele>709.2</ele>
        <time>2022-03-17T10:34:18Z</time>
      </trkpt>
      <trkpt lat="46.8525" lon="5.88445">
        <ele>709.6</ele>
        <time>2022-03-17T10:34:22Z</time>
      </trkpt>
      <trkpt lat="46.85254" lon="5.8845">
        <ele>710.4</ele>
        <time>2022-03-17T10:34:27Z</time>
      </trkpt>
      <trkpt lat="46.85258" lon="5.88455">
        <ele>711.2</ele>
        <time>2022-03-17T10:34:31Z</time>
      </trkpt>
      <trkpt lat="46.85262" lon="5.8846">
        <ele>711.9</ele>
        <time>2022-03-17T10:34:35Z</time>
      </trkpt>
      <trkpt lat="46.85266" lon="5.88465">
        <ele>712.9</ele>
        <time>2022-03-17T10:34:40Z</time>
      </trkpt>
      <trkpt lat="46.85268" lon="5.88472">
        <ele>713.6</ele>
        <time>2022-03-17T10:34:45Z</time>
      </trkpt>
      <trkpt lat="46.85272" lon="5.88478">
        <ele>714.2</ele>
        <time>2022-03-17T10:34:49Z</time>
      </trkpt>
      <trkpt lat="46.85274" lon="5.88485">
        <ele>714.6</ele>
        <time>2022-03-17T10:34:53Z</time>
      </trkpt>
      <trkpt lat="46.85275" lon="5.88491">
        <ele>714.8</ele>
        <time>2022-03-17T10:34:57Z</time>
      </trkpt>
      <trkpt lat="46.85275" lon="5.88499">
        <ele>715</ele>
        <time>2022-03-17T10:35:02Z</time>
      </trkpt>
      <trkpt lat="46.85273" lon="5.88505">
        <ele>714.6</ele>
        <time>2022-03-17T10:35:06Z</time>
      </trkpt>
      <trkpt lat="46.85271" lon="5.88512">
        <ele>714</ele>
        <time>2022-03-17T10:35:11Z</time>
      </trkpt>
      <trkpt lat="46.8527" lon="5.8852">
        <ele>713.1</ele>
        <time>2022-03-17T10:35:18Z</time>
      </trkpt>
      <trkpt lat="46.85271" lon="5.88527">
        <ele>712.6</ele>
        <time>2022-03-17T10:35:23Z</time>
      </trkpt>
      <trkpt lat="46.85273" lon="5.88534">
        <ele>712.4</ele>
        <time>2022-03-17T10:35:27Z</time>
      </trkpt>
      <trkpt lat="46.85275" lon="5.88541">
        <ele>711.9</ele>
        <time>2022-03-17T10:35:31Z</time>
      </trkpt>
      <trkpt lat="46.85277" lon="5.88549">
        <ele>711.3</ele>
        <time>2022-03-17T10:35:35Z</time>
      </trkpt>
      <trkpt lat="46.85278" lon="5.88557">
        <ele>709.8</ele>
        <time>2022-03-17T10:35:40Z</time>
      </trkpt>
      <trkpt lat="46.85277" lon="5.88565">
        <ele>708.4</ele>
        <time>2022-03-17T10:35:44Z</time>
      </trkpt>
      <trkpt lat="46.85278" lon="5.88572">
        <ele>707.7</ele>
        <time>2022-03-17T10:35:48Z</time>
      </trkpt>
      <trkpt lat="46.85279" lon="5.88579">
        <ele>707</ele>
        <time>2022-03-17T10:35:52Z</time>
      </trkpt>
      <trkpt lat="46.85281" lon="5.88586">
        <ele>706.1</ele>
        <time>2022-03-17T10:35:57Z</time>
      </trkpt>
      <trkpt lat="46.85285" lon="5.88592">
        <ele>705.6</ele>
        <time>2022-03-17T10:36:01Z</time>
      </trkpt>
      <trkpt lat="46.85287" lon="5.88598">
        <ele>705.2</ele>
        <time>2022-03-17T10:36:05Z</time>
      </trkpt>
      <trkpt lat="46.85288" lon="5.88605">
        <ele>704.7</ele>
        <time>2022-03-17T10:36:10Z</time>
      </trkpt>
      <trkpt lat="46.85289" lon="5.88612">
        <ele>704</ele>
        <time>2022-03-17T10:36:14Z</time>
      </trkpt>
      <trkpt lat="46.8529" lon="5.8862">
        <ele>702.9</ele>
        <time>2022-03-17T10:36:19Z</time>
      </trkpt>
      <trkpt lat="46.85294" lon="5.88624">
        <ele>701.7</ele>
        <time>2022-03-17T10:36:24Z</time>
      </trkpt>
      <trkpt lat="46.85298" lon="5.88627">
        <ele>701.1</ele>
        <time>2022-03-17T10:36:28Z</time>
      </trkpt>
      <trkpt lat="46.85304" lon="5.88631">
        <ele>700.7</ele>
        <time>2022-03-17T10:36:33Z</time>
      </trkpt>
      <trkpt lat="46.85308" lon="5.88632">
        <ele>700.9</ele>
        <time>2022-03-17T10:36:37Z</time>
      </trkpt>
      <trkpt lat="46.85313" lon="5.88635">
        <ele>701.5</ele>
        <time>2022-03-17T10:36:41Z</time>
      </trkpt>
      <trkpt lat="46.85317" lon="5.88639">
        <ele>702.1</ele>
        <time>2022-03-17T10:36:45Z</time>
      </trkpt>
      <trkpt lat="46.85322" lon="5.88644">
        <ele>702.8</ele>
        <time>2022-03-17T10:36:49Z</time>
      </trkpt>
      <trkpt lat="46.85326" lon="5.88648">
        <ele>703.6</ele>
        <time>2022-03-17T10:36:52Z</time>
      </trkpt>
      <trkpt lat="46.85331" lon="5.88652">
        <ele>704.3</ele>
        <time>2022-03-17T10:36:55Z</time>
      </trkpt>
      <trkpt lat="46.85335" lon="5.88655">
        <ele>705</ele>
        <time>2022-03-17T10:36:59Z</time>
      </trkpt>
      <trkpt lat="46.8534" lon="5.88659">
        <ele>705.9</ele>
        <time>2022-03-17T10:37:03Z</time>
      </trkpt>
      <trkpt lat="46.85344" lon="5.88661">
        <ele>706.7</ele>
        <time>2022-03-17T10:37:07Z</time>
      </trkpt>
      <trkpt lat="46.8535" lon="5.88663">
        <ele>707.8</ele>
        <time>2022-03-17T10:37:11Z</time>
      </trkpt>
      <trkpt lat="46.85355" lon="5.88667">
        <ele>708.9</ele>
        <time>2022-03-17T10:37:15Z</time>
      </trkpt>
      <trkpt lat="46.85359" lon="5.8867">
        <ele>709.7</ele>
        <time>2022-03-17T10:37:18Z</time>
      </trkpt>
      <trkpt lat="46.85363" lon="5.88674">
        <ele>710.5</ele>
        <time>2022-03-17T10:37:21Z</time>
      </trkpt>
      <trkpt lat="46.85367" lon="5.88679">
        <ele>711.6</ele>
        <time>2022-03-17T10:37:25Z</time>
      </trkpt>
      <trkpt lat="46.85371" lon="5.88683">
        <ele>712.4</ele>
        <time>2022-03-17T10:37:29Z</time>
      </trkpt>
      <trkpt lat="46.85375" lon="5.88687">
        <ele>713.1</ele>
        <time>2022-03-17T10:37:33Z</time>
      </trkpt>
      <trkpt lat="46.85379" lon="5.88691">
        <ele>713.8</ele>
        <time>2022-03-17T10:37:36Z</time>
      </trkpt>
      <trkpt lat="46.85383" lon="5.88696">
        <ele>714.7</ele>
        <time>2022-03-17T10:37:39Z</time>
      </trkpt>
      <trkpt lat="46.85386" lon="5.88702">
        <ele>716</ele>
        <time>2022-03-17T10:37:43Z</time>
      </trkpt>
      <trkpt lat="46.8539" lon="5.88707">
        <ele>717.6</ele>
        <time>2022-03-17T10:37:47Z</time>
      </trkpt>
      <trkpt lat="46.85393" lon="5.88713">
        <ele>719.1</ele>
        <time>2022-03-17T10:37:51Z</time>
      </trkpt>
      <trkpt lat="46.85395" lon="5.88719">
        <ele>720.6</ele>
        <time>2022-03-17T10:37:56Z</time>
      </trkpt>
      <trkpt lat="46.85397" lon="5.88725">
        <ele>721.6</ele>
        <time>2022-03-17T10:38:00Z</time>
      </trkpt>
      <trkpt lat="46.85401" lon="5.88729">
        <ele>722.5</ele>
        <time>2022-03-17T10:38:06Z</time>
      </trkpt>
      <trkpt lat="46.85405" lon="5.88734">
        <ele>722.6</ele>
        <time>2022-03-17T10:38:12Z</time>
      </trkpt>
      <trkpt lat="46.8541" lon="5.88737">
        <ele>722.6</ele>
        <time>2022-03-17T10:38:15Z</time>
      </trkpt>
      <trkpt lat="46.85415" lon="5.8874">
        <ele>722.8</ele>
        <time>2022-03-17T10:38:19Z</time>
      </trkpt>
      <trkpt lat="46.8542" lon="5.88741">
        <ele>723.3</ele>
        <time>2022-03-17T10:38:23Z</time>
      </trkpt>
      <trkpt lat="46.85425" lon="5.88743">
        <ele>724</ele>
        <time>2022-03-17T10:38:28Z</time>
      </trkpt>
      <trkpt lat="46.85429" lon="5.88744">
        <ele>724.7</ele>
        <time>2022-03-17T10:38:34Z</time>
      </trkpt>
      <trkpt lat="46.85435" lon="5.88745">
        <ele>725.2</ele>
        <time>2022-03-17T10:38:39Z</time>
      </trkpt>
      <trkpt lat="46.85439" lon="5.88744">
        <ele>725</ele>
        <time>2022-03-17T10:38:43Z</time>
      </trkpt>
      <trkpt lat="46.85444" lon="5.88744">
        <ele>724.6</ele>
        <time>2022-03-17T10:38:49Z</time>
      </trkpt>
      <trkpt lat="46.85449" lon="5.88743">
        <ele>723.8</ele>
        <time>2022-03-17T10:38:54Z</time>
      </trkpt>
      <trkpt lat="46.85453" lon="5.88739">
        <ele>722.3</ele>
        <time>2022-03-17T10:38:59Z</time>
      </trkpt>
      <trkpt lat="46.85457" lon="5.88734">
        <ele>721</ele>
        <time>2022-03-17T10:39:04Z</time>
      </trkpt>
      <trkpt lat="46.85462" lon="5.8873">
        <ele>719.9</ele>
        <time>2022-03-17T10:39:09Z</time>
      </trkpt>
      <trkpt lat="46.85467" lon="5.88729">
        <ele>719.3</ele>
        <time>2022-03-17T10:39:12Z</time>
      </trkpt>
      <trkpt lat="46.85472" lon="5.88729">
        <ele>718.6</ele>
        <time>2022-03-17T10:39:15Z</time>
      </trkpt>
      <trkpt lat="46.85476" lon="5.88728">
        <ele>717.6</ele>
        <time>2022-03-17T10:39:19Z</time>
      </trkpt>
      <trkpt lat="46.85481" lon="5.88725">
        <ele>716.8</ele>
        <time>2022-03-17T10:39:24Z</time>
      </trkpt>
      <trkpt lat="46.85486" lon="5.88721">
        <ele>715.7</ele>
        <time>2022-03-17T10:39:30Z</time>
      </trkpt>
      <trkpt lat="46.85491" lon="5.8872">
        <ele>714.8</ele>
        <time>2022-03-17T10:39:34Z</time>
      </trkpt>
      <trkpt lat="46.85496" lon="5.88721">
        <ele>713.3</ele>
        <time>2022-03-17T10:39:40Z</time>
      </trkpt>
      <trkpt lat="46.85501" lon="5.88722">
        <ele>712</ele>
        <time>2022-03-17T10:39:46Z</time>
      </trkpt>
      <trkpt lat="46.85507" lon="5.88724">
        <ele>711.1</ele>
        <time>2022-03-17T10:39:50Z</time>
      </trkpt>
      <trkpt lat="46.85512" lon="5.88727">
        <ele>710.6</ele>
        <time>2022-03-17T10:39:53Z</time>
      </trkpt>
      <trkpt lat="46.85516" lon="5.8873">
        <ele>710.3</ele>
        <time>2022-03-17T10:39:56Z</time>
      </trkpt>
      <trkpt lat="46.85522" lon="5.88731">
        <ele>709.8</ele>
        <time>2022-03-17T10:40:00Z</time>
      </trkpt>
      <trkpt lat="46.85527" lon="5.88735">
        <ele>709.5</ele>
        <time>2022-03-17T10:40:04Z</time>
      </trkpt>
      <trkpt lat="46.85532" lon="5.88738">
        <ele>709.1</ele>
        <time>2022-03-17T10:40:09Z</time>
      </trkpt>
      <trkpt lat="46.85536" lon="5.88743">
        <ele>708.8</ele>
        <time>2022-03-17T10:40:17Z</time>
      </trkpt>
      <trkpt lat="46.85539" lon="5.88749">
        <ele>708.1</ele>
        <time>2022-03-17T10:40:24Z</time>
      </trkpt>
      <trkpt lat="46.85544" lon="5.88753">
        <ele>707.1</ele>
        <time>2022-03-17T10:40:29Z</time>
      </trkpt>
      <trkpt lat="46.85548" lon="5.88757">
        <ele>706.1</ele>
        <time>2022-03-17T10:40:33Z</time>
      </trkpt>
      <trkpt lat="46.85554" lon="5.88759">
        <ele>705</ele>
        <time>2022-03-17T10:40:37Z</time>
      </trkpt>
      <trkpt lat="46.85558" lon="5.88762">
        <ele>702.9</ele>
        <time>2022-03-17T10:40:43Z</time>
      </trkpt>
      <trkpt lat="46.8556" lon="5.88768">
        <ele>700.1</ele>
        <time>2022-03-17T10:40:51Z</time>
      </trkpt>
      <trkpt lat="46.85564" lon="5.88772">
        <ele>697.6</ele>
        <time>2022-03-17T10:41:01Z</time>
      </trkpt>
      <trkpt lat="46.85569" lon="5.88772">
        <ele>696.9</ele>
        <time>2022-03-17T10:41:04Z</time>
      </trkpt>
      <trkpt lat="46.85574" lon="5.88771">
        <ele>696.2</ele>
        <time>2022-03-17T10:41:08Z</time>
      </trkpt>
      <trkpt lat="46.8558" lon="5.88772">
        <ele>695.4</ele>
        <time>2022-03-17T10:41:12Z</time>
      </trkpt>
      <trkpt lat="46.85586" lon="5.88772">
        <ele>694.7</ele>
        <time>2022-03-17T10:41:15Z</time>
      </trkpt>
      <trkpt lat="46.85591" lon="5.88773">
        <ele>693.9</ele>
        <time>2022-03-17T10:41:18Z</time>
      </trkpt>
      <trkpt lat="46.85596" lon="5.88774">
        <ele>693.1</ele>
        <time>2022-03-17T10:41:22Z</time>
      </trkpt>
      <trkpt lat="46.85601" lon="5.88773">
        <ele>692.6</ele>
        <time>2022-03-17T10:41:26Z</time>
      </trkpt>
      <trkpt lat="46.85605" lon="5.88773">
        <ele>692</ele>
        <time>2022-03-17T10:41:31Z</time>
      </trkpt>
      <trkpt lat="46.8561" lon="5.88774">
        <ele>690.7</ele>
        <time>2022-03-17T10:41:42Z</time>
      </trkpt>
      <trkpt lat="46.85616" lon="5.88773">
        <ele>690.1</ele>
        <time>2022-03-17T10:41:48Z</time>
      </trkpt>
      <trkpt lat="46.85622" lon="5.88772">
        <ele>690.2</ele>
        <time>2022-03-17T10:41:51Z</time>
      </trkpt>
      <trkpt lat="46.85628" lon="5.88772">
        <ele>690.4</ele>
        <time>2022-03-17T10:41:54Z</time>
      </trkpt>
      <trkpt lat="46.85634" lon="5.88771">
        <ele>690.9</ele>
        <time>2022-03-17T10:41:57Z</time>
      </trkpt>
      <trkpt lat="46.85638" lon="5.88771">
        <ele>691.7</ele>
        <time>2022-03-17T10:42:00Z</time>
      </trkpt>
      <trkpt lat="46.85643" lon="5.88772">
        <ele>692.6</ele>
        <time>2022-03-17T10:42:05Z</time>
      </trkpt>
      <trkpt lat="46.85649" lon="5.88774">
        <ele>693</ele>
        <time>2022-03-17T10:42:08Z</time>
      </trkpt>
      <trkpt lat="46.85655" lon="5.88776">
        <ele>693.4</ele>
        <time>2022-03-17T10:42:11Z</time>
      </trkpt>
      <trkpt lat="46.85661" lon="5.88777">
        <ele>693.7</ele>
        <time>2022-03-17T10:42:14Z</time>
      </trkpt>
      <trkpt lat="46.85667" lon="5.88778">
        <ele>694</ele>
        <time>2022-03-17T10:42:17Z</time>
      </trkpt>
      <trkpt lat="46.85672" lon="5.8878">
        <ele>694.5</ele>
        <time>2022-03-17T10:42:20Z</time>
      </trkpt>
      <trkpt lat="46.85677" lon="5.88782">
        <ele>694.7</ele>
        <time>2022-03-17T10:42:25Z</time>
      </trkpt>
      <trkpt lat="46.8568" lon="5.88786">
        <ele>694.9</ele>
        <time>2022-03-17T10:42:31Z</time>
      </trkpt>
      <trkpt lat="46.85684" lon="5.88791">
        <ele>694.7</ele>
        <time>2022-03-17T10:42:36Z</time>
      </trkpt>
      <trkpt lat="46.85687" lon="5.88796">
        <ele>694.4</ele>
        <time>2022-03-17T10:42:40Z</time>
      </trkpt>
      <trkpt lat="46.85691" lon="5.888">
        <ele>693.5</ele>
        <time>2022-03-17T10:42:45Z</time>
      </trkpt>
      <trkpt lat="46.85695" lon="5.88805">
        <ele>693</ele>
        <time>2022-03-17T10:42:50Z</time>
      </trkpt>
      <trkpt lat="46.85699" lon="5.8881">
        <ele>692.4</ele>
        <time>2022-03-17T10:42:55Z</time>
      </trkpt>
      <trkpt lat="46.85704" lon="5.88814">
        <ele>692.3</ele>
        <time>2022-03-17T10:42:59Z</time>
      </trkpt>
      <trkpt lat="46.85705" lon="5.88822">
        <ele>691.4</ele>
        <time>2022-03-17T10:43:05Z</time>
      </trkpt>
      <trkpt lat="46.85708" lon="5.88827">
        <ele>690.7</ele>
        <time>2022-03-17T10:43:09Z</time>
      </trkpt>
      <trkpt lat="46.85711" lon="5.88833">
        <ele>689.9</ele>
        <time>2022-03-17T10:43:13Z</time>
      </trkpt>
      <trkpt lat="46.85715" lon="5.88838">
        <ele>689.3</ele>
        <time>2022-03-17T10:43:17Z</time>
      </trkpt>
      <trkpt lat="46.85718" lon="5.88842">
        <ele>688.8</ele>
        <time>2022-03-17T10:43:21Z</time>
      </trkpt>
      <trkpt lat="46.85721" lon="5.88849">
        <ele>688</ele>
        <time>2022-03-17T10:43:26Z</time>
      </trkpt>
      <trkpt lat="46.85721" lon="5.88856">
        <ele>686.8</ele>
        <time>2022-03-17T10:43:32Z</time>
      </trkpt>
      <trkpt lat="46.85723" lon="5.88862">
        <ele>685.8</ele>
        <time>2022-03-17T10:43:36Z</time>
      </trkpt>
      <trkpt lat="46.85726" lon="5.88868">
        <ele>684.3</ele>
        <time>2022-03-17T10:43:42Z</time>
      </trkpt>
      <trkpt lat="46.85729" lon="5.88874">
        <ele>683.1</ele>
        <time>2022-03-17T10:43:47Z</time>
      </trkpt>
      <trkpt lat="46.85733" lon="5.88879">
        <ele>681.8</ele>
        <time>2022-03-17T10:43:51Z</time>
      </trkpt>
      <trkpt lat="46.85736" lon="5.88886">
        <ele>681.1</ele>
        <time>2022-03-17T10:43:54Z</time>
      </trkpt>
      <trkpt lat="46.85738" lon="5.88891">
        <ele>680.5</ele>
        <time>2022-03-17T10:43:57Z</time>
      </trkpt>
      <trkpt lat="46.85741" lon="5.88899">
        <ele>679.9</ele>
        <time>2022-03-17T10:44:01Z</time>
      </trkpt>
      <trkpt lat="46.85743" lon="5.88905">
        <ele>679.2</ele>
        <time>2022-03-17T10:44:05Z</time>
      </trkpt>
      <trkpt lat="46.85747" lon="5.88911">
        <ele>678.4</ele>
        <time>2022-03-17T10:44:10Z</time>
      </trkpt>
      <trkpt lat="46.85751" lon="5.88915">
        <ele>677.7</ele>
        <time>2022-03-17T10:44:16Z</time>
      </trkpt>
      <trkpt lat="46.85756" lon="5.88919">
        <ele>676.8</ele>
        <time>2022-03-17T10:44:21Z</time>
      </trkpt>
      <trkpt lat="46.8576" lon="5.88923">
        <ele>676.2</ele>
        <time>2022-03-17T10:44:25Z</time>
      </trkpt>
      <trkpt lat="46.85764" lon="5.88928">
        <ele>675.3</ele>
        <time>2022-03-17T10:44:29Z</time>
      </trkpt>
      <trkpt lat="46.85768" lon="5.88932">
        <ele>674.7</ele>
        <time>2022-03-17T10:44:34Z</time>
      </trkpt>
      <trkpt lat="46.85772" lon="5.88937">
        <ele>674.1</ele>
        <time>2022-03-17T10:44:39Z</time>
      </trkpt>
      <trkpt lat="46.85776" lon="5.8894">
        <ele>673.7</ele>
        <time>2022-03-17T10:44:43Z</time>
      </trkpt>
      <trkpt lat="46.8578" lon="5.88944">
        <ele>673.2</ele>
        <time>2022-03-17T10:44:48Z</time>
      </trkpt>
      <trkpt lat="46.85785" lon="5.88946">
        <ele>673</ele>
        <time>2022-03-17T10:44:52Z</time>
      </trkpt>
      <trkpt lat="46.85789" lon="5.88948">
        <ele>673.1</ele>
        <time>2022-03-17T10:44:56Z</time>
      </trkpt>
      <trkpt lat="46.85793" lon="5.88953">
        <ele>673.4</ele>
        <time>2022-03-17T10:45:00Z</time>
      </trkpt>
      <trkpt lat="46.85797" lon="5.88957">
        <ele>673.5</ele>
        <time>2022-03-17T10:45:05Z</time>
      </trkpt>
      <trkpt lat="46.85802" lon="5.88961">
        <ele>673.8</ele>
        <time>2022-03-17T10:45:09Z</time>
      </trkpt>
      <trkpt lat="46.85807" lon="5.88965">
        <ele>674.1</ele>
        <time>2022-03-17T10:45:12Z</time>
      </trkpt>
      <trkpt lat="46.85812" lon="5.88971">
        <ele>674.8</ele>
        <time>2022-03-17T10:45:15Z</time>
      </trkpt>
      <trkpt lat="46.85817" lon="5.88975">
        <ele>675.8</ele>
        <time>2022-03-17T10:45:18Z</time>
      </trkpt>
      <trkpt lat="46.85821" lon="5.88978">
        <ele>676.7</ele>
        <time>2022-03-17T10:45:21Z</time>
      </trkpt>
      <trkpt lat="46.85825" lon="5.88982">
        <ele>677.7</ele>
        <time>2022-03-17T10:45:26Z</time>
      </trkpt>
      <trkpt lat="46.85829" lon="5.88986">
        <ele>678</ele>
        <time>2022-03-17T10:45:30Z</time>
      </trkpt>
      <trkpt lat="46.85834" lon="5.88991">
        <ele>678.4</ele>
        <time>2022-03-17T10:45:34Z</time>
      </trkpt>
      <trkpt lat="46.85838" lon="5.88995">
        <ele>678.3</ele>
        <time>2022-03-17T10:45:38Z</time>
      </trkpt>
      <trkpt lat="46.85843" lon="5.88994">
        <ele>677.7</ele>
        <time>2022-03-17T10:45:42Z</time>
      </trkpt>
      <trkpt lat="46.85847" lon="5.88997">
        <ele>676.7</ele>
        <time>2022-03-17T10:45:48Z</time>
      </trkpt>
      <trkpt lat="46.85851" lon="5.89001">
        <ele>675.9</ele>
        <time>2022-03-17T10:45:53Z</time>
      </trkpt>
      <trkpt lat="46.85855" lon="5.89006">
        <ele>675.5</ele>
        <time>2022-03-17T10:45:57Z</time>
      </trkpt>
      <trkpt lat="46.85859" lon="5.89011">
        <ele>675.1</ele>
        <time>2022-03-17T10:46:01Z</time>
      </trkpt>
      <trkpt lat="46.85861" lon="5.89017">
        <ele>674.2</ele>
        <time>2022-03-17T10:46:06Z</time>
      </trkpt>
      <trkpt lat="46.85865" lon="5.89023">
        <ele>673</ele>
        <time>2022-03-17T10:46:11Z</time>
      </trkpt>
      <trkpt lat="46.85869" lon="5.89028">
        <ele>672.4</ele>
        <time>2022-03-17T10:46:14Z</time>
      </trkpt>
      <trkpt lat="46.85872" lon="5.89032">
        <ele>671.7</ele>
        <time>2022-03-17T10:46:17Z</time>
      </trkpt>
      <trkpt lat="46.85875" lon="5.89038">
        <ele>670.1</ele>
        <time>2022-03-17T10:46:23Z</time>
      </trkpt>
      <trkpt lat="46.85879" lon="5.89042">
        <ele>669.1</ele>
        <time>2022-03-17T10:46:27Z</time>
      </trkpt>
      <trkpt lat="46.85884" lon="5.89046">
        <ele>668</ele>
        <time>2022-03-17T10:46:32Z</time>
      </trkpt>
      <trkpt lat="46.85886" lon="5.89052">
        <ele>667.1</ele>
        <time>2022-03-17T10:46:37Z</time>
      </trkpt>
      <trkpt lat="46.85887" lon="5.8906">
        <ele>666.2</ele>
        <time>2022-03-17T10:46:42Z</time>
      </trkpt>
      <trkpt lat="46.85886" lon="5.89067">
        <ele>665.4</ele>
        <time>2022-03-17T10:46:46Z</time>
      </trkpt>
      <trkpt lat="46.85887" lon="5.89074">
        <ele>664.2</ele>
        <time>2022-03-17T10:46:51Z</time>
      </trkpt>
      <trkpt lat="46.85889" lon="5.89081">
        <ele>663.1</ele>
        <time>2022-03-17T10:46:55Z</time>
      </trkpt>
      <trkpt lat="46.85891" lon="5.89087">
        <ele>662.5</ele>
        <time>2022-03-17T10:46:58Z</time>
      </trkpt>
      <trkpt lat="46.85893" lon="5.89093">
        <ele>661.9</ele>
        <time>2022-03-17T10:47:02Z</time>
      </trkpt>
      <trkpt lat="46.85896" lon="5.89099">
        <ele>661.3</ele>
        <time>2022-03-17T10:47:06Z</time>
      </trkpt>
      <trkpt lat="46.85898" lon="5.89105">
        <ele>661</ele>
        <time>2022-03-17T10:47:10Z</time>
      </trkpt>
      <trkpt lat="46.85902" lon="5.89111">
        <ele>661.6</ele>
        <time>2022-03-17T10:47:14Z</time>
      </trkpt>
      <trkpt lat="46.85905" lon="5.89116">
        <ele>662.5</ele>
        <time>2022-03-17T10:47:17Z</time>
      </trkpt>
      <trkpt lat="46.85907" lon="5.89122">
        <ele>663.7</ele>
        <time>2022-03-17T10:47:20Z</time>
      </trkpt>
      <trkpt lat="46.85909" lon="5.89129">
        <ele>665.1</ele>
        <time>2022-03-17T10:47:24Z</time>
      </trkpt>
      <trkpt lat="46.85912" lon="5.89136">
        <ele>666.1</ele>
        <time>2022-03-17T10:47:28Z</time>
      </trkpt>
      <trkpt lat="46.85914" lon="5.89144">
        <ele>666.6</ele>
        <time>2022-03-17T10:47:32Z</time>
      </trkpt>
      <trkpt lat="46.85916" lon="5.89151">
        <ele>667</ele>
        <time>2022-03-17T10:47:37Z</time>
      </trkpt>
      <trkpt lat="46.85918" lon="5.89159">
        <ele>667.5</ele>
        <time>2022-03-17T10:47:42Z</time>
      </trkpt>
      <trkpt lat="46.85921" lon="5.89165">
        <ele>668.2</ele>
        <time>2022-03-17T10:47:46Z</time>
      </trkpt>
      <trkpt lat="46.85924" lon="5.8917">
        <ele>669</ele>
        <time>2022-03-17T10:47:50Z</time>
      </trkpt>
      <trkpt lat="46.85926" lon="5.89176">
        <ele>669.7</ele>
        <time>2022-03-17T10:47:54Z</time>
      </trkpt>
      <trkpt lat="46.85926" lon="5.89183">
        <ele>670.5</ele>
        <time>2022-03-17T10:47:59Z</time>
      </trkpt>
      <trkpt lat="46.85926" lon="5.89191">
        <ele>671.4</ele>
        <time>2022-03-17T10:48:05Z</time>
      </trkpt>
      <trkpt lat="46.85925" lon="5.89197">
        <ele>671.5</ele>
        <time>2022-03-17T10:48:10Z</time>
      </trkpt>
      <trkpt lat="46.85925" lon="5.89205">
        <ele>670.9</ele>
        <time>2022-03-17T10:48:15Z</time>
      </trkpt>
      <trkpt lat="46.85927" lon="5.89211">
        <ele>670.1</ele>
        <time>2022-03-17T10:48:20Z</time>
      </trkpt>
      <trkpt lat="46.85928" lon="5.89217">
        <ele>669</ele>
        <time>2022-03-17T10:48:24Z</time>
      </trkpt>
      <trkpt lat="46.8593" lon="5.89225">
        <ele>667.4</ele>
        <time>2022-03-17T10:48:29Z</time>
      </trkpt>
      <trkpt lat="46.85933" lon="5.8923">
        <ele>666.5</ele>
        <time>2022-03-17T10:48:33Z</time>
      </trkpt>
      <trkpt lat="46.85937" lon="5.89237">
        <ele>665.6</ele>
        <time>2022-03-17T10:48:38Z</time>
      </trkpt>
      <trkpt lat="46.8594" lon="5.89243">
        <ele>665.6</ele>
        <time>2022-03-17T10:48:43Z</time>
      </trkpt>
      <trkpt lat="46.85943" lon="5.89249">
        <ele>666</ele>
        <time>2022-03-17T10:48:47Z</time>
      </trkpt>
      <trkpt lat="46.85946" lon="5.89254">
        <ele>666.6</ele>
        <time>2022-03-17T10:48:51Z</time>
      </trkpt>
      <trkpt lat="46.8595" lon="5.8926">
        <ele>667.7</ele>
        <time>2022-03-17T10:48:57Z</time>
      </trkpt>
      <trkpt lat="46.85954" lon="5.89266">
        <ele>669.2</ele>
        <time>2022-03-17T10:49:02Z</time>
      </trkpt>
      <trkpt lat="46.85957" lon="5.89271">
        <ele>670.5</ele>
        <time>2022-03-17T10:49:05Z</time>
      </trkpt>
      <trkpt lat="46.85961" lon="5.89276">
        <ele>671.8</ele>
        <time>2022-03-17T10:49:08Z</time>
      </trkpt>
      <trkpt lat="46.85965" lon="5.8928">
        <ele>672.3</ele>
        <time>2022-03-17T10:49:11Z</time>
      </trkpt>
      <trkpt lat="46.85969" lon="5.89284">
        <ele>672.4</ele>
        <time>2022-03-17T10:49:14Z</time>
      </trkpt>
      <trkpt lat="46.85973" lon="5.8929">
        <ele>672.7</ele>
        <time>2022-03-17T10:49:18Z</time>
      </trkpt>
      <trkpt lat="46.85975" lon="5.89297">
        <ele>673</ele>
        <time>2022-03-17T10:49:22Z</time>
      </trkpt>
      <trkpt lat="46.85977" lon="5.89304">
        <ele>673.6</ele>
        <time>2022-03-17T10:49:26Z</time>
      </trkpt>
      <trkpt lat="46.85979" lon="5.8931">
        <ele>673.6</ele>
        <time>2022-03-17T10:49:31Z</time>
      </trkpt>
      <trkpt lat="46.85982" lon="5.89316">
        <ele>673.4</ele>
        <time>2022-03-17T10:49:35Z</time>
      </trkpt>
      <trkpt lat="46.85984" lon="5.89322">
        <ele>672.6</ele>
        <time>2022-03-17T10:49:42Z</time>
      </trkpt>
      <trkpt lat="46.85985" lon="5.89329">
        <ele>671.3</ele>
        <time>2022-03-17T10:49:48Z</time>
      </trkpt>
      <trkpt lat="46.85987" lon="5.89336">
        <ele>670</ele>
        <time>2022-03-17T10:49:53Z</time>
      </trkpt>
      <trkpt lat="46.85988" lon="5.89343">
        <ele>669.1</ele>
        <time>2022-03-17T10:49:57Z</time>
      </trkpt>
      <trkpt lat="46.8599" lon="5.8935">
        <ele>668.1</ele>
        <time>2022-03-17T10:50:02Z</time>
      </trkpt>
      <trkpt lat="46.85993" lon="5.89356">
        <ele>667.7</ele>
        <time>2022-03-17T10:50:06Z</time>
      </trkpt>
      <trkpt lat="46.85997" lon="5.89361">
        <ele>667.7</ele>
        <time>2022-03-17T10:50:10Z</time>
      </trkpt>
      <trkpt lat="46.86001" lon="5.89365">
        <ele>667.5</ele>
        <time>2022-03-17T10:50:14Z</time>
      </trkpt>
      <trkpt lat="46.86005" lon="5.8937">
        <ele>667.7</ele>
        <time>2022-03-17T10:50:17Z</time>
      </trkpt>
      <trkpt lat="46.86009" lon="5.89373">
        <ele>667.9</ele>
        <time>2022-03-17T10:50:20Z</time>
      </trkpt>
      <trkpt lat="46.86014" lon="5.89375">
        <ele>668.6</ele>
        <time>2022-03-17T10:50:24Z</time>
      </trkpt>
      <trkpt lat="46.86018" lon="5.89378">
        <ele>669.2</ele>
        <time>2022-03-17T10:50:27Z</time>
      </trkpt>
      <trkpt lat="46.86021" lon="5.89383">
        <ele>670.2</ele>
        <time>2022-03-17T10:50:31Z</time>
      </trkpt>
      <trkpt lat="46.86025" lon="5.89387">
        <ele>671.3</ele>
        <time>2022-03-17T10:50:35Z</time>
      </trkpt>
      <trkpt lat="46.86027" lon="5.89394">
        <ele>672.4</ele>
        <time>2022-03-17T10:50:41Z</time>
      </trkpt>
      <trkpt lat="46.86027" lon="5.89401">
        <ele>673</ele>
        <time>2022-03-17T10:50:44Z</time>
      </trkpt>
      <trkpt lat="46.86026" lon="5.89409">
        <ele>673.9</ele>
        <time>2022-03-17T10:50:48Z</time>
      </trkpt>
      <trkpt lat="46.86025" lon="5.89417">
        <ele>675</ele>
        <time>2022-03-17T10:50:52Z</time>
      </trkpt>
      <trkpt lat="46.86025" lon="5.89424">
        <ele>676</ele>
        <time>2022-03-17T10:50:56Z</time>
      </trkpt>
      <trkpt lat="46.86026" lon="5.89431">
        <ele>677</ele>
        <time>2022-03-17T10:51:01Z</time>
      </trkpt>
      <trkpt lat="46.86026" lon="5.89438">
        <ele>677.6</ele>
        <time>2022-03-17T10:51:06Z</time>
      </trkpt>
      <trkpt lat="46.86025" lon="5.89446">
        <ele>678.1</ele>
        <time>2022-03-17T10:51:11Z</time>
      </trkpt>
      <trkpt lat="46.86025" lon="5.89454">
        <ele>678.6</ele>
        <time>2022-03-17T10:51:16Z</time>
      </trkpt>
      <trkpt lat="46.86024" lon="5.89461">
        <ele>678.8</ele>
        <time>2022-03-17T10:51:20Z</time>
      </trkpt>
      <trkpt lat="46.86025" lon="5.89469">
        <ele>679.3</ele>
        <time>2022-03-17T10:51:24Z</time>
      </trkpt>
      <trkpt lat="46.86028" lon="5.89475">
        <ele>680</ele>
        <time>2022-03-17T10:51:30Z</time>
      </trkpt>
      <trkpt lat="46.86027" lon="5.89483">
        <ele>681.5</ele>
        <time>2022-03-17T10:51:42Z</time>
      </trkpt>
      <trkpt lat="46.86027" lon="5.8949">
        <ele>681.8</ele>
        <time>2022-03-17T10:51:46Z</time>
      </trkpt>
      <trkpt lat="46.86029" lon="5.89497">
        <ele>682.7</ele>
        <time>2022-03-17T10:51:51Z</time>
      </trkpt>
      <trkpt lat="46.86029" lon="5.89504">
        <ele>686.4</ele>
        <time>2022-03-17T10:51:57Z</time>
      </trkpt>
      <trkpt lat="46.86029" lon="5.89511">
        <ele>689.6</ele>
        <time>2022-03-17T10:52:02Z</time>
      </trkpt>
      <trkpt lat="46.8603" lon="5.89518">
        <ele>690.9</ele>
        <time>2022-03-17T10:52:06Z</time>
      </trkpt>
      <trkpt lat="46.86031" lon="5.89525">
        <ele>691.3</ele>
        <time>2022-03-17T10:52:11Z</time>
      </trkpt>
      <trkpt lat="46.8603" lon="5.89532">
        <ele>691.3</ele>
        <time>2022-03-17T10:52:16Z</time>
      </trkpt>
      <trkpt lat="46.8603" lon="5.89539">
        <ele>691.7</ele>
        <time>2022-03-17T10:52:20Z</time>
      </trkpt>
      <trkpt lat="46.86026" lon="5.89545">
        <ele>691.6</ele>
        <time>2022-03-17T10:52:24Z</time>
      </trkpt>
      <trkpt lat="46.86021" lon="5.89551">
        <ele>690.9</ele>
        <time>2022-03-17T10:52:27Z</time>
      </trkpt>
      <trkpt lat="46.86017" lon="5.89557">
        <ele>688.5</ele>
        <time>2022-03-17T10:52:33Z</time>
      </trkpt>
      <trkpt lat="46.86015" lon="5.89562">
        <ele>686.2</ele>
        <time>2022-03-17T10:52:37Z</time>
      </trkpt>
      <trkpt lat="46.86013" lon="5.89569">
        <ele>684.3</ele>
        <time>2022-03-17T10:52:42Z</time>
      </trkpt>
      <trkpt lat="46.86012" lon="5.89577">
        <ele>683.7</ele>
        <time>2022-03-17T10:52:45Z</time>
      </trkpt>
      <trkpt lat="46.86011" lon="5.89586">
        <ele>683.5</ele>
        <time>2022-03-17T10:52:48Z</time>
      </trkpt>
      <trkpt lat="46.86009" lon="5.89597">
        <ele>683.8</ele>
        <time>2022-03-17T10:52:51Z</time>
      </trkpt>
      <trkpt lat="46.86008" lon="5.89604">
        <ele>684.3</ele>
        <time>2022-03-17T10:52:54Z</time>
      </trkpt>
      <trkpt lat="46.86006" lon="5.8961">
        <ele>684.9</ele>
        <time>2022-03-17T10:52:58Z</time>
      </trkpt>
      <trkpt lat="46.86003" lon="5.89615">
        <ele>685.5</ele>
        <time>2022-03-17T10:53:02Z</time>
      </trkpt>
      <trkpt lat="46.85999" lon="5.89619">
        <ele>685.6</ele>
        <time>2022-03-17T10:53:06Z</time>
      </trkpt>
      <trkpt lat="46.85997" lon="5.89626">
        <ele>684.6</ele>
        <time>2022-03-17T10:53:11Z</time>
      </trkpt>
      <trkpt lat="46.85993" lon="5.89631">
        <ele>683.7</ele>
        <time>2022-03-17T10:53:15Z</time>
      </trkpt>
      <trkpt lat="46.8599" lon="5.89637">
        <ele>683.5</ele>
        <time>2022-03-17T10:53:19Z</time>
      </trkpt>
      <trkpt lat="46.85987" lon="5.89643">
        <ele>683.6</ele>
        <time>2022-03-17T10:53:24Z</time>
      </trkpt>
      <trkpt lat="46.85982" lon="5.89647">
        <ele>683.5</ele>
        <time>2022-03-17T10:53:29Z</time>
      </trkpt>
      <trkpt lat="46.85977" lon="5.8965">
        <ele>683.3</ele>
        <time>2022-03-17T10:53:35Z</time>
      </trkpt>
      <trkpt lat="46.85973" lon="5.89653">
        <ele>682.9</ele>
        <time>2022-03-17T10:53:40Z</time>
      </trkpt>
      <trkpt lat="46.85969" lon="5.89659">
        <ele>682.8</ele>
        <time>2022-03-17T10:53:44Z</time>
      </trkpt>
      <trkpt lat="46.85966" lon="5.89664">
        <ele>682.7</ele>
        <time>2022-03-17T10:53:50Z</time>
      </trkpt>
      <trkpt lat="46.85962" lon="5.89666">
        <ele>682.8</ele>
        <time>2022-03-17T10:53:56Z</time>
      </trkpt>
      <trkpt lat="46.85957" lon="5.8967">
        <ele>682.8</ele>
        <time>2022-03-17T10:54:01Z</time>
      </trkpt>
      <trkpt lat="46.85953" lon="5.89673">
        <ele>682.4</ele>
        <time>2022-03-17T10:54:06Z</time>
      </trkpt>
      <trkpt lat="46.85949" lon="5.89678">
        <ele>682.1</ele>
        <time>2022-03-17T10:54:10Z</time>
      </trkpt>
      <trkpt lat="46.85945" lon="5.89682">
        <ele>682</ele>
        <time>2022-03-17T10:54:14Z</time>
      </trkpt>
      <trkpt lat="46.85943" lon="5.89687">
        <ele>682.3</ele>
        <time>2022-03-17T10:54:20Z</time>
      </trkpt>
      <trkpt lat="46.85938" lon="5.89692">
        <ele>682.3</ele>
        <time>2022-03-17T10:54:25Z</time>
      </trkpt>
      <trkpt lat="46.85935" lon="5.89698">
        <ele>682</ele>
        <time>2022-03-17T10:54:28Z</time>
      </trkpt>
      <trkpt lat="46.85932" lon="5.89704">
        <ele>681.8</ele>
        <time>2022-03-17T10:54:32Z</time>
      </trkpt>
      <trkpt lat="46.85928" lon="5.89709">
        <ele>681.5</ele>
        <time>2022-03-17T10:54:36Z</time>
      </trkpt>
      <trkpt lat="46.85925" lon="5.89714">
        <ele>680.7</ele>
        <time>2022-03-17T10:54:40Z</time>
      </trkpt>
      <trkpt lat="46.85921" lon="5.89718">
        <ele>679.6</ele>
        <time>2022-03-17T10:54:45Z</time>
      </trkpt>
      <trkpt lat="46.85916" lon="5.8972">
        <ele>678.4</ele>
        <time>2022-03-17T10:54:51Z</time>
      </trkpt>
      <trkpt lat="46.85911" lon="5.89723">
        <ele>677.7</ele>
        <time>2022-03-17T10:54:55Z</time>
      </trkpt>
      <trkpt lat="46.85906" lon="5.89726">
        <ele>677</ele>
        <time>2022-03-17T10:54:58Z</time>
      </trkpt>
      <trkpt lat="46.85902" lon="5.8973">
        <ele>676.3</ele>
        <time>2022-03-17T10:55:01Z</time>
      </trkpt>
      <trkpt lat="46.85898" lon="5.89733">
        <ele>675.5</ele>
        <time>2022-03-17T10:55:04Z</time>
      </trkpt>
      <trkpt lat="46.85892" lon="5.89734">
        <ele>674.4</ele>
        <time>2022-03-17T10:55:08Z</time>
      </trkpt>
      <trkpt lat="46.85887" lon="5.89735">
        <ele>673</ele>
        <time>2022-03-17T10:55:13Z</time>
      </trkpt>
      <trkpt lat="46.85882" lon="5.89736">
        <ele>671.9</ele>
        <time>2022-03-17T10:55:18Z</time>
      </trkpt>
      <trkpt lat="46.85877" lon="5.89736">
        <ele>670.7</ele>
        <time>2022-03-17T10:55:24Z</time>
      </trkpt>
      <trkpt lat="46.85871" lon="5.89736">
        <ele>669.5</ele>
        <time>2022-03-17T10:55:28Z</time>
      </trkpt>
      <trkpt lat="46.85867" lon="5.89738">
        <ele>668.6</ele>
        <time>2022-03-17T10:55:31Z</time>
      </trkpt>
      <trkpt lat="46.85861" lon="5.8974">
        <ele>667.5</ele>
        <time>2022-03-17T10:55:35Z</time>
      </trkpt>
      <trkpt lat="46.85856" lon="5.89744">
        <ele>666.3</ele>
        <time>2022-03-17T10:55:39Z</time>
      </trkpt>
      <trkpt lat="46.85852" lon="5.89747">
        <ele>664.8</ele>
        <time>2022-03-17T10:55:44Z</time>
      </trkpt>
      <trkpt lat="46.8585" lon="5.89753">
        <ele>663.3</ele>
        <time>2022-03-17T10:55:49Z</time>
      </trkpt>
      <trkpt lat="46.85847" lon="5.89759">
        <ele>661.5</ele>
        <time>2022-03-17T10:55:57Z</time>
      </trkpt>
      <trkpt lat="46.85842" lon="5.8976">
        <ele>660.3</ele>
        <time>2022-03-17T10:56:02Z</time>
      </trkpt>
      <trkpt lat="46.85837" lon="5.89759">
        <ele>659.7</ele>
        <time>2022-03-17T10:56:06Z</time>
      </trkpt>
      <trkpt lat="46.85831" lon="5.89759">
        <ele>659.1</ele>
        <time>2022-03-17T10:56:10Z</time>
      </trkpt>
      <trkpt lat="46.85825" lon="5.8976">
        <ele>658.6</ele>
        <time>2022-03-17T10:56:13Z</time>
      </trkpt>
      <trkpt lat="46.8582" lon="5.89759">
        <ele>657.9</ele>
        <time>2022-03-17T10:56:18Z</time>
      </trkpt>
      <trkpt lat="46.85815" lon="5.8976">
        <ele>657.2</ele>
        <time>2022-03-17T10:56:22Z</time>
      </trkpt>
      <trkpt lat="46.8581" lon="5.89762">
        <ele>656.7</ele>
        <time>2022-03-17T10:56:25Z</time>
      </trkpt>
      <trkpt lat="46.85805" lon="5.89763">
        <ele>656.3</ele>
        <time>2022-03-17T10:56:28Z</time>
      </trkpt>
      <trkpt lat="46.85801" lon="5.89762">
        <ele>656.1</ele>
        <time>2022-03-17T10:56:31Z</time>
      </trkpt>
      <trkpt lat="46.85792" lon="5.89764">
        <ele>656.4</ele>
        <time>2022-03-17T10:56:34Z</time>
      </trkpt>
      <trkpt lat="46.85786" lon="5.89769">
        <ele>656.6</ele>
        <time>2022-03-17T10:56:37Z</time>
      </trkpt>
      <trkpt lat="46.85783" lon="5.89774">
        <ele>656.6</ele>
        <time>2022-03-17T10:56:40Z</time>
      </trkpt>
      <trkpt lat="46.85779" lon="5.8978">
        <ele>656.6</ele>
        <time>2022-03-17T10:56:44Z</time>
      </trkpt>
      <trkpt lat="46.85776" lon="5.89784">
        <ele>656.3</ele>
        <time>2022-03-17T10:56:50Z</time>
      </trkpt>
      <trkpt lat="46.85771" lon="5.89788">
        <ele>655.7</ele>
        <time>2022-03-17T10:56:54Z</time>
      </trkpt>
      <trkpt lat="46.85767" lon="5.89794">
        <ele>654.5</ele>
        <time>2022-03-17T10:56:58Z</time>
      </trkpt>
      <trkpt lat="46.85762" lon="5.89795">
        <ele>653.4</ele>
        <time>2022-03-17T10:57:03Z</time>
      </trkpt>
      <trkpt lat="46.85758" lon="5.89796">
        <ele>650.3</ele>
        <time>2022-03-17T10:57:33Z</time>
      </trkpt>
      <trkpt lat="46.85758" lon="5.89789">
        <ele>648.8</ele>
        <time>2022-03-17T10:57:45Z</time>
      </trkpt>
      <trkpt lat="46.85763" lon="5.89794">
        <ele>647.4</ele>
        <time>2022-03-17T10:58:01Z</time>
      </trkpt>
      <trkpt lat="46.85766" lon="5.89799">
        <ele>647.2</ele>
        <time>2022-03-17T10:58:04Z</time>
      </trkpt>
      <trkpt lat="46.85764" lon="5.89792">
        <ele>647</ele>
        <time>2022-03-17T10:58:30Z</time>
      </trkpt>
      <trkpt lat="46.85765" lon="5.89785">
        <ele>647.1</ele>
        <time>2022-03-17T10:58:37Z</time>
      </trkpt>
      <trkpt lat="46.85772" lon="5.89788">
        <ele>645.5</ele>
        <time>2022-03-17T10:58:47Z</time>
      </trkpt>
      <trkpt lat="46.85776" lon="5.89788">
        <ele>645</ele>
        <time>2022-03-17T10:59:39Z</time>
      </trkpt>
      <trkpt lat="46.85781" lon="5.89793">
        <ele>650.5</ele>
        <time>2022-03-17T11:00:16Z</time>
      </trkpt>
      <trkpt lat="46.85785" lon="5.89797">
        <ele>650.6</ele>
        <time>2022-03-17T11:00:20Z</time>
      </trkpt>
      <trkpt lat="46.85777" lon="5.89796">
        <ele>656</ele>
        <time>2022-03-17T11:01:08Z</time>
      </trkpt>
      <trkpt lat="46.85772" lon="5.89795">
        <ele>657.3</ele>
        <time>2022-03-17T11:01:11Z</time>
      </trkpt>
      <trkpt lat="46.85769" lon="5.89791">
        <ele>659.4</ele>
        <time>2022-03-17T11:01:32Z</time>
      </trkpt>
      <trkpt lat="46.85773" lon="5.89788">
        <ele>659.5</ele>
        <time>2022-03-17T11:08:29Z</time>
      </trkpt>
      <trkpt lat="46.85771" lon="5.89794">
        <ele>664.1</ele>
        <time>2022-03-17T11:09:53Z</time>
      </trkpt>
      <trkpt lat="46.85776" lon="5.89798">
        <ele>663.6</ele>
        <time>2022-03-17T11:12:07Z</time>
      </trkpt>
      <trkpt lat="46.85771" lon="5.898">
        <ele>662.9</ele>
        <time>2022-03-17T11:14:44Z</time>
      </trkpt>
      <trkpt lat="46.85777" lon="5.89799">
        <ele>665.6</ele>
        <time>2022-03-17T11:15:41Z</time>
      </trkpt>
      <trkpt lat="46.85773" lon="5.89792">
        <ele>661.6</ele>
        <time>2022-03-17T11:17:02Z</time>
      </trkpt>
      <trkpt lat="46.85778" lon="5.89795">
        <ele>662.5</ele>
        <time>2022-03-17T11:20:20Z</time>
      </trkpt>
      <trkpt lat="46.85774" lon="5.89798">
        <ele>663.5</ele>
        <time>2022-03-17T11:21:30Z</time>
      </trkpt>
      <trkpt lat="46.85775" lon="5.89791">
        <ele>652.2</ele>
        <time>2022-03-17T11:22:43Z</time>
      </trkpt>
      <trkpt lat="46.85779" lon="5.89788">
        <ele>647.3</ele>
        <time>2022-03-17T11:23:55Z</time>
      </trkpt>
      <trkpt lat="46.85784" lon="5.89787">
        <ele>646.8</ele>
        <time>2022-03-17T11:24:01Z</time>
      </trkpt>
      <trkpt lat="46.85782" lon="5.89794">
        <ele>647.7</ele>
        <time>2022-03-17T11:24:24Z</time>
      </trkpt>
      <trkpt lat="46.85777" lon="5.89793">
        <ele>649.5</ele>
        <time>2022-03-17T11:24:32Z</time>
      </trkpt>
      <trkpt lat="46.85773" lon="5.89796">
        <ele>654</ele>
        <time>2022-03-17T11:24:49Z</time>
      </trkpt>
      <trkpt lat="46.85779" lon="5.89798">
        <ele>658</ele>
        <time>2022-03-17T11:25:00Z</time>
      </trkpt>
      <trkpt lat="46.85774" lon="5.89796">
        <ele>659.1</ele>
        <time>2022-03-17T11:25:29Z</time>
      </trkpt>
      <trkpt lat="46.8577" lon="5.89795">
        <ele>658.1</ele>
        <time>2022-03-17T11:25:35Z</time>
      </trkpt>
      <trkpt lat="46.85775" lon="5.89794">
        <ele>656.3</ele>
        <time>2022-03-17T11:27:39Z</time>
      </trkpt>
      <trkpt lat="46.8578" lon="5.89794">
        <ele>655.2</ele>
        <time>2022-03-17T11:27:48Z</time>
      </trkpt>
      <trkpt lat="46.85776" lon="5.89791">
        <ele>655</ele>
        <time>2022-03-17T11:27:54Z</time>
      </trkpt>
      <trkpt lat="46.85771" lon="5.89788">
        <ele>654.9</ele>
        <time>2022-03-17T11:27:58Z</time>
      </trkpt>
      <trkpt lat="46.85776" lon="5.89792">
        <ele>654.4</ele>
        <time>2022-03-17T11:28:59Z</time>
      </trkpt>
      <trkpt lat="46.8578" lon="5.89796">
        <ele>659.8</ele>
        <time>2022-03-17T11:29:40Z</time>
      </trkpt>
      <trkpt lat="46.85775" lon="5.89796">
        <ele>661.6</ele>
        <time>2022-03-17T11:30:13Z</time>
      </trkpt>
      <trkpt lat="46.85769" lon="5.89795">
        <ele>660.8</ele>
        <time>2022-03-17T11:30:16Z</time>
      </trkpt>
      <trkpt lat="46.85764" lon="5.89796">
        <ele>659.9</ele>
        <time>2022-03-17T11:30:22Z</time>
      </trkpt>
      <trkpt lat="46.85768" lon="5.898">
        <ele>659.6</ele>
        <time>2022-03-17T11:31:12Z</time>
      </trkpt>
      <trkpt lat="46.85772" lon="5.89803">
        <ele>661.2</ele>
        <time>2022-03-17T11:31:30Z</time>
      </trkpt>
      <trkpt lat="46.85769" lon="5.89797">
        <ele>662.1</ele>
        <time>2022-03-17T11:31:49Z</time>
      </trkpt>
      <trkpt lat="46.85768" lon="5.8979">
        <ele>659</ele>
        <time>2022-03-17T11:35:37Z</time>
      </trkpt>
      <trkpt lat="46.85766" lon="5.89795">
        <ele>658.3</ele>
        <time>2022-03-17T11:35:49Z</time>
      </trkpt>
      <trkpt lat="46.85762" lon="5.89801">
        <ele>659.4</ele>
        <time>2022-03-17T11:35:56Z</time>
      </trkpt>
      <trkpt lat="46.85758" lon="5.89799">
        <ele>658.6</ele>
        <time>2022-03-17T11:36:19Z</time>
      </trkpt>
      <trkpt lat="46.85752" lon="5.89797">
        <ele>658.2</ele>
        <time>2022-03-17T11:36:23Z</time>
      </trkpt>
      <trkpt lat="46.85747" lon="5.89797">
        <ele>658.3</ele>
        <time>2022-03-17T11:36:26Z</time>
      </trkpt>
      <trkpt lat="46.85742" lon="5.89797">
        <ele>658.8</ele>
        <time>2022-03-17T11:36:29Z</time>
      </trkpt>
      <trkpt lat="46.85737" lon="5.89794">
        <ele>659.7</ele>
        <time>2022-03-17T11:36:33Z</time>
      </trkpt>
      <trkpt lat="46.85731" lon="5.89794">
        <ele>660.8</ele>
        <time>2022-03-17T11:36:37Z</time>
      </trkpt>
      <trkpt lat="46.85726" lon="5.89792">
        <ele>662</ele>
        <time>2022-03-17T11:36:41Z</time>
      </trkpt>
      <trkpt lat="46.85723" lon="5.89787">
        <ele>662.5</ele>
        <time>2022-03-17T11:36:46Z</time>
      </trkpt>
      <trkpt lat="46.85719" lon="5.89783">
        <ele>662.4</ele>
        <time>2022-03-17T11:36:51Z</time>
      </trkpt>
      <trkpt lat="46.85714" lon="5.8978">
        <ele>662.4</ele>
        <time>2022-03-17T11:36:54Z</time>
      </trkpt>
      <trkpt lat="46.85709" lon="5.89776">
        <ele>662.5</ele>
        <time>2022-03-17T11:36:57Z</time>
      </trkpt>
      <trkpt lat="46.85706" lon="5.8977">
        <ele>661.8</ele>
        <time>2022-03-17T11:37:02Z</time>
      </trkpt>
      <trkpt lat="46.85702" lon="5.89766">
        <ele>661.1</ele>
        <time>2022-03-17T11:37:08Z</time>
      </trkpt>
      <trkpt lat="46.85697" lon="5.89762">
        <ele>661.3</ele>
        <time>2022-03-17T11:37:16Z</time>
      </trkpt>
      <trkpt lat="46.85694" lon="5.89757">
        <ele>661.3</ele>
        <time>2022-03-17T11:37:21Z</time>
      </trkpt>
      <trkpt lat="46.8569" lon="5.89751">
        <ele>661.1</ele>
        <time>2022-03-17T11:37:25Z</time>
      </trkpt>
      <trkpt lat="46.85686" lon="5.89747">
        <ele>661.1</ele>
        <time>2022-03-17T11:37:29Z</time>
      </trkpt>
      <trkpt lat="46.85681" lon="5.89745">
        <ele>661.1</ele>
        <time>2022-03-17T11:37:32Z</time>
      </trkpt>
      <trkpt lat="46.85677" lon="5.89743">
        <ele>660.9</ele>
        <time>2022-03-17T11:37:36Z</time>
      </trkpt>
      <trkpt lat="46.85671" lon="5.89743">
        <ele>660.9</ele>
        <time>2022-03-17T11:37:40Z</time>
      </trkpt>
      <trkpt lat="46.85667" lon="5.8974">
        <ele>661.4</ele>
        <time>2022-03-17T11:37:46Z</time>
      </trkpt>
      <trkpt lat="46.85663" lon="5.89735">
        <ele>661.7</ele>
        <time>2022-03-17T11:37:52Z</time>
      </trkpt>
      <trkpt lat="46.85658" lon="5.8973">
        <ele>661.5</ele>
        <time>2022-03-17T11:37:56Z</time>
      </trkpt>
      <trkpt lat="46.85653" lon="5.89728">
        <ele>661.4</ele>
        <time>2022-03-17T11:38:00Z</time>
      </trkpt>
      <trkpt lat="46.85648" lon="5.89727">
        <ele>661.2</ele>
        <time>2022-03-17T11:38:05Z</time>
      </trkpt>
      <trkpt lat="46.85643" lon="5.89729">
        <ele>660.5</ele>
        <time>2022-03-17T11:38:12Z</time>
      </trkpt>
      <trkpt lat="46.85639" lon="5.89726">
        <ele>660.1</ele>
        <time>2022-03-17T11:38:18Z</time>
      </trkpt>
      <trkpt lat="46.85634" lon="5.89722">
        <ele>660.2</ele>
        <time>2022-03-17T11:38:21Z</time>
      </trkpt>
      <trkpt lat="46.85628" lon="5.8972">
        <ele>660.3</ele>
        <time>2022-03-17T11:38:24Z</time>
      </trkpt>
      <trkpt lat="46.85623" lon="5.89718">
        <ele>660.2</ele>
        <time>2022-03-17T11:38:29Z</time>
      </trkpt>
      <trkpt lat="46.85619" lon="5.89716">
        <ele>660</ele>
        <time>2022-03-17T11:38:33Z</time>
      </trkpt>
      <trkpt lat="46.85614" lon="5.89715">
        <ele>659.7</ele>
        <time>2022-03-17T11:38:37Z</time>
      </trkpt>
      <trkpt lat="46.85608" lon="5.89713">
        <ele>659.5</ele>
        <time>2022-03-17T11:38:42Z</time>
      </trkpt>
      <trkpt lat="46.85604" lon="5.89712">
        <ele>659.3</ele>
        <time>2022-03-17T11:38:46Z</time>
      </trkpt>
      <trkpt lat="46.85599" lon="5.89709">
        <ele>658.6</ele>
        <time>2022-03-17T11:38:50Z</time>
      </trkpt>
      <trkpt lat="46.85593" lon="5.89708">
        <ele>658.2</ele>
        <time>2022-03-17T11:38:55Z</time>
      </trkpt>
      <trkpt lat="46.85588" lon="5.89706">
        <ele>658.1</ele>
        <time>2022-03-17T11:38:59Z</time>
      </trkpt>
      <trkpt lat="46.85584" lon="5.89705">
        <ele>658.2</ele>
        <time>2022-03-17T11:39:03Z</time>
      </trkpt>
      <trkpt lat="46.85579" lon="5.89703">
        <ele>658.7</ele>
        <time>2022-03-17T11:39:07Z</time>
      </trkpt>
      <trkpt lat="46.85575" lon="5.89701">
        <ele>659.6</ele>
        <time>2022-03-17T11:39:11Z</time>
      </trkpt>
      <trkpt lat="46.8557" lon="5.89699">
        <ele>660.9</ele>
        <time>2022-03-17T11:39:15Z</time>
      </trkpt>
      <trkpt lat="46.85566" lon="5.89694">
        <ele>662.3</ele>
        <time>2022-03-17T11:39:20Z</time>
      </trkpt>
      <trkpt lat="46.85561" lon="5.89691">
        <ele>662.9</ele>
        <time>2022-03-17T11:39:26Z</time>
      </trkpt>
      <trkpt lat="46.85556" lon="5.89692">
        <ele>663</ele>
        <time>2022-03-17T11:39:30Z</time>
      </trkpt>
      <trkpt lat="46.85553" lon="5.89687">
        <ele>662.5</ele>
        <time>2022-03-17T11:39:35Z</time>
      </trkpt>
      <trkpt lat="46.85548" lon="5.89685">
        <ele>660.7</ele>
        <time>2022-03-17T11:39:41Z</time>
      </trkpt>
      <trkpt lat="46.85544" lon="5.89686">
        <ele>659.2</ele>
        <time>2022-03-17T11:39:46Z</time>
      </trkpt>
      <trkpt lat="46.85539" lon="5.89683">
        <ele>658.1</ele>
        <time>2022-03-17T11:39:51Z</time>
      </trkpt>
      <trkpt lat="46.85535" lon="5.89679">
        <ele>656.8</ele>
        <time>2022-03-17T11:39:56Z</time>
      </trkpt>
      <trkpt lat="46.85531" lon="5.89676">
        <ele>655.5</ele>
        <time>2022-03-17T11:40:01Z</time>
      </trkpt>
      <trkpt lat="46.85526" lon="5.89675">
        <ele>654.9</ele>
        <time>2022-03-17T11:40:05Z</time>
      </trkpt>
      <trkpt lat="46.85522" lon="5.89668">
        <ele>654.5</ele>
        <time>2022-03-17T11:40:09Z</time>
      </trkpt>
      <trkpt lat="46.85518" lon="5.89663">
        <ele>654.1</ele>
        <time>2022-03-17T11:40:13Z</time>
      </trkpt>
      <trkpt lat="46.85513" lon="5.89664">
        <ele>654.1</ele>
        <time>2022-03-17T11:40:18Z</time>
      </trkpt>
      <trkpt lat="46.85508" lon="5.89663">
        <ele>655</ele>
        <time>2022-03-17T11:40:23Z</time>
      </trkpt>
      <trkpt lat="46.85505" lon="5.89656">
        <ele>655.6</ele>
        <time>2022-03-17T11:40:28Z</time>
      </trkpt>
      <trkpt lat="46.85501" lon="5.89653">
        <ele>656.1</ele>
        <time>2022-03-17T11:40:33Z</time>
      </trkpt>
      <trkpt lat="46.85496" lon="5.89649">
        <ele>657.4</ele>
        <time>2022-03-17T11:40:38Z</time>
      </trkpt>
      <trkpt lat="46.85491" lon="5.89645">
        <ele>658.9</ele>
        <time>2022-03-17T11:40:43Z</time>
      </trkpt>
      <trkpt lat="46.85486" lon="5.89642">
        <ele>660.4</ele>
        <time>2022-03-17T11:40:47Z</time>
      </trkpt>
      <trkpt lat="46.85482" lon="5.89641">
        <ele>662.4</ele>
        <time>2022-03-17T11:40:51Z</time>
      </trkpt>
      <trkpt lat="46.85477" lon="5.89637">
        <ele>666.1</ele>
        <time>2022-03-17T11:40:57Z</time>
      </trkpt>
      <trkpt lat="46.85473" lon="5.89636">
        <ele>670.4</ele>
        <time>2022-03-17T11:41:03Z</time>
      </trkpt>
      <trkpt lat="46.85468" lon="5.89634">
        <ele>672.7</ele>
        <time>2022-03-17T11:41:07Z</time>
      </trkpt>
      <trkpt lat="46.85463" lon="5.89632">
        <ele>674.6</ele>
        <time>2022-03-17T11:41:11Z</time>
      </trkpt>
      <trkpt lat="46.85459" lon="5.89629">
        <ele>676.5</ele>
        <time>2022-03-17T11:41:15Z</time>
      </trkpt>
      <trkpt lat="46.85455" lon="5.89629">
        <ele>678.5</ele>
        <time>2022-03-17T11:41:19Z</time>
      </trkpt>
      <trkpt lat="46.8545" lon="5.89629">
        <ele>681.2</ele>
        <time>2022-03-17T11:41:25Z</time>
      </trkpt>
      <trkpt lat="46.85446" lon="5.89624">
        <ele>683.4</ele>
        <time>2022-03-17T11:41:31Z</time>
      </trkpt>
      <trkpt lat="46.85443" lon="5.89618">
        <ele>684.9</ele>
        <time>2022-03-17T11:41:37Z</time>
      </trkpt>
      <trkpt lat="46.85441" lon="5.89612">
        <ele>685</ele>
        <time>2022-03-17T11:41:42Z</time>
      </trkpt>
      <trkpt lat="46.85437" lon="5.89608">
        <ele>684.6</ele>
        <time>2022-03-17T11:41:47Z</time>
      </trkpt>
      <trkpt lat="46.85432" lon="5.89604">
        <ele>684.2</ele>
        <time>2022-03-17T11:41:52Z</time>
      </trkpt>
      <trkpt lat="46.85428" lon="5.89602">
        <ele>683.5</ele>
        <time>2022-03-17T11:42:00Z</time>
      </trkpt>
      <trkpt lat="46.85423" lon="5.896">
        <ele>683</ele>
        <time>2022-03-17T11:42:06Z</time>
      </trkpt>
      <trkpt lat="46.85417" lon="5.89599">
        <ele>682.4</ele>
        <time>2022-03-17T11:42:12Z</time>
      </trkpt>
      <trkpt lat="46.85415" lon="5.89593">
        <ele>680.5</ele>
        <time>2022-03-17T11:42:19Z</time>
      </trkpt>
      <trkpt lat="46.85409" lon="5.89596">
        <ele>679.8</ele>
        <time>2022-03-17T11:42:23Z</time>
      </trkpt>
      <trkpt lat="46.85404" lon="5.89598">
        <ele>679.6</ele>
        <time>2022-03-17T11:42:26Z</time>
      </trkpt>
      <trkpt lat="46.854" lon="5.896">
        <ele>679.1</ele>
        <time>2022-03-17T11:42:30Z</time>
      </trkpt>
      <trkpt lat="46.85395" lon="5.89603">
        <ele>678.7</ele>
        <time>2022-03-17T11:42:35Z</time>
      </trkpt>
      <trkpt lat="46.85391" lon="5.89608">
        <ele>678.4</ele>
        <time>2022-03-17T11:42:39Z</time>
      </trkpt>
      <trkpt lat="46.85386" lon="5.89612">
        <ele>678.7</ele>
        <time>2022-03-17T11:42:43Z</time>
      </trkpt>
      <trkpt lat="46.8538" lon="5.89613">
        <ele>679.2</ele>
        <time>2022-03-17T11:42:46Z</time>
      </trkpt>
      <trkpt lat="46.85374" lon="5.89614">
        <ele>680.2</ele>
        <time>2022-03-17T11:42:50Z</time>
      </trkpt>
      <trkpt lat="46.85369" lon="5.89614">
        <ele>681.1</ele>
        <time>2022-03-17T11:42:53Z</time>
      </trkpt>
      <trkpt lat="46.85365" lon="5.89612">
        <ele>682.6</ele>
        <time>2022-03-17T11:42:57Z</time>
      </trkpt>
      <trkpt lat="46.85361" lon="5.89607">
        <ele>685.5</ele>
        <time>2022-03-17T11:43:04Z</time>
      </trkpt>
      <trkpt lat="46.85357" lon="5.89602">
        <ele>688</ele>
        <time>2022-03-17T11:43:11Z</time>
      </trkpt>
      <trkpt lat="46.85355" lon="5.89596">
        <ele>687.1</ele>
        <time>2022-03-17T11:43:18Z</time>
      </trkpt>
      <trkpt lat="46.8535" lon="5.89592">
        <ele>685.2</ele>
        <time>2022-03-17T11:43:22Z</time>
      </trkpt>
      <trkpt lat="46.85346" lon="5.89589">
        <ele>683.2</ele>
        <time>2022-03-17T11:43:25Z</time>
      </trkpt>
      <trkpt lat="46.85342" lon="5.89584">
        <ele>681.3</ele>
        <time>2022-03-17T11:43:29Z</time>
      </trkpt>
      <trkpt lat="46.85339" lon="5.89578">
        <ele>679.3</ele>
        <time>2022-03-17T11:43:36Z</time>
      </trkpt>
      <trkpt lat="46.8534" lon="5.89572">
        <ele>676.4</ele>
        <time>2022-03-17T11:43:44Z</time>
      </trkpt>
      <trkpt lat="46.85337" lon="5.89566">
        <ele>675.4</ele>
        <time>2022-03-17T11:44:02Z</time>
      </trkpt>
      <trkpt lat="46.85333" lon="5.89562">
        <ele>676.2</ele>
        <time>2022-03-17T11:44:07Z</time>
      </trkpt>
      <trkpt lat="46.85333" lon="5.89555">
        <ele>677.3</ele>
        <time>2022-03-17T11:44:15Z</time>
      </trkpt>
      <trkpt lat="46.8533" lon="5.89548">
        <ele>678.2</ele>
        <time>2022-03-17T11:44:21Z</time>
      </trkpt>
      <trkpt lat="46.85326" lon="5.89544">
        <ele>678.8</ele>
        <time>2022-03-17T11:44:25Z</time>
      </trkpt>
      <trkpt lat="46.85323" lon="5.89537">
        <ele>679.5</ele>
        <time>2022-03-17T11:44:30Z</time>
      </trkpt>
      <trkpt lat="46.8532" lon="5.89532">
        <ele>681</ele>
        <time>2022-03-17T11:44:35Z</time>
      </trkpt>
      <trkpt lat="46.85316" lon="5.89526">
        <ele>682.9</ele>
        <time>2022-03-17T11:44:40Z</time>
      </trkpt>
      <trkpt lat="46.85312" lon="5.89521">
        <ele>684.3</ele>
        <time>2022-03-17T11:44:44Z</time>
      </trkpt>
      <trkpt lat="46.85309" lon="5.89516">
        <ele>685.3</ele>
        <time>2022-03-17T11:44:49Z</time>
      </trkpt>
      <trkpt lat="46.85307" lon="5.89509">
        <ele>686</ele>
        <time>2022-03-17T11:44:54Z</time>
      </trkpt>
      <trkpt lat="46.85305" lon="5.89503">
        <ele>686.6</ele>
        <time>2022-03-17T11:44:58Z</time>
      </trkpt>
      <trkpt lat="46.85302" lon="5.89497">
        <ele>686.9</ele>
        <time>2022-03-17T11:45:02Z</time>
      </trkpt>
      <trkpt lat="46.85299" lon="5.89491">
        <ele>687.3</ele>
        <time>2022-03-17T11:45:07Z</time>
      </trkpt>
      <trkpt lat="46.85297" lon="5.89484">
        <ele>688.1</ele>
        <time>2022-03-17T11:45:12Z</time>
      </trkpt>
      <trkpt lat="46.85294" lon="5.89478">
        <ele>688.7</ele>
        <time>2022-03-17T11:45:16Z</time>
      </trkpt>
      <trkpt lat="46.85289" lon="5.89474">
        <ele>689.3</ele>
        <time>2022-03-17T11:45:20Z</time>
      </trkpt>
      <trkpt lat="46.85284" lon="5.89471">
        <ele>689.9</ele>
        <time>2022-03-17T11:45:25Z</time>
      </trkpt>
      <trkpt lat="46.85282" lon="5.89464">
        <ele>690.4</ele>
        <time>2022-03-17T11:45:30Z</time>
      </trkpt>
      <trkpt lat="46.85281" lon="5.89456">
        <ele>691.1</ele>
        <time>2022-03-17T11:45:34Z</time>
      </trkpt>
      <trkpt lat="46.85278" lon="5.89449">
        <ele>691.7</ele>
        <time>2022-03-17T11:45:37Z</time>
      </trkpt>
      <trkpt lat="46.85275" lon="5.89444">
        <ele>692.1</ele>
        <time>2022-03-17T11:45:40Z</time>
      </trkpt>
      <trkpt lat="46.85271" lon="5.89439">
        <ele>692.4</ele>
        <time>2022-03-17T11:45:44Z</time>
      </trkpt>
      <trkpt lat="46.85269" lon="5.89432">
        <ele>692.1</ele>
        <time>2022-03-17T11:45:49Z</time>
      </trkpt>
      <trkpt lat="46.85266" lon="5.89426">
        <ele>691.7</ele>
        <time>2022-03-17T11:45:54Z</time>
      </trkpt>
      <trkpt lat="46.85262" lon="5.89421">
        <ele>691.1</ele>
        <time>2022-03-17T11:45:59Z</time>
      </trkpt>
      <trkpt lat="46.85258" lon="5.89417">
        <ele>690.6</ele>
        <time>2022-03-17T11:46:05Z</time>
      </trkpt>
      <trkpt lat="46.85254" lon="5.89412">
        <ele>690.7</ele>
        <time>2022-03-17T11:46:11Z</time>
      </trkpt>
      <trkpt lat="46.85252" lon="5.89406">
        <ele>691</ele>
        <time>2022-03-17T11:46:17Z</time>
      </trkpt>
      <trkpt lat="46.8525" lon="5.89399">
        <ele>691.7</ele>
        <time>2022-03-17T11:46:24Z</time>
      </trkpt>
      <trkpt lat="46.85247" lon="5.89391">
        <ele>692.2</ele>
        <time>2022-03-17T11:46:28Z</time>
      </trkpt>
      <trkpt lat="46.85244" lon="5.89386">
        <ele>692.9</ele>
        <time>2022-03-17T11:46:31Z</time>
      </trkpt>
      <trkpt lat="46.85241" lon="5.8938">
        <ele>694.4</ele>
        <time>2022-03-17T11:46:35Z</time>
      </trkpt>
      <trkpt lat="46.85238" lon="5.89374">
        <ele>695.9</ele>
        <time>2022-03-17T11:46:39Z</time>
      </trkpt>
      <trkpt lat="46.85236" lon="5.89367">
        <ele>697.2</ele>
        <time>2022-03-17T11:46:43Z</time>
      </trkpt>
      <trkpt lat="46.85233" lon="5.89361">
        <ele>698.2</ele>
        <time>2022-03-17T11:46:47Z</time>
      </trkpt>
      <trkpt lat="46.8523" lon="5.89355">
        <ele>699.6</ele>
        <time>2022-03-17T11:46:51Z</time>
      </trkpt>
      <trkpt lat="46.85227" lon="5.89349">
        <ele>701.4</ele>
        <time>2022-03-17T11:46:55Z</time>
      </trkpt>
      <trkpt lat="46.85223" lon="5.89343">
        <ele>703.2</ele>
        <time>2022-03-17T11:46:59Z</time>
      </trkpt>
      <trkpt lat="46.85219" lon="5.89339">
        <ele>705.1</ele>
        <time>2022-03-17T11:47:03Z</time>
      </trkpt>
      <trkpt lat="46.85215" lon="5.89335">
        <ele>707.2</ele>
        <time>2022-03-17T11:47:07Z</time>
      </trkpt>
      <trkpt lat="46.8521" lon="5.89332">
        <ele>708.9</ele>
        <time>2022-03-17T11:47:13Z</time>
      </trkpt>
      <trkpt lat="46.85207" lon="5.89327">
        <ele>708.9</ele>
        <time>2022-03-17T11:47:19Z</time>
      </trkpt>
      <trkpt lat="46.85203" lon="5.89323">
        <ele>708.1</ele>
        <time>2022-03-17T11:47:23Z</time>
      </trkpt>
      <trkpt lat="46.85199" lon="5.89319">
        <ele>707.6</ele>
        <time>2022-03-17T11:47:27Z</time>
      </trkpt>
      <trkpt lat="46.85194" lon="5.89319">
        <ele>707.6</ele>
        <time>2022-03-17T11:47:30Z</time>
      </trkpt>
      <trkpt lat="46.8519" lon="5.89317">
        <ele>708.6</ele>
        <time>2022-03-17T11:47:35Z</time>
      </trkpt>
      <trkpt lat="46.85186" lon="5.89312">
        <ele>707.6</ele>
        <time>2022-03-17T11:47:48Z</time>
      </trkpt>
      <trkpt lat="46.85183" lon="5.89308">
        <ele>706.4</ele>
        <time>2022-03-17T11:47:52Z</time>
      </trkpt>
      <trkpt lat="46.85178" lon="5.89309">
        <ele>705</ele>
        <time>2022-03-17T11:48:00Z</time>
      </trkpt>
      <trkpt lat="46.85173" lon="5.89307">
        <ele>703.3</ele>
        <time>2022-03-17T11:48:13Z</time>
      </trkpt>
      <trkpt lat="46.8517" lon="5.89302">
        <ele>703.7</ele>
        <time>2022-03-17T11:48:18Z</time>
      </trkpt>
      <trkpt lat="46.85167" lon="5.89296">
        <ele>704</ele>
        <time>2022-03-17T11:48:23Z</time>
      </trkpt>
      <trkpt lat="46.85163" lon="5.89292">
        <ele>704.8</ele>
        <time>2022-03-17T11:48:27Z</time>
      </trkpt>
      <trkpt lat="46.85158" lon="5.89289">
        <ele>705.3</ele>
        <time>2022-03-17T11:48:30Z</time>
      </trkpt>
      <trkpt lat="46.85153" lon="5.89287">
        <ele>705.7</ele>
        <time>2022-03-17T11:48:33Z</time>
      </trkpt>
      <trkpt lat="46.85148" lon="5.89287">
        <ele>706.1</ele>
        <time>2022-03-17T11:48:36Z</time>
      </trkpt>
      <trkpt lat="46.85142" lon="5.89286">
        <ele>706.3</ele>
        <time>2022-03-17T11:48:40Z</time>
      </trkpt>
      <trkpt lat="46.85138" lon="5.89282">
        <ele>706.4</ele>
        <time>2022-03-17T11:48:44Z</time>
      </trkpt>
      <trkpt lat="46.85136" lon="5.89277">
        <ele>706.1</ele>
        <time>2022-03-17T11:48:48Z</time>
      </trkpt>
      <trkpt lat="46.85134" lon="5.89271">
        <ele>705.2</ele>
        <time>2022-03-17T11:48:54Z</time>
      </trkpt>
      <trkpt lat="46.85128" lon="5.89268">
        <ele>704.4</ele>
        <time>2022-03-17T11:48:58Z</time>
      </trkpt>
      <trkpt lat="46.85123" lon="5.89266">
        <ele>703.7</ele>
        <time>2022-03-17T11:49:02Z</time>
      </trkpt>
      <trkpt lat="46.85121" lon="5.89259">
        <ele>702.6</ele>
        <time>2022-03-17T11:49:07Z</time>
      </trkpt>
      <trkpt lat="46.85117" lon="5.89253">
        <ele>701.4</ele>
        <time>2022-03-17T11:49:12Z</time>
      </trkpt>
      <trkpt lat="46.85114" lon="5.89249">
        <ele>700.2</ele>
        <time>2022-03-17T11:49:16Z</time>
      </trkpt>
      <trkpt lat="46.85109" lon="5.89244">
        <ele>699.2</ele>
        <time>2022-03-17T11:49:21Z</time>
      </trkpt>
      <trkpt lat="46.85105" lon="5.89241">
        <ele>698.9</ele>
        <time>2022-03-17T11:49:24Z</time>
      </trkpt>
      <trkpt lat="46.85101" lon="5.89237">
        <ele>698.8</ele>
        <time>2022-03-17T11:49:27Z</time>
      </trkpt>
      <trkpt lat="46.85096" lon="5.89233">
        <ele>698.9</ele>
        <time>2022-03-17T11:49:32Z</time>
      </trkpt>
      <trkpt lat="46.85092" lon="5.89228">
        <ele>699.3</ele>
        <time>2022-03-17T11:49:37Z</time>
      </trkpt>
      <trkpt lat="46.85088" lon="5.89224">
        <ele>700</ele>
        <time>2022-03-17T11:49:41Z</time>
      </trkpt>
      <trkpt lat="46.85083" lon="5.89221">
        <ele>701.2</ele>
        <time>2022-03-17T11:49:45Z</time>
      </trkpt>
      <trkpt lat="46.85081" lon="5.89215">
        <ele>702.7</ele>
        <time>2022-03-17T11:49:50Z</time>
      </trkpt>
      <trkpt lat="46.85079" lon="5.89209">
        <ele>705.1</ele>
        <time>2022-03-17T11:49:57Z</time>
      </trkpt>
      <trkpt lat="46.85076" lon="5.89202">
        <ele>707.7</ele>
        <time>2022-03-17T11:50:02Z</time>
      </trkpt>
      <trkpt lat="46.85072" lon="5.89198">
        <ele>710.1</ele>
        <time>2022-03-17T11:50:07Z</time>
      </trkpt>
      <trkpt lat="46.85068" lon="5.89192">
        <ele>711.5</ele>
        <time>2022-03-17T11:50:12Z</time>
      </trkpt>
      <trkpt lat="46.85064" lon="5.89188">
        <ele>711.9</ele>
        <time>2022-03-17T11:50:17Z</time>
      </trkpt>
      <trkpt lat="46.85059" lon="5.89184">
        <ele>711.2</ele>
        <time>2022-03-17T11:50:22Z</time>
      </trkpt>
      <trkpt lat="46.85056" lon="5.89179">
        <ele>709.4</ele>
        <time>2022-03-17T11:50:28Z</time>
      </trkpt>
      <trkpt lat="46.85052" lon="5.89175">
        <ele>707.6</ele>
        <time>2022-03-17T11:50:32Z</time>
      </trkpt>
      <trkpt lat="46.85046" lon="5.89174">
        <ele>706.3</ele>
        <time>2022-03-17T11:50:36Z</time>
      </trkpt>
      <trkpt lat="46.85042" lon="5.8917">
        <ele>705.1</ele>
        <time>2022-03-17T11:50:42Z</time>
      </trkpt>
      <trkpt lat="46.85039" lon="5.89165">
        <ele>704.3</ele>
        <time>2022-03-17T11:50:47Z</time>
      </trkpt>
      <trkpt lat="46.85037" lon="5.89158">
        <ele>704.6</ele>
        <time>2022-03-17T11:50:52Z</time>
      </trkpt>
      <trkpt lat="46.85035" lon="5.8915">
        <ele>704.2</ele>
        <time>2022-03-17T11:50:56Z</time>
      </trkpt>
      <trkpt lat="46.85032" lon="5.89145">
        <ele>703</ele>
        <time>2022-03-17T11:51:02Z</time>
      </trkpt>
      <trkpt lat="46.85027" lon="5.89143">
        <ele>701.3</ele>
        <time>2022-03-17T11:51:08Z</time>
      </trkpt>
      <trkpt lat="46.85023" lon="5.89138">
        <ele>699.9</ele>
        <time>2022-03-17T11:51:13Z</time>
      </trkpt>
      <trkpt lat="46.85018" lon="5.89133">
        <ele>698.3</ele>
        <time>2022-03-17T11:51:18Z</time>
      </trkpt>
      <trkpt lat="46.85015" lon="5.89128">
        <ele>697.1</ele>
        <time>2022-03-17T11:51:22Z</time>
      </trkpt>
      <trkpt lat="46.85012" lon="5.89123">
        <ele>695.6</ele>
        <time>2022-03-17T11:51:26Z</time>
      </trkpt>
      <trkpt lat="46.85009" lon="5.89117">
        <ele>694.5</ele>
        <time>2022-03-17T11:51:30Z</time>
      </trkpt>
      <trkpt lat="46.85006" lon="5.89111">
        <ele>692.5</ele>
        <time>2022-03-17T11:51:36Z</time>
      </trkpt>
      <trkpt lat="46.85003" lon="5.89104">
        <ele>691.2</ele>
        <time>2022-03-17T11:51:41Z</time>
      </trkpt>
      <trkpt lat="46.85002" lon="5.89097">
        <ele>691</ele>
        <time>2022-03-17T11:51:44Z</time>
      </trkpt>
      <trkpt lat="46.85" lon="5.8909">
        <ele>691</ele>
        <time>2022-03-17T11:51:47Z</time>
      </trkpt>
      <trkpt lat="46.84996" lon="5.89083">
        <ele>690.6</ele>
        <time>2022-03-17T11:51:51Z</time>
      </trkpt>
      <trkpt lat="46.84993" lon="5.89079">
        <ele>690.8</ele>
        <time>2022-03-17T11:51:54Z</time>
      </trkpt>
      <trkpt lat="46.84989" lon="5.89072">
        <ele>691.2</ele>
        <time>2022-03-17T11:51:58Z</time>
      </trkpt>
      <trkpt lat="46.84986" lon="5.89066">
        <ele>691.8</ele>
        <time>2022-03-17T11:52:02Z</time>
      </trkpt>
      <trkpt lat="46.84982" lon="5.89061">
        <ele>692.5</ele>
        <time>2022-03-17T11:52:06Z</time>
      </trkpt>
      <trkpt lat="46.84981" lon="5.89054">
        <ele>693.4</ele>
        <time>2022-03-17T11:52:10Z</time>
      </trkpt>
      <trkpt lat="46.84979" lon="5.89046">
        <ele>694.6</ele>
        <time>2022-03-17T11:52:15Z</time>
      </trkpt>
      <trkpt lat="46.84978" lon="5.89039">
        <ele>696.2</ele>
        <time>2022-03-17T11:52:22Z</time>
      </trkpt>
      <trkpt lat="46.84973" lon="5.89036">
        <ele>697.2</ele>
        <time>2022-03-17T11:52:26Z</time>
      </trkpt>
      <trkpt lat="46.8497" lon="5.89041">
        <ele>699.5</ele>
        <time>2022-03-17T11:52:42Z</time>
      </trkpt>
      <trkpt lat="46.84969" lon="5.89048">
        <ele>700.7</ele>
        <time>2022-03-17T11:52:46Z</time>
      </trkpt>
      <trkpt lat="46.84967" lon="5.89056">
        <ele>702.3</ele>
        <time>2022-03-17T11:52:51Z</time>
      </trkpt>
      <trkpt lat="46.84963" lon="5.89061">
        <ele>703.5</ele>
        <time>2022-03-17T11:52:54Z</time>
      </trkpt>
      <trkpt lat="46.84961" lon="5.89068">
        <ele>705.1</ele>
        <time>2022-03-17T11:53:00Z</time>
      </trkpt>
      <trkpt lat="46.84959" lon="5.89074">
        <ele>706.8</ele>
        <time>2022-03-17T11:53:08Z</time>
      </trkpt>
      <trkpt lat="46.84959" lon="5.89082">
        <ele>707.5</ele>
        <time>2022-03-17T11:53:14Z</time>
      </trkpt>
      <trkpt lat="46.84957" lon="5.8909">
        <ele>708.2</ele>
        <time>2022-03-17T11:53:19Z</time>
      </trkpt>
      <trkpt lat="46.84954" lon="5.89096">
        <ele>708.1</ele>
        <time>2022-03-17T11:53:23Z</time>
      </trkpt>
      <trkpt lat="46.8495" lon="5.89102">
        <ele>708</ele>
        <time>2022-03-17T11:53:27Z</time>
      </trkpt>
      <trkpt lat="46.84948" lon="5.89108">
        <ele>707.7</ele>
        <time>2022-03-17T11:53:35Z</time>
      </trkpt>
      <trkpt lat="46.84949" lon="5.89116">
        <ele>705.8</ele>
        <time>2022-03-17T11:53:44Z</time>
      </trkpt>
      <trkpt lat="46.84947" lon="5.89122">
        <ele>704.4</ele>
        <time>2022-03-17T11:53:48Z</time>
      </trkpt>
      <trkpt lat="46.84944" lon="5.89129">
        <ele>703.8</ele>
        <time>2022-03-17T11:53:52Z</time>
      </trkpt>
      <trkpt lat="46.8494" lon="5.89135">
        <ele>703.7</ele>
        <time>2022-03-17T11:53:57Z</time>
      </trkpt>
      <trkpt lat="46.84938" lon="5.89141">
        <ele>703.6</ele>
        <time>2022-03-17T11:54:01Z</time>
      </trkpt>
      <trkpt lat="46.84936" lon="5.89148">
        <ele>703.1</ele>
        <time>2022-03-17T11:54:05Z</time>
      </trkpt>
      <trkpt lat="46.84935" lon="5.89155">
        <ele>702.2</ele>
        <time>2022-03-17T11:54:10Z</time>
      </trkpt>
      <trkpt lat="46.84933" lon="5.89161">
        <ele>701.6</ele>
        <time>2022-03-17T11:54:15Z</time>
      </trkpt>
      <trkpt lat="46.8493" lon="5.89167">
        <ele>701.3</ele>
        <time>2022-03-17T11:54:19Z</time>
      </trkpt>
      <trkpt lat="46.84927" lon="5.89174">
        <ele>701</ele>
        <time>2022-03-17T11:54:23Z</time>
      </trkpt>
      <trkpt lat="46.84926" lon="5.89181">
        <ele>700</ele>
        <time>2022-03-17T11:54:29Z</time>
      </trkpt>
      <trkpt lat="46.84924" lon="5.89187">
        <ele>699.1</ele>
        <time>2022-03-17T11:54:33Z</time>
      </trkpt>
      <trkpt lat="46.84925" lon="5.89194">
        <ele>697.6</ele>
        <time>2022-03-17T11:54:39Z</time>
      </trkpt>
      <trkpt lat="46.84925" lon="5.89202">
        <ele>696.7</ele>
        <time>2022-03-17T11:54:43Z</time>
      </trkpt>
      <trkpt lat="46.84923" lon="5.89208">
        <ele>696.3</ele>
        <time>2022-03-17T11:54:47Z</time>
      </trkpt>
      <trkpt lat="46.8492" lon="5.89215">
        <ele>696</ele>
        <time>2022-03-17T11:54:51Z</time>
      </trkpt>
      <trkpt lat="46.84919" lon="5.89222">
        <ele>695.6</ele>
        <time>2022-03-17T11:54:55Z</time>
      </trkpt>
      <trkpt lat="46.84917" lon="5.89228">
        <ele>695.2</ele>
        <time>2022-03-17T11:54:59Z</time>
      </trkpt>
      <trkpt lat="46.84915" lon="5.89235">
        <ele>694.7</ele>
        <time>2022-03-17T11:55:04Z</time>
      </trkpt>
      <trkpt lat="46.84914" lon="5.89243">
        <ele>695.1</ele>
        <time>2022-03-17T11:55:11Z</time>
      </trkpt>
      <trkpt lat="46.84912" lon="5.8925">
        <ele>695.4</ele>
        <time>2022-03-17T11:55:22Z</time>
      </trkpt>
      <trkpt lat="46.84908" lon="5.89258">
        <ele>695.1</ele>
        <time>2022-03-17T11:55:25Z</time>
      </trkpt>
      <trkpt lat="46.84906" lon="5.89264">
        <ele>694.8</ele>
        <time>2022-03-17T11:55:28Z</time>
      </trkpt>
      <trkpt lat="46.84903" lon="5.89271">
        <ele>694.5</ele>
        <time>2022-03-17T11:55:32Z</time>
      </trkpt>
      <trkpt lat="46.849" lon="5.89277">
        <ele>694</ele>
        <time>2022-03-17T11:55:36Z</time>
      </trkpt>
      <trkpt lat="46.84898" lon="5.89283">
        <ele>693.5</ele>
        <time>2022-03-17T11:55:40Z</time>
      </trkpt>
      <trkpt lat="46.84898" lon="5.8929">
        <ele>692.5</ele>
        <time>2022-03-17T11:55:46Z</time>
      </trkpt>
      <trkpt lat="46.84895" lon="5.89295">
        <ele>691.5</ele>
        <time>2022-03-17T11:55:52Z</time>
      </trkpt>
      <trkpt lat="46.84893" lon="5.89302">
        <ele>691.6</ele>
        <time>2022-03-17T11:55:56Z</time>
      </trkpt>
      <trkpt lat="46.84891" lon="5.89308">
        <ele>691.9</ele>
        <time>2022-03-17T11:55:59Z</time>
      </trkpt>
      <trkpt lat="46.84888" lon="5.89316">
        <ele>692.5</ele>
        <time>2022-03-17T11:56:03Z</time>
      </trkpt>
      <trkpt lat="46.84886" lon="5.89322">
        <ele>692.8</ele>
        <time>2022-03-17T11:56:08Z</time>
      </trkpt>
      <trkpt lat="46.84884" lon="5.89329">
        <ele>693.2</ele>
        <time>2022-03-17T11:56:14Z</time>
      </trkpt>
      <trkpt lat="46.84882" lon="5.89335">
        <ele>693.7</ele>
        <time>2022-03-17T11:56:18Z</time>
      </trkpt>
      <trkpt lat="46.8488" lon="5.89343">
        <ele>694.2</ele>
        <time>2022-03-17T11:56:22Z</time>
      </trkpt>
      <trkpt lat="46.84881" lon="5.8935">
        <ele>693.8</ele>
        <time>2022-03-17T11:56:28Z</time>
      </trkpt>
      <trkpt lat="46.8488" lon="5.89358">
        <ele>691.6</ele>
        <time>2022-03-17T11:56:35Z</time>
      </trkpt>
      <trkpt lat="46.84876" lon="5.89363">
        <ele>690.1</ele>
        <time>2022-03-17T11:56:41Z</time>
      </trkpt>
      <trkpt lat="46.84874" lon="5.8937">
        <ele>688.1</ele>
        <time>2022-03-17T11:56:49Z</time>
      </trkpt>
      <trkpt lat="46.84873" lon="5.89376">
        <ele>686.6</ele>
        <time>2022-03-17T11:56:54Z</time>
      </trkpt>
      <trkpt lat="46.8487" lon="5.89382">
        <ele>685.3</ele>
        <time>2022-03-17T11:56:59Z</time>
      </trkpt>
      <trkpt lat="46.8487" lon="5.89389">
        <ele>684</ele>
        <time>2022-03-17T11:57:07Z</time>
      </trkpt>
      <trkpt lat="46.84869" lon="5.89396">
        <ele>683.3</ele>
        <time>2022-03-17T11:57:12Z</time>
      </trkpt>
      <trkpt lat="46.84868" lon="5.89403">
        <ele>682.4</ele>
        <time>2022-03-17T11:57:16Z</time>
      </trkpt>
      <trkpt lat="46.84866" lon="5.8941">
        <ele>680.9</ele>
        <time>2022-03-17T11:57:23Z</time>
      </trkpt>
      <trkpt lat="46.84864" lon="5.89419">
        <ele>680</ele>
        <time>2022-03-17T11:57:37Z</time>
      </trkpt>
      <trkpt lat="46.84864" lon="5.89426">
        <ele>680.2</ele>
        <time>2022-03-17T11:57:41Z</time>
      </trkpt>
      <trkpt lat="46.84862" lon="5.89434">
        <ele>680.2</ele>
        <time>2022-03-17T11:57:47Z</time>
      </trkpt>
      <trkpt lat="46.84859" lon="5.89441">
        <ele>680.1</ele>
        <time>2022-03-17T11:57:51Z</time>
      </trkpt>
      <trkpt lat="46.84858" lon="5.89448">
        <ele>679.7</ele>
        <time>2022-03-17T11:57:56Z</time>
      </trkpt>
      <trkpt lat="46.84855" lon="5.89454">
        <ele>679.1</ele>
        <time>2022-03-17T11:58:01Z</time>
      </trkpt>
      <trkpt lat="46.84852" lon="5.8946">
        <ele>678.9</ele>
        <time>2022-03-17T11:58:06Z</time>
      </trkpt>
      <trkpt lat="46.84849" lon="5.89466">
        <ele>678.6</ele>
        <time>2022-03-17T11:58:11Z</time>
      </trkpt>
      <trkpt lat="46.84845" lon="5.89472">
        <ele>678.6</ele>
        <time>2022-03-17T11:58:14Z</time>
      </trkpt>
      <trkpt lat="46.84842" lon="5.89477">
        <ele>679</ele>
        <time>2022-03-17T11:58:17Z</time>
      </trkpt>
      <trkpt lat="46.84839" lon="5.89484">
        <ele>679.7</ele>
        <time>2022-03-17T11:58:21Z</time>
      </trkpt>
      <trkpt lat="46.84837" lon="5.8949">
        <ele>680.1</ele>
        <time>2022-03-17T11:58:25Z</time>
      </trkpt>
      <trkpt lat="46.84836" lon="5.89496">
        <ele>680.5</ele>
        <time>2022-03-17T11:58:29Z</time>
      </trkpt>
      <trkpt lat="46.84837" lon="5.89504">
        <ele>680.4</ele>
        <time>2022-03-17T11:58:34Z</time>
      </trkpt>
      <trkpt lat="46.84837" lon="5.89512">
        <ele>679.7</ele>
        <time>2022-03-17T11:58:40Z</time>
      </trkpt>
      <trkpt lat="46.84837" lon="5.89519">
        <ele>678.5</ele>
        <time>2022-03-17T11:58:46Z</time>
      </trkpt>
      <trkpt lat="46.84837" lon="5.89526">
        <ele>678</ele>
        <time>2022-03-17T11:58:51Z</time>
      </trkpt>
      <trkpt lat="46.84835" lon="5.89533">
        <ele>677.6</ele>
        <time>2022-03-17T11:58:56Z</time>
      </trkpt>
      <trkpt lat="46.84833" lon="5.8954">
        <ele>677.1</ele>
        <time>2022-03-17T11:59:03Z</time>
      </trkpt>
      <trkpt lat="46.8483" lon="5.89547">
        <ele>676.6</ele>
        <time>2022-03-17T11:59:08Z</time>
      </trkpt>
      <trkpt lat="46.84826" lon="5.89552">
        <ele>676.3</ele>
        <time>2022-03-17T11:59:12Z</time>
      </trkpt>
      <trkpt lat="46.84823" lon="5.89558">
        <ele>676.3</ele>
        <time>2022-03-17T11:59:21Z</time>
      </trkpt>
      <trkpt lat="46.84821" lon="5.89565">
        <ele>676.5</ele>
        <time>2022-03-17T11:59:24Z</time>
      </trkpt>
      <trkpt lat="46.84817" lon="5.89571">
        <ele>676.4</ele>
        <time>2022-03-17T11:59:30Z</time>
      </trkpt>
      <trkpt lat="46.84815" lon="5.89579">
        <ele>676</ele>
        <time>2022-03-17T11:59:34Z</time>
      </trkpt>
      <trkpt lat="46.84813" lon="5.89585">
        <ele>675.7</ele>
        <time>2022-03-17T11:59:37Z</time>
      </trkpt>
      <trkpt lat="46.84811" lon="5.89593">
        <ele>675.1</ele>
        <time>2022-03-17T11:59:41Z</time>
      </trkpt>
      <trkpt lat="46.84812" lon="5.896">
        <ele>674.6</ele>
        <time>2022-03-17T11:59:46Z</time>
      </trkpt>
      <trkpt lat="46.84809" lon="5.89606">
        <ele>674.5</ele>
        <time>2022-03-17T11:59:55Z</time>
      </trkpt>
      <trkpt lat="46.84807" lon="5.89612">
        <ele>673.8</ele>
        <time>2022-03-17T12:00:00Z</time>
      </trkpt>
      <trkpt lat="46.84805" lon="5.89619">
        <ele>673.3</ele>
        <time>2022-03-17T12:00:05Z</time>
      </trkpt>
      <trkpt lat="46.84802" lon="5.89624">
        <ele>672.6</ele>
        <time>2022-03-17T12:00:10Z</time>
      </trkpt>
      <trkpt lat="46.84797" lon="5.89629">
        <ele>671.8</ele>
        <time>2022-03-17T12:00:15Z</time>
      </trkpt>
      <trkpt lat="46.84797" lon="5.89636">
        <ele>670.4</ele>
        <time>2022-03-17T12:00:21Z</time>
      </trkpt>
      <trkpt lat="46.84798" lon="5.89643">
        <ele>669.8</ele>
        <time>2022-03-17T12:00:25Z</time>
      </trkpt>
      <trkpt lat="46.84794" lon="5.89648">
        <ele>669.4</ele>
        <time>2022-03-17T12:00:30Z</time>
      </trkpt>
      <trkpt lat="46.84798" lon="5.89653">
        <ele>668.4</ele>
        <time>2022-03-17T12:00:39Z</time>
      </trkpt>
      <trkpt lat="46.84801" lon="5.89659">
        <ele>667.3</ele>
        <time>2022-03-17T12:00:44Z</time>
      </trkpt>
      <trkpt lat="46.84799" lon="5.89665">
        <ele>663.6</ele>
        <time>2022-03-17T12:01:02Z</time>
      </trkpt>
      <trkpt lat="46.84802" lon="5.89671">
        <ele>661.7</ele>
        <time>2022-03-17T12:01:11Z</time>
      </trkpt>
      <trkpt lat="46.848" lon="5.89678">
        <ele>660.2</ele>
        <time>2022-03-17T12:01:18Z</time>
      </trkpt>
      <trkpt lat="46.84798" lon="5.89684">
        <ele>659</ele>
        <time>2022-03-17T12:01:23Z</time>
      </trkpt>
      <trkpt lat="46.84795" lon="5.89689">
        <ele>658</ele>
        <time>2022-03-17T12:01:26Z</time>
      </trkpt>
      <trkpt lat="46.84791" lon="5.89692">
        <ele>656.3</ele>
        <time>2022-03-17T12:01:32Z</time>
      </trkpt>
      <trkpt lat="46.84788" lon="5.89698">
        <ele>655.1</ele>
        <time>2022-03-17T12:01:38Z</time>
      </trkpt>
      <trkpt lat="46.84785" lon="5.89704">
        <ele>654.3</ele>
        <time>2022-03-17T12:01:42Z</time>
      </trkpt>
      <trkpt lat="46.84782" lon="5.89712">
        <ele>653.8</ele>
        <time>2022-03-17T12:01:46Z</time>
      </trkpt>
      <trkpt lat="46.84779" lon="5.89718">
        <ele>654.1</ele>
        <time>2022-03-17T12:01:49Z</time>
      </trkpt>
      <trkpt lat="46.84777" lon="5.89725">
        <ele>654.9</ele>
        <time>2022-03-17T12:01:52Z</time>
      </trkpt>
      <trkpt lat="46.84774" lon="5.89732">
        <ele>655.8</ele>
        <time>2022-03-17T12:01:56Z</time>
      </trkpt>
      <trkpt lat="46.84773" lon="5.89738">
        <ele>657.2</ele>
        <time>2022-03-17T12:02:00Z</time>
      </trkpt>
      <trkpt lat="46.8477" lon="5.89744">
        <ele>658</ele>
        <time>2022-03-17T12:02:03Z</time>
      </trkpt>
      <trkpt lat="46.84767" lon="5.89752">
        <ele>658.7</ele>
        <time>2022-03-17T12:02:06Z</time>
      </trkpt>
      <trkpt lat="46.84763" lon="5.89756">
        <ele>659.8</ele>
        <time>2022-03-17T12:02:10Z</time>
      </trkpt>
      <trkpt lat="46.8476" lon="5.89761">
        <ele>662.7</ele>
        <time>2022-03-17T12:02:21Z</time>
      </trkpt>
      <trkpt lat="46.84759" lon="5.89768">
        <ele>663.2</ele>
        <time>2022-03-17T12:02:26Z</time>
      </trkpt>
      <trkpt lat="46.84758" lon="5.89775">
        <ele>663.3</ele>
        <time>2022-03-17T12:02:29Z</time>
      </trkpt>
      <trkpt lat="46.84756" lon="5.89784">
        <ele>663.5</ele>
        <time>2022-03-17T12:02:32Z</time>
      </trkpt>
      <trkpt lat="46.84754" lon="5.89793">
        <ele>663.4</ele>
        <time>2022-03-17T12:02:35Z</time>
      </trkpt>
      <trkpt lat="46.84753" lon="5.89802">
        <ele>662.8</ele>
        <time>2022-03-17T12:02:39Z</time>
      </trkpt>
      <trkpt lat="46.84752" lon="5.89808">
        <ele>662.2</ele>
        <time>2022-03-17T12:02:44Z</time>
      </trkpt>
      <trkpt lat="46.8475" lon="5.89816">
        <ele>660.5</ele>
        <time>2022-03-17T12:02:54Z</time>
      </trkpt>
      <trkpt lat="46.84748" lon="5.89822">
        <ele>659.9</ele>
        <time>2022-03-17T12:02:58Z</time>
      </trkpt>
      <trkpt lat="46.84744" lon="5.89827">
        <ele>659.6</ele>
        <time>2022-03-17T12:03:02Z</time>
      </trkpt>
      <trkpt lat="46.84742" lon="5.89833">
        <ele>659.7</ele>
        <time>2022-03-17T12:03:06Z</time>
      </trkpt>
      <trkpt lat="46.8474" lon="5.8984">
        <ele>659.5</ele>
        <time>2022-03-17T12:03:13Z</time>
      </trkpt>
      <trkpt lat="46.8474" lon="5.89847">
        <ele>658.9</ele>
        <time>2022-03-17T12:03:17Z</time>
      </trkpt>
      <trkpt lat="46.84738" lon="5.89854">
        <ele>658.3</ele>
        <time>2022-03-17T12:03:20Z</time>
      </trkpt>
      <trkpt lat="46.84735" lon="5.89861">
        <ele>657.5</ele>
        <time>2022-03-17T12:03:23Z</time>
      </trkpt>
      <trkpt lat="46.84735" lon="5.89869">
        <ele>656.5</ele>
        <time>2022-03-17T12:03:27Z</time>
      </trkpt>
      <trkpt lat="46.84736" lon="5.89876">
        <ele>655.7</ele>
        <time>2022-03-17T12:03:31Z</time>
      </trkpt>
      <trkpt lat="46.84736" lon="5.89884">
        <ele>654.2</ele>
        <time>2022-03-17T12:03:41Z</time>
      </trkpt>
      <trkpt lat="46.84732" lon="5.89888">
        <ele>653.1</ele>
        <time>2022-03-17T12:03:46Z</time>
      </trkpt>
      <trkpt lat="46.84728" lon="5.89893">
        <ele>652.7</ele>
        <time>2022-03-17T12:03:50Z</time>
      </trkpt>
      <trkpt lat="46.84726" lon="5.899">
        <ele>652.6</ele>
        <time>2022-03-17T12:03:54Z</time>
      </trkpt>
      <trkpt lat="46.84723" lon="5.89907">
        <ele>652.7</ele>
        <time>2022-03-17T12:03:58Z</time>
      </trkpt>
      <trkpt lat="46.84722" lon="5.89914">
        <ele>653.3</ele>
        <time>2022-03-17T12:04:03Z</time>
      </trkpt>
      <trkpt lat="46.8472" lon="5.89921">
        <ele>654.3</ele>
        <time>2022-03-17T12:04:08Z</time>
      </trkpt>
      <trkpt lat="46.84718" lon="5.89928">
        <ele>655.4</ele>
        <time>2022-03-17T12:04:13Z</time>
      </trkpt>
      <trkpt lat="46.84716" lon="5.89935">
        <ele>656.4</ele>
        <time>2022-03-17T12:04:19Z</time>
      </trkpt>
      <trkpt lat="46.84717" lon="5.89942">
        <ele>656.6</ele>
        <time>2022-03-17T12:04:23Z</time>
      </trkpt>
      <trkpt lat="46.84717" lon="5.89949">
        <ele>656.8</ele>
        <time>2022-03-17T12:04:27Z</time>
      </trkpt>
      <trkpt lat="46.8472" lon="5.89953">
        <ele>656.3</ele>
        <time>2022-03-17T12:04:35Z</time>
      </trkpt>
      <trkpt lat="46.84725" lon="5.89955">
        <ele>656.2</ele>
        <time>2022-03-17T12:04:38Z</time>
      </trkpt>
      <trkpt lat="46.8473" lon="5.89955">
        <ele>656.2</ele>
        <time>2022-03-17T12:04:42Z</time>
      </trkpt>
      <trkpt lat="46.84731" lon="5.89961">
        <ele>657.2</ele>
        <time>2022-03-17T12:04:57Z</time>
      </trkpt>
      <trkpt lat="46.84727" lon="5.89958">
        <ele>657.5</ele>
        <time>2022-03-17T12:05:01Z</time>
      </trkpt>
      <trkpt lat="46.84721" lon="5.89952">
        <ele>657.7</ele>
        <time>2022-03-17T12:05:04Z</time>
      </trkpt>
      <trkpt lat="46.84717" lon="5.89947">
        <ele>657.8</ele>
        <time>2022-03-17T12:05:07Z</time>
      </trkpt>
      <trkpt lat="46.84713" lon="5.89946">
        <ele>658</ele>
        <time>2022-03-17T12:05:16Z</time>
      </trkpt>
      <trkpt lat="46.84709" lon="5.89954">
        <ele>656.7</ele>
        <time>2022-03-17T12:05:28Z</time>
      </trkpt>
      <trkpt lat="46.84708" lon="5.89962">
        <ele>656.1</ele>
        <time>2022-03-17T12:05:31Z</time>
      </trkpt>
      <trkpt lat="46.84707" lon="5.89968">
        <ele>655.3</ele>
        <time>2022-03-17T12:05:35Z</time>
      </trkpt>
      <trkpt lat="46.84707" lon="5.89975">
        <ele>654.7</ele>
        <time>2022-03-17T12:05:41Z</time>
      </trkpt>
      <trkpt lat="46.84705" lon="5.89982">
        <ele>653.2</ele>
        <time>2022-03-17T12:05:50Z</time>
      </trkpt>
      <trkpt lat="46.84703" lon="5.89989">
        <ele>651.9</ele>
        <time>2022-03-17T12:05:55Z</time>
      </trkpt>
      <trkpt lat="46.84701" lon="5.89995">
        <ele>650.5</ele>
        <time>2022-03-17T12:05:59Z</time>
      </trkpt>
      <trkpt lat="46.84699" lon="5.90002">
        <ele>649</ele>
        <time>2022-03-17T12:06:03Z</time>
      </trkpt>
      <trkpt lat="46.84696" lon="5.90007">
        <ele>647.6</ele>
        <time>2022-03-17T12:06:07Z</time>
      </trkpt>
      <trkpt lat="46.84692" lon="5.90012">
        <ele>647</ele>
        <time>2022-03-17T12:06:10Z</time>
      </trkpt>
      <trkpt lat="46.84689" lon="5.90017">
        <ele>646.4</ele>
        <time>2022-03-17T12:06:14Z</time>
      </trkpt>
      <trkpt lat="46.84684" lon="5.90019">
        <ele>646.6</ele>
        <time>2022-03-17T12:06:20Z</time>
      </trkpt>
      <trkpt lat="46.84681" lon="5.90025">
        <ele>647.3</ele>
        <time>2022-03-17T12:06:24Z</time>
      </trkpt>
      <trkpt lat="46.84681" lon="5.90032">
        <ele>648.4</ele>
        <time>2022-03-17T12:06:28Z</time>
      </trkpt>
      <trkpt lat="46.84684" lon="5.90039">
        <ele>649.5</ele>
        <time>2022-03-17T12:06:33Z</time>
      </trkpt>
      <trkpt lat="46.84689" lon="5.90043">
        <ele>649.8</ele>
        <time>2022-03-17T12:06:37Z</time>
      </trkpt>
      <trkpt lat="46.84693" lon="5.90044">
        <ele>648.9</ele>
        <time>2022-03-17T12:06:45Z</time>
      </trkpt>
      <trkpt lat="46.84688" lon="5.90046">
        <ele>647.1</ele>
        <time>2022-03-17T12:06:52Z</time>
      </trkpt>
      <trkpt lat="46.84687" lon="5.90054">
        <ele>643.1</ele>
        <time>2022-03-17T12:07:11Z</time>
      </trkpt>
      <trkpt lat="46.84685" lon="5.90061">
        <ele>641.6</ele>
        <time>2022-03-17T12:07:15Z</time>
      </trkpt>
      <trkpt lat="46.84682" lon="5.90067">
        <ele>640.8</ele>
        <time>2022-03-17T12:07:19Z</time>
      </trkpt>
      <trkpt lat="46.84681" lon="5.90074">
        <ele>641</ele>
        <time>2022-03-17T12:07:25Z</time>
      </trkpt>
      <trkpt lat="46.8468" lon="5.90081">
        <ele>641.3</ele>
        <time>2022-03-17T12:07:30Z</time>
      </trkpt>
      <trkpt lat="46.84678" lon="5.90088">
        <ele>641.2</ele>
        <time>2022-03-17T12:07:34Z</time>
      </trkpt>
      <trkpt lat="46.84676" lon="5.90096">
        <ele>641.2</ele>
        <time>2022-03-17T12:07:38Z</time>
      </trkpt>
      <trkpt lat="46.84674" lon="5.90102">
        <ele>641.1</ele>
        <time>2022-03-17T12:07:41Z</time>
      </trkpt>
      <trkpt lat="46.84671" lon="5.90108">
        <ele>640.6</ele>
        <time>2022-03-17T12:07:44Z</time>
      </trkpt>
      <trkpt lat="46.84669" lon="5.90114">
        <ele>640.5</ele>
        <time>2022-03-17T12:07:51Z</time>
      </trkpt>
      <trkpt lat="46.84666" lon="5.90121">
        <ele>640.9</ele>
        <time>2022-03-17T12:07:56Z</time>
      </trkpt>
      <trkpt lat="46.84664" lon="5.90127">
        <ele>641.4</ele>
        <time>2022-03-17T12:08:00Z</time>
      </trkpt>
      <trkpt lat="46.84663" lon="5.90135">
        <ele>641.7</ele>
        <time>2022-03-17T12:08:05Z</time>
      </trkpt>
      <trkpt lat="46.84662" lon="5.90142">
        <ele>642</ele>
        <time>2022-03-17T12:08:09Z</time>
      </trkpt>
      <trkpt lat="46.84661" lon="5.90149">
        <ele>642.6</ele>
        <time>2022-03-17T12:08:16Z</time>
      </trkpt>
      <trkpt lat="46.84659" lon="5.90156">
        <ele>643.4</ele>
        <time>2022-03-17T12:08:22Z</time>
      </trkpt>
      <trkpt lat="46.84658" lon="5.90165">
        <ele>643.5</ele>
        <time>2022-03-17T12:08:26Z</time>
      </trkpt>
      <trkpt lat="46.84657" lon="5.90171">
        <ele>643.3</ele>
        <time>2022-03-17T12:08:29Z</time>
      </trkpt>
      <trkpt lat="46.84654" lon="5.90179">
        <ele>642.8</ele>
        <time>2022-03-17T12:08:33Z</time>
      </trkpt>
      <trkpt lat="46.8465" lon="5.90185">
        <ele>642.6</ele>
        <time>2022-03-17T12:08:36Z</time>
      </trkpt>
      <trkpt lat="46.84646" lon="5.90191">
        <ele>642.3</ele>
        <time>2022-03-17T12:08:40Z</time>
      </trkpt>
      <trkpt lat="46.84645" lon="5.90199">
        <ele>641.8</ele>
        <time>2022-03-17T12:08:46Z</time>
      </trkpt>
      <trkpt lat="46.84643" lon="5.90206">
        <ele>641.3</ele>
        <time>2022-03-17T12:08:51Z</time>
      </trkpt>
      <trkpt lat="46.84642" lon="5.90213">
        <ele>640.9</ele>
        <time>2022-03-17T12:08:56Z</time>
      </trkpt>
      <trkpt lat="46.84641" lon="5.9022">
        <ele>640.8</ele>
        <time>2022-03-17T12:09:00Z</time>
      </trkpt>
      <trkpt lat="46.84641" lon="5.90228">
        <ele>640.5</ele>
        <time>2022-03-17T12:09:05Z</time>
      </trkpt>
      <trkpt lat="46.84642" lon="5.90235">
        <ele>640.4</ele>
        <time>2022-03-17T12:09:09Z</time>
      </trkpt>
      <trkpt lat="46.8464" lon="5.90243">
        <ele>640.6</ele>
        <time>2022-03-17T12:09:13Z</time>
      </trkpt>
      <trkpt lat="46.84637" lon="5.90249">
        <ele>641.1</ele>
        <time>2022-03-17T12:09:17Z</time>
      </trkpt>
      <trkpt lat="46.84631" lon="5.90254">
        <ele>642</ele>
        <time>2022-03-17T12:09:22Z</time>
      </trkpt>
      <trkpt lat="46.84628" lon="5.90258">
        <ele>642.6</ele>
        <time>2022-03-17T12:09:25Z</time>
      </trkpt>
      <trkpt lat="46.84624" lon="5.90264">
        <ele>643.2</ele>
        <time>2022-03-17T12:09:29Z</time>
      </trkpt>
      <trkpt lat="46.8462" lon="5.90269">
        <ele>643.5</ele>
        <time>2022-03-17T12:09:33Z</time>
      </trkpt>
      <trkpt lat="46.84618" lon="5.90275">
        <ele>643.5</ele>
        <time>2022-03-17T12:09:38Z</time>
      </trkpt>
      <trkpt lat="46.84617" lon="5.90282">
        <ele>644.2</ele>
        <time>2022-03-17T12:09:44Z</time>
      </trkpt>
      <trkpt lat="46.84615" lon="5.90289">
        <ele>644.8</ele>
        <time>2022-03-17T12:09:47Z</time>
      </trkpt>
      <trkpt lat="46.84613" lon="5.90296">
        <ele>645.5</ele>
        <time>2022-03-17T12:09:50Z</time>
      </trkpt>
      <trkpt lat="46.84611" lon="5.90302">
        <ele>646.1</ele>
        <time>2022-03-17T12:09:53Z</time>
      </trkpt>
      <trkpt lat="46.84615" lon="5.90307">
        <ele>646.6</ele>
        <time>2022-03-17T12:10:05Z</time>
      </trkpt>
      <trkpt lat="46.8462" lon="5.90311">
        <ele>645.9</ele>
        <time>2022-03-17T12:10:09Z</time>
      </trkpt>
      <trkpt lat="46.84625" lon="5.90312">
        <ele>644.7</ele>
        <time>2022-03-17T12:10:13Z</time>
      </trkpt>
      <trkpt lat="46.84621" lon="5.90309">
        <ele>640.8</ele>
        <time>2022-03-17T12:10:39Z</time>
      </trkpt>
      <trkpt lat="46.84617" lon="5.90304">
        <ele>637.6</ele>
        <time>2022-03-17T12:10:57Z</time>
      </trkpt>
      <trkpt lat="46.84612" lon="5.90307">
        <ele>636.2</ele>
        <time>2022-03-17T12:11:01Z</time>
      </trkpt>
      <trkpt lat="46.84608" lon="5.90311">
        <ele>634</ele>
        <time>2022-03-17T12:11:06Z</time>
      </trkpt>
      <trkpt lat="46.84603" lon="5.90311">
        <ele>632.6</ele>
        <time>2022-03-17T12:11:11Z</time>
      </trkpt>
      <trkpt lat="46.84599" lon="5.90317">
        <ele>632.6</ele>
        <time>2022-03-17T12:11:16Z</time>
      </trkpt>
      <trkpt lat="46.84602" lon="5.90323">
        <ele>632.6</ele>
        <time>2022-03-17T12:11:20Z</time>
      </trkpt>
      <trkpt lat="46.84605" lon="5.90328">
        <ele>633</ele>
        <time>2022-03-17T12:11:25Z</time>
      </trkpt>
      <trkpt lat="46.84604" lon="5.90335">
        <ele>633</ele>
        <time>2022-03-17T12:11:31Z</time>
      </trkpt>
      <trkpt lat="46.84605" lon="5.90344">
        <ele>632.9</ele>
        <time>2022-03-17T12:11:36Z</time>
      </trkpt>
      <trkpt lat="46.84605" lon="5.9035">
        <ele>633.1</ele>
        <time>2022-03-17T12:11:39Z</time>
      </trkpt>
      <trkpt lat="46.84603" lon="5.90357">
        <ele>633.7</ele>
        <time>2022-03-17T12:11:42Z</time>
      </trkpt>
      <trkpt lat="46.84602" lon="5.90365">
        <ele>634.6</ele>
        <time>2022-03-17T12:11:46Z</time>
      </trkpt>
      <trkpt lat="46.84601" lon="5.90373">
        <ele>635.8</ele>
        <time>2022-03-17T12:11:50Z</time>
      </trkpt>
      <trkpt lat="46.84599" lon="5.9038">
        <ele>636.6</ele>
        <time>2022-03-17T12:11:53Z</time>
      </trkpt>
      <trkpt lat="46.84596" lon="5.90387">
        <ele>637.7</ele>
        <time>2022-03-17T12:11:57Z</time>
      </trkpt>
      <trkpt lat="46.84594" lon="5.90393">
        <ele>638.3</ele>
        <time>2022-03-17T12:12:01Z</time>
      </trkpt>
      <trkpt lat="46.84591" lon="5.904">
        <ele>638.5</ele>
        <time>2022-03-17T12:12:04Z</time>
      </trkpt>
      <trkpt lat="46.84589" lon="5.90407">
        <ele>638.9</ele>
        <time>2022-03-17T12:12:07Z</time>
      </trkpt>
      <trkpt lat="46.84589" lon="5.90415">
        <ele>639.7</ele>
        <time>2022-03-17T12:12:11Z</time>
      </trkpt>
      <trkpt lat="46.84587" lon="5.90421">
        <ele>640.6</ele>
        <time>2022-03-17T12:12:15Z</time>
      </trkpt>
      <trkpt lat="46.84584" lon="5.90427">
        <ele>641.4</ele>
        <time>2022-03-17T12:12:19Z</time>
      </trkpt>
      <trkpt lat="46.84583" lon="5.90433">
        <ele>642.1</ele>
        <time>2022-03-17T12:12:23Z</time>
      </trkpt>
      <trkpt lat="46.84581" lon="5.90439">
        <ele>642.6</ele>
        <time>2022-03-17T12:12:27Z</time>
      </trkpt>
      <trkpt lat="46.8458" lon="5.90446">
        <ele>642.9</ele>
        <time>2022-03-17T12:12:30Z</time>
      </trkpt>
      <trkpt lat="46.84576" lon="5.90452">
        <ele>643.3</ele>
        <time>2022-03-17T12:12:33Z</time>
      </trkpt>
      <trkpt lat="46.84573" lon="5.90459">
        <ele>643.9</ele>
        <time>2022-03-17T12:12:37Z</time>
      </trkpt>
      <trkpt lat="46.84571" lon="5.90464">
        <ele>644.9</ele>
        <time>2022-03-17T12:12:41Z</time>
      </trkpt>
      <trkpt lat="46.84568" lon="5.90471">
        <ele>645.7</ele>
        <time>2022-03-17T12:12:45Z</time>
      </trkpt>
      <trkpt lat="46.84565" lon="5.90476">
        <ele>646.3</ele>
        <time>2022-03-17T12:12:50Z</time>
      </trkpt>
      <trkpt lat="46.84563" lon="5.90483">
        <ele>646.4</ele>
        <time>2022-03-17T12:12:56Z</time>
      </trkpt>
      <trkpt lat="46.84559" lon="5.90489">
        <ele>646.8</ele>
        <time>2022-03-17T12:13:00Z</time>
      </trkpt>
      <trkpt lat="46.84556" lon="5.90496">
        <ele>647.2</ele>
        <time>2022-03-17T12:13:03Z</time>
      </trkpt>
      <trkpt lat="46.84554" lon="5.90503">
        <ele>647.9</ele>
        <time>2022-03-17T12:13:06Z</time>
      </trkpt>
      <trkpt lat="46.84552" lon="5.9051">
        <ele>648.7</ele>
        <time>2022-03-17T12:13:10Z</time>
      </trkpt>
      <trkpt lat="46.84551" lon="5.90516">
        <ele>649.3</ele>
        <time>2022-03-17T12:13:14Z</time>
      </trkpt>
      <trkpt lat="46.84548" lon="5.90522">
        <ele>649.2</ele>
        <time>2022-03-17T12:13:19Z</time>
      </trkpt>
      <trkpt lat="46.84545" lon="5.90528">
        <ele>649.1</ele>
        <time>2022-03-17T12:13:23Z</time>
      </trkpt>
      <trkpt lat="46.84544" lon="5.90534">
        <ele>648.7</ele>
        <time>2022-03-17T12:13:28Z</time>
      </trkpt>
      <trkpt lat="46.84546" lon="5.9054">
        <ele>647.8</ele>
        <time>2022-03-17T12:13:33Z</time>
      </trkpt>
      <trkpt lat="46.84545" lon="5.90546">
        <ele>647.4</ele>
        <time>2022-03-17T12:13:37Z</time>
      </trkpt>
      <trkpt lat="46.84542" lon="5.90553">
        <ele>646.8</ele>
        <time>2022-03-17T12:13:43Z</time>
      </trkpt>
      <trkpt lat="46.84539" lon="5.9056">
        <ele>646.3</ele>
        <time>2022-03-17T12:13:46Z</time>
      </trkpt>
      <trkpt lat="46.84536" lon="5.90568">
        <ele>645.7</ele>
        <time>2022-03-17T12:13:49Z</time>
      </trkpt>
      <trkpt lat="46.84533" lon="5.90574">
        <ele>645.3</ele>
        <time>2022-03-17T12:13:53Z</time>
      </trkpt>
      <trkpt lat="46.84531" lon="5.9058">
        <ele>645.1</ele>
        <time>2022-03-17T12:13:56Z</time>
      </trkpt>
      <trkpt lat="46.84528" lon="5.90585">
        <ele>644.2</ele>
        <time>2022-03-17T12:14:00Z</time>
      </trkpt>
      <trkpt lat="46.84528" lon="5.90592">
        <ele>641.8</ele>
        <time>2022-03-17T12:14:09Z</time>
      </trkpt>
      <trkpt lat="46.84528" lon="5.90599">
        <ele>640.6</ele>
        <time>2022-03-17T12:14:15Z</time>
      </trkpt>
      <trkpt lat="46.84527" lon="5.90607">
        <ele>640.4</ele>
        <time>2022-03-17T12:14:20Z</time>
      </trkpt>
      <trkpt lat="46.84527" lon="5.90614">
        <ele>640.5</ele>
        <time>2022-03-17T12:14:24Z</time>
      </trkpt>
      <trkpt lat="46.84527" lon="5.90621">
        <ele>640.7</ele>
        <time>2022-03-17T12:14:28Z</time>
      </trkpt>
      <trkpt lat="46.84527" lon="5.90628">
        <ele>641</ele>
        <time>2022-03-17T12:14:31Z</time>
      </trkpt>
      <trkpt lat="46.84528" lon="5.90634">
        <ele>641.4</ele>
        <time>2022-03-17T12:14:37Z</time>
      </trkpt>
      <trkpt lat="46.84524" lon="5.90643">
        <ele>642.4</ele>
        <time>2022-03-17T12:14:48Z</time>
      </trkpt>
      <trkpt lat="46.84522" lon="5.9065">
        <ele>643.1</ele>
        <time>2022-03-17T12:14:51Z</time>
      </trkpt>
      <trkpt lat="46.84519" lon="5.90656">
        <ele>643.9</ele>
        <time>2022-03-17T12:14:54Z</time>
      </trkpt>
      <trkpt lat="46.84514" lon="5.90662">
        <ele>645</ele>
        <time>2022-03-17T12:14:58Z</time>
      </trkpt>
      <trkpt lat="46.84508" lon="5.9067">
        <ele>646</ele>
        <time>2022-03-17T12:15:01Z</time>
      </trkpt>
      <trkpt lat="46.84505" lon="5.90677">
        <ele>647.1</ele>
        <time>2022-03-17T12:15:04Z</time>
      </trkpt>
      <trkpt lat="46.84503" lon="5.90683">
        <ele>647.9</ele>
        <time>2022-03-17T12:15:07Z</time>
      </trkpt>
      <trkpt lat="46.845" lon="5.90691">
        <ele>648.1</ele>
        <time>2022-03-17T12:15:11Z</time>
      </trkpt>
      <trkpt lat="46.84497" lon="5.90697">
        <ele>647.4</ele>
        <time>2022-03-17T12:15:16Z</time>
      </trkpt>
      <trkpt lat="46.84494" lon="5.90703">
        <ele>646</ele>
        <time>2022-03-17T12:15:20Z</time>
      </trkpt>
      <trkpt lat="46.84489" lon="5.90708">
        <ele>644.5</ele>
        <time>2022-03-17T12:15:23Z</time>
      </trkpt>
      <trkpt lat="46.84491" lon="5.90714">
        <ele>642.5</ele>
        <time>2022-03-17T12:15:32Z</time>
      </trkpt>
      <trkpt lat="46.84488" lon="5.90721">
        <ele>643.7</ele>
        <time>2022-03-17T12:15:39Z</time>
      </trkpt>
      <trkpt lat="46.84484" lon="5.90727">
        <ele>643.7</ele>
        <time>2022-03-17T12:15:43Z</time>
      </trkpt>
      <trkpt lat="46.8448" lon="5.90733">
        <ele>643.8</ele>
        <time>2022-03-17T12:15:47Z</time>
      </trkpt>
      <trkpt lat="46.84476" lon="5.90735">
        <ele>644.1</ele>
        <time>2022-03-17T12:15:51Z</time>
      </trkpt>
      <trkpt lat="46.84473" lon="5.90741">
        <ele>645.2</ele>
        <time>2022-03-17T12:16:05Z</time>
      </trkpt>
      <trkpt lat="46.84473" lon="5.9075">
        <ele>645.4</ele>
        <time>2022-03-17T12:16:10Z</time>
      </trkpt>
      <trkpt lat="46.8447" lon="5.90756">
        <ele>645.3</ele>
        <time>2022-03-17T12:16:15Z</time>
      </trkpt>
      <trkpt lat="46.84466" lon="5.90759">
        <ele>645.3</ele>
        <time>2022-03-17T12:16:18Z</time>
      </trkpt>
      <trkpt lat="46.84461" lon="5.9076">
        <ele>645.5</ele>
        <time>2022-03-17T12:16:21Z</time>
      </trkpt>
      <trkpt lat="46.84456" lon="5.90763">
        <ele>645.7</ele>
        <time>2022-03-17T12:16:25Z</time>
      </trkpt>
      <trkpt lat="46.8445" lon="5.90766">
        <ele>645.8</ele>
        <time>2022-03-17T12:16:28Z</time>
      </trkpt>
      <trkpt lat="46.84443" lon="5.90772">
        <ele>645.7</ele>
        <time>2022-03-17T12:16:31Z</time>
      </trkpt>
      <trkpt lat="46.84439" lon="5.90777">
        <ele>645.9</ele>
        <time>2022-03-17T12:16:34Z</time>
      </trkpt>
      <trkpt lat="46.84434" lon="5.9078">
        <ele>647.3</ele>
        <time>2022-03-17T12:16:41Z</time>
      </trkpt>
      <trkpt lat="46.8443" lon="5.90783">
        <ele>648</ele>
        <time>2022-03-17T12:16:45Z</time>
      </trkpt>
      <trkpt lat="46.84426" lon="5.90786">
        <ele>648.3</ele>
        <time>2022-03-17T12:16:48Z</time>
      </trkpt>
      <trkpt lat="46.84422" lon="5.90789">
        <ele>648.5</ele>
        <time>2022-03-17T12:16:52Z</time>
      </trkpt>
      <trkpt lat="46.84417" lon="5.90792">
        <ele>648.8</ele>
        <time>2022-03-17T12:16:58Z</time>
      </trkpt>
      <trkpt lat="46.84412" lon="5.90795">
        <ele>649.1</ele>
        <time>2022-03-17T12:17:03Z</time>
      </trkpt>
      <trkpt lat="46.84407" lon="5.90796">
        <ele>649.6</ele>
        <time>2022-03-17T12:17:08Z</time>
      </trkpt>
      <trkpt lat="46.84402" lon="5.908">
        <ele>650.5</ele>
        <time>2022-03-17T12:17:13Z</time>
      </trkpt>
      <trkpt lat="46.84397" lon="5.90804">
        <ele>653</ele>
        <time>2022-03-17T12:17:25Z</time>
      </trkpt>
      <trkpt lat="46.8439" lon="5.90805">
        <ele>654.3</ele>
        <time>2022-03-17T12:17:28Z</time>
      </trkpt>
      <trkpt lat="46.84386" lon="5.90809">
        <ele>657</ele>
        <time>2022-03-17T12:17:35Z</time>
      </trkpt>
      <trkpt lat="46.84383" lon="5.90815">
        <ele>658.5</ele>
        <time>2022-03-17T12:17:41Z</time>
      </trkpt>
      <trkpt lat="46.84379" lon="5.90818">
        <ele>658.8</ele>
        <time>2022-03-17T12:17:47Z</time>
      </trkpt>
      <trkpt lat="46.84374" lon="5.90821">
        <ele>658.6</ele>
        <time>2022-03-17T12:17:52Z</time>
      </trkpt>
      <trkpt lat="46.84368" lon="5.90821">
        <ele>658.6</ele>
        <time>2022-03-17T12:17:56Z</time>
      </trkpt>
      <trkpt lat="46.84363" lon="5.90822">
        <ele>658.2</ele>
        <time>2022-03-17T12:18:00Z</time>
      </trkpt>
      <trkpt lat="46.84358" lon="5.90823">
        <ele>657.5</ele>
        <time>2022-03-17T12:18:04Z</time>
      </trkpt>
      <trkpt lat="46.84352" lon="5.90821">
        <ele>656</ele>
        <time>2022-03-17T12:18:09Z</time>
      </trkpt>
      <trkpt lat="46.84347" lon="5.90819">
        <ele>654.3</ele>
        <time>2022-03-17T12:18:14Z</time>
      </trkpt>
      <trkpt lat="46.84343" lon="5.90817">
        <ele>652.8</ele>
        <time>2022-03-17T12:18:18Z</time>
      </trkpt>
      <trkpt lat="46.84339" lon="5.90813">
        <ele>651.1</ele>
        <time>2022-03-17T12:18:23Z</time>
      </trkpt>
      <trkpt lat="46.84334" lon="5.90811">
        <ele>649.5</ele>
        <time>2022-03-17T12:18:28Z</time>
      </trkpt>
      <trkpt lat="46.84329" lon="5.9081">
        <ele>648.6</ele>
        <time>2022-03-17T12:18:31Z</time>
      </trkpt>
      <trkpt lat="46.84325" lon="5.90805">
        <ele>647.5</ele>
        <time>2022-03-17T12:18:36Z</time>
      </trkpt>
      <trkpt lat="46.84322" lon="5.908">
        <ele>647.3</ele>
        <time>2022-03-17T12:18:42Z</time>
      </trkpt>
      <trkpt lat="46.84318" lon="5.90797">
        <ele>648.1</ele>
        <time>2022-03-17T12:18:52Z</time>
      </trkpt>
      <trkpt lat="46.84314" lon="5.90791">
        <ele>647.6</ele>
        <time>2022-03-17T12:19:00Z</time>
      </trkpt>
      <trkpt lat="46.8431" lon="5.90789">
        <ele>646.9</ele>
        <time>2022-03-17T12:19:04Z</time>
      </trkpt>
      <trkpt lat="46.84305" lon="5.90788">
        <ele>646.5</ele>
        <time>2022-03-17T12:19:08Z</time>
      </trkpt>
      <trkpt lat="46.843" lon="5.90788">
        <ele>646.3</ele>
        <time>2022-03-17T12:19:12Z</time>
      </trkpt>
      <trkpt lat="46.84295" lon="5.90787">
        <ele>645.7</ele>
        <time>2022-03-17T12:19:16Z</time>
      </trkpt>
      <trkpt lat="46.8429" lon="5.90783">
        <ele>644.3</ele>
        <time>2022-03-17T12:19:21Z</time>
      </trkpt>
      <trkpt lat="46.84285" lon="5.90781">
        <ele>642.5</ele>
        <time>2022-03-17T12:19:26Z</time>
      </trkpt>
      <trkpt lat="46.84281" lon="5.90775">
        <ele>639.5</ele>
        <time>2022-03-17T12:19:32Z</time>
      </trkpt>
      <trkpt lat="46.84277" lon="5.9077">
        <ele>636.8</ele>
        <time>2022-03-17T12:19:36Z</time>
      </trkpt>
      <trkpt lat="46.84273" lon="5.90766">
        <ele>634.1</ele>
        <time>2022-03-17T12:19:40Z</time>
      </trkpt>
      <trkpt lat="46.84269" lon="5.90763">
        <ele>632.2</ele>
        <time>2022-03-17T12:19:43Z</time>
      </trkpt>
      <trkpt lat="46.84265" lon="5.90758">
        <ele>629.8</ele>
        <time>2022-03-17T12:19:48Z</time>
      </trkpt>
      <trkpt lat="46.84262" lon="5.90752">
        <ele>628.3</ele>
        <time>2022-03-17T12:19:54Z</time>
      </trkpt>
      <trkpt lat="46.8426" lon="5.90745">
        <ele>627.7</ele>
        <time>2022-03-17T12:20:00Z</time>
      </trkpt>
      <trkpt lat="46.84258" lon="5.90738">
        <ele>627.6</ele>
        <time>2022-03-17T12:20:04Z</time>
      </trkpt>
      <trkpt lat="46.84257" lon="5.90731">
        <ele>627.5</ele>
        <time>2022-03-17T12:20:08Z</time>
      </trkpt>
      <trkpt lat="46.84257" lon="5.90724">
        <ele>627.5</ele>
        <time>2022-03-17T12:20:13Z</time>
      </trkpt>
      <trkpt lat="46.84253" lon="5.90719">
        <ele>627.3</ele>
        <time>2022-03-17T12:20:18Z</time>
      </trkpt>
      <trkpt lat="46.84252" lon="5.90712">
        <ele>627.1</ele>
        <time>2022-03-17T12:20:25Z</time>
      </trkpt>
      <trkpt lat="46.84249" lon="5.90705">
        <ele>626.6</ele>
        <time>2022-03-17T12:20:30Z</time>
      </trkpt>
      <trkpt lat="46.84248" lon="5.90697">
        <ele>626.6</ele>
        <time>2022-03-17T12:20:35Z</time>
      </trkpt>
      <trkpt lat="46.84249" lon="5.90689">
        <ele>627.1</ele>
        <time>2022-03-17T12:20:39Z</time>
      </trkpt>
      <trkpt lat="46.8425" lon="5.90681">
        <ele>628.1</ele>
        <time>2022-03-17T12:20:43Z</time>
      </trkpt>
      <trkpt lat="46.84252" lon="5.90674">
        <ele>629</ele>
        <time>2022-03-17T12:20:48Z</time>
      </trkpt>
      <trkpt lat="46.84251" lon="5.90667">
        <ele>629.7</ele>
        <time>2022-03-17T12:20:53Z</time>
      </trkpt>
      <trkpt lat="46.84252" lon="5.9066">
        <ele>631.7</ele>
        <time>2022-03-17T12:21:00Z</time>
      </trkpt>
      <trkpt lat="46.84252" lon="5.90652">
        <ele>632.7</ele>
        <time>2022-03-17T12:21:05Z</time>
      </trkpt>
      <trkpt lat="46.84252" lon="5.90645">
        <ele>633.6</ele>
        <time>2022-03-17T12:21:09Z</time>
      </trkpt>
      <trkpt lat="46.84254" lon="5.90639">
        <ele>634</ele>
        <time>2022-03-17T12:21:12Z</time>
      </trkpt>
      <trkpt lat="46.84254" lon="5.90631">
        <ele>634.5</ele>
        <time>2022-03-17T12:21:16Z</time>
      </trkpt>
      <trkpt lat="46.84256" lon="5.90624">
        <ele>635.5</ele>
        <time>2022-03-17T12:21:20Z</time>
      </trkpt>
      <trkpt lat="46.84253" lon="5.90618">
        <ele>637.1</ele>
        <time>2022-03-17T12:21:26Z</time>
      </trkpt>
      <trkpt lat="46.84252" lon="5.90611">
        <ele>638</ele>
        <time>2022-03-17T12:21:34Z</time>
      </trkpt>
      <trkpt lat="46.84248" lon="5.90605">
        <ele>637.8</ele>
        <time>2022-03-17T12:21:40Z</time>
      </trkpt>
      <trkpt lat="46.84243" lon="5.90604">
        <ele>637.5</ele>
        <time>2022-03-17T12:21:44Z</time>
      </trkpt>
      <trkpt lat="46.84238" lon="5.90601">
        <ele>637.4</ele>
        <time>2022-03-17T12:21:47Z</time>
      </trkpt>
      <trkpt lat="46.84233" lon="5.90599">
        <ele>637.1</ele>
        <time>2022-03-17T12:21:51Z</time>
      </trkpt>
      <trkpt lat="46.84228" lon="5.90595">
        <ele>636.9</ele>
        <time>2022-03-17T12:21:58Z</time>
      </trkpt>
      <trkpt lat="46.84224" lon="5.9059">
        <ele>637.1</ele>
        <time>2022-03-17T12:22:04Z</time>
      </trkpt>
      <trkpt lat="46.8422" lon="5.90586">
        <ele>637.1</ele>
        <time>2022-03-17T12:22:08Z</time>
      </trkpt>
      <trkpt lat="46.84216" lon="5.90583">
        <ele>637.1</ele>
        <time>2022-03-17T12:22:13Z</time>
      </trkpt>
      <trkpt lat="46.84212" lon="5.90577">
        <ele>637</ele>
        <time>2022-03-17T12:22:18Z</time>
      </trkpt>
      <trkpt lat="46.84209" lon="5.90571">
        <ele>637.2</ele>
        <time>2022-03-17T12:22:23Z</time>
      </trkpt>
      <trkpt lat="46.84209" lon="5.90564">
        <ele>637.3</ele>
        <time>2022-03-17T12:22:27Z</time>
      </trkpt>
      <trkpt lat="46.8421" lon="5.90556">
        <ele>637</ele>
        <time>2022-03-17T12:22:31Z</time>
      </trkpt>
      <trkpt lat="46.8421" lon="5.90548">
        <ele>636.1</ele>
        <time>2022-03-17T12:22:35Z</time>
      </trkpt>
      <trkpt lat="46.84211" lon="5.90541">
        <ele>634.5</ele>
        <time>2022-03-17T12:22:40Z</time>
      </trkpt>
      <trkpt lat="46.84213" lon="5.90534">
        <ele>632.7</ele>
        <time>2022-03-17T12:22:45Z</time>
      </trkpt>
      <trkpt lat="46.84213" lon="5.90527">
        <ele>631.1</ele>
        <time>2022-03-17T12:22:49Z</time>
      </trkpt>
      <trkpt lat="46.84212" lon="5.9052">
        <ele>630</ele>
        <time>2022-03-17T12:22:53Z</time>
      </trkpt>
      <trkpt lat="46.8421" lon="5.90513">
        <ele>629.4</ele>
        <time>2022-03-17T12:22:57Z</time>
      </trkpt>
      <trkpt lat="46.84209" lon="5.90506">
        <ele>629.3</ele>
        <time>2022-03-17T12:23:01Z</time>
      </trkpt>
      <trkpt lat="46.8421" lon="5.90499">
        <ele>629.8</ele>
        <time>2022-03-17T12:23:06Z</time>
      </trkpt>
      <trkpt lat="46.84208" lon="5.90492">
        <ele>630.1</ele>
        <time>2022-03-17T12:23:11Z</time>
      </trkpt>
      <trkpt lat="46.84206" lon="5.90485">
        <ele>630</ele>
        <time>2022-03-17T12:23:16Z</time>
      </trkpt>
      <trkpt lat="46.84202" lon="5.90479">
        <ele>628.6</ele>
        <time>2022-03-17T12:23:23Z</time>
      </trkpt>
      <trkpt lat="46.84198" lon="5.90476">
        <ele>627.9</ele>
        <time>2022-03-17T12:23:29Z</time>
      </trkpt>
      <trkpt lat="46.84195" lon="5.9047">
        <ele>627.7</ele>
        <time>2022-03-17T12:23:34Z</time>
      </trkpt>
      <trkpt lat="46.84197" lon="5.90462">
        <ele>627.7</ele>
        <time>2022-03-17T12:23:38Z</time>
      </trkpt>
      <trkpt lat="46.84197" lon="5.90455">
        <ele>627.3</ele>
        <time>2022-03-17T12:23:43Z</time>
      </trkpt>
      <trkpt lat="46.84198" lon="5.90447">
        <ele>626.4</ele>
        <time>2022-03-17T12:23:49Z</time>
      </trkpt>
      <trkpt lat="46.84197" lon="5.90441">
        <ele>625.6</ele>
        <time>2022-03-17T12:23:54Z</time>
      </trkpt>
      <trkpt lat="46.84195" lon="5.90433">
        <ele>624.6</ele>
        <time>2022-03-17T12:24:00Z</time>
      </trkpt>
      <trkpt lat="46.84191" lon="5.90428">
        <ele>623.8</ele>
        <time>2022-03-17T12:24:07Z</time>
      </trkpt>
      <trkpt lat="46.84188" lon="5.90424">
        <ele>623.8</ele>
        <time>2022-03-17T12:24:11Z</time>
      </trkpt>
      <trkpt lat="46.84186" lon="5.90416">
        <ele>624</ele>
        <time>2022-03-17T12:24:16Z</time>
      </trkpt>
      <trkpt lat="46.84183" lon="5.9041">
        <ele>624.8</ele>
        <time>2022-03-17T12:24:22Z</time>
      </trkpt>
      <trkpt lat="46.84178" lon="5.90406">
        <ele>624.4</ele>
        <time>2022-03-17T12:24:26Z</time>
      </trkpt>
      <trkpt lat="46.84173" lon="5.90406">
        <ele>624.3</ele>
        <time>2022-03-17T12:24:29Z</time>
      </trkpt>
      <trkpt lat="46.84167" lon="5.90408">
        <ele>624.4</ele>
        <time>2022-03-17T12:24:32Z</time>
      </trkpt>
      <trkpt lat="46.84162" lon="5.90406">
        <ele>625.1</ele>
        <time>2022-03-17T12:24:36Z</time>
      </trkpt>
      <trkpt lat="46.84158" lon="5.90401">
        <ele>626.4</ele>
        <time>2022-03-17T12:24:40Z</time>
      </trkpt>
      <trkpt lat="46.84153" lon="5.904">
        <ele>628.1</ele>
        <time>2022-03-17T12:24:45Z</time>
      </trkpt>
      <trkpt lat="46.84148" lon="5.90397">
        <ele>628.8</ele>
        <time>2022-03-17T12:24:49Z</time>
      </trkpt>
      <trkpt lat="46.84143" lon="5.90393">
        <ele>629.1</ele>
        <time>2022-03-17T12:24:53Z</time>
      </trkpt>
      <trkpt lat="46.84141" lon="5.90386">
        <ele>629.7</ele>
        <time>2022-03-17T12:25:00Z</time>
      </trkpt>
      <trkpt lat="46.84139" lon="5.90379">
        <ele>630.9</ele>
        <time>2022-03-17T12:25:06Z</time>
      </trkpt>
      <trkpt lat="46.84135" lon="5.90376">
        <ele>631.8</ele>
        <time>2022-03-17T12:25:11Z</time>
      </trkpt>
      <trkpt lat="46.8413" lon="5.90376">
        <ele>632.1</ele>
        <time>2022-03-17T12:25:15Z</time>
      </trkpt>
      <trkpt lat="46.84127" lon="5.9037">
        <ele>632.2</ele>
        <time>2022-03-17T12:25:20Z</time>
      </trkpt>
      <trkpt lat="46.84124" lon="5.90363">
        <ele>632.2</ele>
        <time>2022-03-17T12:25:25Z</time>
      </trkpt>
      <trkpt lat="46.84122" lon="5.90357">
        <ele>632.3</ele>
        <time>2022-03-17T12:25:29Z</time>
      </trkpt>
      <trkpt lat="46.84118" lon="5.90355">
        <ele>633.1</ele>
        <time>2022-03-17T12:25:34Z</time>
      </trkpt>
      <trkpt lat="46.84114" lon="5.90352">
        <ele>633.7</ele>
        <time>2022-03-17T12:25:38Z</time>
      </trkpt>
      <trkpt lat="46.8411" lon="5.90349">
        <ele>633.9</ele>
        <time>2022-03-17T12:25:43Z</time>
      </trkpt>
      <trkpt lat="46.84108" lon="5.90342">
        <ele>634.1</ele>
        <time>2022-03-17T12:25:49Z</time>
      </trkpt>
      <trkpt lat="46.84107" lon="5.90334">
        <ele>633.8</ele>
        <time>2022-03-17T12:25:55Z</time>
      </trkpt>
      <trkpt lat="46.84102" lon="5.90331">
        <ele>633</ele>
        <time>2022-03-17T12:25:59Z</time>
      </trkpt>
      <trkpt lat="46.84097" lon="5.90328">
        <ele>632.9</ele>
        <time>2022-03-17T12:26:04Z</time>
      </trkpt>
      <trkpt lat="46.84093" lon="5.90326">
        <ele>633.4</ele>
        <time>2022-03-17T12:26:09Z</time>
      </trkpt>
      <trkpt lat="46.8409" lon="5.90321">
        <ele>633.5</ele>
        <time>2022-03-17T12:26:14Z</time>
      </trkpt>
      <trkpt lat="46.84086" lon="5.90316">
        <ele>632.9</ele>
        <time>2022-03-17T12:26:19Z</time>
      </trkpt>
      <trkpt lat="46.84082" lon="5.90311">
        <ele>632</ele>
        <time>2022-03-17T12:26:23Z</time>
      </trkpt>
      <trkpt lat="46.84079" lon="5.90306">
        <ele>630.6</ele>
        <time>2022-03-17T12:26:28Z</time>
      </trkpt>
      <trkpt lat="46.84077" lon="5.90299">
        <ele>628.8</ele>
        <time>2022-03-17T12:26:34Z</time>
      </trkpt>
      <trkpt lat="46.84075" lon="5.90293">
        <ele>627.4</ele>
        <time>2022-03-17T12:26:38Z</time>
      </trkpt>
      <trkpt lat="46.84073" lon="5.90286">
        <ele>626</ele>
        <time>2022-03-17T12:26:42Z</time>
      </trkpt>
      <trkpt lat="46.84072" lon="5.90279">
        <ele>624.8</ele>
        <time>2022-03-17T12:26:47Z</time>
      </trkpt>
      <trkpt lat="46.84071" lon="5.90271">
        <ele>624.3</ele>
        <time>2022-03-17T12:26:53Z</time>
      </trkpt>
      <trkpt lat="46.84071" lon="5.90264">
        <ele>624.5</ele>
        <time>2022-03-17T12:26:58Z</time>
      </trkpt>
      <trkpt lat="46.84072" lon="5.90257">
        <ele>624.5</ele>
        <time>2022-03-17T12:27:03Z</time>
      </trkpt>
      <trkpt lat="46.84072" lon="5.9025">
        <ele>624.5</ele>
        <time>2022-03-17T12:27:08Z</time>
      </trkpt>
      <trkpt lat="46.84073" lon="5.90242">
        <ele>624.3</ele>
        <time>2022-03-17T12:27:12Z</time>
      </trkpt>
      <trkpt lat="46.84072" lon="5.90235">
        <ele>623.9</ele>
        <time>2022-03-17T12:27:16Z</time>
      </trkpt>
      <trkpt lat="46.84069" lon="5.90228">
        <ele>623.2</ele>
        <time>2022-03-17T12:27:20Z</time>
      </trkpt>
      <trkpt lat="46.84067" lon="5.90222">
        <ele>622.6</ele>
        <time>2022-03-17T12:27:25Z</time>
      </trkpt>
      <trkpt lat="46.84066" lon="5.90215">
        <ele>622.4</ele>
        <time>2022-03-17T12:27:31Z</time>
      </trkpt>
      <trkpt lat="46.84064" lon="5.90208">
        <ele>622.8</ele>
        <time>2022-03-17T12:27:39Z</time>
      </trkpt>
      <trkpt lat="46.84062" lon="5.90202">
        <ele>623</ele>
        <time>2022-03-17T12:27:43Z</time>
      </trkpt>
      <trkpt lat="46.84061" lon="5.90196">
        <ele>622.9</ele>
        <time>2022-03-17T12:27:46Z</time>
      </trkpt>
      <trkpt lat="46.8406" lon="5.90188">
        <ele>622.6</ele>
        <time>2022-03-17T12:27:50Z</time>
      </trkpt>
      <trkpt lat="46.84062" lon="5.90181">
        <ele>622.9</ele>
        <time>2022-03-17T12:27:53Z</time>
      </trkpt>
      <trkpt lat="46.84065" lon="5.90175">
        <ele>624.2</ele>
        <time>2022-03-17T12:27:58Z</time>
      </trkpt>
      <trkpt lat="46.84069" lon="5.9017">
        <ele>625.5</ele>
        <time>2022-03-17T12:28:02Z</time>
      </trkpt>
      <trkpt lat="46.84068" lon="5.90163">
        <ele>626.7</ele>
        <time>2022-03-17T12:28:08Z</time>
      </trkpt>
      <trkpt lat="46.84066" lon="5.90156">
        <ele>626.7</ele>
        <time>2022-03-17T12:28:14Z</time>
      </trkpt>
      <trkpt lat="46.84061" lon="5.90154">
        <ele>626.6</ele>
        <time>2022-03-17T12:28:18Z</time>
      </trkpt>
      <trkpt lat="46.8406" lon="5.90146">
        <ele>626.4</ele>
        <time>2022-03-17T12:28:24Z</time>
      </trkpt>
      <trkpt lat="46.84059" lon="5.90138">
        <ele>626.3</ele>
        <time>2022-03-17T12:28:30Z</time>
      </trkpt>
      <trkpt lat="46.84058" lon="5.90132">
        <ele>626</ele>
        <time>2022-03-17T12:28:38Z</time>
      </trkpt>
      <trkpt lat="46.84054" lon="5.90126">
        <ele>625.8</ele>
        <time>2022-03-17T12:28:43Z</time>
      </trkpt>
      <trkpt lat="46.84051" lon="5.90119">
        <ele>625.9</ele>
        <time>2022-03-17T12:28:48Z</time>
      </trkpt>
      <trkpt lat="46.84049" lon="5.90112">
        <ele>626.1</ele>
        <time>2022-03-17T12:28:52Z</time>
      </trkpt>
      <trkpt lat="46.84046" lon="5.90106">
        <ele>627.3</ele>
        <time>2022-03-17T12:28:56Z</time>
      </trkpt>
      <trkpt lat="46.84043" lon="5.901">
        <ele>629</ele>
        <time>2022-03-17T12:29:00Z</time>
      </trkpt>
      <trkpt lat="46.8404" lon="5.90095">
        <ele>630.8</ele>
        <time>2022-03-17T12:29:05Z</time>
      </trkpt>
      <trkpt lat="46.84036" lon="5.90091">
        <ele>631.5</ele>
        <time>2022-03-17T12:29:10Z</time>
      </trkpt>
      <trkpt lat="46.84032" lon="5.90089">
        <ele>631.9</ele>
        <time>2022-03-17T12:29:18Z</time>
      </trkpt>
      <trkpt lat="46.84027" lon="5.90091">
        <ele>632.1</ele>
        <time>2022-03-17T12:29:23Z</time>
      </trkpt>
      <trkpt lat="46.84021" lon="5.90092">
        <ele>632.4</ele>
        <time>2022-03-17T12:29:27Z</time>
      </trkpt>
      <trkpt lat="46.84015" lon="5.9009">
        <ele>632.8</ele>
        <time>2022-03-17T12:29:31Z</time>
      </trkpt>
      <trkpt lat="46.84013" lon="5.90084">
        <ele>633</ele>
        <time>2022-03-17T12:29:37Z</time>
      </trkpt>
      <trkpt lat="46.84012" lon="5.90077">
        <ele>632.6</ele>
        <time>2022-03-17T12:29:42Z</time>
      </trkpt>
      <trkpt lat="46.8401" lon="5.90071">
        <ele>632.3</ele>
        <time>2022-03-17T12:29:48Z</time>
      </trkpt>
      <trkpt lat="46.84013" lon="5.90066">
        <ele>632.1</ele>
        <time>2022-03-17T12:29:53Z</time>
      </trkpt>
      <trkpt lat="46.84012" lon="5.90058">
        <ele>632.8</ele>
        <time>2022-03-17T12:29:58Z</time>
      </trkpt>
      <trkpt lat="46.84008" lon="5.90054">
        <ele>632.6</ele>
        <time>2022-03-17T12:30:04Z</time>
      </trkpt>
      <trkpt lat="46.84008" lon="5.90046">
        <ele>632</ele>
        <time>2022-03-17T12:30:14Z</time>
      </trkpt>
      <trkpt lat="46.84006" lon="5.90039">
        <ele>632.4</ele>
        <time>2022-03-17T12:30:20Z</time>
      </trkpt>
      <trkpt lat="46.84002" lon="5.90033">
        <ele>633.7</ele>
        <time>2022-03-17T12:30:25Z</time>
      </trkpt>
      <trkpt lat="46.84001" lon="5.90026">
        <ele>632</ele>
        <time>2022-03-17T12:30:31Z</time>
      </trkpt>
      <trkpt lat="46.83997" lon="5.90022">
        <ele>632.3</ele>
        <time>2022-03-17T12:30:36Z</time>
      </trkpt>
      <trkpt lat="46.83993" lon="5.90017">
        <ele>632.7</ele>
        <time>2022-03-17T12:30:40Z</time>
      </trkpt>
      <trkpt lat="46.8399" lon="5.90011">
        <ele>633.5</ele>
        <time>2022-03-17T12:30:46Z</time>
      </trkpt>
      <trkpt lat="46.83986" lon="5.90007">
        <ele>634.3</ele>
        <time>2022-03-17T12:30:52Z</time>
      </trkpt>
      <trkpt lat="46.83982" lon="5.90001">
        <ele>634.7</ele>
        <time>2022-03-17T12:30:57Z</time>
      </trkpt>
      <trkpt lat="46.83978" lon="5.89995">
        <ele>635.2</ele>
        <time>2022-03-17T12:31:02Z</time>
      </trkpt>
      <trkpt lat="46.83975" lon="5.89991">
        <ele>636.2</ele>
        <time>2022-03-17T12:31:06Z</time>
      </trkpt>
      <trkpt lat="46.83971" lon="5.89988">
        <ele>636.5</ele>
        <time>2022-03-17T12:31:10Z</time>
      </trkpt>
      <trkpt lat="46.83968" lon="5.89982">
        <ele>636.5</ele>
        <time>2022-03-17T12:31:15Z</time>
      </trkpt>
      <trkpt lat="46.83964" lon="5.89976">
        <ele>635.9</ele>
        <time>2022-03-17T12:31:20Z</time>
      </trkpt>
      <trkpt lat="46.8396" lon="5.89972">
        <ele>635.3</ele>
        <time>2022-03-17T12:31:26Z</time>
      </trkpt>
      <trkpt lat="46.83955" lon="5.89967">
        <ele>635.1</ele>
        <time>2022-03-17T12:31:31Z</time>
      </trkpt>
      <trkpt lat="46.83951" lon="5.89963">
        <ele>634.8</ele>
        <time>2022-03-17T12:31:37Z</time>
      </trkpt>
      <trkpt lat="46.83946" lon="5.89959">
        <ele>634.9</ele>
        <time>2022-03-17T12:31:41Z</time>
      </trkpt>
      <trkpt lat="46.83944" lon="5.89951">
        <ele>635.3</ele>
        <time>2022-03-17T12:31:46Z</time>
      </trkpt>
      <trkpt lat="46.83941" lon="5.89947">
        <ele>636.1</ele>
        <time>2022-03-17T12:31:49Z</time>
      </trkpt>
      <trkpt lat="46.83936" lon="5.89943">
        <ele>637.6</ele>
        <time>2022-03-17T12:31:53Z</time>
      </trkpt>
      <trkpt lat="46.83931" lon="5.8994">
        <ele>638.8</ele>
        <time>2022-03-17T12:31:57Z</time>
      </trkpt>
      <trkpt lat="46.83926" lon="5.89939">
        <ele>640</ele>
        <time>2022-03-17T12:32:01Z</time>
      </trkpt>
      <trkpt lat="46.83924" lon="5.89934">
        <ele>642.1</ele>
        <time>2022-03-17T12:32:08Z</time>
      </trkpt>
      <trkpt lat="46.83923" lon="5.89927">
        <ele>643.7</ele>
        <time>2022-03-17T12:32:15Z</time>
      </trkpt>
      <trkpt lat="46.83921" lon="5.8992">
        <ele>644.3</ele>
        <time>2022-03-17T12:32:21Z</time>
      </trkpt>
      <trkpt lat="46.83919" lon="5.89914">
        <ele>644.5</ele>
        <time>2022-03-17T12:32:25Z</time>
      </trkpt>
      <trkpt lat="46.83915" lon="5.8991">
        <ele>644.3</ele>
        <time>2022-03-17T12:32:30Z</time>
      </trkpt>
      <trkpt lat="46.83911" lon="5.89904">
        <ele>643.9</ele>
        <time>2022-03-17T12:32:34Z</time>
      </trkpt>
      <trkpt lat="46.83908" lon="5.89898">
        <ele>643.8</ele>
        <time>2022-03-17T12:32:37Z</time>
      </trkpt>
      <trkpt lat="46.83903" lon="5.89894">
        <ele>643.9</ele>
        <time>2022-03-17T12:32:40Z</time>
      </trkpt>
      <trkpt lat="46.83899" lon="5.8989">
        <ele>643.9</ele>
        <time>2022-03-17T12:32:45Z</time>
      </trkpt>
      <trkpt lat="46.83896" lon="5.89885">
        <ele>644.2</ele>
        <time>2022-03-17T12:32:50Z</time>
      </trkpt>
      <trkpt lat="46.83891" lon="5.89882">
        <ele>644.5</ele>
        <time>2022-03-17T12:32:55Z</time>
      </trkpt>
      <trkpt lat="46.83888" lon="5.89877">
        <ele>644.9</ele>
        <time>2022-03-17T12:33:00Z</time>
      </trkpt>
      <trkpt lat="46.83885" lon="5.89872">
        <ele>645.4</ele>
        <time>2022-03-17T12:33:04Z</time>
      </trkpt>
      <trkpt lat="46.83882" lon="5.89866">
        <ele>646.2</ele>
        <time>2022-03-17T12:33:09Z</time>
      </trkpt>
      <trkpt lat="46.8388" lon="5.8986">
        <ele>646.4</ele>
        <time>2022-03-17T12:33:15Z</time>
      </trkpt>
      <trkpt lat="46.83877" lon="5.89855">
        <ele>646.5</ele>
        <time>2022-03-17T12:33:20Z</time>
      </trkpt>
      <trkpt lat="46.83875" lon="5.89848">
        <ele>646.8</ele>
        <time>2022-03-17T12:33:25Z</time>
      </trkpt>
      <trkpt lat="46.83871" lon="5.89844">
        <ele>647.1</ele>
        <time>2022-03-17T12:33:28Z</time>
      </trkpt>
      <trkpt lat="46.83866" lon="5.8984">
        <ele>647.5</ele>
        <time>2022-03-17T12:33:31Z</time>
      </trkpt>
      <trkpt lat="46.83862" lon="5.89835">
        <ele>648.1</ele>
        <time>2022-03-17T12:33:35Z</time>
      </trkpt>
      <trkpt lat="46.83858" lon="5.89831">
        <ele>649</ele>
        <time>2022-03-17T12:33:41Z</time>
      </trkpt>
      <trkpt lat="46.83855" lon="5.89825">
        <ele>650.7</ele>
        <time>2022-03-17T12:33:49Z</time>
      </trkpt>
      <trkpt lat="46.83852" lon="5.89818">
        <ele>651.7</ele>
        <time>2022-03-17T12:33:55Z</time>
      </trkpt>
      <trkpt lat="46.83848" lon="5.89815">
        <ele>652.1</ele>
        <time>2022-03-17T12:33:58Z</time>
      </trkpt>
      <trkpt lat="46.83844" lon="5.8981">
        <ele>652.5</ele>
        <time>2022-03-17T12:34:03Z</time>
      </trkpt>
      <trkpt lat="46.8384" lon="5.89808">
        <ele>652.8</ele>
        <time>2022-03-17T12:34:10Z</time>
      </trkpt>
      <trkpt lat="46.83835" lon="5.89803">
        <ele>652.3</ele>
        <time>2022-03-17T12:34:18Z</time>
      </trkpt>
      <trkpt lat="46.83831" lon="5.898">
        <ele>652.1</ele>
        <time>2022-03-17T12:34:22Z</time>
      </trkpt>
      <trkpt lat="46.83825" lon="5.89798">
        <ele>651.6</ele>
        <time>2022-03-17T12:34:27Z</time>
      </trkpt>
      <trkpt lat="46.8382" lon="5.89796">
        <ele>651.2</ele>
        <time>2022-03-17T12:34:32Z</time>
      </trkpt>
      <trkpt lat="46.83817" lon="5.89791">
        <ele>650.8</ele>
        <time>2022-03-17T12:34:39Z</time>
      </trkpt>
      <trkpt lat="46.83812" lon="5.89789">
        <ele>650.5</ele>
        <time>2022-03-17T12:34:44Z</time>
      </trkpt>
      <trkpt lat="46.83807" lon="5.89786">
        <ele>650.1</ele>
        <time>2022-03-17T12:34:48Z</time>
      </trkpt>
      <trkpt lat="46.83802" lon="5.89785">
        <ele>649.3</ele>
        <time>2022-03-17T12:34:51Z</time>
      </trkpt>
      <trkpt lat="46.83796" lon="5.89782">
        <ele>647.9</ele>
        <time>2022-03-17T12:34:55Z</time>
      </trkpt>
      <trkpt lat="46.83792" lon="5.89778">
        <ele>646.4</ele>
        <time>2022-03-17T12:35:00Z</time>
      </trkpt>
      <trkpt lat="46.83788" lon="5.89774">
        <ele>645.5</ele>
        <time>2022-03-17T12:35:04Z</time>
      </trkpt>
      <trkpt lat="46.83783" lon="5.89771">
        <ele>644.2</ele>
        <time>2022-03-17T12:35:09Z</time>
      </trkpt>
      <trkpt lat="46.83781" lon="5.89764">
        <ele>643.5</ele>
        <time>2022-03-17T12:35:14Z</time>
      </trkpt>
      <trkpt lat="46.83782" lon="5.89757">
        <ele>643.1</ele>
        <time>2022-03-17T12:35:17Z</time>
      </trkpt>
      <trkpt lat="46.83785" lon="5.89751">
        <ele>642.8</ele>
        <time>2022-03-17T12:35:21Z</time>
      </trkpt>
      <trkpt lat="46.83784" lon="5.89743">
        <ele>642.3</ele>
        <time>2022-03-17T12:35:26Z</time>
      </trkpt>
      <trkpt lat="46.83782" lon="5.89737">
        <ele>641.8</ele>
        <time>2022-03-17T12:35:30Z</time>
      </trkpt>
      <trkpt lat="46.8378" lon="5.8973">
        <ele>641.5</ele>
        <time>2022-03-17T12:35:33Z</time>
      </trkpt>
      <trkpt lat="46.83778" lon="5.89724">
        <ele>640.5</ele>
        <time>2022-03-17T12:35:39Z</time>
      </trkpt>
      <trkpt lat="46.83779" lon="5.89716">
        <ele>639.6</ele>
        <time>2022-03-17T12:35:45Z</time>
      </trkpt>
      <trkpt lat="46.83779" lon="5.89709">
        <ele>639.5</ele>
        <time>2022-03-17T12:35:50Z</time>
      </trkpt>
      <trkpt lat="46.83777" lon="5.89703">
        <ele>639.6</ele>
        <time>2022-03-17T12:35:55Z</time>
      </trkpt>
      <trkpt lat="46.83775" lon="5.89696">
        <ele>639.3</ele>
        <time>2022-03-17T12:36:01Z</time>
      </trkpt>
      <trkpt lat="46.83771" lon="5.89691">
        <ele>638.5</ele>
        <time>2022-03-17T12:36:08Z</time>
      </trkpt>
      <trkpt lat="46.83769" lon="5.89685">
        <ele>638.1</ele>
        <time>2022-03-17T12:36:14Z</time>
      </trkpt>
      <trkpt lat="46.83765" lon="5.89678">
        <ele>637.8</ele>
        <time>2022-03-17T12:36:19Z</time>
      </trkpt>
      <trkpt lat="46.83762" lon="5.89672">
        <ele>637.1</ele>
        <time>2022-03-17T12:36:23Z</time>
      </trkpt>
      <trkpt lat="46.83759" lon="5.89666">
        <ele>636.6</ele>
        <time>2022-03-17T12:36:28Z</time>
      </trkpt>
      <trkpt lat="46.83757" lon="5.8966">
        <ele>636.5</ele>
        <time>2022-03-17T12:36:33Z</time>
      </trkpt>
      <trkpt lat="46.83756" lon="5.89653">
        <ele>636.5</ele>
        <time>2022-03-17T12:36:37Z</time>
      </trkpt>
      <trkpt lat="46.83752" lon="5.89648">
        <ele>636.2</ele>
        <time>2022-03-17T12:36:41Z</time>
      </trkpt>
      <trkpt lat="46.83749" lon="5.89642">
        <ele>636.4</ele>
        <time>2022-03-17T12:36:46Z</time>
      </trkpt>
      <trkpt lat="46.83748" lon="5.89634">
        <ele>637.5</ele>
        <time>2022-03-17T12:36:52Z</time>
      </trkpt>
      <trkpt lat="46.83747" lon="5.89626">
        <ele>638.3</ele>
        <time>2022-03-17T12:36:57Z</time>
      </trkpt>
      <trkpt lat="46.83746" lon="5.8962">
        <ele>638.8</ele>
        <time>2022-03-17T12:37:02Z</time>
      </trkpt>
      <trkpt lat="46.83744" lon="5.89612">
        <ele>639.4</ele>
        <time>2022-03-17T12:37:08Z</time>
      </trkpt>
      <trkpt lat="46.8374" lon="5.89607">
        <ele>639.8</ele>
        <time>2022-03-17T12:37:12Z</time>
      </trkpt>
      <trkpt lat="46.83737" lon="5.89603">
        <ele>640.1</ele>
        <time>2022-03-17T12:37:16Z</time>
      </trkpt>
      <trkpt lat="46.83734" lon="5.89597">
        <ele>640.7</ele>
        <time>2022-03-17T12:37:22Z</time>
      </trkpt>
      <trkpt lat="46.83731" lon="5.89591">
        <ele>641.6</ele>
        <time>2022-03-17T12:37:28Z</time>
      </trkpt>
      <trkpt lat="46.83729" lon="5.89585">
        <ele>642.3</ele>
        <time>2022-03-17T12:37:32Z</time>
      </trkpt>
      <trkpt lat="46.83728" lon="5.89577">
        <ele>642.7</ele>
        <time>2022-03-17T12:37:37Z</time>
      </trkpt>
      <trkpt lat="46.83726" lon="5.8957">
        <ele>642.6</ele>
        <time>2022-03-17T12:37:43Z</time>
      </trkpt>
      <trkpt lat="46.83722" lon="5.89565">
        <ele>642.6</ele>
        <time>2022-03-17T12:37:48Z</time>
      </trkpt>
      <trkpt lat="46.83721" lon="5.89559">
        <ele>641.5</ele>
        <time>2022-03-17T12:37:55Z</time>
      </trkpt>
      <trkpt lat="46.83717" lon="5.89559">
        <ele>641.9</ele>
        <time>2022-03-17T12:38:00Z</time>
      </trkpt>
      <trkpt lat="46.83716" lon="5.89551">
        <ele>639</ele>
        <time>2022-03-17T12:38:35Z</time>
      </trkpt>
      <trkpt lat="46.83717" lon="5.89545">
        <ele>637</ele>
        <time>2022-03-17T12:38:41Z</time>
      </trkpt>
      <trkpt lat="46.83715" lon="5.89539">
        <ele>637.1</ele>
        <time>2022-03-17T12:38:46Z</time>
      </trkpt>
      <trkpt lat="46.83715" lon="5.89532">
        <ele>637.3</ele>
        <time>2022-03-17T12:38:50Z</time>
      </trkpt>
      <trkpt lat="46.83714" lon="5.89525">
        <ele>637.5</ele>
        <time>2022-03-17T12:38:54Z</time>
      </trkpt>
      <trkpt lat="46.83711" lon="5.8952">
        <ele>637.2</ele>
        <time>2022-03-17T12:38:58Z</time>
      </trkpt>
      <trkpt lat="46.83708" lon="5.89514">
        <ele>636.9</ele>
        <time>2022-03-17T12:39:03Z</time>
      </trkpt>
      <trkpt lat="46.83706" lon="5.89507">
        <ele>637.4</ele>
        <time>2022-03-17T12:39:08Z</time>
      </trkpt>
      <trkpt lat="46.83705" lon="5.89499">
        <ele>638.6</ele>
        <time>2022-03-17T12:39:13Z</time>
      </trkpt>
      <trkpt lat="46.83706" lon="5.89491">
        <ele>639.6</ele>
        <time>2022-03-17T12:39:17Z</time>
      </trkpt>
      <trkpt lat="46.83702" lon="5.89487">
        <ele>639.8</ele>
        <time>2022-03-17T12:39:21Z</time>
      </trkpt>
      <trkpt lat="46.837" lon="5.89481">
        <ele>640.3</ele>
        <time>2022-03-17T12:39:26Z</time>
      </trkpt>
      <trkpt lat="46.837" lon="5.89473">
        <ele>641</ele>
        <time>2022-03-17T12:39:30Z</time>
      </trkpt>
      <trkpt lat="46.83698" lon="5.89467">
        <ele>641.5</ele>
        <time>2022-03-17T12:39:35Z</time>
      </trkpt>
      <trkpt lat="46.83696" lon="5.8946">
        <ele>640.6</ele>
        <time>2022-03-17T12:39:43Z</time>
      </trkpt>
      <trkpt lat="46.83698" lon="5.89453">
        <ele>640.2</ele>
        <time>2022-03-17T12:39:51Z</time>
      </trkpt>
      <trkpt lat="46.83696" lon="5.89447">
        <ele>639.9</ele>
        <time>2022-03-17T12:39:56Z</time>
      </trkpt>
      <trkpt lat="46.83693" lon="5.8944">
        <ele>639.6</ele>
        <time>2022-03-17T12:40:01Z</time>
      </trkpt>
      <trkpt lat="46.83693" lon="5.89431">
        <ele>639.8</ele>
        <time>2022-03-17T12:40:05Z</time>
      </trkpt>
      <trkpt lat="46.83695" lon="5.89424">
        <ele>640.3</ele>
        <time>2022-03-17T12:40:08Z</time>
      </trkpt>
      <trkpt lat="46.83692" lon="5.89417">
        <ele>640.9</ele>
        <time>2022-03-17T12:40:13Z</time>
      </trkpt>
      <trkpt lat="46.8369" lon="5.89412">
        <ele>641</ele>
        <time>2022-03-17T12:40:17Z</time>
      </trkpt>
      <trkpt lat="46.83686" lon="5.89408">
        <ele>640.9</ele>
        <time>2022-03-17T12:40:21Z</time>
      </trkpt>
      <trkpt lat="46.83682" lon="5.89402">
        <ele>640.8</ele>
        <time>2022-03-17T12:40:25Z</time>
      </trkpt>
      <trkpt lat="46.8368" lon="5.89396">
        <ele>640.6</ele>
        <time>2022-03-17T12:40:31Z</time>
      </trkpt>
      <trkpt lat="46.83679" lon="5.89389">
        <ele>640.4</ele>
        <time>2022-03-17T12:40:35Z</time>
      </trkpt>
      <trkpt lat="46.8368" lon="5.89381">
        <ele>640.1</ele>
        <time>2022-03-17T12:40:38Z</time>
      </trkpt>
      <trkpt lat="46.83681" lon="5.89373">
        <ele>639.7</ele>
        <time>2022-03-17T12:40:41Z</time>
      </trkpt>
      <trkpt lat="46.83681" lon="5.89366">
        <ele>639</ele>
        <time>2022-03-17T12:40:44Z</time>
      </trkpt>
      <trkpt lat="46.83679" lon="5.89358">
        <ele>638.3</ele>
        <time>2022-03-17T12:40:50Z</time>
      </trkpt>
      <trkpt lat="46.83678" lon="5.89351">
        <ele>638.1</ele>
        <time>2022-03-17T12:40:54Z</time>
      </trkpt>
      <trkpt lat="46.83678" lon="5.89344">
        <ele>638.3</ele>
        <time>2022-03-17T12:40:58Z</time>
      </trkpt>
      <trkpt lat="46.83674" lon="5.89339">
        <ele>639.1</ele>
        <time>2022-03-17T12:41:04Z</time>
      </trkpt>
      <trkpt lat="46.83671" lon="5.89332">
        <ele>639.8</ele>
        <time>2022-03-17T12:41:08Z</time>
      </trkpt>
      <trkpt lat="46.8367" lon="5.89325">
        <ele>640.5</ele>
        <time>2022-03-17T12:41:11Z</time>
      </trkpt>
      <trkpt lat="46.83671" lon="5.89317">
        <ele>641.4</ele>
        <time>2022-03-17T12:41:14Z</time>
      </trkpt>
      <trkpt lat="46.83672" lon="5.8931">
        <ele>642.4</ele>
        <time>2022-03-17T12:41:18Z</time>
      </trkpt>
      <trkpt lat="46.83671" lon="5.89303">
        <ele>643.5</ele>
        <time>2022-03-17T12:41:23Z</time>
      </trkpt>
      <trkpt lat="46.83671" lon="5.89296">
        <ele>644.5</ele>
        <time>2022-03-17T12:41:28Z</time>
      </trkpt>
      <trkpt lat="46.83667" lon="5.8929">
        <ele>645.2</ele>
        <time>2022-03-17T12:41:36Z</time>
      </trkpt>
      <trkpt lat="46.83663" lon="5.89286">
        <ele>645.2</ele>
        <time>2022-03-17T12:41:40Z</time>
      </trkpt>
      <trkpt lat="46.83659" lon="5.89282">
        <ele>645.1</ele>
        <time>2022-03-17T12:41:44Z</time>
      </trkpt>
      <trkpt lat="46.83656" lon="5.89276">
        <ele>645</ele>
        <time>2022-03-17T12:41:49Z</time>
      </trkpt>
      <trkpt lat="46.83651" lon="5.89276">
        <ele>643.7</ele>
        <time>2022-03-17T12:41:53Z</time>
      </trkpt>
      <trkpt lat="46.83647" lon="5.89271">
        <ele>642.5</ele>
        <time>2022-03-17T12:41:59Z</time>
      </trkpt>
      <trkpt lat="46.83647" lon="5.89263">
        <ele>641.7</ele>
        <time>2022-03-17T12:42:04Z</time>
      </trkpt>
      <trkpt lat="46.83649" lon="5.89257">
        <ele>640.6</ele>
        <time>2022-03-17T12:42:09Z</time>
      </trkpt>
      <trkpt lat="46.83649" lon="5.8925">
        <ele>639.7</ele>
        <time>2022-03-17T12:42:15Z</time>
      </trkpt>
      <trkpt lat="46.83647" lon="5.89244">
        <ele>639.3</ele>
        <time>2022-03-17T12:42:19Z</time>
      </trkpt>
      <trkpt lat="46.83643" lon="5.8924">
        <ele>638.8</ele>
        <time>2022-03-17T12:42:23Z</time>
      </trkpt>
      <trkpt lat="46.83639" lon="5.89237">
        <ele>638.3</ele>
        <time>2022-03-17T12:42:26Z</time>
      </trkpt>
      <trkpt lat="46.83634" lon="5.89234">
        <ele>637.7</ele>
        <time>2022-03-17T12:42:29Z</time>
      </trkpt>
      <trkpt lat="46.8363" lon="5.8923">
        <ele>637.1</ele>
        <time>2022-03-17T12:42:33Z</time>
      </trkpt>
      <trkpt lat="46.83628" lon="5.89224">
        <ele>637</ele>
        <time>2022-03-17T12:42:39Z</time>
      </trkpt>
      <trkpt lat="46.83623" lon="5.89221">
        <ele>637.1</ele>
        <time>2022-03-17T12:42:45Z</time>
      </trkpt>
      <trkpt lat="46.83618" lon="5.89219">
        <ele>637.2</ele>
        <time>2022-03-17T12:42:49Z</time>
      </trkpt>
      <trkpt lat="46.83613" lon="5.89216">
        <ele>636.8</ele>
        <time>2022-03-17T12:42:54Z</time>
      </trkpt>
      <trkpt lat="46.83608" lon="5.89214">
        <ele>636.4</ele>
        <time>2022-03-17T12:42:59Z</time>
      </trkpt>
      <trkpt lat="46.83603" lon="5.89212">
        <ele>636.2</ele>
        <time>2022-03-17T12:43:05Z</time>
      </trkpt>
      <trkpt lat="46.83599" lon="5.89208">
        <ele>635.8</ele>
        <time>2022-03-17T12:43:11Z</time>
      </trkpt>
      <trkpt lat="46.83595" lon="5.89204">
        <ele>635.3</ele>
        <time>2022-03-17T12:43:15Z</time>
      </trkpt>
      <trkpt lat="46.83592" lon="5.89198">
        <ele>634.9</ele>
        <time>2022-03-17T12:43:21Z</time>
      </trkpt>
      <trkpt lat="46.83588" lon="5.89193">
        <ele>635</ele>
        <time>2022-03-17T12:43:25Z</time>
      </trkpt>
      <trkpt lat="46.83584" lon="5.89187">
        <ele>635.7</ele>
        <time>2022-03-17T12:43:28Z</time>
      </trkpt>
      <trkpt lat="46.8358" lon="5.89184">
        <ele>636.6</ele>
        <time>2022-03-17T12:43:31Z</time>
      </trkpt>
      <trkpt lat="46.83577" lon="5.8918">
        <ele>638.1</ele>
        <time>2022-03-17T12:43:35Z</time>
      </trkpt>
      <trkpt lat="46.83571" lon="5.89179">
        <ele>640.3</ele>
        <time>2022-03-17T12:43:41Z</time>
      </trkpt>
      <trkpt lat="46.83567" lon="5.89174">
        <ele>641.8</ele>
        <time>2022-03-17T12:43:46Z</time>
      </trkpt>
      <trkpt lat="46.83562" lon="5.8917">
        <ele>642.3</ele>
        <time>2022-03-17T12:43:50Z</time>
      </trkpt>
      <trkpt lat="46.83557" lon="5.89166">
        <ele>642.7</ele>
        <time>2022-03-17T12:43:55Z</time>
      </trkpt>
      <trkpt lat="46.83553" lon="5.89162">
        <ele>643</ele>
        <time>2022-03-17T12:44:00Z</time>
      </trkpt>
      <trkpt lat="46.8355" lon="5.89157">
        <ele>643.4</ele>
        <time>2022-03-17T12:44:07Z</time>
      </trkpt>
      <trkpt lat="46.83546" lon="5.89153">
        <ele>643.7</ele>
        <time>2022-03-17T12:44:13Z</time>
      </trkpt>
      <trkpt lat="46.83541" lon="5.89149">
        <ele>644</ele>
        <time>2022-03-17T12:44:20Z</time>
      </trkpt>
      <trkpt lat="46.83536" lon="5.89151">
        <ele>644.1</ele>
        <time>2022-03-17T12:44:23Z</time>
      </trkpt>
      <trkpt lat="46.83531" lon="5.89151">
        <ele>645</ele>
        <time>2022-03-17T12:44:26Z</time>
      </trkpt>
      <trkpt lat="46.83526" lon="5.8915">
        <ele>646</ele>
        <time>2022-03-17T12:44:30Z</time>
      </trkpt>
      <trkpt lat="46.83522" lon="5.89149">
        <ele>646.7</ele>
        <time>2022-03-17T12:44:34Z</time>
      </trkpt>
      <trkpt lat="46.83516" lon="5.89148">
        <ele>647.3</ele>
        <time>2022-03-17T12:44:40Z</time>
      </trkpt>
      <trkpt lat="46.83511" lon="5.89147">
        <ele>647.5</ele>
        <time>2022-03-17T12:44:44Z</time>
      </trkpt>
      <trkpt lat="46.83505" lon="5.89147">
        <ele>648</ele>
        <time>2022-03-17T12:44:48Z</time>
      </trkpt>
      <trkpt lat="46.835" lon="5.89148">
        <ele>648.8</ele>
        <time>2022-03-17T12:44:52Z</time>
      </trkpt>
      <trkpt lat="46.83495" lon="5.89149">
        <ele>649.5</ele>
        <time>2022-03-17T12:44:56Z</time>
      </trkpt>
      <trkpt lat="46.8349" lon="5.89146">
        <ele>650.2</ele>
        <time>2022-03-17T12:45:00Z</time>
      </trkpt>
      <trkpt lat="46.83486" lon="5.89141">
        <ele>650.3</ele>
        <time>2022-03-17T12:45:06Z</time>
      </trkpt>
      <trkpt lat="46.83482" lon="5.89138">
        <ele>649.9</ele>
        <time>2022-03-17T12:45:11Z</time>
      </trkpt>
      <trkpt lat="46.83478" lon="5.89135">
        <ele>649.3</ele>
        <time>2022-03-17T12:45:16Z</time>
      </trkpt>
      <trkpt lat="46.83474" lon="5.8913">
        <ele>648.2</ele>
        <time>2022-03-17T12:45:21Z</time>
      </trkpt>
      <trkpt lat="46.83469" lon="5.89131">
        <ele>647.3</ele>
        <time>2022-03-17T12:45:25Z</time>
      </trkpt>
      <trkpt lat="46.83465" lon="5.89125">
        <ele>646.6</ele>
        <time>2022-03-17T12:45:30Z</time>
      </trkpt>
      <trkpt lat="46.83461" lon="5.89119">
        <ele>646.1</ele>
        <time>2022-03-17T12:45:35Z</time>
      </trkpt>
      <trkpt lat="46.83457" lon="5.89116">
        <ele>645.5</ele>
        <time>2022-03-17T12:45:39Z</time>
      </trkpt>
      <trkpt lat="46.83452" lon="5.89117">
        <ele>644.6</ele>
        <time>2022-03-17T12:45:43Z</time>
      </trkpt>
      <trkpt lat="46.83447" lon="5.89118">
        <ele>643.5</ele>
        <time>2022-03-17T12:45:47Z</time>
      </trkpt>
      <trkpt lat="46.83442" lon="5.89118">
        <ele>642.2</ele>
        <time>2022-03-17T12:45:51Z</time>
      </trkpt>
      <trkpt lat="46.83436" lon="5.8912">
        <ele>641.4</ele>
        <time>2022-03-17T12:45:56Z</time>
      </trkpt>
      <trkpt lat="46.83431" lon="5.89119">
        <ele>641.7</ele>
        <time>2022-03-17T12:46:02Z</time>
      </trkpt>
      <trkpt lat="46.83427" lon="5.89114">
        <ele>642.3</ele>
        <time>2022-03-17T12:46:07Z</time>
      </trkpt>
      <trkpt lat="46.83424" lon="5.89109">
        <ele>642.7</ele>
        <time>2022-03-17T12:46:11Z</time>
      </trkpt>
      <trkpt lat="46.83421" lon="5.89104">
        <ele>643.3</ele>
        <time>2022-03-17T12:46:16Z</time>
      </trkpt>
      <trkpt lat="46.83417" lon="5.89099">
        <ele>643.8</ele>
        <time>2022-03-17T12:46:21Z</time>
      </trkpt>
      <trkpt lat="46.83413" lon="5.89094">
        <ele>643.7</ele>
        <time>2022-03-17T12:46:26Z</time>
      </trkpt>
      <trkpt lat="46.83409" lon="5.8909">
        <ele>642.9</ele>
        <time>2022-03-17T12:46:31Z</time>
      </trkpt>
      <trkpt lat="46.83404" lon="5.89085">
        <ele>642.6</ele>
        <time>2022-03-17T12:46:37Z</time>
      </trkpt>
      <trkpt lat="46.83404" lon="5.89077">
        <ele>642.9</ele>
        <time>2022-03-17T12:46:41Z</time>
      </trkpt>
      <trkpt lat="46.83405" lon="5.8907">
        <ele>643.6</ele>
        <time>2022-03-17T12:46:45Z</time>
      </trkpt>
      <trkpt lat="46.83401" lon="5.89066">
        <ele>644.4</ele>
        <time>2022-03-17T12:46:50Z</time>
      </trkpt>
      <trkpt lat="46.83396" lon="5.89062">
        <ele>644.9</ele>
        <time>2022-03-17T12:46:56Z</time>
      </trkpt>
      <trkpt lat="46.83391" lon="5.8906">
        <ele>644.6</ele>
        <time>2022-03-17T12:46:59Z</time>
      </trkpt>
      <trkpt lat="46.83385" lon="5.89056">
        <ele>643.9</ele>
        <time>2022-03-17T12:47:02Z</time>
      </trkpt>
      <trkpt lat="46.83379" lon="5.89055">
        <ele>643.8</ele>
        <time>2022-03-17T12:47:05Z</time>
      </trkpt>
      <trkpt lat="46.83375" lon="5.89053">
        <ele>644.2</ele>
        <time>2022-03-17T12:47:08Z</time>
      </trkpt>
      <trkpt lat="46.8337" lon="5.89048">
        <ele>645</ele>
        <time>2022-03-17T12:47:12Z</time>
      </trkpt>
      <trkpt lat="46.83368" lon="5.89042">
        <ele>645.5</ele>
        <time>2022-03-17T12:47:15Z</time>
      </trkpt>
      <trkpt lat="46.83364" lon="5.89036">
        <ele>645.7</ele>
        <time>2022-03-17T12:47:19Z</time>
      </trkpt>
      <trkpt lat="46.83361" lon="5.89031">
        <ele>645.9</ele>
        <time>2022-03-17T12:47:24Z</time>
      </trkpt>
      <trkpt lat="46.83357" lon="5.89026">
        <ele>646.1</ele>
        <time>2022-03-17T12:47:30Z</time>
      </trkpt>
      <trkpt lat="46.83354" lon="5.89021">
        <ele>645.9</ele>
        <time>2022-03-17T12:47:34Z</time>
      </trkpt>
      <trkpt lat="46.83351" lon="5.89015">
        <ele>645.8</ele>
        <time>2022-03-17T12:47:38Z</time>
      </trkpt>
      <trkpt lat="46.83349" lon="5.8901">
        <ele>645.7</ele>
        <time>2022-03-17T12:47:42Z</time>
      </trkpt>
      <trkpt lat="46.83345" lon="5.89004">
        <ele>645.9</ele>
        <time>2022-03-17T12:47:46Z</time>
      </trkpt>
      <trkpt lat="46.83342" lon="5.88998">
        <ele>646.1</ele>
        <time>2022-03-17T12:47:50Z</time>
      </trkpt>
      <trkpt lat="46.83339" lon="5.88992">
        <ele>646.5</ele>
        <time>2022-03-17T12:47:55Z</time>
      </trkpt>
      <trkpt lat="46.83335" lon="5.88987">
        <ele>646.9</ele>
        <time>2022-03-17T12:48:00Z</time>
      </trkpt>
      <trkpt lat="46.83333" lon="5.88979">
        <ele>647.1</ele>
        <time>2022-03-17T12:48:05Z</time>
      </trkpt>
      <trkpt lat="46.8333" lon="5.88972">
        <ele>646.9</ele>
        <time>2022-03-17T12:48:09Z</time>
      </trkpt>
      <trkpt lat="46.83326" lon="5.88967">
        <ele>646.1</ele>
        <time>2022-03-17T12:48:13Z</time>
      </trkpt>
      <trkpt lat="46.83322" lon="5.88962">
        <ele>645.1</ele>
        <time>2022-03-17T12:48:18Z</time>
      </trkpt>
      <trkpt lat="46.83318" lon="5.88957">
        <ele>644.6</ele>
        <time>2022-03-17T12:48:23Z</time>
      </trkpt>
      <trkpt lat="46.83316" lon="5.88951">
        <ele>643.9</ele>
        <time>2022-03-17T12:48:27Z</time>
      </trkpt>
      <trkpt lat="46.83311" lon="5.88946">
        <ele>643.1</ele>
        <time>2022-03-17T12:48:32Z</time>
      </trkpt>
      <trkpt lat="46.83308" lon="5.88941">
        <ele>642.9</ele>
        <time>2022-03-17T12:48:37Z</time>
      </trkpt>
      <trkpt lat="46.83305" lon="5.88935">
        <ele>643.1</ele>
        <time>2022-03-17T12:48:42Z</time>
      </trkpt>
      <trkpt lat="46.83301" lon="5.88931">
        <ele>643.6</ele>
        <time>2022-03-17T12:48:48Z</time>
      </trkpt>
      <trkpt lat="46.83297" lon="5.88926">
        <ele>643.8</ele>
        <time>2022-03-17T12:48:54Z</time>
      </trkpt>
      <trkpt lat="46.83293" lon="5.88921">
        <ele>643.9</ele>
        <time>2022-03-17T12:48:58Z</time>
      </trkpt>
      <trkpt lat="46.83289" lon="5.88916">
        <ele>644.2</ele>
        <time>2022-03-17T12:49:02Z</time>
      </trkpt>
      <trkpt lat="46.83286" lon="5.88912">
        <ele>644.8</ele>
        <time>2022-03-17T12:49:06Z</time>
      </trkpt>
      <trkpt lat="46.83282" lon="5.88907">
        <ele>645.2</ele>
        <time>2022-03-17T12:49:10Z</time>
      </trkpt>
      <trkpt lat="46.83278" lon="5.88901">
        <ele>645.1</ele>
        <time>2022-03-17T12:49:14Z</time>
      </trkpt>
      <trkpt lat="46.83275" lon="5.88895">
        <ele>644.9</ele>
        <time>2022-03-17T12:49:19Z</time>
      </trkpt>
      <trkpt lat="46.8327" lon="5.88891">
        <ele>645</ele>
        <time>2022-03-17T12:49:23Z</time>
      </trkpt>
      <trkpt lat="46.83266" lon="5.88886">
        <ele>644.5</ele>
        <time>2022-03-17T12:49:27Z</time>
      </trkpt>
      <trkpt lat="46.83262" lon="5.88881">
        <ele>644.3</ele>
        <time>2022-03-17T12:49:31Z</time>
      </trkpt>
      <trkpt lat="46.8326" lon="5.88875">
        <ele>644.2</ele>
        <time>2022-03-17T12:49:35Z</time>
      </trkpt>
      <trkpt lat="46.83256" lon="5.8887">
        <ele>644.7</ele>
        <time>2022-03-17T12:49:39Z</time>
      </trkpt>
      <trkpt lat="46.83253" lon="5.88865">
        <ele>644.9</ele>
        <time>2022-03-17T12:49:43Z</time>
      </trkpt>
      <trkpt lat="46.8325" lon="5.8886">
        <ele>645.2</ele>
        <time>2022-03-17T12:49:47Z</time>
      </trkpt>
      <trkpt lat="46.83246" lon="5.88856">
        <ele>645.5</ele>
        <time>2022-03-17T12:49:51Z</time>
      </trkpt>
      <trkpt lat="46.83242" lon="5.88852">
        <ele>645.6</ele>
        <time>2022-03-17T12:49:55Z</time>
      </trkpt>
      <trkpt lat="46.83238" lon="5.88847">
        <ele>645.7</ele>
        <time>2022-03-17T12:50:00Z</time>
      </trkpt>
      <trkpt lat="46.83234" lon="5.88842">
        <ele>645.3</ele>
        <time>2022-03-17T12:50:05Z</time>
      </trkpt>
      <trkpt lat="46.8323" lon="5.88837">
        <ele>645</ele>
        <time>2022-03-17T12:50:09Z</time>
      </trkpt>
      <trkpt lat="46.83226" lon="5.88832">
        <ele>644.8</ele>
        <time>2022-03-17T12:50:13Z</time>
      </trkpt>
      <trkpt lat="46.83221" lon="5.88827">
        <ele>644.6</ele>
        <time>2022-03-17T12:50:18Z</time>
      </trkpt>
      <trkpt lat="46.83217" lon="5.88823">
        <ele>644.9</ele>
        <time>2022-03-17T12:50:22Z</time>
      </trkpt>
      <trkpt lat="46.83213" lon="5.88819">
        <ele>645.3</ele>
        <time>2022-03-17T12:50:26Z</time>
      </trkpt>
      <trkpt lat="46.83208" lon="5.88816">
        <ele>646.1</ele>
        <time>2022-03-17T12:50:30Z</time>
      </trkpt>
      <trkpt lat="46.83203" lon="5.88812">
        <ele>646.9</ele>
        <time>2022-03-17T12:50:34Z</time>
      </trkpt>
      <trkpt lat="46.83199" lon="5.8881">
        <ele>647.5</ele>
        <time>2022-03-17T12:50:38Z</time>
      </trkpt>
      <trkpt lat="46.83195" lon="5.88806">
        <ele>648</ele>
        <time>2022-03-17T12:50:42Z</time>
      </trkpt>
      <trkpt lat="46.8319" lon="5.88804">
        <ele>648.4</ele>
        <time>2022-03-17T12:50:46Z</time>
      </trkpt>
      <trkpt lat="46.83185" lon="5.88803">
        <ele>648.4</ele>
        <time>2022-03-17T12:50:50Z</time>
      </trkpt>
      <trkpt lat="46.8318" lon="5.88802">
        <ele>648.2</ele>
        <time>2022-03-17T12:50:54Z</time>
      </trkpt>
      <trkpt lat="46.83175" lon="5.88801">
        <ele>647.6</ele>
        <time>2022-03-17T12:50:58Z</time>
      </trkpt>
      <trkpt lat="46.83171" lon="5.888">
        <ele>646.5</ele>
        <time>2022-03-17T12:51:02Z</time>
      </trkpt>
      <trkpt lat="46.83166" lon="5.88797">
        <ele>645.5</ele>
        <time>2022-03-17T12:51:06Z</time>
      </trkpt>
      <trkpt lat="46.83162" lon="5.88793">
        <ele>644.6</ele>
        <time>2022-03-17T12:51:10Z</time>
      </trkpt>
      <trkpt lat="46.83157" lon="5.88789">
        <ele>642.7</ele>
        <time>2022-03-17T12:51:15Z</time>
      </trkpt>
      <trkpt lat="46.83153" lon="5.88787">
        <ele>640.9</ele>
        <time>2022-03-17T12:51:20Z</time>
      </trkpt>
      <trkpt lat="46.83148" lon="5.88785">
        <ele>639.9</ele>
        <time>2022-03-17T12:51:24Z</time>
      </trkpt>
      <trkpt lat="46.83144" lon="5.88783">
        <ele>639</ele>
        <time>2022-03-17T12:51:28Z</time>
      </trkpt>
      <trkpt lat="46.83139" lon="5.88779">
        <ele>638.3</ele>
        <time>2022-03-17T12:51:33Z</time>
      </trkpt>
      <trkpt lat="46.83135" lon="5.88774">
        <ele>637.8</ele>
        <time>2022-03-17T12:51:38Z</time>
      </trkpt>
      <trkpt lat="46.8313" lon="5.88773">
        <ele>637.9</ele>
        <time>2022-03-17T12:51:42Z</time>
      </trkpt>
      <trkpt lat="46.83125" lon="5.88771">
        <ele>638.1</ele>
        <time>2022-03-17T12:51:46Z</time>
      </trkpt>
      <trkpt lat="46.8312" lon="5.88768">
        <ele>638.8</ele>
        <time>2022-03-17T12:51:50Z</time>
      </trkpt>
      <trkpt lat="46.83115" lon="5.88766">
        <ele>639.7</ele>
        <time>2022-03-17T12:51:55Z</time>
      </trkpt>
      <trkpt lat="46.8311" lon="5.88765">
        <ele>640.3</ele>
        <time>2022-03-17T12:51:59Z</time>
      </trkpt>
      <trkpt lat="46.83105" lon="5.88763">
        <ele>640.6</ele>
        <time>2022-03-17T12:52:03Z</time>
      </trkpt>
      <trkpt lat="46.83101" lon="5.88762">
        <ele>640.5</ele>
        <time>2022-03-17T12:52:07Z</time>
      </trkpt>
      <trkpt lat="46.83095" lon="5.88761">
        <ele>640.4</ele>
        <time>2022-03-17T12:52:12Z</time>
      </trkpt>
      <trkpt lat="46.83091" lon="5.88758">
        <ele>640.6</ele>
        <time>2022-03-17T12:52:18Z</time>
      </trkpt>
      <trkpt lat="46.83087" lon="5.88754">
        <ele>640.5</ele>
        <time>2022-03-17T12:52:24Z</time>
      </trkpt>
      <trkpt lat="46.83082" lon="5.8875">
        <ele>639.9</ele>
        <time>2022-03-17T12:52:30Z</time>
      </trkpt>
      <trkpt lat="46.83078" lon="5.88747">
        <ele>638.8</ele>
        <time>2022-03-17T12:52:35Z</time>
      </trkpt>
      <trkpt lat="46.83073" lon="5.88744">
        <ele>638</ele>
        <time>2022-03-17T12:52:40Z</time>
      </trkpt>
      <trkpt lat="46.83068" lon="5.88742">
        <ele>638</ele>
        <time>2022-03-17T12:52:44Z</time>
      </trkpt>
      <trkpt lat="46.83062" lon="5.88741">
        <ele>637.9</ele>
        <time>2022-03-17T12:52:47Z</time>
      </trkpt>
      <trkpt lat="46.83057" lon="5.88739">
        <ele>637.9</ele>
        <time>2022-03-17T12:52:50Z</time>
      </trkpt>
      <trkpt lat="46.83053" lon="5.88735">
        <ele>638.2</ele>
        <time>2022-03-17T12:52:54Z</time>
      </trkpt>
      <trkpt lat="46.83048" lon="5.88731">
        <ele>638.4</ele>
        <time>2022-03-17T12:52:59Z</time>
      </trkpt>
      <trkpt lat="46.83045" lon="5.88725">
        <ele>638.5</ele>
        <time>2022-03-17T12:53:04Z</time>
      </trkpt>
      <trkpt lat="46.83041" lon="5.8872">
        <ele>638.4</ele>
        <time>2022-03-17T12:53:08Z</time>
      </trkpt>
      <trkpt lat="46.83038" lon="5.88714">
        <ele>638.5</ele>
        <time>2022-03-17T12:53:13Z</time>
      </trkpt>
      <trkpt lat="46.83036" lon="5.88707">
        <ele>638.3</ele>
        <time>2022-03-17T12:53:18Z</time>
      </trkpt>
      <trkpt lat="46.83032" lon="5.88701">
        <ele>638.2</ele>
        <time>2022-03-17T12:53:22Z</time>
      </trkpt>
      <trkpt lat="46.83029" lon="5.88695">
        <ele>637.9</ele>
        <time>2022-03-17T12:53:27Z</time>
      </trkpt>
      <trkpt lat="46.83028" lon="5.88687">
        <ele>638</ele>
        <time>2022-03-17T12:53:31Z</time>
      </trkpt>
      <trkpt lat="46.83024" lon="5.88682">
        <ele>637.8</ele>
        <time>2022-03-17T12:53:36Z</time>
      </trkpt>
      <trkpt lat="46.83019" lon="5.88679">
        <ele>637.6</ele>
        <time>2022-03-17T12:53:41Z</time>
      </trkpt>
      <trkpt lat="46.83015" lon="5.88677">
        <ele>637</ele>
        <time>2022-03-17T12:53:45Z</time>
      </trkpt>
      <trkpt lat="46.8301" lon="5.88677">
        <ele>635.9</ele>
        <time>2022-03-17T12:53:50Z</time>
      </trkpt>
      <trkpt lat="46.83005" lon="5.88674">
        <ele>635.2</ele>
        <time>2022-03-17T12:53:55Z</time>
      </trkpt>
      <trkpt lat="46.83001" lon="5.8867">
        <ele>634.5</ele>
        <time>2022-03-17T12:54:00Z</time>
      </trkpt>
      <trkpt lat="46.82996" lon="5.88667">
        <ele>634.1</ele>
        <time>2022-03-17T12:54:04Z</time>
      </trkpt>
      <trkpt lat="46.82992" lon="5.88666">
        <ele>634</ele>
        <time>2022-03-17T12:54:07Z</time>
      </trkpt>
      <trkpt lat="46.82986" lon="5.88665">
        <ele>634.1</ele>
        <time>2022-03-17T12:54:11Z</time>
      </trkpt>
      <trkpt lat="46.82982" lon="5.88663">
        <ele>634.2</ele>
        <time>2022-03-17T12:54:15Z</time>
      </trkpt>
      <trkpt lat="46.82977" lon="5.88662">
        <ele>634.3</ele>
        <time>2022-03-17T12:54:19Z</time>
      </trkpt>
      <trkpt lat="46.82973" lon="5.8866">
        <ele>634.3</ele>
        <time>2022-03-17T12:54:23Z</time>
      </trkpt>
      <trkpt lat="46.82968" lon="5.88657">
        <ele>634.1</ele>
        <time>2022-03-17T12:54:27Z</time>
      </trkpt>
      <trkpt lat="46.82964" lon="5.88653">
        <ele>634.3</ele>
        <time>2022-03-17T12:54:32Z</time>
      </trkpt>
      <trkpt lat="46.8296" lon="5.88649">
        <ele>634.3</ele>
        <time>2022-03-17T12:54:36Z</time>
      </trkpt>
      <trkpt lat="46.82956" lon="5.88644">
        <ele>634.4</ele>
        <time>2022-03-17T12:54:40Z</time>
      </trkpt>
      <trkpt lat="46.82953" lon="5.88639">
        <ele>634.7</ele>
        <time>2022-03-17T12:54:44Z</time>
      </trkpt>
      <trkpt lat="46.82949" lon="5.88632">
        <ele>635.3</ele>
        <time>2022-03-17T12:54:49Z</time>
      </trkpt>
      <trkpt lat="46.82946" lon="5.88627">
        <ele>635.7</ele>
        <time>2022-03-17T12:54:53Z</time>
      </trkpt>
      <trkpt lat="46.82943" lon="5.88621">
        <ele>636.4</ele>
        <time>2022-03-17T12:54:57Z</time>
      </trkpt>
      <trkpt lat="46.82939" lon="5.88616">
        <ele>637.1</ele>
        <time>2022-03-17T12:55:01Z</time>
      </trkpt>
      <trkpt lat="46.82935" lon="5.88611">
        <ele>637.7</ele>
        <time>2022-03-17T12:55:05Z</time>
      </trkpt>
      <trkpt lat="46.82933" lon="5.88606">
        <ele>638.3</ele>
        <time>2022-03-17T12:55:10Z</time>
      </trkpt>
      <trkpt lat="46.8293" lon="5.88601">
        <ele>638</ele>
        <time>2022-03-17T12:55:15Z</time>
      </trkpt>
      <trkpt lat="46.82927" lon="5.88595">
        <ele>637.3</ele>
        <time>2022-03-17T12:55:19Z</time>
      </trkpt>
      <trkpt lat="46.82922" lon="5.8859">
        <ele>637</ele>
        <time>2022-03-17T12:55:23Z</time>
      </trkpt>
      <trkpt lat="46.82918" lon="5.88584">
        <ele>637.2</ele>
        <time>2022-03-17T12:55:26Z</time>
      </trkpt>
      <trkpt lat="46.82916" lon="5.88577">
        <ele>637.6</ele>
        <time>2022-03-17T12:55:30Z</time>
      </trkpt>
      <trkpt lat="46.82914" lon="5.8857">
        <ele>637.4</ele>
        <time>2022-03-17T12:55:36Z</time>
      </trkpt>
      <trkpt lat="46.82913" lon="5.88564">
        <ele>636.8</ele>
        <time>2022-03-17T12:55:40Z</time>
      </trkpt>
      <trkpt lat="46.8291" lon="5.88558">
        <ele>636.5</ele>
        <time>2022-03-17T12:55:44Z</time>
      </trkpt>
      <trkpt lat="46.82907" lon="5.88553">
        <ele>635.9</ele>
        <time>2022-03-17T12:55:48Z</time>
      </trkpt>
      <trkpt lat="46.82904" lon="5.88548">
        <ele>636.3</ele>
        <time>2022-03-17T12:55:52Z</time>
      </trkpt>
      <trkpt lat="46.829" lon="5.88544">
        <ele>637.1</ele>
        <time>2022-03-17T12:55:56Z</time>
      </trkpt>
      <trkpt lat="46.82898" lon="5.88536">
        <ele>637.5</ele>
        <time>2022-03-17T12:56:01Z</time>
      </trkpt>
      <trkpt lat="46.82895" lon="5.8853">
        <ele>637.5</ele>
        <time>2022-03-17T12:56:05Z</time>
      </trkpt>
      <trkpt lat="46.82893" lon="5.88525">
        <ele>637.3</ele>
        <time>2022-03-17T12:56:08Z</time>
      </trkpt>
      <trkpt lat="46.8289" lon="5.88518">
        <ele>637.1</ele>
        <time>2022-03-17T12:56:12Z</time>
      </trkpt>
      <trkpt lat="46.82888" lon="5.8851">
        <ele>637.2</ele>
        <time>2022-03-17T12:56:17Z</time>
      </trkpt>
      <trkpt lat="46.82886" lon="5.88504">
        <ele>637.5</ele>
        <time>2022-03-17T12:56:21Z</time>
      </trkpt>
      <trkpt lat="46.82883" lon="5.88497">
        <ele>637.9</ele>
        <time>2022-03-17T12:56:26Z</time>
      </trkpt>
      <trkpt lat="46.82881" lon="5.8849">
        <ele>637.6</ele>
        <time>2022-03-17T12:56:30Z</time>
      </trkpt>
      <trkpt lat="46.82878" lon="5.88485">
        <ele>637.4</ele>
        <time>2022-03-17T12:56:34Z</time>
      </trkpt>
      <trkpt lat="46.82876" lon="5.88477">
        <ele>636.9</ele>
        <time>2022-03-17T12:56:39Z</time>
      </trkpt>
      <trkpt lat="46.82873" lon="5.88471">
        <ele>636.7</ele>
        <time>2022-03-17T12:56:43Z</time>
      </trkpt>
      <trkpt lat="46.8287" lon="5.88464">
        <ele>637</ele>
        <time>2022-03-17T12:56:47Z</time>
      </trkpt>
      <trkpt lat="46.82868" lon="5.88458">
        <ele>637.4</ele>
        <time>2022-03-17T12:56:51Z</time>
      </trkpt>
      <trkpt lat="46.82865" lon="5.88452">
        <ele>637.9</ele>
        <time>2022-03-17T12:56:55Z</time>
      </trkpt>
      <trkpt lat="46.82863" lon="5.88445">
        <ele>638.9</ele>
        <time>2022-03-17T12:56:59Z</time>
      </trkpt>
      <trkpt lat="46.82861" lon="5.88439">
        <ele>639.7</ele>
        <time>2022-03-17T12:57:03Z</time>
      </trkpt>
      <trkpt lat="46.8286" lon="5.88431">
        <ele>640.4</ele>
        <time>2022-03-17T12:57:07Z</time>
      </trkpt>
      <trkpt lat="46.82859" lon="5.88424">
        <ele>641.1</ele>
        <time>2022-03-17T12:57:11Z</time>
      </trkpt>
      <trkpt lat="46.82858" lon="5.88418">
        <ele>642.2</ele>
        <time>2022-03-17T12:57:16Z</time>
      </trkpt>
      <trkpt lat="46.82856" lon="5.88412">
        <ele>642.6</ele>
        <time>2022-03-17T12:57:20Z</time>
      </trkpt>
      <trkpt lat="46.82853" lon="5.88406">
        <ele>643.3</ele>
        <time>2022-03-17T12:57:24Z</time>
      </trkpt>
      <trkpt lat="46.8285" lon="5.884">
        <ele>644.3</ele>
        <time>2022-03-17T12:57:28Z</time>
      </trkpt>
      <trkpt lat="46.82847" lon="5.88395">
        <ele>645.7</ele>
        <time>2022-03-17T12:57:33Z</time>
      </trkpt>
      <trkpt lat="46.82846" lon="5.88388">
        <ele>646.2</ele>
        <time>2022-03-17T12:57:37Z</time>
      </trkpt>
      <trkpt lat="46.82845" lon="5.88381">
        <ele>646.2</ele>
        <time>2022-03-17T12:57:42Z</time>
      </trkpt>
      <trkpt lat="46.82847" lon="5.88373">
        <ele>646.6</ele>
        <time>2022-03-17T12:57:47Z</time>
      </trkpt>
      <trkpt lat="46.82849" lon="5.88365">
        <ele>647.4</ele>
        <time>2022-03-17T12:57:51Z</time>
      </trkpt>
      <trkpt lat="46.82851" lon="5.88358">
        <ele>647.8</ele>
        <time>2022-03-17T12:57:56Z</time>
      </trkpt>
      <trkpt lat="46.82852" lon="5.88351">
        <ele>648.2</ele>
        <time>2022-03-17T12:58:01Z</time>
      </trkpt>
      <trkpt lat="46.82851" lon="5.88344">
        <ele>648.7</ele>
        <time>2022-03-17T12:58:05Z</time>
      </trkpt>
      <trkpt lat="46.8285" lon="5.88337">
        <ele>649.5</ele>
        <time>2022-03-17T12:58:09Z</time>
      </trkpt>
      <trkpt lat="46.82851" lon="5.88331">
        <ele>650.1</ele>
        <time>2022-03-17T12:58:13Z</time>
      </trkpt>
      <trkpt lat="46.8285" lon="5.88323">
        <ele>651</ele>
        <time>2022-03-17T12:58:18Z</time>
      </trkpt>
      <trkpt lat="46.82851" lon="5.88316">
        <ele>651.6</ele>
        <time>2022-03-17T12:58:22Z</time>
      </trkpt>
      <trkpt lat="46.82853" lon="5.88309">
        <ele>652</ele>
        <time>2022-03-17T12:58:26Z</time>
      </trkpt>
      <trkpt lat="46.82854" lon="5.88302">
        <ele>652.6</ele>
        <time>2022-03-17T12:58:30Z</time>
      </trkpt>
      <trkpt lat="46.82854" lon="5.88295">
        <ele>653.3</ele>
        <time>2022-03-17T12:58:34Z</time>
      </trkpt>
      <trkpt lat="46.82852" lon="5.88286">
        <ele>653.8</ele>
        <time>2022-03-17T12:58:39Z</time>
      </trkpt>
      <trkpt lat="46.82851" lon="5.88279">
        <ele>653.7</ele>
        <time>2022-03-17T12:58:44Z</time>
      </trkpt>
      <trkpt lat="46.82853" lon="5.88273">
        <ele>653.6</ele>
        <time>2022-03-17T12:58:48Z</time>
      </trkpt>
      <trkpt lat="46.82852" lon="5.88265">
        <ele>653.6</ele>
        <time>2022-03-17T12:58:52Z</time>
      </trkpt>
      <trkpt lat="46.82851" lon="5.88258">
        <ele>654.1</ele>
        <time>2022-03-17T12:58:56Z</time>
      </trkpt>
      <trkpt lat="46.82851" lon="5.88251">
        <ele>654.1</ele>
        <time>2022-03-17T12:59:00Z</time>
      </trkpt>
      <trkpt lat="46.82851" lon="5.88243">
        <ele>654.2</ele>
        <time>2022-03-17T12:59:04Z</time>
      </trkpt>
      <trkpt lat="46.82851" lon="5.88235">
        <ele>654.1</ele>
        <time>2022-03-17T12:59:09Z</time>
      </trkpt>
      <trkpt lat="46.82849" lon="5.88228">
        <ele>654.5</ele>
        <time>2022-03-17T12:59:14Z</time>
      </trkpt>
      <trkpt lat="46.82847" lon="5.88221">
        <ele>654.9</ele>
        <time>2022-03-17T12:59:18Z</time>
      </trkpt>
      <trkpt lat="46.82844" lon="5.88214">
        <ele>654.8</ele>
        <time>2022-03-17T12:59:22Z</time>
      </trkpt>
      <trkpt lat="46.82842" lon="5.88207">
        <ele>654.5</ele>
        <time>2022-03-17T12:59:26Z</time>
      </trkpt>
      <trkpt lat="46.82842" lon="5.882">
        <ele>654.2</ele>
        <time>2022-03-17T12:59:30Z</time>
      </trkpt>
      <trkpt lat="46.82841" lon="5.88192">
        <ele>654.1</ele>
        <time>2022-03-17T12:59:35Z</time>
      </trkpt>
      <trkpt lat="46.82839" lon="5.88184">
        <ele>653.8</ele>
        <time>2022-03-17T12:59:39Z</time>
      </trkpt>
      <trkpt lat="46.82836" lon="5.88178">
        <ele>653.9</ele>
        <time>2022-03-17T12:59:43Z</time>
      </trkpt>
      <trkpt lat="46.82832" lon="5.88171">
        <ele>654.3</ele>
        <time>2022-03-17T12:59:47Z</time>
      </trkpt>
      <trkpt lat="46.82829" lon="5.88165">
        <ele>654.4</ele>
        <time>2022-03-17T12:59:51Z</time>
      </trkpt>
      <trkpt lat="46.82827" lon="5.88159">
        <ele>653.7</ele>
        <time>2022-03-17T12:59:55Z</time>
      </trkpt>
      <trkpt lat="46.82824" lon="5.88151">
        <ele>653</ele>
        <time>2022-03-17T13:00:00Z</time>
      </trkpt>
      <trkpt lat="46.82823" lon="5.88145">
        <ele>652.4</ele>
        <time>2022-03-17T13:00:04Z</time>
      </trkpt>
      <trkpt lat="46.82822" lon="5.88138">
        <ele>652.4</ele>
        <time>2022-03-17T13:00:07Z</time>
      </trkpt>
      <trkpt lat="46.82821" lon="5.8813">
        <ele>652.8</ele>
        <time>2022-03-17T13:00:11Z</time>
      </trkpt>
      <trkpt lat="46.82821" lon="5.88122">
        <ele>653.5</ele>
        <time>2022-03-17T13:00:15Z</time>
      </trkpt>
      <trkpt lat="46.8282" lon="5.88115">
        <ele>654.5</ele>
        <time>2022-03-17T13:00:19Z</time>
      </trkpt>
      <trkpt lat="46.82821" lon="5.88108">
        <ele>655.3</ele>
        <time>2022-03-17T13:00:23Z</time>
      </trkpt>
      <trkpt lat="46.8282" lon="5.88101">
        <ele>656</ele>
        <time>2022-03-17T13:00:27Z</time>
      </trkpt>
      <trkpt lat="46.82817" lon="5.88094">
        <ele>656.4</ele>
        <time>2022-03-17T13:00:31Z</time>
      </trkpt>
      <trkpt lat="46.82814" lon="5.88089">
        <ele>657.3</ele>
        <time>2022-03-17T13:00:35Z</time>
      </trkpt>
      <trkpt lat="46.82811" lon="5.88083">
        <ele>658.4</ele>
        <time>2022-03-17T13:00:39Z</time>
      </trkpt>
      <trkpt lat="46.8281" lon="5.88076">
        <ele>659</ele>
        <time>2022-03-17T13:00:44Z</time>
      </trkpt>
      <trkpt lat="46.82809" lon="5.88068">
        <ele>659.5</ele>
        <time>2022-03-17T13:00:49Z</time>
      </trkpt>
      <trkpt lat="46.82808" lon="5.88061">
        <ele>660</ele>
        <time>2022-03-17T13:00:54Z</time>
      </trkpt>
      <trkpt lat="46.82806" lon="5.88053">
        <ele>660.3</ele>
        <time>2022-03-17T13:00:58Z</time>
      </trkpt>
      <trkpt lat="46.82805" lon="5.88045">
        <ele>661.2</ele>
        <time>2022-03-17T13:01:03Z</time>
      </trkpt>
      <trkpt lat="46.82804" lon="5.88038">
        <ele>661.3</ele>
        <time>2022-03-17T13:01:07Z</time>
      </trkpt>
      <trkpt lat="46.82802" lon="5.8803">
        <ele>660.9</ele>
        <time>2022-03-17T13:01:12Z</time>
      </trkpt>
      <trkpt lat="46.828" lon="5.88022">
        <ele>660.8</ele>
        <time>2022-03-17T13:01:16Z</time>
      </trkpt>
      <trkpt lat="46.82799" lon="5.88015">
        <ele>660.9</ele>
        <time>2022-03-17T13:01:19Z</time>
      </trkpt>
      <trkpt lat="46.82799" lon="5.88008">
        <ele>661</ele>
        <time>2022-03-17T13:01:23Z</time>
      </trkpt>
      <trkpt lat="46.82796" lon="5.88001">
        <ele>661.4</ele>
        <time>2022-03-17T13:01:28Z</time>
      </trkpt>
      <trkpt lat="46.82795" lon="5.87994">
        <ele>661.5</ele>
        <time>2022-03-17T13:01:32Z</time>
      </trkpt>
      <trkpt lat="46.82794" lon="5.87987">
        <ele>661.3</ele>
        <time>2022-03-17T13:01:37Z</time>
      </trkpt>
      <trkpt lat="46.82793" lon="5.87979">
        <ele>661.1</ele>
        <time>2022-03-17T13:01:42Z</time>
      </trkpt>
      <trkpt lat="46.82792" lon="5.8797">
        <ele>661.3</ele>
        <time>2022-03-17T13:01:47Z</time>
      </trkpt>
      <trkpt lat="46.82792" lon="5.87963">
        <ele>661.6</ele>
        <time>2022-03-17T13:01:51Z</time>
      </trkpt>
      <trkpt lat="46.82792" lon="5.87956">
        <ele>662.2</ele>
        <time>2022-03-17T13:01:56Z</time>
      </trkpt>
      <trkpt lat="46.8279" lon="5.8795">
        <ele>662.9</ele>
        <time>2022-03-17T13:02:00Z</time>
      </trkpt>
      <trkpt lat="46.82788" lon="5.87943">
        <ele>664</ele>
        <time>2022-03-17T13:02:05Z</time>
      </trkpt>
      <trkpt lat="46.82788" lon="5.87935">
        <ele>665</ele>
        <time>2022-03-17T13:02:10Z</time>
      </trkpt>
      <trkpt lat="46.82786" lon="5.87928">
        <ele>666.4</ele>
        <time>2022-03-17T13:02:15Z</time>
      </trkpt>
      <trkpt lat="46.82784" lon="5.87921">
        <ele>667.4</ele>
        <time>2022-03-17T13:02:19Z</time>
      </trkpt>
      <trkpt lat="46.82784" lon="5.87913">
        <ele>667.9</ele>
        <time>2022-03-17T13:02:23Z</time>
      </trkpt>
      <trkpt lat="46.82784" lon="5.87906">
        <ele>667.9</ele>
        <time>2022-03-17T13:02:28Z</time>
      </trkpt>
      <trkpt lat="46.82781" lon="5.87901">
        <ele>667.3</ele>
        <time>2022-03-17T13:02:33Z</time>
      </trkpt>
      <trkpt lat="46.82779" lon="5.87894">
        <ele>667.2</ele>
        <time>2022-03-17T13:02:36Z</time>
      </trkpt>
      <trkpt lat="46.82779" lon="5.87886">
        <ele>667.1</ele>
        <time>2022-03-17T13:02:40Z</time>
      </trkpt>
      <trkpt lat="46.82778" lon="5.87877">
        <ele>667.2</ele>
        <time>2022-03-17T13:02:44Z</time>
      </trkpt>
      <trkpt lat="46.82776" lon="5.8787">
        <ele>667.2</ele>
        <time>2022-03-17T13:02:48Z</time>
      </trkpt>
      <trkpt lat="46.82776" lon="5.87863">
        <ele>667.8</ele>
        <time>2022-03-17T13:02:52Z</time>
      </trkpt>
      <trkpt lat="46.82777" lon="5.87856">
        <ele>668.9</ele>
        <time>2022-03-17T13:02:56Z</time>
      </trkpt>
      <trkpt lat="46.82778" lon="5.87849">
        <ele>669.9</ele>
        <time>2022-03-17T13:03:00Z</time>
      </trkpt>
      <trkpt lat="46.82778" lon="5.87842">
        <ele>670</ele>
        <time>2022-03-17T13:03:05Z</time>
      </trkpt>
      <trkpt lat="46.82776" lon="5.87835">
        <ele>669.6</ele>
        <time>2022-03-17T13:03:09Z</time>
      </trkpt>
      <trkpt lat="46.82774" lon="5.87829">
        <ele>669.2</ele>
        <time>2022-03-17T13:03:14Z</time>
      </trkpt>
      <trkpt lat="46.82774" lon="5.87822">
        <ele>668.6</ele>
        <time>2022-03-17T13:03:19Z</time>
      </trkpt>
      <trkpt lat="46.82773" lon="5.87815">
        <ele>668.2</ele>
        <time>2022-03-17T13:03:23Z</time>
      </trkpt>
      <trkpt lat="46.82771" lon="5.87808">
        <ele>668</ele>
        <time>2022-03-17T13:03:27Z</time>
      </trkpt>
      <trkpt lat="46.82769" lon="5.87801">
        <ele>667.5</ele>
        <time>2022-03-17T13:03:31Z</time>
      </trkpt>
      <trkpt lat="46.82766" lon="5.87795">
        <ele>667.3</ele>
        <time>2022-03-17T13:03:36Z</time>
      </trkpt>
      <trkpt lat="46.82764" lon="5.87788">
        <ele>667.5</ele>
        <time>2022-03-17T13:03:40Z</time>
      </trkpt>
      <trkpt lat="46.82761" lon="5.87781">
        <ele>668</ele>
        <time>2022-03-17T13:03:44Z</time>
      </trkpt>
      <trkpt lat="46.82759" lon="5.87775">
        <ele>668.4</ele>
        <time>2022-03-17T13:03:47Z</time>
      </trkpt>
      <trkpt lat="46.82757" lon="5.8777">
        <ele>668.9</ele>
        <time>2022-03-17T13:03:51Z</time>
      </trkpt>
      <trkpt lat="46.82755" lon="5.87763">
        <ele>669.2</ele>
        <time>2022-03-17T13:03:55Z</time>
      </trkpt>
      <trkpt lat="46.82754" lon="5.87756">
        <ele>669.4</ele>
        <time>2022-03-17T13:03:59Z</time>
      </trkpt>
      <trkpt lat="46.82751" lon="5.87749">
        <ele>669.8</ele>
        <time>2022-03-17T13:04:04Z</time>
      </trkpt>
      <trkpt lat="46.82749" lon="5.87743">
        <ele>670.3</ele>
        <time>2022-03-17T13:04:08Z</time>
      </trkpt>
      <trkpt lat="46.82746" lon="5.87737">
        <ele>671.1</ele>
        <time>2022-03-17T13:04:12Z</time>
      </trkpt>
      <trkpt lat="46.82744" lon="5.87731">
        <ele>671.5</ele>
        <time>2022-03-17T13:04:16Z</time>
      </trkpt>
      <trkpt lat="46.82743" lon="5.87724">
        <ele>671.5</ele>
        <time>2022-03-17T13:04:20Z</time>
      </trkpt>
      <trkpt lat="46.82742" lon="5.87716">
        <ele>671.6</ele>
        <time>2022-03-17T13:04:24Z</time>
      </trkpt>
      <trkpt lat="46.82742" lon="5.87709">
        <ele>672</ele>
        <time>2022-03-17T13:04:28Z</time>
      </trkpt>
      <trkpt lat="46.82742" lon="5.87702">
        <ele>672.7</ele>
        <time>2022-03-17T13:04:33Z</time>
      </trkpt>
      <trkpt lat="46.82741" lon="5.87694">
        <ele>673.1</ele>
        <time>2022-03-17T13:04:37Z</time>
      </trkpt>
      <trkpt lat="46.82741" lon="5.87687">
        <ele>673</ele>
        <time>2022-03-17T13:04:41Z</time>
      </trkpt>
      <trkpt lat="46.82741" lon="5.87679">
        <ele>672.9</ele>
        <time>2022-03-17T13:04:45Z</time>
      </trkpt>
      <trkpt lat="46.82741" lon="5.87672">
        <ele>672.8</ele>
        <time>2022-03-17T13:04:48Z</time>
      </trkpt>
      <trkpt lat="46.8274" lon="5.87665">
        <ele>672.4</ele>
        <time>2022-03-17T13:04:51Z</time>
      </trkpt>
      <trkpt lat="46.82739" lon="5.87659">
        <ele>672.3</ele>
        <time>2022-03-17T13:04:55Z</time>
      </trkpt>
      <trkpt lat="46.82738" lon="5.87651">
        <ele>672.4</ele>
        <time>2022-03-17T13:05:00Z</time>
      </trkpt>
      <trkpt lat="46.82741" lon="5.87646">
        <ele>672.3</ele>
        <time>2022-03-17T13:05:04Z</time>
      </trkpt>
      <trkpt lat="46.82744" lon="5.8764">
        <ele>671.4</ele>
        <time>2022-03-17T13:05:08Z</time>
      </trkpt>
      <trkpt lat="46.82745" lon="5.87632">
        <ele>670.8</ele>
        <time>2022-03-17T13:05:12Z</time>
      </trkpt>
      <trkpt lat="46.82747" lon="5.87625">
        <ele>670.4</ele>
        <time>2022-03-17T13:05:16Z</time>
      </trkpt>
      <trkpt lat="46.82748" lon="5.87618">
        <ele>670.1</ele>
        <time>2022-03-17T13:05:19Z</time>
      </trkpt>
      <trkpt lat="46.82749" lon="5.87611">
        <ele>669.6</ele>
        <time>2022-03-17T13:05:23Z</time>
      </trkpt>
      <trkpt lat="46.8275" lon="5.87604">
        <ele>669.2</ele>
        <time>2022-03-17T13:05:27Z</time>
      </trkpt>
      <trkpt lat="46.82751" lon="5.87597">
        <ele>668.9</ele>
        <time>2022-03-17T13:05:31Z</time>
      </trkpt>
      <trkpt lat="46.82752" lon="5.8759">
        <ele>668.8</ele>
        <time>2022-03-17T13:05:35Z</time>
      </trkpt>
      <trkpt lat="46.82754" lon="5.87582">
        <ele>668.8</ele>
        <time>2022-03-17T13:05:39Z</time>
      </trkpt>
      <trkpt lat="46.82755" lon="5.87575">
        <ele>669.1</ele>
        <time>2022-03-17T13:05:43Z</time>
      </trkpt>
      <trkpt lat="46.82755" lon="5.87568">
        <ele>669.3</ele>
        <time>2022-03-17T13:05:48Z</time>
      </trkpt>
      <trkpt lat="46.82755" lon="5.87561">
        <ele>669.1</ele>
        <time>2022-03-17T13:05:52Z</time>
      </trkpt>
      <trkpt lat="46.82755" lon="5.87555">
        <ele>668.7</ele>
        <time>2022-03-17T13:05:56Z</time>
      </trkpt>
      <trkpt lat="46.82755" lon="5.87548">
        <ele>667.7</ele>
        <time>2022-03-17T13:06:00Z</time>
      </trkpt>
      <trkpt lat="46.82753" lon="5.8754">
        <ele>666.2</ele>
        <time>2022-03-17T13:06:05Z</time>
      </trkpt>
      <trkpt lat="46.82754" lon="5.87532">
        <ele>665.1</ele>
        <time>2022-03-17T13:06:11Z</time>
      </trkpt>
      <trkpt lat="46.82755" lon="5.87525">
        <ele>664.7</ele>
        <time>2022-03-17T13:06:15Z</time>
      </trkpt>
      <trkpt lat="46.82755" lon="5.87518">
        <ele>664.4</ele>
        <time>2022-03-17T13:06:20Z</time>
      </trkpt>
      <trkpt lat="46.82754" lon="5.8751">
        <ele>664</ele>
        <time>2022-03-17T13:06:25Z</time>
      </trkpt>
      <trkpt lat="46.82754" lon="5.87503">
        <ele>663.7</ele>
        <time>2022-03-17T13:06:29Z</time>
      </trkpt>
      <trkpt lat="46.82753" lon="5.87496">
        <ele>664.1</ele>
        <time>2022-03-17T13:06:35Z</time>
      </trkpt>
      <trkpt lat="46.82751" lon="5.8749">
        <ele>664.7</ele>
        <time>2022-03-17T13:06:40Z</time>
      </trkpt>
      <trkpt lat="46.82749" lon="5.87483">
        <ele>664.7</ele>
        <time>2022-03-17T13:06:45Z</time>
      </trkpt>
      <trkpt lat="46.8275" lon="5.87476">
        <ele>664.4</ele>
        <time>2022-03-17T13:06:49Z</time>
      </trkpt>
      <trkpt lat="46.8275" lon="5.87467">
        <ele>664.2</ele>
        <time>2022-03-17T13:06:53Z</time>
      </trkpt>
      <trkpt lat="46.82752" lon="5.87461">
        <ele>664.5</ele>
        <time>2022-03-17T13:06:57Z</time>
      </trkpt>
      <trkpt lat="46.82757" lon="5.87461">
        <ele>664.4</ele>
        <time>2022-03-17T13:07:03Z</time>
      </trkpt>
      <trkpt lat="46.82762" lon="5.87464">
        <ele>664</ele>
        <time>2022-03-17T13:07:08Z</time>
      </trkpt>
      <trkpt lat="46.82766" lon="5.87465">
        <ele>663.5</ele>
        <time>2022-03-17T13:07:12Z</time>
      </trkpt>
      <trkpt lat="46.82771" lon="5.87468">
        <ele>663.3</ele>
        <time>2022-03-17T13:07:16Z</time>
      </trkpt>
      <trkpt lat="46.82776" lon="5.87471">
        <ele>663.4</ele>
        <time>2022-03-17T13:07:20Z</time>
      </trkpt>
      <trkpt lat="46.82781" lon="5.87474">
        <ele>663.3</ele>
        <time>2022-03-17T13:07:24Z</time>
      </trkpt>
      <trkpt lat="46.82785" lon="5.87478">
        <ele>662.4</ele>
        <time>2022-03-17T13:07:29Z</time>
      </trkpt>
      <trkpt lat="46.8279" lon="5.8748">
        <ele>661.9</ele>
        <time>2022-03-17T13:07:33Z</time>
      </trkpt>
      <trkpt lat="46.82795" lon="5.87482">
        <ele>661.6</ele>
        <time>2022-03-17T13:07:37Z</time>
      </trkpt>
      <trkpt lat="46.82799" lon="5.87483">
        <ele>661.4</ele>
        <time>2022-03-17T13:07:42Z</time>
      </trkpt>
      <trkpt lat="46.82805" lon="5.87484">
        <ele>661.8</ele>
        <time>2022-03-17T13:07:47Z</time>
      </trkpt>
      <trkpt lat="46.82809" lon="5.87484">
        <ele>661.8</ele>
        <time>2022-03-17T13:07:51Z</time>
      </trkpt>
      <trkpt lat="46.82815" lon="5.87485">
        <ele>661.4</ele>
        <time>2022-03-17T13:07:56Z</time>
      </trkpt>
      <trkpt lat="46.8282" lon="5.87486">
        <ele>661.4</ele>
        <time>2022-03-17T13:08:01Z</time>
      </trkpt>
      <trkpt lat="46.82825" lon="5.87485">
        <ele>661.8</ele>
        <time>2022-03-17T13:08:06Z</time>
      </trkpt>
      <trkpt lat="46.8283" lon="5.87481">
        <ele>662.3</ele>
        <time>2022-03-17T13:08:10Z</time>
      </trkpt>
      <trkpt lat="46.82835" lon="5.87479">
        <ele>662.7</ele>
        <time>2022-03-17T13:08:13Z</time>
      </trkpt>
      <trkpt lat="46.82839" lon="5.87479">
        <ele>663</ele>
        <time>2022-03-17T13:08:16Z</time>
      </trkpt>
      <trkpt lat="46.82845" lon="5.87478">
        <ele>663.5</ele>
        <time>2022-03-17T13:08:20Z</time>
      </trkpt>
      <trkpt lat="46.8285" lon="5.87478">
        <ele>663.9</ele>
        <time>2022-03-17T13:08:24Z</time>
      </trkpt>
      <trkpt lat="46.82855" lon="5.87477">
        <ele>664.1</ele>
        <time>2022-03-17T13:08:28Z</time>
      </trkpt>
      <trkpt lat="46.8286" lon="5.87475">
        <ele>664.3</ele>
        <time>2022-03-17T13:08:32Z</time>
      </trkpt>
      <trkpt lat="46.82864" lon="5.87474">
        <ele>664.9</ele>
        <time>2022-03-17T13:08:36Z</time>
      </trkpt>
      <trkpt lat="46.82869" lon="5.87472">
        <ele>665.1</ele>
        <time>2022-03-17T13:08:40Z</time>
      </trkpt>
      <trkpt lat="46.82873" lon="5.87467">
        <ele>665.2</ele>
        <time>2022-03-17T13:08:44Z</time>
      </trkpt>
      <trkpt lat="46.82877" lon="5.87463">
        <ele>665.6</ele>
        <time>2022-03-17T13:08:48Z</time>
      </trkpt>
      <trkpt lat="46.82881" lon="5.87458">
        <ele>665.8</ele>
        <time>2022-03-17T13:08:52Z</time>
      </trkpt>
      <trkpt lat="46.82886" lon="5.87456">
        <ele>666.1</ele>
        <time>2022-03-17T13:08:57Z</time>
      </trkpt>
      <trkpt lat="46.8289" lon="5.87454">
        <ele>666.4</ele>
        <time>2022-03-17T13:09:01Z</time>
      </trkpt>
      <trkpt lat="46.82895" lon="5.8745">
        <ele>666.5</ele>
        <time>2022-03-17T13:09:06Z</time>
      </trkpt>
      <trkpt lat="46.82899" lon="5.87448">
        <ele>666.6</ele>
        <time>2022-03-17T13:09:10Z</time>
      </trkpt>
      <trkpt lat="46.82904" lon="5.87446">
        <ele>666.4</ele>
        <time>2022-03-17T13:09:14Z</time>
      </trkpt>
      <trkpt lat="46.8291" lon="5.87444">
        <ele>665.4</ele>
        <time>2022-03-17T13:09:18Z</time>
      </trkpt>
      <trkpt lat="46.82915" lon="5.87443">
        <ele>664.5</ele>
        <time>2022-03-17T13:09:22Z</time>
      </trkpt>
      <trkpt lat="46.82921" lon="5.87442">
        <ele>663.6</ele>
        <time>2022-03-17T13:09:26Z</time>
      </trkpt>
      <trkpt lat="46.82925" lon="5.87441">
        <ele>663.1</ele>
        <time>2022-03-17T13:09:29Z</time>
      </trkpt>
      <trkpt lat="46.8293" lon="5.87443">
        <ele>662.1</ele>
        <time>2022-03-17T13:09:33Z</time>
      </trkpt>
      <trkpt lat="46.82934" lon="5.87446">
        <ele>661</ele>
        <time>2022-03-17T13:09:37Z</time>
      </trkpt>
      <trkpt lat="46.82938" lon="5.87449">
        <ele>659.7</ele>
        <time>2022-03-17T13:09:42Z</time>
      </trkpt>
      <trkpt lat="46.82942" lon="5.87455">
        <ele>659</ele>
        <time>2022-03-17T13:09:47Z</time>
      </trkpt>
      <trkpt lat="46.82947" lon="5.87458">
        <ele>658.5</ele>
        <time>2022-03-17T13:09:51Z</time>
      </trkpt>
      <trkpt lat="46.8295" lon="5.87462">
        <ele>658</ele>
        <time>2022-03-17T13:09:56Z</time>
      </trkpt>
      <trkpt lat="46.82954" lon="5.87467">
        <ele>658</ele>
        <time>2022-03-17T13:10:02Z</time>
      </trkpt>
      <trkpt lat="46.82959" lon="5.87469">
        <ele>658.3</ele>
        <time>2022-03-17T13:10:06Z</time>
      </trkpt>
      <trkpt lat="46.82964" lon="5.87471">
        <ele>658.3</ele>
        <time>2022-03-17T13:10:10Z</time>
      </trkpt>
      <trkpt lat="46.82968" lon="5.87473">
        <ele>658.5</ele>
        <time>2022-03-17T13:10:14Z</time>
      </trkpt>
      <trkpt lat="46.82973" lon="5.87476">
        <ele>658.3</ele>
        <time>2022-03-17T13:10:19Z</time>
      </trkpt>
      <trkpt lat="46.82978" lon="5.87479">
        <ele>657.9</ele>
        <time>2022-03-17T13:10:25Z</time>
      </trkpt>
      <trkpt lat="46.82984" lon="5.87479">
        <ele>657.7</ele>
        <time>2022-03-17T13:10:30Z</time>
      </trkpt>
      <trkpt lat="46.82989" lon="5.87479">
        <ele>657.8</ele>
        <time>2022-03-17T13:10:34Z</time>
      </trkpt>
      <trkpt lat="46.82994" lon="5.87479">
        <ele>658.1</ele>
        <time>2022-03-17T13:10:38Z</time>
      </trkpt>
      <trkpt lat="46.82999" lon="5.87481">
        <ele>658</ele>
        <time>2022-03-17T13:10:42Z</time>
      </trkpt>
      <trkpt lat="46.83003" lon="5.87483">
        <ele>657.5</ele>
        <time>2022-03-17T13:10:46Z</time>
      </trkpt>
      <trkpt lat="46.83007" lon="5.87487">
        <ele>657</ele>
        <time>2022-03-17T13:10:50Z</time>
      </trkpt>
      <trkpt lat="46.83011" lon="5.8749">
        <ele>656.3</ele>
        <time>2022-03-17T13:10:54Z</time>
      </trkpt>
      <trkpt lat="46.83016" lon="5.87495">
        <ele>655.7</ele>
        <time>2022-03-17T13:10:58Z</time>
      </trkpt>
      <trkpt lat="46.83021" lon="5.875">
        <ele>654.9</ele>
        <time>2022-03-17T13:11:02Z</time>
      </trkpt>
      <trkpt lat="46.83026" lon="5.87503">
        <ele>653.8</ele>
        <time>2022-03-17T13:11:05Z</time>
      </trkpt>
      <trkpt lat="46.83031" lon="5.87505">
        <ele>652.6</ele>
        <time>2022-03-17T13:11:08Z</time>
      </trkpt>
      <trkpt lat="46.83036" lon="5.87508">
        <ele>651.2</ele>
        <time>2022-03-17T13:11:12Z</time>
      </trkpt>
      <trkpt lat="46.83039" lon="5.87514">
        <ele>649.9</ele>
        <time>2022-03-17T13:11:17Z</time>
      </trkpt>
      <trkpt lat="46.83042" lon="5.87521">
        <ele>649</ele>
        <time>2022-03-17T13:11:21Z</time>
      </trkpt>
      <trkpt lat="46.83044" lon="5.87526">
        <ele>648.5</ele>
        <time>2022-03-17T13:11:25Z</time>
      </trkpt>
      <trkpt lat="46.83046" lon="5.87532">
        <ele>648.2</ele>
        <time>2022-03-17T13:11:29Z</time>
      </trkpt>
      <trkpt lat="46.83051" lon="5.87537">
        <ele>647.9</ele>
        <time>2022-03-17T13:11:34Z</time>
      </trkpt>
      <trkpt lat="46.83055" lon="5.87543">
        <ele>647.8</ele>
        <time>2022-03-17T13:11:39Z</time>
      </trkpt>
      <trkpt lat="46.83059" lon="5.87547">
        <ele>647.8</ele>
        <time>2022-03-17T13:11:43Z</time>
      </trkpt>
      <trkpt lat="46.83063" lon="5.87553">
        <ele>647.5</ele>
        <time>2022-03-17T13:11:47Z</time>
      </trkpt>
      <trkpt lat="46.83067" lon="5.87558">
        <ele>647.3</ele>
        <time>2022-03-17T13:11:50Z</time>
      </trkpt>
      <trkpt lat="46.8307" lon="5.87563">
        <ele>646.7</ele>
        <time>2022-03-17T13:11:55Z</time>
      </trkpt>
      <trkpt lat="46.83073" lon="5.87569">
        <ele>646.3</ele>
        <time>2022-03-17T13:11:59Z</time>
      </trkpt>
      <trkpt lat="46.83077" lon="5.87575">
        <ele>646</ele>
        <time>2022-03-17T13:12:04Z</time>
      </trkpt>
      <trkpt lat="46.83082" lon="5.87579">
        <ele>646.1</ele>
        <time>2022-03-17T13:12:09Z</time>
      </trkpt>
      <trkpt lat="46.83087" lon="5.87577">
        <ele>648.4</ele>
        <time>2022-03-17T13:12:16Z</time>
      </trkpt>
      <trkpt lat="46.83091" lon="5.87574">
        <ele>650.9</ele>
        <time>2022-03-17T13:12:21Z</time>
      </trkpt>
      <trkpt lat="46.83093" lon="5.87567">
        <ele>652.7</ele>
        <time>2022-03-17T13:12:25Z</time>
      </trkpt>
      <trkpt lat="46.83095" lon="5.87561">
        <ele>653.7</ele>
        <time>2022-03-17T13:12:29Z</time>
      </trkpt>
      <trkpt lat="46.831" lon="5.87559">
        <ele>654.9</ele>
        <time>2022-03-17T13:12:35Z</time>
      </trkpt>
      <trkpt lat="46.83105" lon="5.87557">
        <ele>657.9</ele>
        <time>2022-03-17T13:13:26Z</time>
      </trkpt>
      <trkpt lat="46.83108" lon="5.87562">
        <ele>659</ele>
        <time>2022-03-17T13:13:36Z</time>
      </trkpt>
      <trkpt lat="46.8311" lon="5.87555">
        <ele>659.4</ele>
        <time>2022-03-17T13:13:40Z</time>
      </trkpt>
      <trkpt lat="46.83113" lon="5.87563">
        <ele>659.2</ele>
        <time>2022-03-17T13:13:48Z</time>
      </trkpt>
      <trkpt lat="46.83112" lon="5.87574">
        <ele>658.6</ele>
        <time>2022-03-17T13:13:51Z</time>
      </trkpt>
      <trkpt lat="46.83112" lon="5.87581">
        <ele>657.9</ele>
        <time>2022-03-17T13:13:54Z</time>
      </trkpt>
      <trkpt lat="46.83115" lon="5.87586">
        <ele>656.8</ele>
        <time>2022-03-17T13:13:58Z</time>
      </trkpt>
      <trkpt lat="46.83115" lon="5.87593">
        <ele>655.8</ele>
        <time>2022-03-17T13:14:03Z</time>
      </trkpt>
      <trkpt lat="46.83119" lon="5.8759">
        <ele>654.6</ele>
        <time>2022-03-17T13:14:12Z</time>
      </trkpt>
      <trkpt lat="46.8312" lon="5.87582">
        <ele>653.8</ele>
        <time>2022-03-17T13:14:26Z</time>
      </trkpt>
      <trkpt lat="46.83124" lon="5.87579">
        <ele>652.5</ele>
        <time>2022-03-17T13:14:36Z</time>
      </trkpt>
      <trkpt lat="46.83121" lon="5.87575">
        <ele>648.2</ele>
        <time>2022-03-17T13:14:48Z</time>
      </trkpt>
      <trkpt lat="46.83117" lon="5.87569">
        <ele>648.3</ele>
        <time>2022-03-17T13:14:52Z</time>
      </trkpt>
      <trkpt lat="46.83113" lon="5.87565">
        <ele>649.6</ele>
        <time>2022-03-17T13:14:57Z</time>
      </trkpt>
      <trkpt lat="46.83109" lon="5.87561">
        <ele>651.3</ele>
        <time>2022-03-17T13:15:01Z</time>
      </trkpt>
      <trkpt lat="46.83107" lon="5.87553">
        <ele>654.4</ele>
        <time>2022-03-17T13:15:06Z</time>
      </trkpt>
      <trkpt lat="46.83107" lon="5.87546">
        <ele>657.8</ele>
        <time>2022-03-17T13:15:11Z</time>
      </trkpt>
      <trkpt lat="46.83105" lon="5.87539">
        <ele>660</ele>
        <time>2022-03-17T13:15:16Z</time>
      </trkpt>
      <trkpt lat="46.83104" lon="5.87532">
        <ele>660.9</ele>
        <time>2022-03-17T13:15:20Z</time>
      </trkpt>
      <trkpt lat="46.83105" lon="5.87524">
        <ele>660.7</ele>
        <time>2022-03-17T13:15:25Z</time>
      </trkpt>
      <trkpt lat="46.83108" lon="5.87518">
        <ele>660.6</ele>
        <time>2022-03-17T13:15:30Z</time>
      </trkpt>
      <trkpt lat="46.8311" lon="5.87511">
        <ele>660.9</ele>
        <time>2022-03-17T13:15:35Z</time>
      </trkpt>
      <trkpt lat="46.83112" lon="5.87504">
        <ele>661.7</ele>
        <time>2022-03-17T13:15:40Z</time>
      </trkpt>
      <trkpt lat="46.83116" lon="5.875">
        <ele>662.4</ele>
        <time>2022-03-17T13:15:45Z</time>
      </trkpt>
      <trkpt lat="46.83121" lon="5.875">
        <ele>662.7</ele>
        <time>2022-03-17T13:15:51Z</time>
      </trkpt>
      <trkpt lat="46.83126" lon="5.875">
        <ele>662.9</ele>
        <time>2022-03-17T13:15:56Z</time>
      </trkpt>
      <trkpt lat="46.83131" lon="5.87499">
        <ele>663</ele>
        <time>2022-03-17T13:16:01Z</time>
      </trkpt>
      <trkpt lat="46.83134" lon="5.87492">
        <ele>663</ele>
        <time>2022-03-17T13:16:07Z</time>
      </trkpt>
      <trkpt lat="46.83137" lon="5.87486">
        <ele>663.4</ele>
        <time>2022-03-17T13:16:11Z</time>
      </trkpt>
      <trkpt lat="46.83141" lon="5.87481">
        <ele>663.9</ele>
        <time>2022-03-17T13:16:15Z</time>
      </trkpt>
      <trkpt lat="46.83146" lon="5.8748">
        <ele>666.1</ele>
        <time>2022-03-17T13:16:25Z</time>
      </trkpt>
      <trkpt lat="46.83151" lon="5.8748">
        <ele>667.1</ele>
        <time>2022-03-17T13:16:30Z</time>
      </trkpt>
      <trkpt lat="46.83157" lon="5.8748">
        <ele>667.9</ele>
        <time>2022-03-17T13:16:34Z</time>
      </trkpt>
      <trkpt lat="46.83161" lon="5.87479">
        <ele>668.7</ele>
        <time>2022-03-17T13:16:40Z</time>
      </trkpt>
      <trkpt lat="46.83163" lon="5.87472">
        <ele>669.5</ele>
        <time>2022-03-17T13:16:46Z</time>
      </trkpt>
      <trkpt lat="46.83165" lon="5.87466">
        <ele>669.8</ele>
        <time>2022-03-17T13:16:50Z</time>
      </trkpt>
      <trkpt lat="46.83168" lon="5.8746">
        <ele>669.8</ele>
        <time>2022-03-17T13:16:54Z</time>
      </trkpt>
      <trkpt lat="46.83171" lon="5.87456">
        <ele>669.9</ele>
        <time>2022-03-17T13:16:59Z</time>
      </trkpt>
      <trkpt lat="46.83175" lon="5.8745">
        <ele>670.4</ele>
        <time>2022-03-17T13:17:04Z</time>
      </trkpt>
      <trkpt lat="46.83176" lon="5.87444">
        <ele>670.7</ele>
        <time>2022-03-17T13:17:08Z</time>
      </trkpt>
      <trkpt lat="46.83177" lon="5.87436">
        <ele>671.3</ele>
        <time>2022-03-17T13:17:13Z</time>
      </trkpt>
      <trkpt lat="46.83178" lon="5.87429">
        <ele>672.2</ele>
        <time>2022-03-17T13:17:21Z</time>
      </trkpt>
      <trkpt lat="46.83182" lon="5.87425">
        <ele>672.1</ele>
        <time>2022-03-17T13:17:26Z</time>
      </trkpt>
      <trkpt lat="46.83186" lon="5.87421">
        <ele>672.1</ele>
        <time>2022-03-17T13:17:32Z</time>
      </trkpt>
      <trkpt lat="46.8319" lon="5.87418">
        <ele>672.3</ele>
        <time>2022-03-17T13:17:37Z</time>
      </trkpt>
      <trkpt lat="46.83195" lon="5.87413">
        <ele>672.3</ele>
        <time>2022-03-17T13:17:42Z</time>
      </trkpt>
      <trkpt lat="46.83199" lon="5.87409">
        <ele>672.2</ele>
        <time>2022-03-17T13:17:46Z</time>
      </trkpt>
      <trkpt lat="46.83203" lon="5.87404">
        <ele>672.2</ele>
        <time>2022-03-17T13:17:50Z</time>
      </trkpt>
      <trkpt lat="46.83206" lon="5.87397">
        <ele>671.7</ele>
        <time>2022-03-17T13:17:55Z</time>
      </trkpt>
      <trkpt lat="46.8321" lon="5.87392">
        <ele>671.5</ele>
        <time>2022-03-17T13:17:59Z</time>
      </trkpt>
      <trkpt lat="46.83214" lon="5.87388">
        <ele>671.8</ele>
        <time>2022-03-17T13:18:04Z</time>
      </trkpt>
      <trkpt lat="46.83215" lon="5.87382">
        <ele>673.5</ele>
        <time>2022-03-17T13:18:09Z</time>
      </trkpt>
      <trkpt lat="46.83217" lon="5.87374">
        <ele>675.8</ele>
        <time>2022-03-17T13:18:14Z</time>
      </trkpt>
      <trkpt lat="46.83217" lon="5.87367">
        <ele>677.9</ele>
        <time>2022-03-17T13:18:19Z</time>
      </trkpt>
      <trkpt lat="46.8322" lon="5.87361">
        <ele>679.6</ele>
        <time>2022-03-17T13:18:24Z</time>
      </trkpt>
      <trkpt lat="46.83223" lon="5.87355">
        <ele>680.2</ele>
        <time>2022-03-17T13:18:28Z</time>
      </trkpt>
      <trkpt lat="46.83225" lon="5.87349">
        <ele>679.9</ele>
        <time>2022-03-17T13:18:33Z</time>
      </trkpt>
      <trkpt lat="46.83228" lon="5.87344">
        <ele>679.8</ele>
        <time>2022-03-17T13:18:38Z</time>
      </trkpt>
      <trkpt lat="46.8323" lon="5.87336">
        <ele>680.1</ele>
        <time>2022-03-17T13:18:43Z</time>
      </trkpt>
      <trkpt lat="46.83232" lon="5.8733">
        <ele>680.4</ele>
        <time>2022-03-17T13:18:49Z</time>
      </trkpt>
      <trkpt lat="46.83237" lon="5.87328">
        <ele>680.4</ele>
        <time>2022-03-17T13:18:53Z</time>
      </trkpt>
      <trkpt lat="46.83242" lon="5.87327">
        <ele>680</ele>
        <time>2022-03-17T13:18:57Z</time>
      </trkpt>
      <trkpt lat="46.83247" lon="5.87325">
        <ele>679.4</ele>
        <time>2022-03-17T13:19:02Z</time>
      </trkpt>
      <trkpt lat="46.83249" lon="5.87319">
        <ele>678.5</ele>
        <time>2022-03-17T13:19:07Z</time>
      </trkpt>
      <trkpt lat="46.83253" lon="5.87313">
        <ele>677.1</ele>
        <time>2022-03-17T13:19:12Z</time>
      </trkpt>
      <trkpt lat="46.83256" lon="5.87308">
        <ele>675</ele>
        <time>2022-03-17T13:19:18Z</time>
      </trkpt>
      <trkpt lat="46.83259" lon="5.87303">
        <ele>672.4</ele>
        <time>2022-03-17T13:19:24Z</time>
      </trkpt>
      <trkpt lat="46.83264" lon="5.873">
        <ele>669</ele>
        <time>2022-03-17T13:19:33Z</time>
      </trkpt>
      <trkpt lat="46.83271" lon="5.87295">
        <ele>668.7</ele>
        <time>2022-03-17T13:19:36Z</time>
      </trkpt>
      <trkpt lat="46.83276" lon="5.87292">
        <ele>668.6</ele>
        <time>2022-03-17T13:19:39Z</time>
      </trkpt>
      <trkpt lat="46.83281" lon="5.87287">
        <ele>668.2</ele>
        <time>2022-03-17T13:19:42Z</time>
      </trkpt>
      <trkpt lat="46.83283" lon="5.87281">
        <ele>667.8</ele>
        <time>2022-03-17T13:19:46Z</time>
      </trkpt>
      <trkpt lat="46.83282" lon="5.87274">
        <ele>667.1</ele>
        <time>2022-03-17T13:19:51Z</time>
      </trkpt>
      <trkpt lat="46.83283" lon="5.87268">
        <ele>666.2</ele>
        <time>2022-03-17T13:19:58Z</time>
      </trkpt>
      <trkpt lat="46.83283" lon="5.8726">
        <ele>667.7</ele>
        <time>2022-03-17T13:20:03Z</time>
      </trkpt>
      <trkpt lat="46.83285" lon="5.87254">
        <ele>669.5</ele>
        <time>2022-03-17T13:20:07Z</time>
      </trkpt>
      <trkpt lat="46.83287" lon="5.87248">
        <ele>671.5</ele>
        <time>2022-03-17T13:20:10Z</time>
      </trkpt>
      <trkpt lat="46.8329" lon="5.87242">
        <ele>675.6</ele>
        <time>2022-03-17T13:20:14Z</time>
      </trkpt>
      <trkpt lat="46.83293" lon="5.87238">
        <ele>679.7</ele>
        <time>2022-03-17T13:20:19Z</time>
      </trkpt>
      <trkpt lat="46.83297" lon="5.87232">
        <ele>681.8</ele>
        <time>2022-03-17T13:20:24Z</time>
      </trkpt>
      <trkpt lat="46.83299" lon="5.87225">
        <ele>681.5</ele>
        <time>2022-03-17T13:20:29Z</time>
      </trkpt>
      <trkpt lat="46.83298" lon="5.87218">
        <ele>677.6</ele>
        <time>2022-03-17T13:20:39Z</time>
      </trkpt>
      <trkpt lat="46.83298" lon="5.87211">
        <ele>676.2</ele>
        <time>2022-03-17T13:20:45Z</time>
      </trkpt>
      <trkpt lat="46.83297" lon="5.87203">
        <ele>675.4</ele>
        <time>2022-03-17T13:20:52Z</time>
      </trkpt>
      <trkpt lat="46.83297" lon="5.87196">
        <ele>675.2</ele>
        <time>2022-03-17T13:20:56Z</time>
      </trkpt>
      <trkpt lat="46.83294" lon="5.8719">
        <ele>674.3</ele>
        <time>2022-03-17T13:21:02Z</time>
      </trkpt>
      <trkpt lat="46.83294" lon="5.87182">
        <ele>674.2</ele>
        <time>2022-03-17T13:21:08Z</time>
      </trkpt>
      <trkpt lat="46.83289" lon="5.87179">
        <ele>672.6</ele>
        <time>2022-03-17T13:21:22Z</time>
      </trkpt>
      <trkpt lat="46.83286" lon="5.87173">
        <ele>671.4</ele>
        <time>2022-03-17T13:21:26Z</time>
      </trkpt>
      <trkpt lat="46.83286" lon="5.87166">
        <ele>670.6</ele>
        <time>2022-03-17T13:21:29Z</time>
      </trkpt>
      <trkpt lat="46.83286" lon="5.87158">
        <ele>669.6</ele>
        <time>2022-03-17T13:21:33Z</time>
      </trkpt>
      <trkpt lat="46.83285" lon="5.87151">
        <ele>668.5</ele>
        <time>2022-03-17T13:21:37Z</time>
      </trkpt>
      <trkpt lat="46.83281" lon="5.87145">
        <ele>666.8</ele>
        <time>2022-03-17T13:21:42Z</time>
      </trkpt>
      <trkpt lat="46.83278" lon="5.8714">
        <ele>665.2</ele>
        <time>2022-03-17T13:21:49Z</time>
      </trkpt>
      <trkpt lat="46.83275" lon="5.87135">
        <ele>664.7</ele>
        <time>2022-03-17T13:21:53Z</time>
      </trkpt>
      <trkpt lat="46.83272" lon="5.87131">
        <ele>665.3</ele>
        <time>2022-03-17T13:21:59Z</time>
      </trkpt>
      <trkpt lat="46.83269" lon="5.87125">
        <ele>668.2</ele>
        <time>2022-03-17T13:22:05Z</time>
      </trkpt>
      <trkpt lat="46.83265" lon="5.8712">
        <ele>669.6</ele>
        <time>2022-03-17T13:22:10Z</time>
      </trkpt>
      <trkpt lat="46.83261" lon="5.87115">
        <ele>670.3</ele>
        <time>2022-03-17T13:22:14Z</time>
      </trkpt>
      <trkpt lat="46.83258" lon="5.8711">
        <ele>670.5</ele>
        <time>2022-03-17T13:22:18Z</time>
      </trkpt>
      <trkpt lat="46.83254" lon="5.87105">
        <ele>670.6</ele>
        <time>2022-03-17T13:22:22Z</time>
      </trkpt>
      <trkpt lat="46.83249" lon="5.87101">
        <ele>670.7</ele>
        <time>2022-03-17T13:22:27Z</time>
      </trkpt>
      <trkpt lat="46.83245" lon="5.87097">
        <ele>670.3</ele>
        <time>2022-03-17T13:22:31Z</time>
      </trkpt>
      <trkpt lat="46.8324" lon="5.87095">
        <ele>670.1</ele>
        <time>2022-03-17T13:22:38Z</time>
      </trkpt>
      <trkpt lat="46.83235" lon="5.87095">
        <ele>670.4</ele>
        <time>2022-03-17T13:22:43Z</time>
      </trkpt>
      <trkpt lat="46.8323" lon="5.87093">
        <ele>670.7</ele>
        <time>2022-03-17T13:22:48Z</time>
      </trkpt>
      <trkpt lat="46.83225" lon="5.87092">
        <ele>670.7</ele>
        <time>2022-03-17T13:22:53Z</time>
      </trkpt>
      <trkpt lat="46.83219" lon="5.8709">
        <ele>670.2</ele>
        <time>2022-03-17T13:22:58Z</time>
      </trkpt>
      <trkpt lat="46.83215" lon="5.87087">
        <ele>669.5</ele>
        <time>2022-03-17T13:23:03Z</time>
      </trkpt>
      <trkpt lat="46.83211" lon="5.87085">
        <ele>669.3</ele>
        <time>2022-03-17T13:23:07Z</time>
      </trkpt>
      <trkpt lat="46.83206" lon="5.87081">
        <ele>669.5</ele>
        <time>2022-03-17T13:23:12Z</time>
      </trkpt>
      <trkpt lat="46.83203" lon="5.87076">
        <ele>669.9</ele>
        <time>2022-03-17T13:23:17Z</time>
      </trkpt>
      <trkpt lat="46.83198" lon="5.87072">
        <ele>669.3</ele>
        <time>2022-03-17T13:23:25Z</time>
      </trkpt>
      <trkpt lat="46.83193" lon="5.87071">
        <ele>669</ele>
        <time>2022-03-17T13:23:30Z</time>
      </trkpt>
      <trkpt lat="46.83188" lon="5.8707">
        <ele>669.5</ele>
        <time>2022-03-17T13:23:33Z</time>
      </trkpt>
      <trkpt lat="46.83183" lon="5.87066">
        <ele>671.1</ele>
        <time>2022-03-17T13:23:37Z</time>
      </trkpt>
      <trkpt lat="46.83181" lon="5.8706">
        <ele>675.1</ele>
        <time>2022-03-17T13:23:50Z</time>
      </trkpt>
      <trkpt lat="46.83177" lon="5.87055">
        <ele>675.2</ele>
        <time>2022-03-17T13:23:55Z</time>
      </trkpt>
      <trkpt lat="46.83175" lon="5.87049">
        <ele>673.9</ele>
        <time>2022-03-17T13:24:02Z</time>
      </trkpt>
      <trkpt lat="46.83174" lon="5.87041">
        <ele>673.3</ele>
        <time>2022-03-17T13:24:07Z</time>
      </trkpt>
      <trkpt lat="46.83173" lon="5.87034">
        <ele>673.5</ele>
        <time>2022-03-17T13:24:13Z</time>
      </trkpt>
      <trkpt lat="46.83171" lon="5.87026">
        <ele>673.2</ele>
        <time>2022-03-17T13:24:17Z</time>
      </trkpt>
      <trkpt lat="46.83167" lon="5.87023">
        <ele>673</ele>
        <time>2022-03-17T13:24:22Z</time>
      </trkpt>
      <trkpt lat="46.83162" lon="5.87021">
        <ele>673</ele>
        <time>2022-03-17T13:24:27Z</time>
      </trkpt>
      <trkpt lat="46.83159" lon="5.87015">
        <ele>673.8</ele>
        <time>2022-03-17T13:24:35Z</time>
      </trkpt>
      <trkpt lat="46.83155" lon="5.87011">
        <ele>674.4</ele>
        <time>2022-03-17T13:24:42Z</time>
      </trkpt>
      <trkpt lat="46.83151" lon="5.87005">
        <ele>674.5</ele>
        <time>2022-03-17T13:24:46Z</time>
      </trkpt>
      <trkpt lat="46.83147" lon="5.86998">
        <ele>675.1</ele>
        <time>2022-03-17T13:24:51Z</time>
      </trkpt>
      <trkpt lat="46.83143" lon="5.86995">
        <ele>676</ele>
        <time>2022-03-17T13:24:56Z</time>
      </trkpt>
      <trkpt lat="46.8314" lon="5.86989">
        <ele>677.2</ele>
        <time>2022-03-17T13:25:02Z</time>
      </trkpt>
      <trkpt lat="46.8314" lon="5.86982">
        <ele>680</ele>
        <time>2022-03-17T13:25:10Z</time>
      </trkpt>
      <trkpt lat="46.83141" lon="5.86974">
        <ele>681.1</ele>
        <time>2022-03-17T13:25:15Z</time>
      </trkpt>
      <trkpt lat="46.83141" lon="5.86967">
        <ele>682.4</ele>
        <time>2022-03-17T13:25:22Z</time>
      </trkpt>
      <trkpt lat="46.83141" lon="5.86959">
        <ele>683.3</ele>
        <time>2022-03-17T13:25:26Z</time>
      </trkpt>
      <trkpt lat="46.83141" lon="5.86952">
        <ele>683.8</ele>
        <time>2022-03-17T13:25:29Z</time>
      </trkpt>
      <trkpt lat="46.83141" lon="5.86944">
        <ele>684.8</ele>
        <time>2022-03-17T13:25:34Z</time>
      </trkpt>
      <trkpt lat="46.83141" lon="5.86937">
        <ele>686.1</ele>
        <time>2022-03-17T13:25:39Z</time>
      </trkpt>
      <trkpt lat="46.8314" lon="5.8693">
        <ele>687.4</ele>
        <time>2022-03-17T13:25:44Z</time>
      </trkpt>
      <trkpt lat="46.83143" lon="5.86922">
        <ele>688.1</ele>
        <time>2022-03-17T13:25:49Z</time>
      </trkpt>
      <trkpt lat="46.83147" lon="5.86927">
        <ele>689.6</ele>
        <time>2022-03-17T13:26:00Z</time>
      </trkpt>
      <trkpt lat="46.83147" lon="5.86936">
        <ele>688.3</ele>
        <time>2022-03-17T13:26:04Z</time>
      </trkpt>
      <trkpt lat="46.83147" lon="5.86943">
        <ele>684</ele>
        <time>2022-03-17T13:26:20Z</time>
      </trkpt>
      <trkpt lat="46.83147" lon="5.8695">
        <ele>682.8</ele>
        <time>2022-03-17T13:26:24Z</time>
      </trkpt>
      <trkpt lat="46.83148" lon="5.86957">
        <ele>679.8</ele>
        <time>2022-03-17T13:26:33Z</time>
      </trkpt>
      <trkpt lat="46.83145" lon="5.86963">
        <ele>677.8</ele>
        <time>2022-03-17T13:26:42Z</time>
      </trkpt>
      <trkpt lat="46.83145" lon="5.86971">
        <ele>677.2</ele>
        <time>2022-03-17T13:26:47Z</time>
      </trkpt>
      <trkpt lat="46.83143" lon="5.86977">
        <ele>676.6</ele>
        <time>2022-03-17T13:26:51Z</time>
      </trkpt>
      <trkpt lat="46.83143" lon="5.86984">
        <ele>676.1</ele>
        <time>2022-03-17T13:26:56Z</time>
      </trkpt>
      <trkpt lat="46.83145" lon="5.86991">
        <ele>676.2</ele>
        <time>2022-03-17T13:27:01Z</time>
      </trkpt>
      <trkpt lat="46.8315" lon="5.86996">
        <ele>676.4</ele>
        <time>2022-03-17T13:27:05Z</time>
      </trkpt>
      <trkpt lat="46.83155" lon="5.86998">
        <ele>675.7</ele>
        <time>2022-03-17T13:27:11Z</time>
      </trkpt>
      <trkpt lat="46.83157" lon="5.87004">
        <ele>674.1</ele>
        <time>2022-03-17T13:27:16Z</time>
      </trkpt>
      <trkpt lat="46.83161" lon="5.87009">
        <ele>673</ele>
        <time>2022-03-17T13:27:23Z</time>
      </trkpt>
      <trkpt lat="46.83164" lon="5.87015">
        <ele>673</ele>
        <time>2022-03-17T13:27:27Z</time>
      </trkpt>
      <trkpt lat="46.83168" lon="5.8702">
        <ele>673.2</ele>
        <time>2022-03-17T13:27:31Z</time>
      </trkpt>
      <trkpt lat="46.8317" lon="5.87026">
        <ele>674</ele>
        <time>2022-03-17T13:27:35Z</time>
      </trkpt>
      <trkpt lat="46.83173" lon="5.87032">
        <ele>674.9</ele>
        <time>2022-03-17T13:27:40Z</time>
      </trkpt>
      <trkpt lat="46.83174" lon="5.8704">
        <ele>676.2</ele>
        <time>2022-03-17T13:27:45Z</time>
      </trkpt>
      <trkpt lat="46.83175" lon="5.87047">
        <ele>677.6</ele>
        <time>2022-03-17T13:27:50Z</time>
      </trkpt>
      <trkpt lat="46.83177" lon="5.87054">
        <ele>678.2</ele>
        <time>2022-03-17T13:27:55Z</time>
      </trkpt>
      <trkpt lat="46.83179" lon="5.87061">
        <ele>678.5</ele>
        <time>2022-03-17T13:28:00Z</time>
      </trkpt>
      <trkpt lat="46.83184" lon="5.87066">
        <ele>679.4</ele>
        <time>2022-03-17T13:28:04Z</time>
      </trkpt>
      <trkpt lat="46.83187" lon="5.8707">
        <ele>680.6</ele>
        <time>2022-03-17T13:28:08Z</time>
      </trkpt>
      <trkpt lat="46.83192" lon="5.87072">
        <ele>681.7</ele>
        <time>2022-03-17T13:28:13Z</time>
      </trkpt>
      <trkpt lat="46.83195" lon="5.87066">
        <ele>682.8</ele>
        <time>2022-03-17T13:28:18Z</time>
      </trkpt>
      <trkpt lat="46.832" lon="5.87065">
        <ele>683.6</ele>
        <time>2022-03-17T13:28:23Z</time>
      </trkpt>
      <trkpt lat="46.83204" lon="5.87069">
        <ele>683.5</ele>
        <time>2022-03-17T13:28:27Z</time>
      </trkpt>
      <trkpt lat="46.83206" lon="5.87062">
        <ele>681.4</ele>
        <time>2022-03-17T13:28:36Z</time>
      </trkpt>
      <trkpt lat="46.83206" lon="5.87055">
        <ele>680.6</ele>
        <time>2022-03-17T13:28:39Z</time>
      </trkpt>
      <trkpt lat="46.83206" lon="5.87047">
        <ele>679.2</ele>
        <time>2022-03-17T13:28:43Z</time>
      </trkpt>
      <trkpt lat="46.83206" lon="5.87038">
        <ele>674.7</ele>
        <time>2022-03-17T13:28:55Z</time>
      </trkpt>
      <trkpt lat="46.83205" lon="5.8703">
        <ele>673.7</ele>
        <time>2022-03-17T13:28:59Z</time>
      </trkpt>
      <trkpt lat="46.83206" lon="5.87024">
        <ele>673.1</ele>
        <time>2022-03-17T13:29:02Z</time>
      </trkpt>
      <trkpt lat="46.83209" lon="5.87018">
        <ele>672.6</ele>
        <time>2022-03-17T13:29:06Z</time>
      </trkpt>
      <trkpt lat="46.83213" lon="5.87014">
        <ele>672.9</ele>
        <time>2022-03-17T13:29:13Z</time>
      </trkpt>
      <trkpt lat="46.83215" lon="5.87008">
        <ele>671.7</ele>
        <time>2022-03-17T13:29:20Z</time>
      </trkpt>
      <trkpt lat="46.83219" lon="5.87004">
        <ele>671.3</ele>
        <time>2022-03-17T13:29:27Z</time>
      </trkpt>
      <trkpt lat="46.8322" lon="5.86996">
        <ele>672.2</ele>
        <time>2022-03-17T13:29:33Z</time>
      </trkpt>
      <trkpt lat="46.83219" lon="5.8699">
        <ele>672.8</ele>
        <time>2022-03-17T13:29:36Z</time>
      </trkpt>
      <trkpt lat="46.83218" lon="5.86983">
        <ele>673.8</ele>
        <time>2022-03-17T13:29:39Z</time>
      </trkpt>
      <trkpt lat="46.83218" lon="5.86976">
        <ele>674.8</ele>
        <time>2022-03-17T13:29:43Z</time>
      </trkpt>
      <trkpt lat="46.8322" lon="5.8697">
        <ele>675.9</ele>
        <time>2022-03-17T13:29:48Z</time>
      </trkpt>
      <trkpt lat="46.83224" lon="5.86965">
        <ele>676.5</ele>
        <time>2022-03-17T13:29:53Z</time>
      </trkpt>
      <trkpt lat="46.83228" lon="5.86961">
        <ele>676.9</ele>
        <time>2022-03-17T13:29:58Z</time>
      </trkpt>
      <trkpt lat="46.83232" lon="5.86959">
        <ele>676.8</ele>
        <time>2022-03-17T13:30:02Z</time>
      </trkpt>
      <trkpt lat="46.83236" lon="5.86955">
        <ele>676.9</ele>
        <time>2022-03-17T13:30:06Z</time>
      </trkpt>
      <trkpt lat="46.83239" lon="5.86949">
        <ele>677.4</ele>
        <time>2022-03-17T13:30:10Z</time>
      </trkpt>
      <trkpt lat="46.83244" lon="5.86944">
        <ele>678.1</ele>
        <time>2022-03-17T13:30:16Z</time>
      </trkpt>
      <trkpt lat="46.83248" lon="5.8694">
        <ele>678.5</ele>
        <time>2022-03-17T13:30:21Z</time>
      </trkpt>
      <trkpt lat="46.83252" lon="5.86938">
        <ele>678.7</ele>
        <time>2022-03-17T13:30:27Z</time>
      </trkpt>
      <trkpt lat="46.83256" lon="5.86941">
        <ele>678.2</ele>
        <time>2022-03-17T13:30:34Z</time>
      </trkpt>
      <trkpt lat="46.83261" lon="5.86941">
        <ele>678.1</ele>
        <time>2022-03-17T13:30:40Z</time>
      </trkpt>
      <trkpt lat="46.83265" lon="5.86943">
        <ele>678.3</ele>
        <time>2022-03-17T13:30:45Z</time>
      </trkpt>
      <trkpt lat="46.8327" lon="5.86941">
        <ele>678.4</ele>
        <time>2022-03-17T13:30:50Z</time>
      </trkpt>
      <trkpt lat="46.83275" lon="5.86939">
        <ele>678.3</ele>
        <time>2022-03-17T13:30:55Z</time>
      </trkpt>
      <trkpt lat="46.83281" lon="5.86937">
        <ele>678</ele>
        <time>2022-03-17T13:30:59Z</time>
      </trkpt>
      <trkpt lat="46.83286" lon="5.86935">
        <ele>677.6</ele>
        <time>2022-03-17T13:31:03Z</time>
      </trkpt>
      <trkpt lat="46.83291" lon="5.86934">
        <ele>677.3</ele>
        <time>2022-03-17T13:31:08Z</time>
      </trkpt>
      <trkpt lat="46.83296" lon="5.86937">
        <ele>677</ele>
        <time>2022-03-17T13:31:13Z</time>
      </trkpt>
      <trkpt lat="46.83301" lon="5.86939">
        <ele>676.7</ele>
        <time>2022-03-17T13:31:18Z</time>
      </trkpt>
      <trkpt lat="46.83306" lon="5.8694">
        <ele>676.2</ele>
        <time>2022-03-17T13:31:23Z</time>
      </trkpt>
      <trkpt lat="46.83311" lon="5.86943">
        <ele>675.5</ele>
        <time>2022-03-17T13:31:27Z</time>
      </trkpt>
      <trkpt lat="46.83315" lon="5.86944">
        <ele>675.1</ele>
        <time>2022-03-17T13:31:30Z</time>
      </trkpt>
      <trkpt lat="46.8332" lon="5.86943">
        <ele>674.7</ele>
        <time>2022-03-17T13:31:33Z</time>
      </trkpt>
      <trkpt lat="46.83325" lon="5.86943">
        <ele>674.2</ele>
        <time>2022-03-17T13:31:37Z</time>
      </trkpt>
      <trkpt lat="46.8333" lon="5.86945">
        <ele>674</ele>
        <time>2022-03-17T13:31:42Z</time>
      </trkpt>
      <trkpt lat="46.83335" lon="5.86948">
        <ele>674</ele>
        <time>2022-03-17T13:31:47Z</time>
      </trkpt>
      <trkpt lat="46.83339" lon="5.86952">
        <ele>673.8</ele>
        <time>2022-03-17T13:31:53Z</time>
      </trkpt>
      <trkpt lat="46.83344" lon="5.86953">
        <ele>673.4</ele>
        <time>2022-03-17T13:31:57Z</time>
      </trkpt>
      <trkpt lat="46.83349" lon="5.86956">
        <ele>672.1</ele>
        <time>2022-03-17T13:32:05Z</time>
      </trkpt>
      <trkpt lat="46.83353" lon="5.86959">
        <ele>671.4</ele>
        <time>2022-03-17T13:32:09Z</time>
      </trkpt>
      <trkpt lat="46.83358" lon="5.8696">
        <ele>671.1</ele>
        <time>2022-03-17T13:32:13Z</time>
      </trkpt>
      <trkpt lat="46.83363" lon="5.86961">
        <ele>671.2</ele>
        <time>2022-03-17T13:32:16Z</time>
      </trkpt>
      <trkpt lat="46.83369" lon="5.86962">
        <ele>671.6</ele>
        <time>2022-03-17T13:32:19Z</time>
      </trkpt>
      <trkpt lat="46.83373" lon="5.86959">
        <ele>672.4</ele>
        <time>2022-03-17T13:32:23Z</time>
      </trkpt>
      <trkpt lat="46.83375" lon="5.86953">
        <ele>673.4</ele>
        <time>2022-03-17T13:32:28Z</time>
      </trkpt>
      <trkpt lat="46.8337" lon="5.86948">
        <ele>673.5</ele>
        <time>2022-03-17T13:32:52Z</time>
      </trkpt>
      <trkpt lat="46.83366" lon="5.86945">
        <ele>673.3</ele>
        <time>2022-03-17T13:32:56Z</time>
      </trkpt>
      <trkpt lat="46.83363" lon="5.8694">
        <ele>673.2</ele>
        <time>2022-03-17T13:33:01Z</time>
      </trkpt>
      <trkpt lat="46.83358" lon="5.86936">
        <ele>673.3</ele>
        <time>2022-03-17T13:33:06Z</time>
      </trkpt>
      <trkpt lat="46.83353" lon="5.86932">
        <ele>673.2</ele>
        <time>2022-03-17T13:33:11Z</time>
      </trkpt>
      <trkpt lat="46.83349" lon="5.86929">
        <ele>673</ele>
        <time>2022-03-17T13:33:15Z</time>
      </trkpt>
      <trkpt lat="46.83345" lon="5.86926">
        <ele>672.6</ele>
        <time>2022-03-17T13:33:19Z</time>
      </trkpt>
      <trkpt lat="46.83341" lon="5.86924">
        <ele>672.1</ele>
        <time>2022-03-17T13:33:25Z</time>
      </trkpt>
      <trkpt lat="46.83336" lon="5.86922">
        <ele>671.6</ele>
        <time>2022-03-17T13:33:31Z</time>
      </trkpt>
      <trkpt lat="46.83332" lon="5.86917">
        <ele>671.5</ele>
        <time>2022-03-17T13:33:36Z</time>
      </trkpt>
      <trkpt lat="46.83328" lon="5.86912">
        <ele>671.4</ele>
        <time>2022-03-17T13:33:40Z</time>
      </trkpt>
      <trkpt lat="46.83324" lon="5.86909">
        <ele>671.5</ele>
        <time>2022-03-17T13:33:49Z</time>
      </trkpt>
      <trkpt lat="46.8332" lon="5.86905">
        <ele>671.9</ele>
        <time>2022-03-17T13:33:54Z</time>
      </trkpt>
      <trkpt lat="46.83315" lon="5.86903">
        <ele>672.3</ele>
        <time>2022-03-17T13:33:58Z</time>
      </trkpt>
      <trkpt lat="46.83312" lon="5.86898">
        <ele>672.8</ele>
        <time>2022-03-17T13:34:02Z</time>
      </trkpt>
      <trkpt lat="46.83307" lon="5.869">
        <ele>671.6</ele>
        <time>2022-03-17T13:34:14Z</time>
      </trkpt>
      <trkpt lat="46.83302" lon="5.86901">
        <ele>670.9</ele>
        <time>2022-03-17T13:34:18Z</time>
      </trkpt>
      <trkpt lat="46.83297" lon="5.86901">
        <ele>670.8</ele>
        <time>2022-03-17T13:34:21Z</time>
      </trkpt>
      <trkpt lat="46.83292" lon="5.869">
        <ele>670.9</ele>
        <time>2022-03-17T13:34:25Z</time>
      </trkpt>
      <trkpt lat="46.83287" lon="5.86898">
        <ele>671.9</ele>
        <time>2022-03-17T13:34:32Z</time>
      </trkpt>
      <trkpt lat="46.83285" lon="5.86891">
        <ele>673.2</ele>
        <time>2022-03-17T13:34:38Z</time>
      </trkpt>
      <trkpt lat="46.83282" lon="5.86885">
        <ele>674.2</ele>
        <time>2022-03-17T13:34:44Z</time>
      </trkpt>
      <trkpt lat="46.83278" lon="5.86882">
        <ele>674.3</ele>
        <time>2022-03-17T13:34:52Z</time>
      </trkpt>
      <trkpt lat="46.83274" lon="5.86883">
        <ele>672.7</ele>
        <time>2022-03-17T13:34:59Z</time>
      </trkpt>
      <trkpt lat="46.83269" lon="5.86881">
        <ele>669.8</ele>
        <time>2022-03-17T13:35:07Z</time>
      </trkpt>
      <trkpt lat="46.83266" lon="5.86876">
        <ele>667.8</ele>
        <time>2022-03-17T13:35:15Z</time>
      </trkpt>
      <trkpt lat="46.83262" lon="5.86872">
        <ele>666.8</ele>
        <time>2022-03-17T13:35:22Z</time>
      </trkpt>
      <trkpt lat="46.83257" lon="5.8687">
        <ele>666.4</ele>
        <time>2022-03-17T13:35:25Z</time>
      </trkpt>
      <trkpt lat="46.83252" lon="5.86868">
        <ele>666.1</ele>
        <time>2022-03-17T13:35:30Z</time>
      </trkpt>
      <trkpt lat="46.83249" lon="5.86864">
        <ele>665.9</ele>
        <time>2022-03-17T13:35:35Z</time>
      </trkpt>
      <trkpt lat="46.83244" lon="5.86861">
        <ele>665.1</ele>
        <time>2022-03-17T13:35:42Z</time>
      </trkpt>
      <trkpt lat="46.83239" lon="5.86861">
        <ele>665.3</ele>
        <time>2022-03-17T13:35:46Z</time>
      </trkpt>
      <trkpt lat="46.83234" lon="5.86862">
        <ele>666.4</ele>
        <time>2022-03-17T13:35:50Z</time>
      </trkpt>
      <trkpt lat="46.83229" lon="5.86863">
        <ele>668.1</ele>
        <time>2022-03-17T13:35:54Z</time>
      </trkpt>
      <trkpt lat="46.83225" lon="5.86859">
        <ele>670.5</ele>
        <time>2022-03-17T13:35:59Z</time>
      </trkpt>
      <trkpt lat="46.83224" lon="5.86852">
        <ele>672.9</ele>
        <time>2022-03-17T13:36:05Z</time>
      </trkpt>
      <trkpt lat="46.8322" lon="5.86849">
        <ele>674.6</ele>
        <time>2022-03-17T13:36:11Z</time>
      </trkpt>
      <trkpt lat="46.83215" lon="5.86846">
        <ele>674.8</ele>
        <time>2022-03-17T13:36:17Z</time>
      </trkpt>
      <trkpt lat="46.83211" lon="5.86844">
        <ele>673.7</ele>
        <time>2022-03-17T13:36:24Z</time>
      </trkpt>
      <trkpt lat="46.83206" lon="5.86845">
        <ele>672.6</ele>
        <time>2022-03-17T13:36:30Z</time>
      </trkpt>
      <trkpt lat="46.83202" lon="5.86841">
        <ele>671.4</ele>
        <time>2022-03-17T13:36:38Z</time>
      </trkpt>
      <trkpt lat="46.83198" lon="5.86836">
        <ele>670</ele>
        <time>2022-03-17T13:36:43Z</time>
      </trkpt>
      <trkpt lat="46.83195" lon="5.8683">
        <ele>667.6</ele>
        <time>2022-03-17T13:36:50Z</time>
      </trkpt>
      <trkpt lat="46.8319" lon="5.86829">
        <ele>666.1</ele>
        <time>2022-03-17T13:37:01Z</time>
      </trkpt>
      <trkpt lat="46.83185" lon="5.86829">
        <ele>667.3</ele>
        <time>2022-03-17T13:37:07Z</time>
      </trkpt>
      <trkpt lat="46.83181" lon="5.86824">
        <ele>668.3</ele>
        <time>2022-03-17T13:37:12Z</time>
      </trkpt>
      <trkpt lat="46.83177" lon="5.86821">
        <ele>669.2</ele>
        <time>2022-03-17T13:37:19Z</time>
      </trkpt>
      <trkpt lat="46.83173" lon="5.86816">
        <ele>669.6</ele>
        <time>2022-03-17T13:37:24Z</time>
      </trkpt>
      <trkpt lat="46.83169" lon="5.86812">
        <ele>669.7</ele>
        <time>2022-03-17T13:37:27Z</time>
      </trkpt>
      <trkpt lat="46.83164" lon="5.86808">
        <ele>670.3</ele>
        <time>2022-03-17T13:37:30Z</time>
      </trkpt>
      <trkpt lat="46.83161" lon="5.86802">
        <ele>671.4</ele>
        <time>2022-03-17T13:37:34Z</time>
      </trkpt>
      <trkpt lat="46.83162" lon="5.86795">
        <ele>672.7</ele>
        <time>2022-03-17T13:37:39Z</time>
      </trkpt>
      <trkpt lat="46.83163" lon="5.86788">
        <ele>674.6</ele>
        <time>2022-03-17T13:37:44Z</time>
      </trkpt>
      <trkpt lat="46.83164" lon="5.86781">
        <ele>675.9</ele>
        <time>2022-03-17T13:37:48Z</time>
      </trkpt>
      <trkpt lat="46.83164" lon="5.86774">
        <ele>676.6</ele>
        <time>2022-03-17T13:37:52Z</time>
      </trkpt>
      <trkpt lat="46.83164" lon="5.86767">
        <ele>676</ele>
        <time>2022-03-17T13:38:00Z</time>
      </trkpt>
      <trkpt lat="46.8316" lon="5.86764">
        <ele>673.7</ele>
        <time>2022-03-17T13:38:09Z</time>
      </trkpt>
      <trkpt lat="46.83155" lon="5.86761">
        <ele>672.1</ele>
        <time>2022-03-17T13:38:14Z</time>
      </trkpt>
      <trkpt lat="46.8315" lon="5.86762">
        <ele>670.9</ele>
        <time>2022-03-17T13:38:20Z</time>
      </trkpt>
      <trkpt lat="46.83145" lon="5.86757">
        <ele>670.3</ele>
        <time>2022-03-17T13:38:24Z</time>
      </trkpt>
      <trkpt lat="46.83142" lon="5.86753">
        <ele>671.5</ele>
        <time>2022-03-17T13:38:45Z</time>
      </trkpt>
      <trkpt lat="46.83137" lon="5.86748">
        <ele>672</ele>
        <time>2022-03-17T13:38:53Z</time>
      </trkpt>
      <trkpt lat="46.83134" lon="5.86743">
        <ele>671.8</ele>
        <time>2022-03-17T13:38:59Z</time>
      </trkpt>
      <trkpt lat="46.83131" lon="5.86737">
        <ele>670.7</ele>
        <time>2022-03-17T13:39:04Z</time>
      </trkpt>
      <trkpt lat="46.83127" lon="5.86734">
        <ele>669.1</ele>
        <time>2022-03-17T13:39:10Z</time>
      </trkpt>
      <trkpt lat="46.83122" lon="5.86733">
        <ele>667.3</ele>
        <time>2022-03-17T13:39:16Z</time>
      </trkpt>
      <trkpt lat="46.83118" lon="5.86732">
        <ele>664.9</ele>
        <time>2022-03-17T13:39:24Z</time>
      </trkpt>
      <trkpt lat="46.83115" lon="5.86727">
        <ele>663.5</ele>
        <time>2022-03-17T13:39:31Z</time>
      </trkpt>
      <trkpt lat="46.8311" lon="5.86725">
        <ele>660.4</ele>
        <time>2022-03-17T13:39:42Z</time>
      </trkpt>
      <trkpt lat="46.83106" lon="5.86724">
        <ele>659</ele>
        <time>2022-03-17T13:40:03Z</time>
      </trkpt>
      <trkpt lat="46.83101" lon="5.86723">
        <ele>660.8</ele>
        <time>2022-03-17T13:40:14Z</time>
      </trkpt>
      <trkpt lat="46.83097" lon="5.86719">
        <ele>661.8</ele>
        <time>2022-03-17T13:40:21Z</time>
      </trkpt>
      <trkpt lat="46.83092" lon="5.86716">
        <ele>661.3</ele>
        <time>2022-03-17T13:40:34Z</time>
      </trkpt>
      <trkpt lat="46.83091" lon="5.86709">
        <ele>660.9</ele>
        <time>2022-03-17T13:40:42Z</time>
      </trkpt>
      <trkpt lat="46.83086" lon="5.86708">
        <ele>660.9</ele>
        <time>2022-03-17T13:40:49Z</time>
      </trkpt>
      <trkpt lat="46.83082" lon="5.86706">
        <ele>660.6</ele>
        <time>2022-03-17T13:40:55Z</time>
      </trkpt>
      <trkpt lat="46.83078" lon="5.86702">
        <ele>660.9</ele>
        <time>2022-03-17T13:41:01Z</time>
      </trkpt>
      <trkpt lat="46.83074" lon="5.86697">
        <ele>661.8</ele>
        <time>2022-03-17T13:41:05Z</time>
      </trkpt>
      <trkpt lat="46.83071" lon="5.86691">
        <ele>663.7</ele>
        <time>2022-03-17T13:41:10Z</time>
      </trkpt>
      <trkpt lat="46.83067" lon="5.86686">
        <ele>666.4</ele>
        <time>2022-03-17T13:41:18Z</time>
      </trkpt>
      <trkpt lat="46.8307" lon="5.86692">
        <ele>665.6</ele>
        <time>2022-03-17T13:41:48Z</time>
      </trkpt>
      <trkpt lat="46.83072" lon="5.86699">
        <ele>663.6</ele>
        <time>2022-03-17T13:41:54Z</time>
      </trkpt>
      <trkpt lat="46.83069" lon="5.86694">
        <ele>662.5</ele>
        <time>2022-03-17T13:42:14Z</time>
      </trkpt>
      <trkpt lat="46.8307" lon="5.86688">
        <ele>662.8</ele>
        <time>2022-03-17T13:42:39Z</time>
      </trkpt>
      <trkpt lat="46.83066" lon="5.86684">
        <ele>662.8</ele>
        <time>2022-03-17T13:42:45Z</time>
      </trkpt>
      <trkpt lat="46.83062" lon="5.86678">
        <ele>662.8</ele>
        <time>2022-03-17T13:42:52Z</time>
      </trkpt>
      <trkpt lat="46.83058" lon="5.86676">
        <ele>661.5</ele>
        <time>2022-03-17T13:43:06Z</time>
      </trkpt>
      <trkpt lat="46.83053" lon="5.86673">
        <ele>661.1</ele>
        <time>2022-03-17T13:43:11Z</time>
      </trkpt>
      <trkpt lat="46.83048" lon="5.8667">
        <ele>661</ele>
        <time>2022-03-17T13:43:16Z</time>
      </trkpt>
      <trkpt lat="46.83045" lon="5.86664">
        <ele>660.4</ele>
        <time>2022-03-17T13:43:22Z</time>
      </trkpt>
      <trkpt lat="46.8304" lon="5.8666">
        <ele>660.5</ele>
        <time>2022-03-17T13:43:27Z</time>
      </trkpt>
      <trkpt lat="46.83036" lon="5.86657">
        <ele>661</ele>
        <time>2022-03-17T13:43:32Z</time>
      </trkpt>
      <trkpt lat="46.83032" lon="5.86652">
        <ele>661.7</ele>
        <time>2022-03-17T13:43:38Z</time>
      </trkpt>
      <trkpt lat="46.83028" lon="5.86645">
        <ele>662.1</ele>
        <time>2022-03-17T13:43:42Z</time>
      </trkpt>
      <trkpt lat="46.83024" lon="5.8664">
        <ele>662.3</ele>
        <time>2022-03-17T13:43:45Z</time>
      </trkpt>
      <trkpt lat="46.83019" lon="5.86634">
        <ele>662.7</ele>
        <time>2022-03-17T13:43:49Z</time>
      </trkpt>
      <trkpt lat="46.83016" lon="5.8663">
        <ele>663.1</ele>
        <time>2022-03-17T13:43:53Z</time>
      </trkpt>
      <trkpt lat="46.83012" lon="5.86626">
        <ele>663.5</ele>
        <time>2022-03-17T13:43:58Z</time>
      </trkpt>
      <trkpt lat="46.83007" lon="5.86626">
        <ele>664</ele>
        <time>2022-03-17T13:44:02Z</time>
      </trkpt>
      <trkpt lat="46.83002" lon="5.86625">
        <ele>664.4</ele>
        <time>2022-03-17T13:44:06Z</time>
      </trkpt>
      <trkpt lat="46.82998" lon="5.86623">
        <ele>664.7</ele>
        <time>2022-03-17T13:44:09Z</time>
      </trkpt>
      <trkpt lat="46.82993" lon="5.86621">
        <ele>665.2</ele>
        <time>2022-03-17T13:44:14Z</time>
      </trkpt>
      <trkpt lat="46.82989" lon="5.86618">
        <ele>666.3</ele>
        <time>2022-03-17T13:44:19Z</time>
      </trkpt>
      <trkpt lat="46.82985" lon="5.86613">
        <ele>667.1</ele>
        <time>2022-03-17T13:44:24Z</time>
      </trkpt>
      <trkpt lat="46.82981" lon="5.86609">
        <ele>667.5</ele>
        <time>2022-03-17T13:44:29Z</time>
      </trkpt>
      <trkpt lat="46.82977" lon="5.86605">
        <ele>667.4</ele>
        <time>2022-03-17T13:44:33Z</time>
      </trkpt>
      <trkpt lat="46.82971" lon="5.86603">
        <ele>667.1</ele>
        <time>2022-03-17T13:44:36Z</time>
      </trkpt>
      <trkpt lat="46.82965" lon="5.86602">
        <ele>666.4</ele>
        <time>2022-03-17T13:44:39Z</time>
      </trkpt>
      <trkpt lat="46.8296" lon="5.86601">
        <ele>665.8</ele>
        <time>2022-03-17T13:44:42Z</time>
      </trkpt>
      <trkpt lat="46.82955" lon="5.866">
        <ele>664.7</ele>
        <time>2022-03-17T13:44:47Z</time>
      </trkpt>
      <trkpt lat="46.8295" lon="5.86599">
        <ele>663.3</ele>
        <time>2022-03-17T13:44:53Z</time>
      </trkpt>
      <trkpt lat="46.82946" lon="5.86595">
        <ele>662.7</ele>
        <time>2022-03-17T13:44:58Z</time>
      </trkpt>
      <trkpt lat="46.82941" lon="5.86591">
        <ele>662.1</ele>
        <time>2022-03-17T13:45:03Z</time>
      </trkpt>
      <trkpt lat="46.82935" lon="5.86588">
        <ele>661.9</ele>
        <time>2022-03-17T13:45:07Z</time>
      </trkpt>
      <trkpt lat="46.82931" lon="5.86587">
        <ele>661.8</ele>
        <time>2022-03-17T13:45:11Z</time>
      </trkpt>
      <trkpt lat="46.82927" lon="5.86585">
        <ele>661.5</ele>
        <time>2022-03-17T13:45:16Z</time>
      </trkpt>
      <trkpt lat="46.82922" lon="5.86581">
        <ele>661.7</ele>
        <time>2022-03-17T13:45:20Z</time>
      </trkpt>
      <trkpt lat="46.82917" lon="5.86577">
        <ele>661.9</ele>
        <time>2022-03-17T13:45:24Z</time>
      </trkpt>
      <trkpt lat="46.82912" lon="5.86578">
        <ele>660.6</ele>
        <time>2022-03-17T13:45:29Z</time>
      </trkpt>
      <trkpt lat="46.82908" lon="5.86576">
        <ele>659.2</ele>
        <time>2022-03-17T13:45:33Z</time>
      </trkpt>
      <trkpt lat="46.82904" lon="5.86572">
        <ele>658</ele>
        <time>2022-03-17T13:45:37Z</time>
      </trkpt>
      <trkpt lat="46.82899" lon="5.86567">
        <ele>657</ele>
        <time>2022-03-17T13:45:41Z</time>
      </trkpt>
      <trkpt lat="46.82895" lon="5.86564">
        <ele>656.5</ele>
        <time>2022-03-17T13:45:45Z</time>
      </trkpt>
      <trkpt lat="46.8289" lon="5.8656">
        <ele>656.5</ele>
        <time>2022-03-17T13:45:52Z</time>
      </trkpt>
      <trkpt lat="46.82887" lon="5.86555">
        <ele>656.3</ele>
        <time>2022-03-17T13:45:56Z</time>
      </trkpt>
      <trkpt lat="46.82884" lon="5.86549">
        <ele>655.7</ele>
        <time>2022-03-17T13:46:00Z</time>
      </trkpt>
      <trkpt lat="46.8288" lon="5.86545">
        <ele>655.8</ele>
        <time>2022-03-17T13:46:07Z</time>
      </trkpt>
      <trkpt lat="46.82874" lon="5.86546">
        <ele>656.4</ele>
        <time>2022-03-17T13:46:13Z</time>
      </trkpt>
      <trkpt lat="46.8287" lon="5.86545">
        <ele>657.6</ele>
        <time>2022-03-17T13:46:17Z</time>
      </trkpt>
      <trkpt lat="46.82865" lon="5.86543">
        <ele>659.4</ele>
        <time>2022-03-17T13:46:21Z</time>
      </trkpt>
      <trkpt lat="46.8286" lon="5.8654">
        <ele>660.2</ele>
        <time>2022-03-17T13:46:25Z</time>
      </trkpt>
      <trkpt lat="46.82856" lon="5.86537">
        <ele>660.1</ele>
        <time>2022-03-17T13:46:30Z</time>
      </trkpt>
      <trkpt lat="46.82851" lon="5.86533">
        <ele>659.8</ele>
        <time>2022-03-17T13:46:34Z</time>
      </trkpt>
      <trkpt lat="46.82846" lon="5.86529">
        <ele>659.5</ele>
        <time>2022-03-17T13:46:38Z</time>
      </trkpt>
      <trkpt lat="46.82842" lon="5.86526">
        <ele>659.3</ele>
        <time>2022-03-17T13:46:42Z</time>
      </trkpt>
      <trkpt lat="46.82837" lon="5.86527">
        <ele>658.9</ele>
        <time>2022-03-17T13:46:47Z</time>
      </trkpt>
      <trkpt lat="46.82832" lon="5.86524">
        <ele>658.3</ele>
        <time>2022-03-17T13:46:52Z</time>
      </trkpt>
      <trkpt lat="46.82827" lon="5.8652">
        <ele>656.3</ele>
        <time>2022-03-17T13:46:59Z</time>
      </trkpt>
      <trkpt lat="46.82824" lon="5.86516">
        <ele>655.6</ele>
        <time>2022-03-17T13:47:03Z</time>
      </trkpt>
      <trkpt lat="46.82822" lon="5.8651">
        <ele>655.2</ele>
        <time>2022-03-17T13:47:06Z</time>
      </trkpt>
      <trkpt lat="46.82819" lon="5.86504">
        <ele>655</ele>
        <time>2022-03-17T13:47:09Z</time>
      </trkpt>
      <trkpt lat="46.82815" lon="5.865">
        <ele>654.7</ele>
        <time>2022-03-17T13:47:13Z</time>
      </trkpt>
      <trkpt lat="46.8281" lon="5.86496">
        <ele>654.1</ele>
        <time>2022-03-17T13:47:17Z</time>
      </trkpt>
      <trkpt lat="46.82806" lon="5.86493">
        <ele>653.4</ele>
        <time>2022-03-17T13:47:21Z</time>
      </trkpt>
      <trkpt lat="46.82801" lon="5.86489">
        <ele>652.6</ele>
        <time>2022-03-17T13:47:25Z</time>
      </trkpt>
      <trkpt lat="46.82797" lon="5.86485">
        <ele>652.1</ele>
        <time>2022-03-17T13:47:31Z</time>
      </trkpt>
      <trkpt lat="46.82793" lon="5.86479">
        <ele>651.9</ele>
        <time>2022-03-17T13:47:38Z</time>
      </trkpt>
      <trkpt lat="46.82791" lon="5.86473">
        <ele>651.8</ele>
        <time>2022-03-17T13:47:42Z</time>
      </trkpt>
      <trkpt lat="46.82787" lon="5.86466">
        <ele>652.1</ele>
        <time>2022-03-17T13:47:46Z</time>
      </trkpt>
      <trkpt lat="46.82784" lon="5.86461">
        <ele>652.4</ele>
        <time>2022-03-17T13:47:50Z</time>
      </trkpt>
      <trkpt lat="46.8278" lon="5.86457">
        <ele>652.9</ele>
        <time>2022-03-17T13:47:55Z</time>
      </trkpt>
      <trkpt lat="46.82775" lon="5.86455">
        <ele>653.4</ele>
        <time>2022-03-17T13:48:00Z</time>
      </trkpt>
      <trkpt lat="46.82771" lon="5.86451">
        <ele>653.6</ele>
        <time>2022-03-17T13:48:05Z</time>
      </trkpt>
      <trkpt lat="46.82767" lon="5.86447">
        <ele>653.7</ele>
        <time>2022-03-17T13:48:10Z</time>
      </trkpt>
      <trkpt lat="46.82763" lon="5.86444">
        <ele>653.8</ele>
        <time>2022-03-17T13:48:14Z</time>
      </trkpt>
      <trkpt lat="46.82759" lon="5.86439">
        <ele>653.7</ele>
        <time>2022-03-17T13:48:18Z</time>
      </trkpt>
      <trkpt lat="46.82754" lon="5.86438">
        <ele>653.6</ele>
        <time>2022-03-17T13:48:22Z</time>
      </trkpt>
      <trkpt lat="46.8275" lon="5.86437">
        <ele>653.5</ele>
        <time>2022-03-17T13:48:26Z</time>
      </trkpt>
      <trkpt lat="46.82745" lon="5.86434">
        <ele>652.8</ele>
        <time>2022-03-17T13:48:32Z</time>
      </trkpt>
      <trkpt lat="46.8274" lon="5.86432">
        <ele>652.5</ele>
        <time>2022-03-17T13:48:36Z</time>
      </trkpt>
      <trkpt lat="46.82736" lon="5.86429">
        <ele>651.5</ele>
        <time>2022-03-17T13:48:41Z</time>
      </trkpt>
      <trkpt lat="46.82732" lon="5.86424">
        <ele>651.5</ele>
        <time>2022-03-17T13:48:45Z</time>
      </trkpt>
      <trkpt lat="46.82727" lon="5.8642">
        <ele>652.6</ele>
        <time>2022-03-17T13:48:50Z</time>
      </trkpt>
      <trkpt lat="46.82723" lon="5.86418">
        <ele>653.5</ele>
        <time>2022-03-17T13:48:54Z</time>
      </trkpt>
      <trkpt lat="46.82718" lon="5.86416">
        <ele>653.7</ele>
        <time>2022-03-17T13:48:57Z</time>
      </trkpt>
      <trkpt lat="46.82713" lon="5.86413">
        <ele>652.5</ele>
        <time>2022-03-17T13:49:02Z</time>
      </trkpt>
      <trkpt lat="46.82708" lon="5.86415">
        <ele>650.9</ele>
        <time>2022-03-17T13:49:07Z</time>
      </trkpt>
      <trkpt lat="46.82704" lon="5.86411">
        <ele>650</ele>
        <time>2022-03-17T13:49:13Z</time>
      </trkpt>
      <trkpt lat="46.82699" lon="5.86407">
        <ele>649.2</ele>
        <time>2022-03-17T13:49:17Z</time>
      </trkpt>
      <trkpt lat="46.82695" lon="5.86403">
        <ele>647.8</ele>
        <time>2022-03-17T13:49:22Z</time>
      </trkpt>
      <trkpt lat="46.82693" lon="5.86396">
        <ele>646.9</ele>
        <time>2022-03-17T13:49:25Z</time>
      </trkpt>
      <trkpt lat="46.82689" lon="5.86393">
        <ele>645.9</ele>
        <time>2022-03-17T13:49:29Z</time>
      </trkpt>
      <trkpt lat="46.82684" lon="5.86392">
        <ele>645.9</ele>
        <time>2022-03-17T13:49:33Z</time>
      </trkpt>
      <trkpt lat="46.82679" lon="5.86391">
        <ele>645.9</ele>
        <time>2022-03-17T13:49:37Z</time>
      </trkpt>
      <trkpt lat="46.82673" lon="5.8639">
        <ele>646.1</ele>
        <time>2022-03-17T13:49:42Z</time>
      </trkpt>
      <trkpt lat="46.82669" lon="5.86387">
        <ele>646.5</ele>
        <time>2022-03-17T13:49:45Z</time>
      </trkpt>
      <trkpt lat="46.82664" lon="5.86385">
        <ele>647.3</ele>
        <time>2022-03-17T13:49:50Z</time>
      </trkpt>
      <trkpt lat="46.82659" lon="5.86383">
        <ele>648</ele>
        <time>2022-03-17T13:49:55Z</time>
      </trkpt>
      <trkpt lat="46.82654" lon="5.86381">
        <ele>647.7</ele>
        <time>2022-03-17T13:49:59Z</time>
      </trkpt>
      <trkpt lat="46.8265" lon="5.86376">
        <ele>647.3</ele>
        <time>2022-03-17T13:50:03Z</time>
      </trkpt>
      <trkpt lat="46.82645" lon="5.86373">
        <ele>646.2</ele>
        <time>2022-03-17T13:50:07Z</time>
      </trkpt>
      <trkpt lat="46.8264" lon="5.86369">
        <ele>645.5</ele>
        <time>2022-03-17T13:50:12Z</time>
      </trkpt>
      <trkpt lat="46.82637" lon="5.86364">
        <ele>645.6</ele>
        <time>2022-03-17T13:50:15Z</time>
      </trkpt>
      <trkpt lat="46.82634" lon="5.86359">
        <ele>646.2</ele>
        <time>2022-03-17T13:50:18Z</time>
      </trkpt>
      <trkpt lat="46.82631" lon="5.86354">
        <ele>645.9</ele>
        <time>2022-03-17T13:50:31Z</time>
      </trkpt>
      <trkpt lat="46.82629" lon="5.86348">
        <ele>645.6</ele>
        <time>2022-03-17T13:50:34Z</time>
      </trkpt>
      <trkpt lat="46.82626" lon="5.86343">
        <ele>645.6</ele>
        <time>2022-03-17T13:50:39Z</time>
      </trkpt>
      <trkpt lat="46.82623" lon="5.86337">
        <ele>645.2</ele>
        <time>2022-03-17T13:50:45Z</time>
      </trkpt>
      <trkpt lat="46.82622" lon="5.86329">
        <ele>644.9</ele>
        <time>2022-03-17T13:50:48Z</time>
      </trkpt>
      <trkpt lat="46.82621" lon="5.8632">
        <ele>644.6</ele>
        <time>2022-03-17T13:50:51Z</time>
      </trkpt>
      <trkpt lat="46.82619" lon="5.86313">
        <ele>644.3</ele>
        <time>2022-03-17T13:50:54Z</time>
      </trkpt>
      <trkpt lat="46.82616" lon="5.86307">
        <ele>643.3</ele>
        <time>2022-03-17T13:50:59Z</time>
      </trkpt>
      <trkpt lat="46.82614" lon="5.86299">
        <ele>642.6</ele>
        <time>2022-03-17T13:51:03Z</time>
      </trkpt>
      <trkpt lat="46.82613" lon="5.86292">
        <ele>641.8</ele>
        <time>2022-03-17T13:51:06Z</time>
      </trkpt>
      <trkpt lat="46.82609" lon="5.86289">
        <ele>640</ele>
        <time>2022-03-17T13:51:11Z</time>
      </trkpt>
      <trkpt lat="46.82604" lon="5.8629">
        <ele>638.7</ele>
        <time>2022-03-17T13:51:16Z</time>
      </trkpt>
      <trkpt lat="46.82599" lon="5.86288">
        <ele>638.4</ele>
        <time>2022-03-17T13:51:20Z</time>
      </trkpt>
      <trkpt lat="46.82594" lon="5.86287">
        <ele>638.8</ele>
        <time>2022-03-17T13:51:24Z</time>
      </trkpt>
      <trkpt lat="46.82589" lon="5.86286">
        <ele>639.9</ele>
        <time>2022-03-17T13:51:29Z</time>
      </trkpt>
      <trkpt lat="46.82584" lon="5.86286">
        <ele>641.4</ele>
        <time>2022-03-17T13:51:34Z</time>
      </trkpt>
      <trkpt lat="46.8258" lon="5.86285">
        <ele>642.5</ele>
        <time>2022-03-17T13:51:38Z</time>
      </trkpt>
      <trkpt lat="46.82574" lon="5.86287">
        <ele>643.4</ele>
        <time>2022-03-17T13:51:42Z</time>
      </trkpt>
      <trkpt lat="46.8257" lon="5.86288">
        <ele>644.6</ele>
        <time>2022-03-17T13:51:47Z</time>
      </trkpt>
      <trkpt lat="46.82564" lon="5.86288">
        <ele>646.6</ele>
        <time>2022-03-17T13:51:53Z</time>
      </trkpt>
      <trkpt lat="46.8256" lon="5.86291">
        <ele>647</ele>
        <time>2022-03-17T13:51:58Z</time>
      </trkpt>
      <trkpt lat="46.82555" lon="5.86293">
        <ele>647.3</ele>
        <time>2022-03-17T13:52:03Z</time>
      </trkpt>
      <trkpt lat="46.82549" lon="5.86293">
        <ele>647.8</ele>
        <time>2022-03-17T13:52:09Z</time>
      </trkpt>
      <trkpt lat="46.82544" lon="5.86292">
        <ele>648.3</ele>
        <time>2022-03-17T13:52:14Z</time>
      </trkpt>
      <trkpt lat="46.8254" lon="5.86291">
        <ele>649.1</ele>
        <time>2022-03-17T13:52:20Z</time>
      </trkpt>
      <trkpt lat="46.82535" lon="5.8629">
        <ele>649.7</ele>
        <time>2022-03-17T13:52:25Z</time>
      </trkpt>
      <trkpt lat="46.8253" lon="5.86287">
        <ele>648.4</ele>
        <time>2022-03-17T13:52:30Z</time>
      </trkpt>
      <trkpt lat="46.82524" lon="5.86287">
        <ele>646.8</ele>
        <time>2022-03-17T13:52:35Z</time>
      </trkpt>
      <trkpt lat="46.8252" lon="5.86284">
        <ele>645.9</ele>
        <time>2022-03-17T13:52:39Z</time>
      </trkpt>
      <trkpt lat="46.82516" lon="5.86279">
        <ele>644.5</ele>
        <time>2022-03-17T13:52:45Z</time>
      </trkpt>
      <trkpt lat="46.82513" lon="5.86275">
        <ele>644</ele>
        <time>2022-03-17T13:53:19Z</time>
      </trkpt>
      <trkpt lat="46.82513" lon="5.86282">
        <ele>644.5</ele>
        <time>2022-03-17T13:53:34Z</time>
      </trkpt>
    </trkseg>
  </trk>
</gpx>